<?xml version="1.0" encoding="UTF-8" standalone="no" ?>
<gpx xmlns="http://www.topografix.com/GPX/1/1" xmlns:xsi="http://www.w3.org/2001/XMLSchema-instance" xsi:schemaLocation="http://www.topografix.com/GPX/1/1 http://www.topografix.com/GPX/1/1/gpx.xsd" version="1.1" creator="VisuGPX - https://www.visugpx.com">
  <metadata>
    <name>pointe de la Galoppaz</name>
    <desc><![CDATA[sortie Splitboard  avec le CAF. Sortie de repli , beaucoup de plat , par contre très beau point de vue. ]]></desc>
  </metadata>
  <trk>
    <name><![CDATA[pointe de la Galoppaz_1]]></name>
    <trkseg>
      <trkpt lat="45.59178" lon="6.09516">
        <ele>984</ele>
        <time>2013-01-12T08:22:52Z</time>
      </trkpt>
      <trkpt lat="45.59127" lon="6.09471">
        <ele>982</ele>
        <time>2013-01-12T08:24:01Z</time>
      </trkpt>
      <trkpt lat="45.59125" lon="6.0947">
        <ele>982</ele>
        <time>2013-01-12T08:24:03Z</time>
      </trkpt>
      <trkpt lat="45.59123" lon="6.09469">
        <ele>982</ele>
        <time>2013-01-12T08:24:06Z</time>
      </trkpt>
      <trkpt lat="45.59121" lon="6.09467">
        <ele>982</ele>
        <time>2013-01-12T08:24:08Z</time>
      </trkpt>
      <trkpt lat="45.59119" lon="6.09466">
        <ele>982</ele>
        <time>2013-01-12T08:24:10Z</time>
      </trkpt>
      <trkpt lat="45.59118" lon="6.09465">
        <ele>982</ele>
        <time>2013-01-12T08:24:12Z</time>
      </trkpt>
      <trkpt lat="45.59114" lon="6.09463">
        <ele>982</ele>
        <time>2013-01-12T08:24:16Z</time>
      </trkpt>
      <trkpt lat="45.59112" lon="6.09462">
        <ele>982</ele>
        <time>2013-01-12T08:24:18Z</time>
      </trkpt>
      <trkpt lat="45.5911" lon="6.0946">
        <ele>982</ele>
        <time>2013-01-12T08:24:20Z</time>
      </trkpt>
      <trkpt lat="45.59108" lon="6.09459">
        <ele>982</ele>
        <time>2013-01-12T08:24:22Z</time>
      </trkpt>
      <trkpt lat="45.59106" lon="6.09455">
        <ele>982</ele>
        <time>2013-01-12T08:24:25Z</time>
      </trkpt>
      <trkpt lat="45.59103" lon="6.09454">
        <ele>982</ele>
        <time>2013-01-12T08:24:27Z</time>
      </trkpt>
      <trkpt lat="45.59102" lon="6.09453">
        <ele>982</ele>
        <time>2013-01-12T08:24:29Z</time>
      </trkpt>
      <trkpt lat="45.591" lon="6.09451">
        <ele>982</ele>
        <time>2013-01-12T08:24:31Z</time>
      </trkpt>
      <trkpt lat="45.59098" lon="6.09449">
        <ele>982</ele>
        <time>2013-01-12T08:24:33Z</time>
      </trkpt>
      <trkpt lat="45.59096" lon="6.09448">
        <ele>982</ele>
        <time>2013-01-12T08:24:35Z</time>
      </trkpt>
      <trkpt lat="45.59092" lon="6.09445">
        <ele>982</ele>
        <time>2013-01-12T08:24:39Z</time>
      </trkpt>
      <trkpt lat="45.59089" lon="6.09442">
        <ele>982</ele>
        <time>2013-01-12T08:24:42Z</time>
      </trkpt>
      <trkpt lat="45.59087" lon="6.09441">
        <ele>982</ele>
        <time>2013-01-12T08:24:44Z</time>
      </trkpt>
      <trkpt lat="45.59085" lon="6.09439">
        <ele>982</ele>
        <time>2013-01-12T08:24:46Z</time>
      </trkpt>
      <trkpt lat="45.59084" lon="6.09438">
        <ele>982</ele>
        <time>2013-01-12T08:24:48Z</time>
      </trkpt>
      <trkpt lat="45.59082" lon="6.09436">
        <ele>982</ele>
        <time>2013-01-12T08:24:50Z</time>
      </trkpt>
      <trkpt lat="45.5908" lon="6.09434">
        <ele>982</ele>
        <time>2013-01-12T08:24:52Z</time>
      </trkpt>
      <trkpt lat="45.59077" lon="6.09432">
        <ele>982</ele>
        <time>2013-01-12T08:24:56Z</time>
      </trkpt>
      <trkpt lat="45.59075" lon="6.0943">
        <ele>982</ele>
        <time>2013-01-12T08:24:58Z</time>
      </trkpt>
      <trkpt lat="45.59072" lon="6.09428">
        <ele>982</ele>
        <time>2013-01-12T08:25:02Z</time>
      </trkpt>
      <trkpt lat="45.5907" lon="6.09426">
        <ele>982</ele>
        <time>2013-01-12T08:25:04Z</time>
      </trkpt>
      <trkpt lat="45.59067" lon="6.09424">
        <ele>982</ele>
        <time>2013-01-12T08:25:07Z</time>
      </trkpt>
      <trkpt lat="45.59065" lon="6.09423">
        <ele>982</ele>
        <time>2013-01-12T08:25:10Z</time>
      </trkpt>
      <trkpt lat="45.59062" lon="6.09421">
        <ele>982</ele>
        <time>2013-01-12T08:25:14Z</time>
      </trkpt>
      <trkpt lat="45.59061" lon="6.0942">
        <ele>982</ele>
        <time>2013-01-12T08:25:16Z</time>
      </trkpt>
      <trkpt lat="45.59059" lon="6.09419">
        <ele>982</ele>
        <time>2013-01-12T08:25:18Z</time>
      </trkpt>
      <trkpt lat="45.59057" lon="6.09418">
        <ele>982</ele>
        <time>2013-01-12T08:25:20Z</time>
      </trkpt>
      <trkpt lat="45.59054" lon="6.09415">
        <ele>982</ele>
        <time>2013-01-12T08:25:24Z</time>
      </trkpt>
      <trkpt lat="45.59053" lon="6.09414">
        <ele>982</ele>
        <time>2013-01-12T08:25:26Z</time>
      </trkpt>
      <trkpt lat="45.59051" lon="6.09412">
        <ele>982</ele>
        <time>2013-01-12T08:25:28Z</time>
      </trkpt>
      <trkpt lat="45.59047" lon="6.09409">
        <ele>982</ele>
        <time>2013-01-12T08:25:32Z</time>
      </trkpt>
      <trkpt lat="45.59044" lon="6.09407">
        <ele>982</ele>
        <time>2013-01-12T08:25:35Z</time>
      </trkpt>
      <trkpt lat="45.5904" lon="6.09404">
        <ele>982</ele>
        <time>2013-01-12T08:25:39Z</time>
      </trkpt>
      <trkpt lat="45.59036" lon="6.094">
        <ele>982</ele>
        <time>2013-01-12T08:25:43Z</time>
      </trkpt>
      <trkpt lat="45.59032" lon="6.09398">
        <ele>982</ele>
        <time>2013-01-12T08:25:47Z</time>
      </trkpt>
      <trkpt lat="45.59027" lon="6.09396">
        <ele>982</ele>
        <time>2013-01-12T08:25:51Z</time>
      </trkpt>
      <trkpt lat="45.59025" lon="6.09396">
        <ele>982</ele>
        <time>2013-01-12T08:25:53Z</time>
      </trkpt>
      <trkpt lat="45.59023" lon="6.09396">
        <ele>982</ele>
        <time>2013-01-12T08:25:55Z</time>
      </trkpt>
      <trkpt lat="45.59019" lon="6.09397">
        <ele>982</ele>
        <time>2013-01-12T08:25:57Z</time>
      </trkpt>
      <trkpt lat="45.59016" lon="6.09398">
        <ele>982</ele>
        <time>2013-01-12T08:26:00Z</time>
      </trkpt>
      <trkpt lat="45.59013" lon="6.094">
        <ele>982</ele>
        <time>2013-01-12T08:26:03Z</time>
      </trkpt>
      <trkpt lat="45.59009" lon="6.09401">
        <ele>982</ele>
        <time>2013-01-12T08:26:06Z</time>
      </trkpt>
      <trkpt lat="45.59007" lon="6.09402">
        <ele>982</ele>
        <time>2013-01-12T08:26:08Z</time>
      </trkpt>
      <trkpt lat="45.59003" lon="6.09404">
        <ele>982</ele>
        <time>2013-01-12T08:26:11Z</time>
      </trkpt>
      <trkpt lat="45.59" lon="6.09406">
        <ele>982</ele>
        <time>2013-01-12T08:26:14Z</time>
      </trkpt>
      <trkpt lat="45.58997" lon="6.09407">
        <ele>982</ele>
        <time>2013-01-12T08:26:16Z</time>
      </trkpt>
      <trkpt lat="45.58995" lon="6.09409">
        <ele>982</ele>
        <time>2013-01-12T08:26:18Z</time>
      </trkpt>
      <trkpt lat="45.58992" lon="6.0941">
        <ele>982</ele>
        <time>2013-01-12T08:26:21Z</time>
      </trkpt>
      <trkpt lat="45.5899" lon="6.09411">
        <ele>982</ele>
        <time>2013-01-12T08:26:23Z</time>
      </trkpt>
      <trkpt lat="45.58988" lon="6.09412">
        <ele>982</ele>
        <time>2013-01-12T08:26:25Z</time>
      </trkpt>
      <trkpt lat="45.58984" lon="6.09414">
        <ele>982</ele>
        <time>2013-01-12T08:26:28Z</time>
      </trkpt>
      <trkpt lat="45.5898" lon="6.09416">
        <ele>982</ele>
        <time>2013-01-12T08:26:32Z</time>
      </trkpt>
      <trkpt lat="45.58977" lon="6.09417">
        <ele>982</ele>
        <time>2013-01-12T08:26:35Z</time>
      </trkpt>
      <trkpt lat="45.58973" lon="6.09417">
        <ele>982</ele>
        <time>2013-01-12T08:26:39Z</time>
      </trkpt>
      <trkpt lat="45.58969" lon="6.09417">
        <ele>982</ele>
        <time>2013-01-12T08:26:42Z</time>
      </trkpt>
      <trkpt lat="45.58967" lon="6.09417">
        <ele>982</ele>
        <time>2013-01-12T08:26:44Z</time>
      </trkpt>
      <trkpt lat="45.58965" lon="6.09416">
        <ele>982</ele>
        <time>2013-01-12T08:26:46Z</time>
      </trkpt>
      <trkpt lat="45.58962" lon="6.09415">
        <ele>982</ele>
        <time>2013-01-12T08:26:48Z</time>
      </trkpt>
      <trkpt lat="45.5896" lon="6.09415">
        <ele>982</ele>
        <time>2013-01-12T08:26:51Z</time>
      </trkpt>
      <trkpt lat="45.58956" lon="6.09413">
        <ele>982</ele>
        <time>2013-01-12T08:26:54Z</time>
      </trkpt>
      <trkpt lat="45.58955" lon="6.09412">
        <ele>982</ele>
        <time>2013-01-12T08:26:56Z</time>
      </trkpt>
      <trkpt lat="45.58952" lon="6.09411">
        <ele>982</ele>
        <time>2013-01-12T08:26:58Z</time>
      </trkpt>
      <trkpt lat="45.58949" lon="6.09409">
        <ele>982</ele>
        <time>2013-01-12T08:27:00Z</time>
      </trkpt>
      <trkpt lat="45.58947" lon="6.09408">
        <ele>982</ele>
        <time>2013-01-12T08:27:03Z</time>
      </trkpt>
      <trkpt lat="45.58944" lon="6.09405">
        <ele>982</ele>
        <time>2013-01-12T08:27:07Z</time>
      </trkpt>
      <trkpt lat="45.58942" lon="6.09403">
        <ele>982</ele>
        <time>2013-01-12T08:27:09Z</time>
      </trkpt>
      <trkpt lat="45.58939" lon="6.09401">
        <ele>982</ele>
        <time>2013-01-12T08:27:12Z</time>
      </trkpt>
      <trkpt lat="45.58937" lon="6.09399">
        <ele>982</ele>
        <time>2013-01-12T08:27:14Z</time>
      </trkpt>
      <trkpt lat="45.58935" lon="6.09397">
        <ele>983</ele>
        <time>2013-01-12T08:27:16Z</time>
      </trkpt>
      <trkpt lat="45.58933" lon="6.09395">
        <ele>983</ele>
        <time>2013-01-12T08:27:18Z</time>
      </trkpt>
      <trkpt lat="45.58931" lon="6.09394">
        <ele>983</ele>
        <time>2013-01-12T08:27:20Z</time>
      </trkpt>
      <trkpt lat="45.58929" lon="6.09392">
        <ele>983</ele>
        <time>2013-01-12T08:27:22Z</time>
      </trkpt>
      <trkpt lat="45.58927" lon="6.0939">
        <ele>983</ele>
        <time>2013-01-12T08:27:24Z</time>
      </trkpt>
      <trkpt lat="45.58925" lon="6.09388">
        <ele>983</ele>
        <time>2013-01-12T08:27:26Z</time>
      </trkpt>
      <trkpt lat="45.58924" lon="6.09387">
        <ele>983</ele>
        <time>2013-01-12T08:27:28Z</time>
      </trkpt>
      <trkpt lat="45.5892" lon="6.09383">
        <ele>983</ele>
        <time>2013-01-12T08:27:32Z</time>
      </trkpt>
      <trkpt lat="45.58917" lon="6.09381">
        <ele>983</ele>
        <time>2013-01-12T08:27:35Z</time>
      </trkpt>
      <trkpt lat="45.58915" lon="6.09379">
        <ele>983</ele>
        <time>2013-01-12T08:27:37Z</time>
      </trkpt>
      <trkpt lat="45.58914" lon="6.09377">
        <ele>983</ele>
        <time>2013-01-12T08:27:39Z</time>
      </trkpt>
      <trkpt lat="45.5891" lon="6.09375">
        <ele>984</ele>
        <time>2013-01-12T08:27:43Z</time>
      </trkpt>
      <trkpt lat="45.58908" lon="6.09373">
        <ele>984</ele>
        <time>2013-01-12T08:27:45Z</time>
      </trkpt>
      <trkpt lat="45.58907" lon="6.09371">
        <ele>984</ele>
        <time>2013-01-12T08:27:47Z</time>
      </trkpt>
      <trkpt lat="45.58903" lon="6.09367">
        <ele>984</ele>
        <time>2013-01-12T08:27:50Z</time>
      </trkpt>
      <trkpt lat="45.58902" lon="6.09365">
        <ele>984</ele>
        <time>2013-01-12T08:27:52Z</time>
      </trkpt>
      <trkpt lat="45.589" lon="6.09362">
        <ele>984</ele>
        <time>2013-01-12T08:27:55Z</time>
      </trkpt>
      <trkpt lat="45.58898" lon="6.0936">
        <ele>985</ele>
        <time>2013-01-12T08:27:57Z</time>
      </trkpt>
      <trkpt lat="45.58897" lon="6.09357">
        <ele>985</ele>
        <time>2013-01-12T08:27:59Z</time>
      </trkpt>
      <trkpt lat="45.58895" lon="6.09355">
        <ele>985</ele>
        <time>2013-01-12T08:28:01Z</time>
      </trkpt>
      <trkpt lat="45.58894" lon="6.09353">
        <ele>986</ele>
        <time>2013-01-12T08:28:03Z</time>
      </trkpt>
      <trkpt lat="45.58892" lon="6.09351">
        <ele>986</ele>
        <time>2013-01-12T08:28:05Z</time>
      </trkpt>
      <trkpt lat="45.5889" lon="6.09349">
        <ele>986</ele>
        <time>2013-01-12T08:28:07Z</time>
      </trkpt>
      <trkpt lat="45.58886" lon="6.09346">
        <ele>987</ele>
        <time>2013-01-12T08:28:11Z</time>
      </trkpt>
      <trkpt lat="45.58885" lon="6.09343">
        <ele>987</ele>
        <time>2013-01-12T08:28:13Z</time>
      </trkpt>
      <trkpt lat="45.58883" lon="6.09339">
        <ele>987</ele>
        <time>2013-01-12T08:28:16Z</time>
      </trkpt>
      <trkpt lat="45.58879" lon="6.09334">
        <ele>987</ele>
        <time>2013-01-12T08:28:19Z</time>
      </trkpt>
      <trkpt lat="45.58877" lon="6.09332">
        <ele>988</ele>
        <time>2013-01-12T08:28:21Z</time>
      </trkpt>
      <trkpt lat="45.58875" lon="6.0933">
        <ele>988</ele>
        <time>2013-01-12T08:28:24Z</time>
      </trkpt>
      <trkpt lat="45.58871" lon="6.09327">
        <ele>989</ele>
        <time>2013-01-12T08:28:27Z</time>
      </trkpt>
      <trkpt lat="45.5887" lon="6.09325">
        <ele>989</ele>
        <time>2013-01-12T08:28:30Z</time>
      </trkpt>
      <trkpt lat="45.58866" lon="6.09321">
        <ele>990</ele>
        <time>2013-01-12T08:28:33Z</time>
      </trkpt>
      <trkpt lat="45.58864" lon="6.09317">
        <ele>990</ele>
        <time>2013-01-12T08:28:36Z</time>
      </trkpt>
      <trkpt lat="45.58862" lon="6.09314">
        <ele>990</ele>
        <time>2013-01-12T08:28:39Z</time>
      </trkpt>
      <trkpt lat="45.58861" lon="6.09312">
        <ele>990</ele>
        <time>2013-01-12T08:28:41Z</time>
      </trkpt>
      <trkpt lat="45.58859" lon="6.0931">
        <ele>990</ele>
        <time>2013-01-12T08:28:43Z</time>
      </trkpt>
      <trkpt lat="45.58855" lon="6.09306">
        <ele>990</ele>
        <time>2013-01-12T08:28:47Z</time>
      </trkpt>
      <trkpt lat="45.58852" lon="6.09303">
        <ele>991</ele>
        <time>2013-01-12T08:28:51Z</time>
      </trkpt>
      <trkpt lat="45.58848" lon="6.09299">
        <ele>992</ele>
        <time>2013-01-12T08:28:55Z</time>
      </trkpt>
      <trkpt lat="45.58846" lon="6.09298">
        <ele>992</ele>
        <time>2013-01-12T08:28:57Z</time>
      </trkpt>
      <trkpt lat="45.58844" lon="6.09297">
        <ele>993</ele>
        <time>2013-01-12T08:28:59Z</time>
      </trkpt>
      <trkpt lat="45.58842" lon="6.09296">
        <ele>993</ele>
        <time>2013-01-12T08:29:01Z</time>
      </trkpt>
      <trkpt lat="45.5884" lon="6.09293">
        <ele>993</ele>
        <time>2013-01-12T08:29:03Z</time>
      </trkpt>
      <trkpt lat="45.58836" lon="6.09288">
        <ele>993</ele>
        <time>2013-01-12T08:29:07Z</time>
      </trkpt>
      <trkpt lat="45.58833" lon="6.09287">
        <ele>993</ele>
        <time>2013-01-12T08:29:09Z</time>
      </trkpt>
      <trkpt lat="45.58829" lon="6.09285">
        <ele>993</ele>
        <time>2013-01-12T08:29:12Z</time>
      </trkpt>
      <trkpt lat="45.58826" lon="6.09283">
        <ele>993</ele>
        <time>2013-01-12T08:29:15Z</time>
      </trkpt>
      <trkpt lat="45.58823" lon="6.09282">
        <ele>993</ele>
        <time>2013-01-12T08:29:18Z</time>
      </trkpt>
      <trkpt lat="45.5882" lon="6.09281">
        <ele>993</ele>
        <time>2013-01-12T08:29:20Z</time>
      </trkpt>
      <trkpt lat="45.58817" lon="6.09281">
        <ele>993</ele>
        <time>2013-01-12T08:29:23Z</time>
      </trkpt>
      <trkpt lat="45.58813" lon="6.09282">
        <ele>993</ele>
        <time>2013-01-12T08:29:26Z</time>
      </trkpt>
      <trkpt lat="45.5881" lon="6.09281">
        <ele>993</ele>
        <time>2013-01-12T08:29:28Z</time>
      </trkpt>
      <trkpt lat="45.58807" lon="6.09281">
        <ele>993</ele>
        <time>2013-01-12T08:29:30Z</time>
      </trkpt>
      <trkpt lat="45.58804" lon="6.09281">
        <ele>993</ele>
        <time>2013-01-12T08:29:32Z</time>
      </trkpt>
      <trkpt lat="45.58801" lon="6.09281">
        <ele>993</ele>
        <time>2013-01-12T08:29:35Z</time>
      </trkpt>
      <trkpt lat="45.58796" lon="6.09281">
        <ele>993</ele>
        <time>2013-01-12T08:29:37Z</time>
      </trkpt>
      <trkpt lat="45.58794" lon="6.09281">
        <ele>993</ele>
        <time>2013-01-12T08:29:40Z</time>
      </trkpt>
      <trkpt lat="45.5879" lon="6.0928">
        <ele>993</ele>
        <time>2013-01-12T08:29:43Z</time>
      </trkpt>
      <trkpt lat="45.58788" lon="6.0928">
        <ele>993</ele>
        <time>2013-01-12T08:29:45Z</time>
      </trkpt>
      <trkpt lat="45.58785" lon="6.09279">
        <ele>993</ele>
        <time>2013-01-12T08:29:47Z</time>
      </trkpt>
      <trkpt lat="45.58781" lon="6.09278">
        <ele>993</ele>
        <time>2013-01-12T08:29:49Z</time>
      </trkpt>
      <trkpt lat="45.58779" lon="6.09277">
        <ele>993</ele>
        <time>2013-01-12T08:29:52Z</time>
      </trkpt>
      <trkpt lat="45.58775" lon="6.09276">
        <ele>993</ele>
        <time>2013-01-12T08:29:55Z</time>
      </trkpt>
      <trkpt lat="45.58771" lon="6.09274">
        <ele>993</ele>
        <time>2013-01-12T08:29:57Z</time>
      </trkpt>
      <trkpt lat="45.58769" lon="6.09273">
        <ele>993</ele>
        <time>2013-01-12T08:30:00Z</time>
      </trkpt>
      <trkpt lat="45.58765" lon="6.09272">
        <ele>993</ele>
        <time>2013-01-12T08:30:02Z</time>
      </trkpt>
      <trkpt lat="45.58763" lon="6.09271">
        <ele>993</ele>
        <time>2013-01-12T08:30:04Z</time>
      </trkpt>
      <trkpt lat="45.5876" lon="6.0927">
        <ele>993</ele>
        <time>2013-01-12T08:30:06Z</time>
      </trkpt>
      <trkpt lat="45.58758" lon="6.0927">
        <ele>993</ele>
        <time>2013-01-12T08:30:09Z</time>
      </trkpt>
      <trkpt lat="45.58755" lon="6.0927">
        <ele>993</ele>
        <time>2013-01-12T08:30:11Z</time>
      </trkpt>
      <trkpt lat="45.58751" lon="6.0927">
        <ele>993</ele>
        <time>2013-01-12T08:30:14Z</time>
      </trkpt>
      <trkpt lat="45.58749" lon="6.0927">
        <ele>993</ele>
        <time>2013-01-12T08:30:16Z</time>
      </trkpt>
      <trkpt lat="45.58746" lon="6.09269">
        <ele>993</ele>
        <time>2013-01-12T08:30:18Z</time>
      </trkpt>
      <trkpt lat="45.58744" lon="6.0927">
        <ele>993</ele>
        <time>2013-01-12T08:30:20Z</time>
      </trkpt>
      <trkpt lat="45.5874" lon="6.0927">
        <ele>993</ele>
        <time>2013-01-12T08:30:23Z</time>
      </trkpt>
      <trkpt lat="45.58737" lon="6.0927">
        <ele>993</ele>
        <time>2013-01-12T08:30:25Z</time>
      </trkpt>
      <trkpt lat="45.58734" lon="6.09271">
        <ele>993</ele>
        <time>2013-01-12T08:30:28Z</time>
      </trkpt>
      <trkpt lat="45.5873" lon="6.09273">
        <ele>993</ele>
        <time>2013-01-12T08:30:31Z</time>
      </trkpt>
      <trkpt lat="45.58728" lon="6.09274">
        <ele>993</ele>
        <time>2013-01-12T08:30:33Z</time>
      </trkpt>
      <trkpt lat="45.58725" lon="6.09275">
        <ele>993</ele>
        <time>2013-01-12T08:30:35Z</time>
      </trkpt>
      <trkpt lat="45.58723" lon="6.09276">
        <ele>993</ele>
        <time>2013-01-12T08:30:37Z</time>
      </trkpt>
      <trkpt lat="45.5872" lon="6.09277">
        <ele>993</ele>
        <time>2013-01-12T08:30:39Z</time>
      </trkpt>
      <trkpt lat="45.58717" lon="6.09279">
        <ele>993</ele>
        <time>2013-01-12T08:30:41Z</time>
      </trkpt>
      <trkpt lat="45.58713" lon="6.09281">
        <ele>993</ele>
        <time>2013-01-12T08:30:44Z</time>
      </trkpt>
      <trkpt lat="45.58711" lon="6.09283">
        <ele>993</ele>
        <time>2013-01-12T08:30:47Z</time>
      </trkpt>
      <trkpt lat="45.58707" lon="6.09286">
        <ele>993</ele>
        <time>2013-01-12T08:30:51Z</time>
      </trkpt>
      <trkpt lat="45.58703" lon="6.09289">
        <ele>993</ele>
        <time>2013-01-12T08:30:54Z</time>
      </trkpt>
      <trkpt lat="45.587" lon="6.09291">
        <ele>993</ele>
        <time>2013-01-12T08:30:57Z</time>
      </trkpt>
      <trkpt lat="45.58698" lon="6.09293">
        <ele>993</ele>
        <time>2013-01-12T08:30:59Z</time>
      </trkpt>
      <trkpt lat="45.58696" lon="6.09295">
        <ele>993</ele>
        <time>2013-01-12T08:31:01Z</time>
      </trkpt>
      <trkpt lat="45.58693" lon="6.09296">
        <ele>993</ele>
        <time>2013-01-12T08:31:03Z</time>
      </trkpt>
      <trkpt lat="45.5869" lon="6.09298">
        <ele>993</ele>
        <time>2013-01-12T08:31:05Z</time>
      </trkpt>
      <trkpt lat="45.58687" lon="6.09301">
        <ele>993</ele>
        <time>2013-01-12T08:31:09Z</time>
      </trkpt>
      <trkpt lat="45.58684" lon="6.09301">
        <ele>993</ele>
        <time>2013-01-12T08:31:11Z</time>
      </trkpt>
      <trkpt lat="45.58682" lon="6.09302">
        <ele>993</ele>
        <time>2013-01-12T08:31:13Z</time>
      </trkpt>
      <trkpt lat="45.58679" lon="6.09303">
        <ele>993</ele>
        <time>2013-01-12T08:31:16Z</time>
      </trkpt>
      <trkpt lat="45.58674" lon="6.09305">
        <ele>993</ele>
        <time>2013-01-12T08:31:20Z</time>
      </trkpt>
      <trkpt lat="45.58672" lon="6.09305">
        <ele>993</ele>
        <time>2013-01-12T08:31:22Z</time>
      </trkpt>
      <trkpt lat="45.58668" lon="6.09305">
        <ele>993</ele>
        <time>2013-01-12T08:31:24Z</time>
      </trkpt>
      <trkpt lat="45.58665" lon="6.09306">
        <ele>993</ele>
        <time>2013-01-12T08:31:28Z</time>
      </trkpt>
      <trkpt lat="45.58661" lon="6.09305">
        <ele>993</ele>
        <time>2013-01-12T08:31:31Z</time>
      </trkpt>
      <trkpt lat="45.58658" lon="6.09305">
        <ele>993</ele>
        <time>2013-01-12T08:31:34Z</time>
      </trkpt>
      <trkpt lat="45.58654" lon="6.09305">
        <ele>993</ele>
        <time>2013-01-12T08:31:36Z</time>
      </trkpt>
      <trkpt lat="45.58651" lon="6.09303">
        <ele>993</ele>
        <time>2013-01-12T08:31:40Z</time>
      </trkpt>
      <trkpt lat="45.5865" lon="6.09302">
        <ele>993</ele>
        <time>2013-01-12T08:31:42Z</time>
      </trkpt>
      <trkpt lat="45.58649" lon="6.093">
        <ele>993</ele>
        <time>2013-01-12T08:31:45Z</time>
      </trkpt>
      <trkpt lat="45.58648" lon="6.09299">
        <ele>993</ele>
        <time>2013-01-12T08:31:48Z</time>
      </trkpt>
      <trkpt lat="45.58647" lon="6.09297">
        <ele>993</ele>
        <time>2013-01-12T08:31:53Z</time>
      </trkpt>
      <trkpt lat="45.58646" lon="6.09297">
        <ele>993</ele>
        <time>2013-01-12T08:31:56Z</time>
      </trkpt>
      <trkpt lat="45.58644" lon="6.09298">
        <ele>993</ele>
        <time>2013-01-12T08:31:58Z</time>
      </trkpt>
      <trkpt lat="45.58643" lon="6.09299">
        <ele>993</ele>
        <time>2013-01-12T08:32:00Z</time>
      </trkpt>
      <trkpt lat="45.58642" lon="6.093">
        <ele>993</ele>
        <time>2013-01-12T08:32:02Z</time>
      </trkpt>
      <trkpt lat="45.5864" lon="6.09302">
        <ele>993</ele>
        <time>2013-01-12T08:32:04Z</time>
      </trkpt>
      <trkpt lat="45.58638" lon="6.09303">
        <ele>993</ele>
        <time>2013-01-12T08:32:06Z</time>
      </trkpt>
      <trkpt lat="45.58636" lon="6.09303">
        <ele>993</ele>
        <time>2013-01-12T08:32:08Z</time>
      </trkpt>
      <trkpt lat="45.58634" lon="6.09303">
        <ele>993</ele>
        <time>2013-01-12T08:32:10Z</time>
      </trkpt>
      <trkpt lat="45.58631" lon="6.09303">
        <ele>993</ele>
        <time>2013-01-12T08:32:12Z</time>
      </trkpt>
      <trkpt lat="45.58628" lon="6.09303">
        <ele>993</ele>
        <time>2013-01-12T08:32:15Z</time>
      </trkpt>
      <trkpt lat="45.58626" lon="6.09303">
        <ele>993</ele>
        <time>2013-01-12T08:32:17Z</time>
      </trkpt>
      <trkpt lat="45.58625" lon="6.09303">
        <ele>993</ele>
        <time>2013-01-12T08:32:19Z</time>
      </trkpt>
      <trkpt lat="45.58621" lon="6.09302">
        <ele>993</ele>
        <time>2013-01-12T08:32:23Z</time>
      </trkpt>
      <trkpt lat="45.58618" lon="6.09302">
        <ele>993</ele>
        <time>2013-01-12T08:32:25Z</time>
      </trkpt>
      <trkpt lat="45.58615" lon="6.09301">
        <ele>993</ele>
        <time>2013-01-12T08:32:28Z</time>
      </trkpt>
      <trkpt lat="45.58612" lon="6.09301">
        <ele>993</ele>
        <time>2013-01-12T08:32:31Z</time>
      </trkpt>
      <trkpt lat="45.5861" lon="6.09301">
        <ele>993</ele>
        <time>2013-01-12T08:32:33Z</time>
      </trkpt>
      <trkpt lat="45.58608" lon="6.093">
        <ele>993</ele>
        <time>2013-01-12T08:32:35Z</time>
      </trkpt>
      <trkpt lat="45.58605" lon="6.09301">
        <ele>993</ele>
        <time>2013-01-12T08:32:37Z</time>
      </trkpt>
      <trkpt lat="45.58603" lon="6.09301">
        <ele>993</ele>
        <time>2013-01-12T08:32:39Z</time>
      </trkpt>
      <trkpt lat="45.58601" lon="6.09301">
        <ele>993</ele>
        <time>2013-01-12T08:32:41Z</time>
      </trkpt>
      <trkpt lat="45.58598" lon="6.09301">
        <ele>993</ele>
        <time>2013-01-12T08:32:43Z</time>
      </trkpt>
      <trkpt lat="45.58595" lon="6.09301">
        <ele>993</ele>
        <time>2013-01-12T08:32:46Z</time>
      </trkpt>
      <trkpt lat="45.58593" lon="6.09302">
        <ele>993</ele>
        <time>2013-01-12T08:32:48Z</time>
      </trkpt>
      <trkpt lat="45.58591" lon="6.09301">
        <ele>993</ele>
        <time>2013-01-12T08:32:50Z</time>
      </trkpt>
      <trkpt lat="45.58587" lon="6.09302">
        <ele>993</ele>
        <time>2013-01-12T08:32:54Z</time>
      </trkpt>
      <trkpt lat="45.58584" lon="6.09302">
        <ele>993</ele>
        <time>2013-01-12T08:32:56Z</time>
      </trkpt>
      <trkpt lat="45.5858" lon="6.09301">
        <ele>993</ele>
        <time>2013-01-12T08:32:59Z</time>
      </trkpt>
      <trkpt lat="45.58577" lon="6.09301">
        <ele>993</ele>
        <time>2013-01-12T08:33:02Z</time>
      </trkpt>
      <trkpt lat="45.58574" lon="6.09301">
        <ele>993</ele>
        <time>2013-01-12T08:33:04Z</time>
      </trkpt>
      <trkpt lat="45.58571" lon="6.09301">
        <ele>993</ele>
        <time>2013-01-12T08:33:07Z</time>
      </trkpt>
      <trkpt lat="45.58569" lon="6.093">
        <ele>993</ele>
        <time>2013-01-12T08:33:09Z</time>
      </trkpt>
      <trkpt lat="45.58567" lon="6.09299">
        <ele>993</ele>
        <time>2013-01-12T08:33:11Z</time>
      </trkpt>
      <trkpt lat="45.58565" lon="6.09297">
        <ele>993</ele>
        <time>2013-01-12T08:33:13Z</time>
      </trkpt>
      <trkpt lat="45.58561" lon="6.09295">
        <ele>994</ele>
        <time>2013-01-12T08:33:16Z</time>
      </trkpt>
      <trkpt lat="45.58559" lon="6.09293">
        <ele>994</ele>
        <time>2013-01-12T08:33:18Z</time>
      </trkpt>
      <trkpt lat="45.58556" lon="6.09291">
        <ele>994</ele>
        <time>2013-01-12T08:33:21Z</time>
      </trkpt>
      <trkpt lat="45.58554" lon="6.09289">
        <ele>995</ele>
        <time>2013-01-12T08:33:23Z</time>
      </trkpt>
      <trkpt lat="45.58552" lon="6.09287">
        <ele>995</ele>
        <time>2013-01-12T08:33:25Z</time>
      </trkpt>
      <trkpt lat="45.58551" lon="6.09284">
        <ele>995</ele>
        <time>2013-01-12T08:33:27Z</time>
      </trkpt>
      <trkpt lat="45.58548" lon="6.0928">
        <ele>996</ele>
        <time>2013-01-12T08:33:29Z</time>
      </trkpt>
      <trkpt lat="45.58547" lon="6.09278">
        <ele>996</ele>
        <time>2013-01-12T08:33:32Z</time>
      </trkpt>
      <trkpt lat="45.58545" lon="6.09272">
        <ele>997</ele>
        <time>2013-01-12T08:33:36Z</time>
      </trkpt>
      <trkpt lat="45.58543" lon="6.09269">
        <ele>998</ele>
        <time>2013-01-12T08:33:40Z</time>
      </trkpt>
      <trkpt lat="45.58539" lon="6.09257">
        <ele>998</ele>
        <time>2013-01-12T08:33:48Z</time>
      </trkpt>
      <trkpt lat="45.58537" lon="6.09251">
        <ele>998</ele>
        <time>2013-01-12T08:33:52Z</time>
      </trkpt>
      <trkpt lat="45.58536" lon="6.09248">
        <ele>998</ele>
        <time>2013-01-12T08:33:54Z</time>
      </trkpt>
      <trkpt lat="45.58536" lon="6.09246">
        <ele>998</ele>
        <time>2013-01-12T08:33:56Z</time>
      </trkpt>
      <trkpt lat="45.58534" lon="6.09242">
        <ele>998</ele>
        <time>2013-01-12T08:34:00Z</time>
      </trkpt>
      <trkpt lat="45.58532" lon="6.0924">
        <ele>998</ele>
        <time>2013-01-12T08:34:02Z</time>
      </trkpt>
      <trkpt lat="45.5853" lon="6.09237">
        <ele>998</ele>
        <time>2013-01-12T08:34:04Z</time>
      </trkpt>
      <trkpt lat="45.58529" lon="6.09235">
        <ele>998</ele>
        <time>2013-01-12T08:34:06Z</time>
      </trkpt>
      <trkpt lat="45.58527" lon="6.09234">
        <ele>998</ele>
        <time>2013-01-12T08:34:08Z</time>
      </trkpt>
      <trkpt lat="45.58525" lon="6.09232">
        <ele>998</ele>
        <time>2013-01-12T08:34:10Z</time>
      </trkpt>
      <trkpt lat="45.58522" lon="6.09228">
        <ele>998</ele>
        <time>2013-01-12T08:34:13Z</time>
      </trkpt>
      <trkpt lat="45.58521" lon="6.09226">
        <ele>998</ele>
        <time>2013-01-12T08:34:15Z</time>
      </trkpt>
      <trkpt lat="45.58518" lon="6.09222">
        <ele>998</ele>
        <time>2013-01-12T08:34:19Z</time>
      </trkpt>
      <trkpt lat="45.58515" lon="6.09218">
        <ele>998</ele>
        <time>2013-01-12T08:34:21Z</time>
      </trkpt>
      <trkpt lat="45.58515" lon="6.09215">
        <ele>998</ele>
        <time>2013-01-12T08:34:24Z</time>
      </trkpt>
      <trkpt lat="45.58513" lon="6.09213">
        <ele>998</ele>
        <time>2013-01-12T08:34:26Z</time>
      </trkpt>
      <trkpt lat="45.58511" lon="6.0921">
        <ele>998</ele>
        <time>2013-01-12T08:34:28Z</time>
      </trkpt>
      <trkpt lat="45.58509" lon="6.09207">
        <ele>998</ele>
        <time>2013-01-12T08:34:31Z</time>
      </trkpt>
      <trkpt lat="45.58507" lon="6.09204">
        <ele>998</ele>
        <time>2013-01-12T08:34:33Z</time>
      </trkpt>
      <trkpt lat="45.58504" lon="6.09199">
        <ele>999</ele>
        <time>2013-01-12T08:34:37Z</time>
      </trkpt>
      <trkpt lat="45.58503" lon="6.09198">
        <ele>999</ele>
        <time>2013-01-12T08:34:39Z</time>
      </trkpt>
      <trkpt lat="45.58501" lon="6.09195">
        <ele>999</ele>
        <time>2013-01-12T08:34:41Z</time>
      </trkpt>
      <trkpt lat="45.58499" lon="6.09193">
        <ele>999</ele>
        <time>2013-01-12T08:34:43Z</time>
      </trkpt>
      <trkpt lat="45.58496" lon="6.09188">
        <ele>1000</ele>
        <time>2013-01-12T08:34:47Z</time>
      </trkpt>
      <trkpt lat="45.58493" lon="6.09184">
        <ele>1000</ele>
        <time>2013-01-12T08:34:51Z</time>
      </trkpt>
      <trkpt lat="45.58491" lon="6.09182">
        <ele>1000</ele>
        <time>2013-01-12T08:34:53Z</time>
      </trkpt>
      <trkpt lat="45.5849" lon="6.0918">
        <ele>1000</ele>
        <time>2013-01-12T08:34:55Z</time>
      </trkpt>
      <trkpt lat="45.58488" lon="6.09178">
        <ele>1000</ele>
        <time>2013-01-12T08:34:57Z</time>
      </trkpt>
      <trkpt lat="45.58487" lon="6.09176">
        <ele>1000</ele>
        <time>2013-01-12T08:34:59Z</time>
      </trkpt>
      <trkpt lat="45.58485" lon="6.09173">
        <ele>1000</ele>
        <time>2013-01-12T08:35:01Z</time>
      </trkpt>
      <trkpt lat="45.58484" lon="6.09171">
        <ele>1000</ele>
        <time>2013-01-12T08:35:03Z</time>
      </trkpt>
      <trkpt lat="45.5848" lon="6.09168">
        <ele>1001</ele>
        <time>2013-01-12T08:35:07Z</time>
      </trkpt>
      <trkpt lat="45.58478" lon="6.09166">
        <ele>1001</ele>
        <time>2013-01-12T08:35:09Z</time>
      </trkpt>
      <trkpt lat="45.58476" lon="6.09164">
        <ele>1001</ele>
        <time>2013-01-12T08:35:11Z</time>
      </trkpt>
      <trkpt lat="45.58473" lon="6.0916">
        <ele>1002</ele>
        <time>2013-01-12T08:35:15Z</time>
      </trkpt>
      <trkpt lat="45.58471" lon="6.09159">
        <ele>1002</ele>
        <time>2013-01-12T08:35:17Z</time>
      </trkpt>
      <trkpt lat="45.58467" lon="6.09156">
        <ele>1002</ele>
        <time>2013-01-12T08:35:21Z</time>
      </trkpt>
      <trkpt lat="45.58463" lon="6.09152">
        <ele>1002</ele>
        <time>2013-01-12T08:35:25Z</time>
      </trkpt>
      <trkpt lat="45.58461" lon="6.0915">
        <ele>1002</ele>
        <time>2013-01-12T08:35:27Z</time>
      </trkpt>
      <trkpt lat="45.5846" lon="6.09148">
        <ele>1002</ele>
        <time>2013-01-12T08:35:29Z</time>
      </trkpt>
      <trkpt lat="45.58458" lon="6.09146">
        <ele>1002</ele>
        <time>2013-01-12T08:35:31Z</time>
      </trkpt>
      <trkpt lat="45.58455" lon="6.09145">
        <ele>1002</ele>
        <time>2013-01-12T08:35:34Z</time>
      </trkpt>
      <trkpt lat="45.58453" lon="6.09143">
        <ele>1002</ele>
        <time>2013-01-12T08:35:36Z</time>
      </trkpt>
      <trkpt lat="45.5845" lon="6.09141">
        <ele>1002</ele>
        <time>2013-01-12T08:35:39Z</time>
      </trkpt>
      <trkpt lat="45.58447" lon="6.09139">
        <ele>1002</ele>
        <time>2013-01-12T08:35:41Z</time>
      </trkpt>
      <trkpt lat="45.58445" lon="6.09138">
        <ele>1002</ele>
        <time>2013-01-12T08:35:44Z</time>
      </trkpt>
      <trkpt lat="45.58443" lon="6.09136">
        <ele>1002</ele>
        <time>2013-01-12T08:35:46Z</time>
      </trkpt>
      <trkpt lat="45.5844" lon="6.09134">
        <ele>1002</ele>
        <time>2013-01-12T08:35:49Z</time>
      </trkpt>
      <trkpt lat="45.58438" lon="6.09133">
        <ele>1002</ele>
        <time>2013-01-12T08:35:51Z</time>
      </trkpt>
      <trkpt lat="45.58436" lon="6.09132">
        <ele>1002</ele>
        <time>2013-01-12T08:35:53Z</time>
      </trkpt>
      <trkpt lat="45.58434" lon="6.09131">
        <ele>1002</ele>
        <time>2013-01-12T08:35:55Z</time>
      </trkpt>
      <trkpt lat="45.58429" lon="6.09128">
        <ele>1002</ele>
        <time>2013-01-12T08:35:59Z</time>
      </trkpt>
      <trkpt lat="45.58427" lon="6.09127">
        <ele>1002</ele>
        <time>2013-01-12T08:36:01Z</time>
      </trkpt>
      <trkpt lat="45.58424" lon="6.09126">
        <ele>1002</ele>
        <time>2013-01-12T08:36:03Z</time>
      </trkpt>
      <trkpt lat="45.58422" lon="6.09124">
        <ele>1002</ele>
        <time>2013-01-12T08:36:05Z</time>
      </trkpt>
      <trkpt lat="45.58418" lon="6.09122">
        <ele>1002</ele>
        <time>2013-01-12T08:36:09Z</time>
      </trkpt>
      <trkpt lat="45.58415" lon="6.09121">
        <ele>1002</ele>
        <time>2013-01-12T08:36:11Z</time>
      </trkpt>
      <trkpt lat="45.58413" lon="6.09121">
        <ele>1002</ele>
        <time>2013-01-12T08:36:13Z</time>
      </trkpt>
      <trkpt lat="45.58411" lon="6.09119">
        <ele>1002</ele>
        <time>2013-01-12T08:36:15Z</time>
      </trkpt>
      <trkpt lat="45.58408" lon="6.09118">
        <ele>1002</ele>
        <time>2013-01-12T08:36:18Z</time>
      </trkpt>
      <trkpt lat="45.58405" lon="6.09117">
        <ele>1002</ele>
        <time>2013-01-12T08:36:20Z</time>
      </trkpt>
      <trkpt lat="45.58402" lon="6.09116">
        <ele>1002</ele>
        <time>2013-01-12T08:36:23Z</time>
      </trkpt>
      <trkpt lat="45.584" lon="6.09115">
        <ele>1003</ele>
        <time>2013-01-12T08:36:25Z</time>
      </trkpt>
      <trkpt lat="45.58397" lon="6.09116">
        <ele>1003</ele>
        <time>2013-01-12T08:36:27Z</time>
      </trkpt>
      <trkpt lat="45.58393" lon="6.09116">
        <ele>1003</ele>
        <time>2013-01-12T08:36:30Z</time>
      </trkpt>
      <trkpt lat="45.58391" lon="6.09116">
        <ele>1003</ele>
        <time>2013-01-12T08:36:32Z</time>
      </trkpt>
      <trkpt lat="45.58389" lon="6.09116">
        <ele>1003</ele>
        <time>2013-01-12T08:36:34Z</time>
      </trkpt>
      <trkpt lat="45.58384" lon="6.09118">
        <ele>1004</ele>
        <time>2013-01-12T08:36:37Z</time>
      </trkpt>
      <trkpt lat="45.58382" lon="6.09119">
        <ele>1004</ele>
        <time>2013-01-12T08:36:40Z</time>
      </trkpt>
      <trkpt lat="45.58379" lon="6.09122">
        <ele>1004</ele>
        <time>2013-01-12T08:36:43Z</time>
      </trkpt>
      <trkpt lat="45.58377" lon="6.09123">
        <ele>1005</ele>
        <time>2013-01-12T08:36:45Z</time>
      </trkpt>
      <trkpt lat="45.58375" lon="6.09126">
        <ele>1005</ele>
        <time>2013-01-12T08:36:47Z</time>
      </trkpt>
      <trkpt lat="45.58373" lon="6.09128">
        <ele>1005</ele>
        <time>2013-01-12T08:36:49Z</time>
      </trkpt>
      <trkpt lat="45.58371" lon="6.0913">
        <ele>1006</ele>
        <time>2013-01-12T08:36:51Z</time>
      </trkpt>
      <trkpt lat="45.58369" lon="6.0913">
        <ele>1006</ele>
        <time>2013-01-12T08:36:53Z</time>
      </trkpt>
      <trkpt lat="45.58366" lon="6.09131">
        <ele>1007</ele>
        <time>2013-01-12T08:36:55Z</time>
      </trkpt>
      <trkpt lat="45.58364" lon="6.09131">
        <ele>1007</ele>
        <time>2013-01-12T08:36:57Z</time>
      </trkpt>
      <trkpt lat="45.58362" lon="6.09132">
        <ele>1007</ele>
        <time>2013-01-12T08:36:59Z</time>
      </trkpt>
      <trkpt lat="45.5836" lon="6.09132">
        <ele>1007</ele>
        <time>2013-01-12T08:37:01Z</time>
      </trkpt>
      <trkpt lat="45.58357" lon="6.09131">
        <ele>1007</ele>
        <time>2013-01-12T08:37:04Z</time>
      </trkpt>
      <trkpt lat="45.58354" lon="6.0913">
        <ele>1007</ele>
        <time>2013-01-12T08:37:06Z</time>
      </trkpt>
      <trkpt lat="45.58351" lon="6.09128">
        <ele>1007</ele>
        <time>2013-01-12T08:37:09Z</time>
      </trkpt>
      <trkpt lat="45.58348" lon="6.09127">
        <ele>1007</ele>
        <time>2013-01-12T08:37:11Z</time>
      </trkpt>
      <trkpt lat="45.58346" lon="6.09126">
        <ele>1007</ele>
        <time>2013-01-12T08:37:13Z</time>
      </trkpt>
      <trkpt lat="45.58344" lon="6.09125">
        <ele>1007</ele>
        <time>2013-01-12T08:37:15Z</time>
      </trkpt>
      <trkpt lat="45.58342" lon="6.09124">
        <ele>1007</ele>
        <time>2013-01-12T08:37:17Z</time>
      </trkpt>
      <trkpt lat="45.5834" lon="6.09122">
        <ele>1007</ele>
        <time>2013-01-12T08:37:19Z</time>
      </trkpt>
      <trkpt lat="45.58337" lon="6.09119">
        <ele>1007</ele>
        <time>2013-01-12T08:37:22Z</time>
      </trkpt>
      <trkpt lat="45.58334" lon="6.09118">
        <ele>1007</ele>
        <time>2013-01-12T08:37:24Z</time>
      </trkpt>
      <trkpt lat="45.5833" lon="6.09116">
        <ele>1007</ele>
        <time>2013-01-12T08:37:27Z</time>
      </trkpt>
      <trkpt lat="45.58328" lon="6.09115">
        <ele>1007</ele>
        <time>2013-01-12T08:37:29Z</time>
      </trkpt>
      <trkpt lat="45.58325" lon="6.09113">
        <ele>1007</ele>
        <time>2013-01-12T08:37:32Z</time>
      </trkpt>
      <trkpt lat="45.58324" lon="6.09111">
        <ele>1007</ele>
        <time>2013-01-12T08:37:34Z</time>
      </trkpt>
      <trkpt lat="45.58321" lon="6.0911">
        <ele>1007</ele>
        <time>2013-01-12T08:37:36Z</time>
      </trkpt>
      <trkpt lat="45.58319" lon="6.09108">
        <ele>1007</ele>
        <time>2013-01-12T08:37:38Z</time>
      </trkpt>
      <trkpt lat="45.58317" lon="6.09107">
        <ele>1007</ele>
        <time>2013-01-12T08:37:40Z</time>
      </trkpt>
      <trkpt lat="45.58315" lon="6.09105">
        <ele>1007</ele>
        <time>2013-01-12T08:37:42Z</time>
      </trkpt>
      <trkpt lat="45.58312" lon="6.09104">
        <ele>1007</ele>
        <time>2013-01-12T08:37:44Z</time>
      </trkpt>
      <trkpt lat="45.58309" lon="6.09103">
        <ele>1007</ele>
        <time>2013-01-12T08:37:46Z</time>
      </trkpt>
      <trkpt lat="45.58306" lon="6.09102">
        <ele>1007</ele>
        <time>2013-01-12T08:37:49Z</time>
      </trkpt>
      <trkpt lat="45.58305" lon="6.09101">
        <ele>1007</ele>
        <time>2013-01-12T08:37:51Z</time>
      </trkpt>
      <trkpt lat="45.58303" lon="6.09099">
        <ele>1007</ele>
        <time>2013-01-12T08:37:53Z</time>
      </trkpt>
      <trkpt lat="45.583" lon="6.09096">
        <ele>1007</ele>
        <time>2013-01-12T08:37:55Z</time>
      </trkpt>
      <trkpt lat="45.58298" lon="6.09094">
        <ele>1007</ele>
        <time>2013-01-12T08:37:58Z</time>
      </trkpt>
      <trkpt lat="45.58294" lon="6.09091">
        <ele>1007</ele>
        <time>2013-01-12T08:38:02Z</time>
      </trkpt>
      <trkpt lat="45.58291" lon="6.09088">
        <ele>1007</ele>
        <time>2013-01-12T08:38:05Z</time>
      </trkpt>
      <trkpt lat="45.5829" lon="6.09085">
        <ele>1007</ele>
        <time>2013-01-12T08:38:07Z</time>
      </trkpt>
      <trkpt lat="45.58288" lon="6.09083">
        <ele>1007</ele>
        <time>2013-01-12T08:38:09Z</time>
      </trkpt>
      <trkpt lat="45.58287" lon="6.09081">
        <ele>1007</ele>
        <time>2013-01-12T08:38:11Z</time>
      </trkpt>
      <trkpt lat="45.58285" lon="6.09079">
        <ele>1007</ele>
        <time>2013-01-12T08:38:13Z</time>
      </trkpt>
      <trkpt lat="45.58284" lon="6.09076">
        <ele>1007</ele>
        <time>2013-01-12T08:38:15Z</time>
      </trkpt>
      <trkpt lat="45.58282" lon="6.09074">
        <ele>1007</ele>
        <time>2013-01-12T08:38:17Z</time>
      </trkpt>
      <trkpt lat="45.58281" lon="6.09071">
        <ele>1007</ele>
        <time>2013-01-12T08:38:19Z</time>
      </trkpt>
      <trkpt lat="45.58278" lon="6.09066">
        <ele>1007</ele>
        <time>2013-01-12T08:38:23Z</time>
      </trkpt>
      <trkpt lat="45.58274" lon="6.09063">
        <ele>1007</ele>
        <time>2013-01-12T08:38:27Z</time>
      </trkpt>
      <trkpt lat="45.58273" lon="6.09062">
        <ele>1007</ele>
        <time>2013-01-12T08:38:29Z</time>
      </trkpt>
      <trkpt lat="45.58271" lon="6.09061">
        <ele>1007</ele>
        <time>2013-01-12T08:38:31Z</time>
      </trkpt>
      <trkpt lat="45.58269" lon="6.09061">
        <ele>1007</ele>
        <time>2013-01-12T08:38:33Z</time>
      </trkpt>
      <trkpt lat="45.58267" lon="6.09061">
        <ele>1007</ele>
        <time>2013-01-12T08:38:35Z</time>
      </trkpt>
      <trkpt lat="45.58265" lon="6.09061">
        <ele>1007</ele>
        <time>2013-01-12T08:38:37Z</time>
      </trkpt>
      <trkpt lat="45.58264" lon="6.0906">
        <ele>1007</ele>
        <time>2013-01-12T08:38:40Z</time>
      </trkpt>
      <trkpt lat="45.58263" lon="6.09058">
        <ele>1007</ele>
        <time>2013-01-12T08:38:42Z</time>
      </trkpt>
      <trkpt lat="45.58261" lon="6.09056">
        <ele>1007</ele>
        <time>2013-01-12T08:38:44Z</time>
      </trkpt>
      <trkpt lat="45.5826" lon="6.09053">
        <ele>1007</ele>
        <time>2013-01-12T08:38:46Z</time>
      </trkpt>
      <trkpt lat="45.58258" lon="6.09052">
        <ele>1007</ele>
        <time>2013-01-12T08:38:48Z</time>
      </trkpt>
      <trkpt lat="45.58257" lon="6.09049">
        <ele>1007</ele>
        <time>2013-01-12T08:38:50Z</time>
      </trkpt>
      <trkpt lat="45.58255" lon="6.09044">
        <ele>1007</ele>
        <time>2013-01-12T08:38:54Z</time>
      </trkpt>
      <trkpt lat="45.58253" lon="6.0904">
        <ele>1007</ele>
        <time>2013-01-12T08:38:57Z</time>
      </trkpt>
      <trkpt lat="45.58252" lon="6.09038">
        <ele>1007</ele>
        <time>2013-01-12T08:38:59Z</time>
      </trkpt>
      <trkpt lat="45.5825" lon="6.09036">
        <ele>1007</ele>
        <time>2013-01-12T08:39:01Z</time>
      </trkpt>
      <trkpt lat="45.58248" lon="6.09034">
        <ele>1007</ele>
        <time>2013-01-12T08:39:03Z</time>
      </trkpt>
      <trkpt lat="45.58246" lon="6.09031">
        <ele>1007</ele>
        <time>2013-01-12T08:39:05Z</time>
      </trkpt>
      <trkpt lat="45.58244" lon="6.09029">
        <ele>1007</ele>
        <time>2013-01-12T08:39:07Z</time>
      </trkpt>
      <trkpt lat="45.58242" lon="6.09027">
        <ele>1007</ele>
        <time>2013-01-12T08:39:09Z</time>
      </trkpt>
      <trkpt lat="45.58241" lon="6.09025">
        <ele>1007</ele>
        <time>2013-01-12T08:39:11Z</time>
      </trkpt>
      <trkpt lat="45.58239" lon="6.09022">
        <ele>1007</ele>
        <time>2013-01-12T08:39:13Z</time>
      </trkpt>
      <trkpt lat="45.58237" lon="6.09021">
        <ele>1007</ele>
        <time>2013-01-12T08:39:15Z</time>
      </trkpt>
      <trkpt lat="45.58234" lon="6.09018">
        <ele>1008</ele>
        <time>2013-01-12T08:39:17Z</time>
      </trkpt>
      <trkpt lat="45.58232" lon="6.09016">
        <ele>1008</ele>
        <time>2013-01-12T08:39:19Z</time>
      </trkpt>
      <trkpt lat="45.5823" lon="6.09014">
        <ele>1008</ele>
        <time>2013-01-12T08:39:22Z</time>
      </trkpt>
      <trkpt lat="45.58229" lon="6.09012">
        <ele>1009</ele>
        <time>2013-01-12T08:39:24Z</time>
      </trkpt>
      <trkpt lat="45.58226" lon="6.09011">
        <ele>1009</ele>
        <time>2013-01-12T08:39:26Z</time>
      </trkpt>
      <trkpt lat="45.58224" lon="6.09009">
        <ele>1009</ele>
        <time>2013-01-12T08:39:28Z</time>
      </trkpt>
      <trkpt lat="45.58223" lon="6.09008">
        <ele>1009</ele>
        <time>2013-01-12T08:39:30Z</time>
      </trkpt>
      <trkpt lat="45.5822" lon="6.09008">
        <ele>1010</ele>
        <time>2013-01-12T08:39:32Z</time>
      </trkpt>
      <trkpt lat="45.58218" lon="6.09008">
        <ele>1010</ele>
        <time>2013-01-12T08:39:34Z</time>
      </trkpt>
      <trkpt lat="45.58216" lon="6.09009">
        <ele>1010</ele>
        <time>2013-01-12T08:39:36Z</time>
      </trkpt>
      <trkpt lat="45.58214" lon="6.09009">
        <ele>1010</ele>
        <time>2013-01-12T08:39:38Z</time>
      </trkpt>
      <trkpt lat="45.58212" lon="6.0901">
        <ele>1010</ele>
        <time>2013-01-12T08:39:40Z</time>
      </trkpt>
      <trkpt lat="45.5821" lon="6.09011">
        <ele>1010</ele>
        <time>2013-01-12T08:39:42Z</time>
      </trkpt>
      <trkpt lat="45.58207" lon="6.09009">
        <ele>1010</ele>
        <time>2013-01-12T08:39:44Z</time>
      </trkpt>
      <trkpt lat="45.58206" lon="6.09007">
        <ele>1010</ele>
        <time>2013-01-12T08:39:47Z</time>
      </trkpt>
      <trkpt lat="45.58205" lon="6.09003">
        <ele>1010</ele>
        <time>2013-01-12T08:39:49Z</time>
      </trkpt>
      <trkpt lat="45.58204" lon="6.09">
        <ele>1010</ele>
        <time>2013-01-12T08:39:51Z</time>
      </trkpt>
      <trkpt lat="45.58204" lon="6.08996">
        <ele>1010</ele>
        <time>2013-01-12T08:39:53Z</time>
      </trkpt>
      <trkpt lat="45.58202" lon="6.0899">
        <ele>1010</ele>
        <time>2013-01-12T08:39:56Z</time>
      </trkpt>
      <trkpt lat="45.58202" lon="6.08986">
        <ele>1010</ele>
        <time>2013-01-12T08:39:58Z</time>
      </trkpt>
      <trkpt lat="45.58202" lon="6.08981">
        <ele>1010</ele>
        <time>2013-01-12T08:40:01Z</time>
      </trkpt>
      <trkpt lat="45.58201" lon="6.08977">
        <ele>1010</ele>
        <time>2013-01-12T08:40:04Z</time>
      </trkpt>
      <trkpt lat="45.582" lon="6.08972">
        <ele>1010</ele>
        <time>2013-01-12T08:40:07Z</time>
      </trkpt>
      <trkpt lat="45.58199" lon="6.08967">
        <ele>1010</ele>
        <time>2013-01-12T08:40:10Z</time>
      </trkpt>
      <trkpt lat="45.58199" lon="6.08964">
        <ele>1010</ele>
        <time>2013-01-12T08:40:12Z</time>
      </trkpt>
      <trkpt lat="45.58199" lon="6.08961">
        <ele>1010</ele>
        <time>2013-01-12T08:40:14Z</time>
      </trkpt>
      <trkpt lat="45.58199" lon="6.08958">
        <ele>1010</ele>
        <time>2013-01-12T08:40:16Z</time>
      </trkpt>
      <trkpt lat="45.582" lon="6.08955">
        <ele>1010</ele>
        <time>2013-01-12T08:40:18Z</time>
      </trkpt>
      <trkpt lat="45.582" lon="6.08951">
        <ele>1010</ele>
        <time>2013-01-12T08:40:20Z</time>
      </trkpt>
      <trkpt lat="45.58199" lon="6.08948">
        <ele>1010</ele>
        <time>2013-01-12T08:40:22Z</time>
      </trkpt>
      <trkpt lat="45.58198" lon="6.08944">
        <ele>1010</ele>
        <time>2013-01-12T08:40:25Z</time>
      </trkpt>
      <trkpt lat="45.58197" lon="6.08939">
        <ele>1010</ele>
        <time>2013-01-12T08:40:27Z</time>
      </trkpt>
      <trkpt lat="45.58197" lon="6.08934">
        <ele>1010</ele>
        <time>2013-01-12T08:40:30Z</time>
      </trkpt>
      <trkpt lat="45.58196" lon="6.0893">
        <ele>1010</ele>
        <time>2013-01-12T08:40:34Z</time>
      </trkpt>
      <trkpt lat="45.58196" lon="6.08926">
        <ele>1010</ele>
        <time>2013-01-12T08:40:36Z</time>
      </trkpt>
      <trkpt lat="45.58195" lon="6.08922">
        <ele>1010</ele>
        <time>2013-01-12T08:40:38Z</time>
      </trkpt>
      <trkpt lat="45.58195" lon="6.08919">
        <ele>1010</ele>
        <time>2013-01-12T08:40:40Z</time>
      </trkpt>
      <trkpt lat="45.58194" lon="6.08915">
        <ele>1010</ele>
        <time>2013-01-12T08:40:42Z</time>
      </trkpt>
      <trkpt lat="45.58194" lon="6.08912">
        <ele>1010</ele>
        <time>2013-01-12T08:40:44Z</time>
      </trkpt>
      <trkpt lat="45.58194" lon="6.08907">
        <ele>1011</ele>
        <time>2013-01-12T08:40:46Z</time>
      </trkpt>
      <trkpt lat="45.58194" lon="6.08905">
        <ele>1011</ele>
        <time>2013-01-12T08:40:49Z</time>
      </trkpt>
      <trkpt lat="45.58194" lon="6.08902">
        <ele>1012</ele>
        <time>2013-01-12T08:40:51Z</time>
      </trkpt>
      <trkpt lat="45.58194" lon="6.08897">
        <ele>1012</ele>
        <time>2013-01-12T08:40:54Z</time>
      </trkpt>
      <trkpt lat="45.58194" lon="6.08894">
        <ele>1013</ele>
        <time>2013-01-12T08:40:56Z</time>
      </trkpt>
      <trkpt lat="45.58194" lon="6.08892">
        <ele>1013</ele>
        <time>2013-01-12T08:40:58Z</time>
      </trkpt>
      <trkpt lat="45.58194" lon="6.08888">
        <ele>1013</ele>
        <time>2013-01-12T08:41:00Z</time>
      </trkpt>
      <trkpt lat="45.58195" lon="6.08886">
        <ele>1014</ele>
        <time>2013-01-12T08:41:02Z</time>
      </trkpt>
      <trkpt lat="45.58195" lon="6.08882">
        <ele>1014</ele>
        <time>2013-01-12T08:41:04Z</time>
      </trkpt>
      <trkpt lat="45.58194" lon="6.08878">
        <ele>1014</ele>
        <time>2013-01-12T08:41:07Z</time>
      </trkpt>
      <trkpt lat="45.58196" lon="6.08875">
        <ele>1015</ele>
        <time>2013-01-12T08:41:10Z</time>
      </trkpt>
      <trkpt lat="45.58196" lon="6.0887">
        <ele>1015</ele>
        <time>2013-01-12T08:41:13Z</time>
      </trkpt>
      <trkpt lat="45.58197" lon="6.08868">
        <ele>1015</ele>
        <time>2013-01-12T08:41:15Z</time>
      </trkpt>
      <trkpt lat="45.58198" lon="6.08865">
        <ele>1015</ele>
        <time>2013-01-12T08:41:17Z</time>
      </trkpt>
      <trkpt lat="45.58198" lon="6.0886">
        <ele>1015</ele>
        <time>2013-01-12T08:41:20Z</time>
      </trkpt>
      <trkpt lat="45.58199" lon="6.08857">
        <ele>1015</ele>
        <time>2013-01-12T08:41:23Z</time>
      </trkpt>
      <trkpt lat="45.58199" lon="6.08851">
        <ele>1015</ele>
        <time>2013-01-12T08:41:26Z</time>
      </trkpt>
      <trkpt lat="45.582" lon="6.08848">
        <ele>1015</ele>
        <time>2013-01-12T08:41:28Z</time>
      </trkpt>
      <trkpt lat="45.58201" lon="6.08843">
        <ele>1015</ele>
        <time>2013-01-12T08:41:31Z</time>
      </trkpt>
      <trkpt lat="45.58202" lon="6.08839">
        <ele>1015</ele>
        <time>2013-01-12T08:41:34Z</time>
      </trkpt>
      <trkpt lat="45.58201" lon="6.08834">
        <ele>1015</ele>
        <time>2013-01-12T08:41:37Z</time>
      </trkpt>
      <trkpt lat="45.58201" lon="6.0883">
        <ele>1015</ele>
        <time>2013-01-12T08:41:39Z</time>
      </trkpt>
      <trkpt lat="45.582" lon="6.08827">
        <ele>1015</ele>
        <time>2013-01-12T08:41:41Z</time>
      </trkpt>
      <trkpt lat="45.582" lon="6.08823">
        <ele>1015</ele>
        <time>2013-01-12T08:41:43Z</time>
      </trkpt>
      <trkpt lat="45.58201" lon="6.0882">
        <ele>1016</ele>
        <time>2013-01-12T08:41:45Z</time>
      </trkpt>
      <trkpt lat="45.582" lon="6.08817">
        <ele>1016</ele>
        <time>2013-01-12T08:41:47Z</time>
      </trkpt>
      <trkpt lat="45.58197" lon="6.08813">
        <ele>1017</ele>
        <time>2013-01-12T08:41:50Z</time>
      </trkpt>
      <trkpt lat="45.58195" lon="6.0881">
        <ele>1017</ele>
        <time>2013-01-12T08:41:53Z</time>
      </trkpt>
      <trkpt lat="45.58194" lon="6.08808">
        <ele>1017</ele>
        <time>2013-01-12T08:41:55Z</time>
      </trkpt>
      <trkpt lat="45.58192" lon="6.08806">
        <ele>1017</ele>
        <time>2013-01-12T08:41:57Z</time>
      </trkpt>
      <trkpt lat="45.5819" lon="6.08804">
        <ele>1017</ele>
        <time>2013-01-12T08:41:59Z</time>
      </trkpt>
      <trkpt lat="45.58189" lon="6.08803">
        <ele>1017</ele>
        <time>2013-01-12T08:42:01Z</time>
      </trkpt>
      <trkpt lat="45.58187" lon="6.08802">
        <ele>1017</ele>
        <time>2013-01-12T08:42:03Z</time>
      </trkpt>
      <trkpt lat="45.58185" lon="6.088">
        <ele>1017</ele>
        <time>2013-01-12T08:42:07Z</time>
      </trkpt>
      <trkpt lat="45.58184" lon="6.08799">
        <ele>1017</ele>
        <time>2013-01-12T08:42:09Z</time>
      </trkpt>
      <trkpt lat="45.58178" lon="6.08797">
        <ele>1017</ele>
        <time>2013-01-12T08:42:17Z</time>
      </trkpt>
      <trkpt lat="45.58177" lon="6.08797">
        <ele>1017</ele>
        <time>2013-01-12T08:42:21Z</time>
      </trkpt>
      <trkpt lat="45.58172" lon="6.08792">
        <ele>1018</ele>
        <time>2013-01-12T08:42:27Z</time>
      </trkpt>
      <trkpt lat="45.58168" lon="6.08786">
        <ele>1021</ele>
        <time>2013-01-12T08:42:32Z</time>
      </trkpt>
      <trkpt lat="45.58167" lon="6.08784">
        <ele>1021</ele>
        <time>2013-01-12T08:42:34Z</time>
      </trkpt>
      <trkpt lat="45.58166" lon="6.08783">
        <ele>1021</ele>
        <time>2013-01-12T08:42:36Z</time>
      </trkpt>
      <trkpt lat="45.58165" lon="6.08782">
        <ele>1021</ele>
        <time>2013-01-12T08:42:38Z</time>
      </trkpt>
      <trkpt lat="45.58164" lon="6.08781">
        <ele>1021</ele>
        <time>2013-01-12T08:42:42Z</time>
      </trkpt>
      <trkpt lat="45.58164" lon="6.08779">
        <ele>1021</ele>
        <time>2013-01-12T08:42:44Z</time>
      </trkpt>
      <trkpt lat="45.58165" lon="6.08775">
        <ele>1021</ele>
        <time>2013-01-12T08:42:47Z</time>
      </trkpt>
      <trkpt lat="45.58164" lon="6.08773">
        <ele>1021</ele>
        <time>2013-01-12T08:42:49Z</time>
      </trkpt>
      <trkpt lat="45.58162" lon="6.08769">
        <ele>1021</ele>
        <time>2013-01-12T08:42:56Z</time>
      </trkpt>
      <trkpt lat="45.58159" lon="6.08777">
        <ele>1021</ele>
        <time>2013-01-12T08:43:02Z</time>
      </trkpt>
      <trkpt lat="45.58159" lon="6.0876">
        <ele>1022</ele>
        <time>2013-01-12T08:43:15Z</time>
      </trkpt>
      <trkpt lat="45.58158" lon="6.08758">
        <ele>1022</ele>
        <time>2013-01-12T08:43:18Z</time>
      </trkpt>
      <trkpt lat="45.58158" lon="6.08756">
        <ele>1022</ele>
        <time>2013-01-12T08:43:21Z</time>
      </trkpt>
      <trkpt lat="45.58157" lon="6.08754">
        <ele>1022</ele>
        <time>2013-01-12T08:43:25Z</time>
      </trkpt>
      <trkpt lat="45.58158" lon="6.08753">
        <ele>1022</ele>
        <time>2013-01-12T08:43:28Z</time>
      </trkpt>
      <trkpt lat="45.58157" lon="6.08751">
        <ele>1022</ele>
        <time>2013-01-12T08:43:31Z</time>
      </trkpt>
      <trkpt lat="45.58157" lon="6.08749">
        <ele>1022</ele>
        <time>2013-01-12T08:43:34Z</time>
      </trkpt>
      <trkpt lat="45.58157" lon="6.08746">
        <ele>1022</ele>
        <time>2013-01-12T08:43:39Z</time>
      </trkpt>
      <trkpt lat="45.58158" lon="6.08744">
        <ele>1023</ele>
        <time>2013-01-12T08:43:42Z</time>
      </trkpt>
      <trkpt lat="45.58158" lon="6.08743">
        <ele>1023</ele>
        <time>2013-01-12T08:43:45Z</time>
      </trkpt>
      <trkpt lat="45.58158" lon="6.08741">
        <ele>1024</ele>
        <time>2013-01-12T08:43:47Z</time>
      </trkpt>
      <trkpt lat="45.58157" lon="6.08739">
        <ele>1024</ele>
        <time>2013-01-12T08:43:50Z</time>
      </trkpt>
      <trkpt lat="45.58156" lon="6.08737">
        <ele>1024</ele>
        <time>2013-01-12T08:43:53Z</time>
      </trkpt>
      <trkpt lat="45.58155" lon="6.08735">
        <ele>1024</ele>
        <time>2013-01-12T08:43:56Z</time>
      </trkpt>
      <trkpt lat="45.58155" lon="6.08732">
        <ele>1024</ele>
        <time>2013-01-12T08:44:00Z</time>
      </trkpt>
      <trkpt lat="45.58154" lon="6.0873">
        <ele>1024</ele>
        <time>2013-01-12T08:44:04Z</time>
      </trkpt>
      <trkpt lat="45.58154" lon="6.08721">
        <ele>1025</ele>
        <time>2013-01-12T08:44:07Z</time>
      </trkpt>
      <trkpt lat="45.58154" lon="6.0872">
        <ele>1028</ele>
        <time>2013-01-12T08:44:11Z</time>
      </trkpt>
      <trkpt lat="45.58155" lon="6.08718">
        <ele>1029</ele>
        <time>2013-01-12T08:44:14Z</time>
      </trkpt>
      <trkpt lat="45.58155" lon="6.08716">
        <ele>1029</ele>
        <time>2013-01-12T08:44:17Z</time>
      </trkpt>
      <trkpt lat="45.58155" lon="6.08714">
        <ele>1029</ele>
        <time>2013-01-12T08:44:19Z</time>
      </trkpt>
      <trkpt lat="45.58155" lon="6.08713">
        <ele>1030</ele>
        <time>2013-01-12T08:44:21Z</time>
      </trkpt>
      <trkpt lat="45.58156" lon="6.08712">
        <ele>1031</ele>
        <time>2013-01-12T08:44:23Z</time>
      </trkpt>
      <trkpt lat="45.58155" lon="6.08709">
        <ele>1031</ele>
        <time>2013-01-12T08:44:25Z</time>
      </trkpt>
      <trkpt lat="45.58155" lon="6.08708">
        <ele>1032</ele>
        <time>2013-01-12T08:44:27Z</time>
      </trkpt>
      <trkpt lat="45.58155" lon="6.08706">
        <ele>1033</ele>
        <time>2013-01-12T08:44:30Z</time>
      </trkpt>
      <trkpt lat="45.58155" lon="6.08703">
        <ele>1034</ele>
        <time>2013-01-12T08:44:32Z</time>
      </trkpt>
      <trkpt lat="45.58155" lon="6.08702">
        <ele>1035</ele>
        <time>2013-01-12T08:44:34Z</time>
      </trkpt>
      <trkpt lat="45.58156" lon="6.087">
        <ele>1036</ele>
        <time>2013-01-12T08:44:36Z</time>
      </trkpt>
      <trkpt lat="45.58155" lon="6.08698">
        <ele>1037</ele>
        <time>2013-01-12T08:44:38Z</time>
      </trkpt>
      <trkpt lat="45.58154" lon="6.08696">
        <ele>1039</ele>
        <time>2013-01-12T08:44:42Z</time>
      </trkpt>
      <trkpt lat="45.58154" lon="6.08694">
        <ele>1040</ele>
        <time>2013-01-12T08:44:45Z</time>
      </trkpt>
      <trkpt lat="45.58153" lon="6.08693">
        <ele>1041</ele>
        <time>2013-01-12T08:44:48Z</time>
      </trkpt>
      <trkpt lat="45.58153" lon="6.08689">
        <ele>1041</ele>
        <time>2013-01-12T08:44:51Z</time>
      </trkpt>
      <trkpt lat="45.58152" lon="6.08687">
        <ele>1041</ele>
        <time>2013-01-12T08:44:53Z</time>
      </trkpt>
      <trkpt lat="45.58151" lon="6.08684">
        <ele>1041</ele>
        <time>2013-01-12T08:44:56Z</time>
      </trkpt>
      <trkpt lat="45.58151" lon="6.08683">
        <ele>1041</ele>
        <time>2013-01-12T08:44:58Z</time>
      </trkpt>
      <trkpt lat="45.5815" lon="6.08681">
        <ele>1041</ele>
        <time>2013-01-12T08:45:00Z</time>
      </trkpt>
      <trkpt lat="45.5815" lon="6.08679">
        <ele>1041</ele>
        <time>2013-01-12T08:45:03Z</time>
      </trkpt>
      <trkpt lat="45.58149" lon="6.08677">
        <ele>1041</ele>
        <time>2013-01-12T08:45:05Z</time>
      </trkpt>
      <trkpt lat="45.58146" lon="6.08674">
        <ele>1041</ele>
        <time>2013-01-12T08:45:12Z</time>
      </trkpt>
      <trkpt lat="45.58145" lon="6.08673">
        <ele>1041</ele>
        <time>2013-01-12T08:45:14Z</time>
      </trkpt>
      <trkpt lat="45.58144" lon="6.08674">
        <ele>1041</ele>
        <time>2013-01-12T08:45:16Z</time>
      </trkpt>
      <trkpt lat="45.58142" lon="6.08673">
        <ele>1041</ele>
        <time>2013-01-12T08:45:18Z</time>
      </trkpt>
      <trkpt lat="45.58141" lon="6.08673">
        <ele>1041</ele>
        <time>2013-01-12T08:45:20Z</time>
      </trkpt>
      <trkpt lat="45.58139" lon="6.08672">
        <ele>1041</ele>
        <time>2013-01-12T08:45:22Z</time>
      </trkpt>
      <trkpt lat="45.58138" lon="6.08671">
        <ele>1042</ele>
        <time>2013-01-12T08:45:24Z</time>
      </trkpt>
      <trkpt lat="45.58136" lon="6.08671">
        <ele>1042</ele>
        <time>2013-01-12T08:45:26Z</time>
      </trkpt>
      <trkpt lat="45.58133" lon="6.08671">
        <ele>1043</ele>
        <time>2013-01-12T08:45:29Z</time>
      </trkpt>
      <trkpt lat="45.58131" lon="6.08672">
        <ele>1043</ele>
        <time>2013-01-12T08:45:31Z</time>
      </trkpt>
      <trkpt lat="45.58129" lon="6.08672">
        <ele>1044</ele>
        <time>2013-01-12T08:45:33Z</time>
      </trkpt>
      <trkpt lat="45.58126" lon="6.08672">
        <ele>1044</ele>
        <time>2013-01-12T08:45:36Z</time>
      </trkpt>
      <trkpt lat="45.58124" lon="6.08673">
        <ele>1045</ele>
        <time>2013-01-12T08:45:38Z</time>
      </trkpt>
      <trkpt lat="45.58123" lon="6.08673">
        <ele>1046</ele>
        <time>2013-01-12T08:45:40Z</time>
      </trkpt>
      <trkpt lat="45.58121" lon="6.08675">
        <ele>1047</ele>
        <time>2013-01-12T08:45:42Z</time>
      </trkpt>
      <trkpt lat="45.58118" lon="6.08677">
        <ele>1047</ele>
        <time>2013-01-12T08:45:46Z</time>
      </trkpt>
      <trkpt lat="45.58115" lon="6.08679">
        <ele>1048</ele>
        <time>2013-01-12T08:45:48Z</time>
      </trkpt>
      <trkpt lat="45.58111" lon="6.08678">
        <ele>1048</ele>
        <time>2013-01-12T08:45:52Z</time>
      </trkpt>
      <trkpt lat="45.5811" lon="6.08677">
        <ele>1049</ele>
        <time>2013-01-12T08:45:55Z</time>
      </trkpt>
      <trkpt lat="45.58108" lon="6.08676">
        <ele>1049</ele>
        <time>2013-01-12T08:45:58Z</time>
      </trkpt>
      <trkpt lat="45.58107" lon="6.08672">
        <ele>1049</ele>
        <time>2013-01-12T08:46:00Z</time>
      </trkpt>
      <trkpt lat="45.58104" lon="6.08671">
        <ele>1049</ele>
        <time>2013-01-12T08:46:03Z</time>
      </trkpt>
      <trkpt lat="45.58102" lon="6.08671">
        <ele>1049</ele>
        <time>2013-01-12T08:46:06Z</time>
      </trkpt>
      <trkpt lat="45.58098" lon="6.08671">
        <ele>1049</ele>
        <time>2013-01-12T08:46:10Z</time>
      </trkpt>
      <trkpt lat="45.58096" lon="6.08671">
        <ele>1049</ele>
        <time>2013-01-12T08:46:12Z</time>
      </trkpt>
      <trkpt lat="45.58095" lon="6.0867">
        <ele>1049</ele>
        <time>2013-01-12T08:46:16Z</time>
      </trkpt>
      <trkpt lat="45.58094" lon="6.08671">
        <ele>1049</ele>
        <time>2013-01-12T08:46:19Z</time>
      </trkpt>
      <trkpt lat="45.58092" lon="6.0867">
        <ele>1049</ele>
        <time>2013-01-12T08:46:22Z</time>
      </trkpt>
      <trkpt lat="45.58091" lon="6.08669">
        <ele>1049</ele>
        <time>2013-01-12T08:46:25Z</time>
      </trkpt>
      <trkpt lat="45.58089" lon="6.08669">
        <ele>1049</ele>
        <time>2013-01-12T08:46:27Z</time>
      </trkpt>
      <trkpt lat="45.58088" lon="6.08669">
        <ele>1049</ele>
        <time>2013-01-12T08:46:29Z</time>
      </trkpt>
      <trkpt lat="45.58087" lon="6.08669">
        <ele>1049</ele>
        <time>2013-01-12T08:46:31Z</time>
      </trkpt>
      <trkpt lat="45.58085" lon="6.08669">
        <ele>1049</ele>
        <time>2013-01-12T08:46:33Z</time>
      </trkpt>
      <trkpt lat="45.58084" lon="6.0867">
        <ele>1049</ele>
        <time>2013-01-12T08:46:35Z</time>
      </trkpt>
      <trkpt lat="45.58082" lon="6.0867">
        <ele>1049</ele>
        <time>2013-01-12T08:46:38Z</time>
      </trkpt>
      <trkpt lat="45.5808" lon="6.08668">
        <ele>1050</ele>
        <time>2013-01-12T08:46:42Z</time>
      </trkpt>
      <trkpt lat="45.58078" lon="6.08667">
        <ele>1050</ele>
        <time>2013-01-12T08:46:44Z</time>
      </trkpt>
      <trkpt lat="45.58076" lon="6.08665">
        <ele>1050</ele>
        <time>2013-01-12T08:46:46Z</time>
      </trkpt>
      <trkpt lat="45.58074" lon="6.08664">
        <ele>1051</ele>
        <time>2013-01-12T08:46:49Z</time>
      </trkpt>
      <trkpt lat="45.58074" lon="6.08662">
        <ele>1051</ele>
        <time>2013-01-12T08:46:51Z</time>
      </trkpt>
      <trkpt lat="45.58073" lon="6.08658">
        <ele>1052</ele>
        <time>2013-01-12T08:46:55Z</time>
      </trkpt>
      <trkpt lat="45.58072" lon="6.08655">
        <ele>1054</ele>
        <time>2013-01-12T08:46:58Z</time>
      </trkpt>
      <trkpt lat="45.5807" lon="6.08653">
        <ele>1057</ele>
        <time>2013-01-12T08:47:01Z</time>
      </trkpt>
      <trkpt lat="45.58068" lon="6.08651">
        <ele>1058</ele>
        <time>2013-01-12T08:47:03Z</time>
      </trkpt>
      <trkpt lat="45.58065" lon="6.08649">
        <ele>1058</ele>
        <time>2013-01-12T08:47:07Z</time>
      </trkpt>
      <trkpt lat="45.58064" lon="6.08648">
        <ele>1058</ele>
        <time>2013-01-12T08:47:09Z</time>
      </trkpt>
      <trkpt lat="45.58063" lon="6.08647">
        <ele>1058</ele>
        <time>2013-01-12T08:47:11Z</time>
      </trkpt>
      <trkpt lat="45.58061" lon="6.08647">
        <ele>1058</ele>
        <time>2013-01-12T08:47:13Z</time>
      </trkpt>
      <trkpt lat="45.58059" lon="6.08645">
        <ele>1058</ele>
        <time>2013-01-12T08:47:16Z</time>
      </trkpt>
      <trkpt lat="45.58058" lon="6.08643">
        <ele>1059</ele>
        <time>2013-01-12T08:47:19Z</time>
      </trkpt>
      <trkpt lat="45.58057" lon="6.08644">
        <ele>1060</ele>
        <time>2013-01-12T08:47:21Z</time>
      </trkpt>
      <trkpt lat="45.58056" lon="6.08642">
        <ele>1060</ele>
        <time>2013-01-12T08:47:24Z</time>
      </trkpt>
      <trkpt lat="45.58054" lon="6.08642">
        <ele>1061</ele>
        <time>2013-01-12T08:47:28Z</time>
      </trkpt>
      <trkpt lat="45.58052" lon="6.08644">
        <ele>1063</ele>
        <time>2013-01-12T08:47:31Z</time>
      </trkpt>
      <trkpt lat="45.5805" lon="6.08644">
        <ele>1064</ele>
        <time>2013-01-12T08:47:33Z</time>
      </trkpt>
      <trkpt lat="45.58049" lon="6.08644">
        <ele>1064</ele>
        <time>2013-01-12T08:47:36Z</time>
      </trkpt>
      <trkpt lat="45.58047" lon="6.08644">
        <ele>1065</ele>
        <time>2013-01-12T08:47:38Z</time>
      </trkpt>
      <trkpt lat="45.58046" lon="6.08644">
        <ele>1065</ele>
        <time>2013-01-12T08:47:40Z</time>
      </trkpt>
      <trkpt lat="45.58045" lon="6.08642">
        <ele>1065</ele>
        <time>2013-01-12T08:47:42Z</time>
      </trkpt>
      <trkpt lat="45.58044" lon="6.08642">
        <ele>1065</ele>
        <time>2013-01-12T08:47:45Z</time>
      </trkpt>
      <trkpt lat="45.58041" lon="6.08644">
        <ele>1065</ele>
        <time>2013-01-12T08:47:47Z</time>
      </trkpt>
      <trkpt lat="45.58039" lon="6.08643">
        <ele>1065</ele>
        <time>2013-01-12T08:47:50Z</time>
      </trkpt>
      <trkpt lat="45.58038" lon="6.08646">
        <ele>1065</ele>
        <time>2013-01-12T08:47:53Z</time>
      </trkpt>
      <trkpt lat="45.58036" lon="6.08646">
        <ele>1065</ele>
        <time>2013-01-12T08:47:55Z</time>
      </trkpt>
      <trkpt lat="45.58035" lon="6.08648">
        <ele>1065</ele>
        <time>2013-01-12T08:47:57Z</time>
      </trkpt>
      <trkpt lat="45.58033" lon="6.08649">
        <ele>1066</ele>
        <time>2013-01-12T08:47:59Z</time>
      </trkpt>
      <trkpt lat="45.58032" lon="6.08649">
        <ele>1066</ele>
        <time>2013-01-12T08:48:01Z</time>
      </trkpt>
      <trkpt lat="45.58031" lon="6.08648">
        <ele>1067</ele>
        <time>2013-01-12T08:48:03Z</time>
      </trkpt>
      <trkpt lat="45.5803" lon="6.08648">
        <ele>1067</ele>
        <time>2013-01-12T08:48:05Z</time>
      </trkpt>
      <trkpt lat="45.58028" lon="6.08648">
        <ele>1067</ele>
        <time>2013-01-12T08:48:07Z</time>
      </trkpt>
      <trkpt lat="45.58027" lon="6.08648">
        <ele>1067</ele>
        <time>2013-01-12T08:48:09Z</time>
      </trkpt>
      <trkpt lat="45.58026" lon="6.08647">
        <ele>1067</ele>
        <time>2013-01-12T08:48:11Z</time>
      </trkpt>
      <trkpt lat="45.58023" lon="6.08648">
        <ele>1068</ele>
        <time>2013-01-12T08:48:15Z</time>
      </trkpt>
      <trkpt lat="45.58022" lon="6.08649">
        <ele>1069</ele>
        <time>2013-01-12T08:48:18Z</time>
      </trkpt>
      <trkpt lat="45.5802" lon="6.08649">
        <ele>1070</ele>
        <time>2013-01-12T08:48:22Z</time>
      </trkpt>
      <trkpt lat="45.58019" lon="6.08645">
        <ele>1070</ele>
        <time>2013-01-12T08:48:26Z</time>
      </trkpt>
      <trkpt lat="45.5802" lon="6.08642">
        <ele>1070</ele>
        <time>2013-01-12T08:48:30Z</time>
      </trkpt>
      <trkpt lat="45.58021" lon="6.0864">
        <ele>1071</ele>
        <time>2013-01-12T08:48:33Z</time>
      </trkpt>
      <trkpt lat="45.58022" lon="6.08638">
        <ele>1071</ele>
        <time>2013-01-12T08:48:35Z</time>
      </trkpt>
      <trkpt lat="45.58023" lon="6.08637">
        <ele>1071</ele>
        <time>2013-01-12T08:48:38Z</time>
      </trkpt>
      <trkpt lat="45.58024" lon="6.08635">
        <ele>1071</ele>
        <time>2013-01-12T08:48:40Z</time>
      </trkpt>
      <trkpt lat="45.58023" lon="6.08634">
        <ele>1072</ele>
        <time>2013-01-12T08:48:43Z</time>
      </trkpt>
      <trkpt lat="45.58024" lon="6.0863">
        <ele>1073</ele>
        <time>2013-01-12T08:48:47Z</time>
      </trkpt>
      <trkpt lat="45.58024" lon="6.08627">
        <ele>1074</ele>
        <time>2013-01-12T08:48:52Z</time>
      </trkpt>
      <trkpt lat="45.58025" lon="6.08625">
        <ele>1074</ele>
        <time>2013-01-12T08:48:55Z</time>
      </trkpt>
      <trkpt lat="45.58025" lon="6.08623">
        <ele>1074</ele>
        <time>2013-01-12T08:48:57Z</time>
      </trkpt>
      <trkpt lat="45.58025" lon="6.08621">
        <ele>1074</ele>
        <time>2013-01-12T08:48:59Z</time>
      </trkpt>
      <trkpt lat="45.58025" lon="6.08618">
        <ele>1074</ele>
        <time>2013-01-12T08:49:01Z</time>
      </trkpt>
      <trkpt lat="45.58025" lon="6.08616">
        <ele>1074</ele>
        <time>2013-01-12T08:49:03Z</time>
      </trkpt>
      <trkpt lat="45.58025" lon="6.08614">
        <ele>1074</ele>
        <time>2013-01-12T08:49:05Z</time>
      </trkpt>
      <trkpt lat="45.58025" lon="6.08613">
        <ele>1074</ele>
        <time>2013-01-12T08:49:07Z</time>
      </trkpt>
      <trkpt lat="45.58024" lon="6.08611">
        <ele>1074</ele>
        <time>2013-01-12T08:49:10Z</time>
      </trkpt>
      <trkpt lat="45.58023" lon="6.08608">
        <ele>1074</ele>
        <time>2013-01-12T08:49:12Z</time>
      </trkpt>
      <trkpt lat="45.58023" lon="6.08603">
        <ele>1075</ele>
        <time>2013-01-12T08:49:17Z</time>
      </trkpt>
      <trkpt lat="45.58023" lon="6.08602">
        <ele>1076</ele>
        <time>2013-01-12T08:49:20Z</time>
      </trkpt>
      <trkpt lat="45.58022" lon="6.08602">
        <ele>1077</ele>
        <time>2013-01-12T08:49:23Z</time>
      </trkpt>
      <trkpt lat="45.5802" lon="6.08603">
        <ele>1077</ele>
        <time>2013-01-12T08:49:26Z</time>
      </trkpt>
      <trkpt lat="45.58018" lon="6.08603">
        <ele>1077</ele>
        <time>2013-01-12T08:49:28Z</time>
      </trkpt>
      <trkpt lat="45.58017" lon="6.08603">
        <ele>1077</ele>
        <time>2013-01-12T08:49:31Z</time>
      </trkpt>
      <trkpt lat="45.58016" lon="6.08601">
        <ele>1078</ele>
        <time>2013-01-12T08:49:33Z</time>
      </trkpt>
      <trkpt lat="45.58015" lon="6.08599">
        <ele>1078</ele>
        <time>2013-01-12T08:49:35Z</time>
      </trkpt>
      <trkpt lat="45.58016" lon="6.08594">
        <ele>1078</ele>
        <time>2013-01-12T08:49:38Z</time>
      </trkpt>
      <trkpt lat="45.58017" lon="6.08592">
        <ele>1079</ele>
        <time>2013-01-12T08:49:41Z</time>
      </trkpt>
      <trkpt lat="45.58018" lon="6.08591">
        <ele>1080</ele>
        <time>2013-01-12T08:49:43Z</time>
      </trkpt>
      <trkpt lat="45.58019" lon="6.0859">
        <ele>1081</ele>
        <time>2013-01-12T08:49:45Z</time>
      </trkpt>
      <trkpt lat="45.58017" lon="6.08587">
        <ele>1082</ele>
        <time>2013-01-12T08:49:49Z</time>
      </trkpt>
      <trkpt lat="45.58016" lon="6.08587">
        <ele>1083</ele>
        <time>2013-01-12T08:49:52Z</time>
      </trkpt>
      <trkpt lat="45.58013" lon="6.08585">
        <ele>1085</ele>
        <time>2013-01-12T08:49:56Z</time>
      </trkpt>
      <trkpt lat="45.58012" lon="6.08584">
        <ele>1085</ele>
        <time>2013-01-12T08:49:59Z</time>
      </trkpt>
      <trkpt lat="45.5801" lon="6.08585">
        <ele>1085</ele>
        <time>2013-01-12T08:50:02Z</time>
      </trkpt>
      <trkpt lat="45.58009" lon="6.08585">
        <ele>1086</ele>
        <time>2013-01-12T08:50:06Z</time>
      </trkpt>
      <trkpt lat="45.58008" lon="6.08584">
        <ele>1086</ele>
        <time>2013-01-12T08:50:08Z</time>
      </trkpt>
      <trkpt lat="45.58007" lon="6.08583">
        <ele>1087</ele>
        <time>2013-01-12T08:50:11Z</time>
      </trkpt>
      <trkpt lat="45.58004" lon="6.08584">
        <ele>1087</ele>
        <time>2013-01-12T08:50:15Z</time>
      </trkpt>
      <trkpt lat="45.58002" lon="6.08585">
        <ele>1087</ele>
        <time>2013-01-12T08:50:17Z</time>
      </trkpt>
      <trkpt lat="45.58001" lon="6.08586">
        <ele>1087</ele>
        <time>2013-01-12T08:50:19Z</time>
      </trkpt>
      <trkpt lat="45.57998" lon="6.08586">
        <ele>1087</ele>
        <time>2013-01-12T08:50:23Z</time>
      </trkpt>
      <trkpt lat="45.57997" lon="6.08586">
        <ele>1087</ele>
        <time>2013-01-12T08:50:27Z</time>
      </trkpt>
      <trkpt lat="45.57995" lon="6.08586">
        <ele>1087</ele>
        <time>2013-01-12T08:50:29Z</time>
      </trkpt>
      <trkpt lat="45.57994" lon="6.08586">
        <ele>1087</ele>
        <time>2013-01-12T08:50:31Z</time>
      </trkpt>
      <trkpt lat="45.5799" lon="6.08586">
        <ele>1087</ele>
        <time>2013-01-12T08:50:35Z</time>
      </trkpt>
      <trkpt lat="45.57988" lon="6.08584">
        <ele>1088</ele>
        <time>2013-01-12T08:50:38Z</time>
      </trkpt>
      <trkpt lat="45.57987" lon="6.08582">
        <ele>1088</ele>
        <time>2013-01-12T08:50:40Z</time>
      </trkpt>
      <trkpt lat="45.57983" lon="6.08579">
        <ele>1088</ele>
        <time>2013-01-12T08:50:44Z</time>
      </trkpt>
      <trkpt lat="45.57982" lon="6.08578">
        <ele>1088</ele>
        <time>2013-01-12T08:50:47Z</time>
      </trkpt>
      <trkpt lat="45.5798" lon="6.08581">
        <ele>1090</ele>
        <time>2013-01-12T08:50:49Z</time>
      </trkpt>
      <trkpt lat="45.57982" lon="6.08582">
        <ele>1093</ele>
        <time>2013-01-12T08:50:53Z</time>
      </trkpt>
      <trkpt lat="45.57982" lon="6.08584">
        <ele>1094</ele>
        <time>2013-01-12T08:50:57Z</time>
      </trkpt>
      <trkpt lat="45.57982" lon="6.0858">
        <ele>1098</ele>
        <time>2013-01-12T08:51:01Z</time>
      </trkpt>
      <trkpt lat="45.57975" lon="6.08576">
        <ele>1101</ele>
        <time>2013-01-12T08:51:09Z</time>
      </trkpt>
      <trkpt lat="45.57974" lon="6.08575">
        <ele>1103</ele>
        <time>2013-01-12T08:51:12Z</time>
      </trkpt>
      <trkpt lat="45.57973" lon="6.08574">
        <ele>1104</ele>
        <time>2013-01-12T08:51:14Z</time>
      </trkpt>
      <trkpt lat="45.57972" lon="6.08573">
        <ele>1104</ele>
        <time>2013-01-12T08:51:17Z</time>
      </trkpt>
      <trkpt lat="45.5797" lon="6.08574">
        <ele>1104</ele>
        <time>2013-01-12T08:51:20Z</time>
      </trkpt>
      <trkpt lat="45.57973" lon="6.08578">
        <ele>1104</ele>
        <time>2013-01-12T08:51:24Z</time>
      </trkpt>
      <trkpt lat="45.57974" lon="6.0858">
        <ele>1104</ele>
        <time>2013-01-12T08:51:27Z</time>
      </trkpt>
      <trkpt lat="45.57975" lon="6.08581">
        <ele>1104</ele>
        <time>2013-01-12T08:51:31Z</time>
      </trkpt>
      <trkpt lat="45.57976" lon="6.08582">
        <ele>1104</ele>
        <time>2013-01-12T08:51:35Z</time>
      </trkpt>
      <trkpt lat="45.5798" lon="6.0858">
        <ele>1101</ele>
        <time>2013-01-12T08:51:41Z</time>
      </trkpt>
      <trkpt lat="45.57982" lon="6.08581">
        <ele>1101</ele>
        <time>2013-01-12T08:51:43Z</time>
      </trkpt>
      <trkpt lat="45.57981" lon="6.08584">
        <ele>1103</ele>
        <time>2013-01-12T08:51:46Z</time>
      </trkpt>
      <trkpt lat="45.5798" lon="6.08584">
        <ele>1105</ele>
        <time>2013-01-12T08:51:51Z</time>
      </trkpt>
      <trkpt lat="45.57978" lon="6.08583">
        <ele>1105</ele>
        <time>2013-01-12T08:51:53Z</time>
      </trkpt>
      <trkpt lat="45.57974" lon="6.08585">
        <ele>1105</ele>
        <time>2013-01-12T08:52:03Z</time>
      </trkpt>
      <trkpt lat="45.57972" lon="6.08581">
        <ele>1104</ele>
        <time>2013-01-12T08:52:07Z</time>
      </trkpt>
      <trkpt lat="45.57969" lon="6.08579">
        <ele>1104</ele>
        <time>2013-01-12T08:52:13Z</time>
      </trkpt>
      <trkpt lat="45.57972" lon="6.08581">
        <ele>1102</ele>
        <time>2013-01-12T08:52:25Z</time>
      </trkpt>
      <trkpt lat="45.57966" lon="6.08575">
        <ele>1104</ele>
        <time>2013-01-12T08:52:33Z</time>
      </trkpt>
      <trkpt lat="45.57965" lon="6.08573">
        <ele>1103</ele>
        <time>2013-01-12T08:52:35Z</time>
      </trkpt>
      <trkpt lat="45.57964" lon="6.08571">
        <ele>1102</ele>
        <time>2013-01-12T08:52:37Z</time>
      </trkpt>
      <trkpt lat="45.57963" lon="6.08569">
        <ele>1102</ele>
        <time>2013-01-12T08:52:39Z</time>
      </trkpt>
      <trkpt lat="45.57961" lon="6.08565">
        <ele>1100</ele>
        <time>2013-01-12T08:52:43Z</time>
      </trkpt>
      <trkpt lat="45.5796" lon="6.08562">
        <ele>1098</ele>
        <time>2013-01-12T08:52:47Z</time>
      </trkpt>
      <trkpt lat="45.57959" lon="6.0856">
        <ele>1098</ele>
        <time>2013-01-12T08:52:51Z</time>
      </trkpt>
      <trkpt lat="45.57958" lon="6.08558">
        <ele>1098</ele>
        <time>2013-01-12T08:52:54Z</time>
      </trkpt>
      <trkpt lat="45.57956" lon="6.08555">
        <ele>1098</ele>
        <time>2013-01-12T08:52:59Z</time>
      </trkpt>
      <trkpt lat="45.57955" lon="6.08552">
        <ele>1098</ele>
        <time>2013-01-12T08:53:04Z</time>
      </trkpt>
      <trkpt lat="45.57954" lon="6.08549">
        <ele>1098</ele>
        <time>2013-01-12T08:53:06Z</time>
      </trkpt>
      <trkpt lat="45.57953" lon="6.08545">
        <ele>1098</ele>
        <time>2013-01-12T08:53:09Z</time>
      </trkpt>
      <trkpt lat="45.57954" lon="6.08543">
        <ele>1098</ele>
        <time>2013-01-12T08:53:11Z</time>
      </trkpt>
      <trkpt lat="45.57954" lon="6.08541">
        <ele>1098</ele>
        <time>2013-01-12T08:53:15Z</time>
      </trkpt>
      <trkpt lat="45.57956" lon="6.0854">
        <ele>1098</ele>
        <time>2013-01-12T08:53:18Z</time>
      </trkpt>
      <trkpt lat="45.57956" lon="6.08537">
        <ele>1098</ele>
        <time>2013-01-12T08:53:21Z</time>
      </trkpt>
      <trkpt lat="45.57956" lon="6.08536">
        <ele>1098</ele>
        <time>2013-01-12T08:53:23Z</time>
      </trkpt>
      <trkpt lat="45.57956" lon="6.08534">
        <ele>1098</ele>
        <time>2013-01-12T08:53:26Z</time>
      </trkpt>
      <trkpt lat="45.57956" lon="6.08532">
        <ele>1098</ele>
        <time>2013-01-12T08:53:29Z</time>
      </trkpt>
      <trkpt lat="45.57957" lon="6.0853">
        <ele>1098</ele>
        <time>2013-01-12T08:53:32Z</time>
      </trkpt>
      <trkpt lat="45.57957" lon="6.08529">
        <ele>1098</ele>
        <time>2013-01-12T08:53:35Z</time>
      </trkpt>
      <trkpt lat="45.57958" lon="6.08527">
        <ele>1098</ele>
        <time>2013-01-12T08:53:38Z</time>
      </trkpt>
      <trkpt lat="45.57959" lon="6.08526">
        <ele>1098</ele>
        <time>2013-01-12T08:53:42Z</time>
      </trkpt>
      <trkpt lat="45.57961" lon="6.08525">
        <ele>1098</ele>
        <time>2013-01-12T08:53:44Z</time>
      </trkpt>
      <trkpt lat="45.57962" lon="6.08523">
        <ele>1098</ele>
        <time>2013-01-12T08:53:47Z</time>
      </trkpt>
      <trkpt lat="45.57961" lon="6.08521">
        <ele>1098</ele>
        <time>2013-01-12T08:53:51Z</time>
      </trkpt>
      <trkpt lat="45.57958" lon="6.08518">
        <ele>1099</ele>
        <time>2013-01-12T08:53:56Z</time>
      </trkpt>
      <trkpt lat="45.57957" lon="6.08517">
        <ele>1101</ele>
        <time>2013-01-12T08:53:59Z</time>
      </trkpt>
      <trkpt lat="45.57955" lon="6.08515">
        <ele>1102</ele>
        <time>2013-01-12T08:54:01Z</time>
      </trkpt>
      <trkpt lat="45.57955" lon="6.08513">
        <ele>1104</ele>
        <time>2013-01-12T08:54:03Z</time>
      </trkpt>
      <trkpt lat="45.57954" lon="6.08512">
        <ele>1104</ele>
        <time>2013-01-12T08:54:06Z</time>
      </trkpt>
      <trkpt lat="45.57954" lon="6.0851">
        <ele>1104</ele>
        <time>2013-01-12T08:54:08Z</time>
      </trkpt>
      <trkpt lat="45.57954" lon="6.08508">
        <ele>1104</ele>
        <time>2013-01-12T08:54:10Z</time>
      </trkpt>
      <trkpt lat="45.57954" lon="6.08507">
        <ele>1104</ele>
        <time>2013-01-12T08:54:12Z</time>
      </trkpt>
      <trkpt lat="45.57955" lon="6.08505">
        <ele>1104</ele>
        <time>2013-01-12T08:54:15Z</time>
      </trkpt>
      <trkpt lat="45.57956" lon="6.08504">
        <ele>1104</ele>
        <time>2013-01-12T08:54:17Z</time>
      </trkpt>
      <trkpt lat="45.57958" lon="6.08503">
        <ele>1104</ele>
        <time>2013-01-12T08:54:19Z</time>
      </trkpt>
      <trkpt lat="45.5796" lon="6.08502">
        <ele>1104</ele>
        <time>2013-01-12T08:54:21Z</time>
      </trkpt>
      <trkpt lat="45.57962" lon="6.08501">
        <ele>1104</ele>
        <time>2013-01-12T08:54:23Z</time>
      </trkpt>
      <trkpt lat="45.57962" lon="6.08498">
        <ele>1104</ele>
        <time>2013-01-12T08:54:25Z</time>
      </trkpt>
      <trkpt lat="45.57963" lon="6.08496">
        <ele>1104</ele>
        <time>2013-01-12T08:54:27Z</time>
      </trkpt>
      <trkpt lat="45.57963" lon="6.08494">
        <ele>1104</ele>
        <time>2013-01-12T08:54:29Z</time>
      </trkpt>
      <trkpt lat="45.57965" lon="6.08492">
        <ele>1104</ele>
        <time>2013-01-12T08:54:31Z</time>
      </trkpt>
      <trkpt lat="45.57967" lon="6.08492">
        <ele>1104</ele>
        <time>2013-01-12T08:54:33Z</time>
      </trkpt>
      <trkpt lat="45.57969" lon="6.08492">
        <ele>1104</ele>
        <time>2013-01-12T08:54:35Z</time>
      </trkpt>
      <trkpt lat="45.57969" lon="6.08489">
        <ele>1104</ele>
        <time>2013-01-12T08:54:37Z</time>
      </trkpt>
      <trkpt lat="45.57969" lon="6.08485">
        <ele>1104</ele>
        <time>2013-01-12T08:54:40Z</time>
      </trkpt>
      <trkpt lat="45.57969" lon="6.08483">
        <ele>1104</ele>
        <time>2013-01-12T08:54:42Z</time>
      </trkpt>
      <trkpt lat="45.57969" lon="6.08482">
        <ele>1104</ele>
        <time>2013-01-12T08:54:44Z</time>
      </trkpt>
      <trkpt lat="45.57967" lon="6.0848">
        <ele>1105</ele>
        <time>2013-01-12T08:54:46Z</time>
      </trkpt>
      <trkpt lat="45.57966" lon="6.08478">
        <ele>1105</ele>
        <time>2013-01-12T08:54:48Z</time>
      </trkpt>
      <trkpt lat="45.57965" lon="6.08476">
        <ele>1105</ele>
        <time>2013-01-12T08:54:50Z</time>
      </trkpt>
      <trkpt lat="45.57964" lon="6.08475">
        <ele>1105</ele>
        <time>2013-01-12T08:54:52Z</time>
      </trkpt>
      <trkpt lat="45.57963" lon="6.08473">
        <ele>1105</ele>
        <time>2013-01-12T08:54:55Z</time>
      </trkpt>
      <trkpt lat="45.57961" lon="6.08472">
        <ele>1105</ele>
        <time>2013-01-12T08:54:58Z</time>
      </trkpt>
      <trkpt lat="45.5796" lon="6.0847">
        <ele>1105</ele>
        <time>2013-01-12T08:55:01Z</time>
      </trkpt>
      <trkpt lat="45.57959" lon="6.08466">
        <ele>1106</ele>
        <time>2013-01-12T08:55:05Z</time>
      </trkpt>
      <trkpt lat="45.57958" lon="6.08464">
        <ele>1107</ele>
        <time>2013-01-12T08:55:08Z</time>
      </trkpt>
      <trkpt lat="45.57957" lon="6.08463">
        <ele>1107</ele>
        <time>2013-01-12T08:55:11Z</time>
      </trkpt>
      <trkpt lat="45.57956" lon="6.08461">
        <ele>1108</ele>
        <time>2013-01-12T08:55:13Z</time>
      </trkpt>
      <trkpt lat="45.57954" lon="6.08459">
        <ele>1110</ele>
        <time>2013-01-12T08:55:17Z</time>
      </trkpt>
      <trkpt lat="45.57952" lon="6.08458">
        <ele>1110</ele>
        <time>2013-01-12T08:55:19Z</time>
      </trkpt>
      <trkpt lat="45.57949" lon="6.08457">
        <ele>1111</ele>
        <time>2013-01-12T08:55:23Z</time>
      </trkpt>
      <trkpt lat="45.57947" lon="6.08457">
        <ele>1111</ele>
        <time>2013-01-12T08:55:25Z</time>
      </trkpt>
      <trkpt lat="45.57945" lon="6.08456">
        <ele>1111</ele>
        <time>2013-01-12T08:55:29Z</time>
      </trkpt>
      <trkpt lat="45.57943" lon="6.08455">
        <ele>1111</ele>
        <time>2013-01-12T08:55:32Z</time>
      </trkpt>
      <trkpt lat="45.57942" lon="6.08453">
        <ele>1111</ele>
        <time>2013-01-12T08:55:35Z</time>
      </trkpt>
      <trkpt lat="45.57941" lon="6.08452">
        <ele>1111</ele>
        <time>2013-01-12T08:55:37Z</time>
      </trkpt>
      <trkpt lat="45.57939" lon="6.08452">
        <ele>1112</ele>
        <time>2013-01-12T08:55:40Z</time>
      </trkpt>
      <trkpt lat="45.57938" lon="6.08452">
        <ele>1113</ele>
        <time>2013-01-12T08:55:42Z</time>
      </trkpt>
      <trkpt lat="45.57937" lon="6.08452">
        <ele>1113</ele>
        <time>2013-01-12T08:55:44Z</time>
      </trkpt>
      <trkpt lat="45.57934" lon="6.08452">
        <ele>1115</ele>
        <time>2013-01-12T08:55:49Z</time>
      </trkpt>
      <trkpt lat="45.57933" lon="6.08451">
        <ele>1116</ele>
        <time>2013-01-12T08:55:52Z</time>
      </trkpt>
      <trkpt lat="45.57931" lon="6.08448">
        <ele>1117</ele>
        <time>2013-01-12T08:55:56Z</time>
      </trkpt>
      <trkpt lat="45.5793" lon="6.08447">
        <ele>1118</ele>
        <time>2013-01-12T08:55:58Z</time>
      </trkpt>
      <trkpt lat="45.57928" lon="6.08445">
        <ele>1119</ele>
        <time>2013-01-12T08:56:01Z</time>
      </trkpt>
      <trkpt lat="45.57927" lon="6.08445">
        <ele>1119</ele>
        <time>2013-01-12T08:56:03Z</time>
      </trkpt>
      <trkpt lat="45.57925" lon="6.08445">
        <ele>1119</ele>
        <time>2013-01-12T08:56:08Z</time>
      </trkpt>
      <trkpt lat="45.57923" lon="6.08444">
        <ele>1119</ele>
        <time>2013-01-12T08:56:10Z</time>
      </trkpt>
      <trkpt lat="45.57922" lon="6.08442">
        <ele>1120</ele>
        <time>2013-01-12T08:56:13Z</time>
      </trkpt>
      <trkpt lat="45.57921" lon="6.0844">
        <ele>1121</ele>
        <time>2013-01-12T08:56:16Z</time>
      </trkpt>
      <trkpt lat="45.5792" lon="6.08439">
        <ele>1121</ele>
        <time>2013-01-12T08:56:19Z</time>
      </trkpt>
      <trkpt lat="45.57919" lon="6.08439">
        <ele>1121</ele>
        <time>2013-01-12T08:56:22Z</time>
      </trkpt>
      <trkpt lat="45.57917" lon="6.08439">
        <ele>1122</ele>
        <time>2013-01-12T08:56:24Z</time>
      </trkpt>
      <trkpt lat="45.57916" lon="6.08438">
        <ele>1122</ele>
        <time>2013-01-12T08:56:27Z</time>
      </trkpt>
      <trkpt lat="45.57916" lon="6.08436">
        <ele>1122</ele>
        <time>2013-01-12T08:56:29Z</time>
      </trkpt>
      <trkpt lat="45.57916" lon="6.08434">
        <ele>1122</ele>
        <time>2013-01-12T08:56:31Z</time>
      </trkpt>
      <trkpt lat="45.57909" lon="6.08424">
        <ele>1126</ele>
        <time>2013-01-12T08:56:40Z</time>
      </trkpt>
      <trkpt lat="45.5791" lon="6.08423">
        <ele>1126</ele>
        <time>2013-01-12T08:56:43Z</time>
      </trkpt>
      <trkpt lat="45.57891" lon="6.0839">
        <ele>1136</ele>
        <time>2013-01-12T08:56:47Z</time>
      </trkpt>
      <trkpt lat="45.57891" lon="6.08388">
        <ele>1137</ele>
        <time>2013-01-12T08:56:49Z</time>
      </trkpt>
      <trkpt lat="45.57891" lon="6.08365">
        <ele>1147</ele>
        <time>2013-01-12T08:57:05Z</time>
      </trkpt>
      <trkpt lat="45.57892" lon="6.08365">
        <ele>1147</ele>
        <time>2013-01-12T08:57:07Z</time>
      </trkpt>
      <trkpt lat="45.57893" lon="6.08364">
        <ele>1147</ele>
        <time>2013-01-12T08:57:12Z</time>
      </trkpt>
      <trkpt lat="45.57895" lon="6.08347">
        <ele>1147</ele>
        <time>2013-01-12T08:57:17Z</time>
      </trkpt>
      <trkpt lat="45.57866" lon="6.08339">
        <ele>1160</ele>
        <time>2013-01-12T08:57:21Z</time>
      </trkpt>
      <trkpt lat="45.5786" lon="6.08299">
        <ele>1177</ele>
        <time>2013-01-12T08:57:31Z</time>
      </trkpt>
      <trkpt lat="45.57859" lon="6.08298">
        <ele>1177</ele>
        <time>2013-01-12T08:57:34Z</time>
      </trkpt>
      <trkpt lat="45.57858" lon="6.08297">
        <ele>1177</ele>
        <time>2013-01-12T08:57:37Z</time>
      </trkpt>
      <trkpt lat="45.57856" lon="6.08297">
        <ele>1178</ele>
        <time>2013-01-12T08:57:40Z</time>
      </trkpt>
      <trkpt lat="45.57855" lon="6.08295">
        <ele>1178</ele>
        <time>2013-01-12T08:57:42Z</time>
      </trkpt>
      <trkpt lat="45.57855" lon="6.08293">
        <ele>1178</ele>
        <time>2013-01-12T08:57:44Z</time>
      </trkpt>
      <trkpt lat="45.57854" lon="6.08291">
        <ele>1181</ele>
        <time>2013-01-12T08:57:50Z</time>
      </trkpt>
      <trkpt lat="45.57853" lon="6.08289">
        <ele>1182</ele>
        <time>2013-01-12T08:57:52Z</time>
      </trkpt>
      <trkpt lat="45.57852" lon="6.08287">
        <ele>1183</ele>
        <time>2013-01-12T08:57:56Z</time>
      </trkpt>
      <trkpt lat="45.5785" lon="6.08283">
        <ele>1188</ele>
        <time>2013-01-12T08:58:01Z</time>
      </trkpt>
      <trkpt lat="45.57848" lon="6.08282">
        <ele>1188</ele>
        <time>2013-01-12T08:58:04Z</time>
      </trkpt>
      <trkpt lat="45.57848" lon="6.0828">
        <ele>1189</ele>
        <time>2013-01-12T08:58:08Z</time>
      </trkpt>
      <trkpt lat="45.57847" lon="6.08282">
        <ele>1195</ele>
        <time>2013-01-12T08:58:14Z</time>
      </trkpt>
      <trkpt lat="45.57847" lon="6.08281">
        <ele>1194</ele>
        <time>2013-01-12T08:58:17Z</time>
      </trkpt>
      <trkpt lat="45.57851" lon="6.08277">
        <ele>1194</ele>
        <time>2013-01-12T08:58:22Z</time>
      </trkpt>
      <trkpt lat="45.57853" lon="6.08276">
        <ele>1194</ele>
        <time>2013-01-12T08:58:26Z</time>
      </trkpt>
      <trkpt lat="45.57853" lon="6.08274">
        <ele>1194</ele>
        <time>2013-01-12T08:58:28Z</time>
      </trkpt>
      <trkpt lat="45.57854" lon="6.08273">
        <ele>1194</ele>
        <time>2013-01-12T08:58:30Z</time>
      </trkpt>
      <trkpt lat="45.57856" lon="6.08271">
        <ele>1194</ele>
        <time>2013-01-12T08:58:33Z</time>
      </trkpt>
      <trkpt lat="45.57857" lon="6.0827">
        <ele>1194</ele>
        <time>2013-01-12T08:58:36Z</time>
      </trkpt>
      <trkpt lat="45.57861" lon="6.08267">
        <ele>1194</ele>
        <time>2013-01-12T08:58:41Z</time>
      </trkpt>
      <trkpt lat="45.57862" lon="6.08264">
        <ele>1194</ele>
        <time>2013-01-12T08:58:45Z</time>
      </trkpt>
      <trkpt lat="45.57862" lon="6.08262">
        <ele>1194</ele>
        <time>2013-01-12T08:58:49Z</time>
      </trkpt>
      <trkpt lat="45.57861" lon="6.0826">
        <ele>1194</ele>
        <time>2013-01-12T08:58:54Z</time>
      </trkpt>
      <trkpt lat="45.57862" lon="6.08259">
        <ele>1194</ele>
        <time>2013-01-12T08:58:57Z</time>
      </trkpt>
      <trkpt lat="45.57862" lon="6.08257">
        <ele>1194</ele>
        <time>2013-01-12T08:59:02Z</time>
      </trkpt>
      <trkpt lat="45.57852" lon="6.08255">
        <ele>1191</ele>
        <time>2013-01-12T08:59:07Z</time>
      </trkpt>
      <trkpt lat="45.57851" lon="6.08255">
        <ele>1191</ele>
        <time>2013-01-12T08:59:09Z</time>
      </trkpt>
      <trkpt lat="45.57849" lon="6.08253">
        <ele>1191</ele>
        <time>2013-01-12T08:59:11Z</time>
      </trkpt>
      <trkpt lat="45.5785" lon="6.08251">
        <ele>1191</ele>
        <time>2013-01-12T08:59:13Z</time>
      </trkpt>
      <trkpt lat="45.57851" lon="6.08249">
        <ele>1191</ele>
        <time>2013-01-12T08:59:15Z</time>
      </trkpt>
      <trkpt lat="45.57852" lon="6.08248">
        <ele>1191</ele>
        <time>2013-01-12T08:59:17Z</time>
      </trkpt>
      <trkpt lat="45.57852" lon="6.08246">
        <ele>1191</ele>
        <time>2013-01-12T08:59:19Z</time>
      </trkpt>
      <trkpt lat="45.57853" lon="6.08244">
        <ele>1191</ele>
        <time>2013-01-12T08:59:21Z</time>
      </trkpt>
      <trkpt lat="45.57853" lon="6.08236">
        <ele>1196</ele>
        <time>2013-01-12T08:59:27Z</time>
      </trkpt>
      <trkpt lat="45.57853" lon="6.08234">
        <ele>1197</ele>
        <time>2013-01-12T08:59:30Z</time>
      </trkpt>
      <trkpt lat="45.57853" lon="6.08233">
        <ele>1197</ele>
        <time>2013-01-12T08:59:32Z</time>
      </trkpt>
      <trkpt lat="45.57853" lon="6.0823">
        <ele>1197</ele>
        <time>2013-01-12T08:59:36Z</time>
      </trkpt>
      <trkpt lat="45.57853" lon="6.08228">
        <ele>1197</ele>
        <time>2013-01-12T08:59:39Z</time>
      </trkpt>
      <trkpt lat="45.57852" lon="6.08227">
        <ele>1197</ele>
        <time>2013-01-12T08:59:41Z</time>
      </trkpt>
      <trkpt lat="45.57851" lon="6.08225">
        <ele>1197</ele>
        <time>2013-01-12T08:59:43Z</time>
      </trkpt>
      <trkpt lat="45.57851" lon="6.08223">
        <ele>1197</ele>
        <time>2013-01-12T08:59:46Z</time>
      </trkpt>
      <trkpt lat="45.57851" lon="6.08221">
        <ele>1197</ele>
        <time>2013-01-12T08:59:48Z</time>
      </trkpt>
      <trkpt lat="45.57851" lon="6.0822">
        <ele>1198</ele>
        <time>2013-01-12T08:59:51Z</time>
      </trkpt>
      <trkpt lat="45.5785" lon="6.08218">
        <ele>1199</ele>
        <time>2013-01-12T08:59:54Z</time>
      </trkpt>
      <trkpt lat="45.5785" lon="6.08217">
        <ele>1200</ele>
        <time>2013-01-12T08:59:57Z</time>
      </trkpt>
      <trkpt lat="45.57849" lon="6.08215">
        <ele>1200</ele>
        <time>2013-01-12T09:00:00Z</time>
      </trkpt>
      <trkpt lat="45.57849" lon="6.08212">
        <ele>1200</ele>
        <time>2013-01-12T09:00:03Z</time>
      </trkpt>
      <trkpt lat="45.57849" lon="6.08211">
        <ele>1200</ele>
        <time>2013-01-12T09:00:05Z</time>
      </trkpt>
      <trkpt lat="45.5785" lon="6.08209">
        <ele>1200</ele>
        <time>2013-01-12T09:00:08Z</time>
      </trkpt>
      <trkpt lat="45.5785" lon="6.08207">
        <ele>1201</ele>
        <time>2013-01-12T09:00:10Z</time>
      </trkpt>
      <trkpt lat="45.57852" lon="6.08204">
        <ele>1202</ele>
        <time>2013-01-12T09:00:14Z</time>
      </trkpt>
      <trkpt lat="45.57851" lon="6.08203">
        <ele>1206</ele>
        <time>2013-01-12T09:00:20Z</time>
      </trkpt>
      <trkpt lat="45.57845" lon="6.0819">
        <ele>1213</ele>
        <time>2013-01-12T09:00:28Z</time>
      </trkpt>
      <trkpt lat="45.57844" lon="6.08189">
        <ele>1213</ele>
        <time>2013-01-12T09:00:31Z</time>
      </trkpt>
      <trkpt lat="45.57843" lon="6.0819">
        <ele>1214</ele>
        <time>2013-01-12T09:00:34Z</time>
      </trkpt>
      <trkpt lat="45.57839" lon="6.08192">
        <ele>1215</ele>
        <time>2013-01-12T09:00:40Z</time>
      </trkpt>
      <trkpt lat="45.57835" lon="6.08183">
        <ele>1217</ele>
        <time>2013-01-12T09:00:49Z</time>
      </trkpt>
      <trkpt lat="45.57835" lon="6.08178">
        <ele>1217</ele>
        <time>2013-01-12T09:00:53Z</time>
      </trkpt>
      <trkpt lat="45.57836" lon="6.08177">
        <ele>1217</ele>
        <time>2013-01-12T09:00:55Z</time>
      </trkpt>
      <trkpt lat="45.57837" lon="6.08175">
        <ele>1217</ele>
        <time>2013-01-12T09:00:58Z</time>
      </trkpt>
      <trkpt lat="45.5784" lon="6.08173">
        <ele>1218</ele>
        <time>2013-01-12T09:01:03Z</time>
      </trkpt>
      <trkpt lat="45.57843" lon="6.08171">
        <ele>1221</ele>
        <time>2013-01-12T09:01:08Z</time>
      </trkpt>
      <trkpt lat="45.57843" lon="6.08167">
        <ele>1223</ele>
        <time>2013-01-12T09:01:14Z</time>
      </trkpt>
      <trkpt lat="45.57843" lon="6.08165">
        <ele>1223</ele>
        <time>2013-01-12T09:01:17Z</time>
      </trkpt>
      <trkpt lat="45.57843" lon="6.08163">
        <ele>1223</ele>
        <time>2013-01-12T09:01:20Z</time>
      </trkpt>
      <trkpt lat="45.57843" lon="6.08161">
        <ele>1223</ele>
        <time>2013-01-12T09:01:23Z</time>
      </trkpt>
      <trkpt lat="45.57842" lon="6.08158">
        <ele>1223</ele>
        <time>2013-01-12T09:01:25Z</time>
      </trkpt>
      <trkpt lat="45.57841" lon="6.08157">
        <ele>1223</ele>
        <time>2013-01-12T09:01:28Z</time>
      </trkpt>
      <trkpt lat="45.57839" lon="6.08156">
        <ele>1223</ele>
        <time>2013-01-12T09:01:31Z</time>
      </trkpt>
      <trkpt lat="45.57838" lon="6.08157">
        <ele>1223</ele>
        <time>2013-01-12T09:01:33Z</time>
      </trkpt>
      <trkpt lat="45.57835" lon="6.08157">
        <ele>1223</ele>
        <time>2013-01-12T09:01:37Z</time>
      </trkpt>
      <trkpt lat="45.57833" lon="6.08157">
        <ele>1223</ele>
        <time>2013-01-12T09:01:39Z</time>
      </trkpt>
      <trkpt lat="45.57832" lon="6.08157">
        <ele>1223</ele>
        <time>2013-01-12T09:01:42Z</time>
      </trkpt>
      <trkpt lat="45.5783" lon="6.08157">
        <ele>1223</ele>
        <time>2013-01-12T09:01:44Z</time>
      </trkpt>
      <trkpt lat="45.57828" lon="6.08155">
        <ele>1223</ele>
        <time>2013-01-12T09:01:49Z</time>
      </trkpt>
      <trkpt lat="45.57826" lon="6.08153">
        <ele>1223</ele>
        <time>2013-01-12T09:01:52Z</time>
      </trkpt>
      <trkpt lat="45.57824" lon="6.08154">
        <ele>1223</ele>
        <time>2013-01-12T09:01:54Z</time>
      </trkpt>
      <trkpt lat="45.57822" lon="6.08153">
        <ele>1226</ele>
        <time>2013-01-12T09:01:59Z</time>
      </trkpt>
      <trkpt lat="45.57821" lon="6.08152">
        <ele>1227</ele>
        <time>2013-01-12T09:02:03Z</time>
      </trkpt>
      <trkpt lat="45.5782" lon="6.08152">
        <ele>1227</ele>
        <time>2013-01-12T09:02:05Z</time>
      </trkpt>
      <trkpt lat="45.57818" lon="6.0815">
        <ele>1228</ele>
        <time>2013-01-12T09:02:08Z</time>
      </trkpt>
      <trkpt lat="45.57817" lon="6.08149">
        <ele>1228</ele>
        <time>2013-01-12T09:02:10Z</time>
      </trkpt>
      <trkpt lat="45.57816" lon="6.08151">
        <ele>1228</ele>
        <time>2013-01-12T09:02:12Z</time>
      </trkpt>
      <trkpt lat="45.57815" lon="6.08151">
        <ele>1228</ele>
        <time>2013-01-12T09:02:16Z</time>
      </trkpt>
      <trkpt lat="45.57812" lon="6.08151">
        <ele>1228</ele>
        <time>2013-01-12T09:02:20Z</time>
      </trkpt>
      <trkpt lat="45.57811" lon="6.08149">
        <ele>1228</ele>
        <time>2013-01-12T09:02:22Z</time>
      </trkpt>
      <trkpt lat="45.57809" lon="6.08147">
        <ele>1228</ele>
        <time>2013-01-12T09:02:26Z</time>
      </trkpt>
      <trkpt lat="45.57808" lon="6.08146">
        <ele>1228</ele>
        <time>2013-01-12T09:02:29Z</time>
      </trkpt>
      <trkpt lat="45.57806" lon="6.08145">
        <ele>1228</ele>
        <time>2013-01-12T09:02:32Z</time>
      </trkpt>
      <trkpt lat="45.57804" lon="6.08144">
        <ele>1228</ele>
        <time>2013-01-12T09:02:34Z</time>
      </trkpt>
      <trkpt lat="45.57802" lon="6.08142">
        <ele>1229</ele>
        <time>2013-01-12T09:02:38Z</time>
      </trkpt>
      <trkpt lat="45.57801" lon="6.08141">
        <ele>1230</ele>
        <time>2013-01-12T09:02:40Z</time>
      </trkpt>
      <trkpt lat="45.57797" lon="6.0814">
        <ele>1231</ele>
        <time>2013-01-12T09:02:44Z</time>
      </trkpt>
      <trkpt lat="45.57796" lon="6.08138">
        <ele>1231</ele>
        <time>2013-01-12T09:02:46Z</time>
      </trkpt>
      <trkpt lat="45.57795" lon="6.08136">
        <ele>1232</ele>
        <time>2013-01-12T09:02:49Z</time>
      </trkpt>
      <trkpt lat="45.57794" lon="6.08135">
        <ele>1233</ele>
        <time>2013-01-12T09:02:51Z</time>
      </trkpt>
      <trkpt lat="45.57793" lon="6.08134">
        <ele>1233</ele>
        <time>2013-01-12T09:02:53Z</time>
      </trkpt>
      <trkpt lat="45.57792" lon="6.08132">
        <ele>1234</ele>
        <time>2013-01-12T09:02:55Z</time>
      </trkpt>
      <trkpt lat="45.57793" lon="6.08131">
        <ele>1234</ele>
        <time>2013-01-12T09:02:57Z</time>
      </trkpt>
      <trkpt lat="45.57794" lon="6.0813">
        <ele>1235</ele>
        <time>2013-01-12T09:03:00Z</time>
      </trkpt>
      <trkpt lat="45.57795" lon="6.08132">
        <ele>1236</ele>
        <time>2013-01-12T09:03:04Z</time>
      </trkpt>
      <trkpt lat="45.57797" lon="6.08131">
        <ele>1236</ele>
        <time>2013-01-12T09:03:06Z</time>
      </trkpt>
      <trkpt lat="45.57798" lon="6.08132">
        <ele>1237</ele>
        <time>2013-01-12T09:03:08Z</time>
      </trkpt>
      <trkpt lat="45.57803" lon="6.08127">
        <ele>1242</ele>
        <time>2013-01-12T09:03:13Z</time>
      </trkpt>
      <trkpt lat="45.57804" lon="6.08124">
        <ele>1242</ele>
        <time>2013-01-12T09:03:17Z</time>
      </trkpt>
      <trkpt lat="45.57806" lon="6.08122">
        <ele>1242</ele>
        <time>2013-01-12T09:03:20Z</time>
      </trkpt>
      <trkpt lat="45.57808" lon="6.0812">
        <ele>1242</ele>
        <time>2013-01-12T09:03:25Z</time>
      </trkpt>
      <trkpt lat="45.57811" lon="6.08118">
        <ele>1242</ele>
        <time>2013-01-12T09:03:29Z</time>
      </trkpt>
      <trkpt lat="45.57815" lon="6.08119">
        <ele>1239</ele>
        <time>2013-01-12T09:03:36Z</time>
      </trkpt>
      <trkpt lat="45.57818" lon="6.08121">
        <ele>1238</ele>
        <time>2013-01-12T09:03:43Z</time>
      </trkpt>
      <trkpt lat="45.57816" lon="6.08123">
        <ele>1238</ele>
        <time>2013-01-12T09:03:55Z</time>
      </trkpt>
      <trkpt lat="45.57816" lon="6.08124">
        <ele>1241</ele>
        <time>2013-01-12T09:03:59Z</time>
      </trkpt>
      <trkpt lat="45.57823" lon="6.08118">
        <ele>1242</ele>
        <time>2013-01-12T09:04:02Z</time>
      </trkpt>
      <trkpt lat="45.57824" lon="6.08117">
        <ele>1242</ele>
        <time>2013-01-12T09:04:04Z</time>
      </trkpt>
      <trkpt lat="45.57826" lon="6.08116">
        <ele>1242</ele>
        <time>2013-01-12T09:04:06Z</time>
      </trkpt>
      <trkpt lat="45.57827" lon="6.08115">
        <ele>1242</ele>
        <time>2013-01-12T09:04:08Z</time>
      </trkpt>
      <trkpt lat="45.57828" lon="6.08113">
        <ele>1242</ele>
        <time>2013-01-12T09:04:10Z</time>
      </trkpt>
      <trkpt lat="45.57829" lon="6.08112">
        <ele>1242</ele>
        <time>2013-01-12T09:04:12Z</time>
      </trkpt>
      <trkpt lat="45.5783" lon="6.0811">
        <ele>1242</ele>
        <time>2013-01-12T09:04:14Z</time>
      </trkpt>
      <trkpt lat="45.57831" lon="6.08109">
        <ele>1242</ele>
        <time>2013-01-12T09:04:17Z</time>
      </trkpt>
      <trkpt lat="45.57833" lon="6.08108">
        <ele>1242</ele>
        <time>2013-01-12T09:04:20Z</time>
      </trkpt>
      <trkpt lat="45.57834" lon="6.08106">
        <ele>1242</ele>
        <time>2013-01-12T09:04:22Z</time>
      </trkpt>
      <trkpt lat="45.57835" lon="6.08105">
        <ele>1242</ele>
        <time>2013-01-12T09:04:24Z</time>
      </trkpt>
      <trkpt lat="45.57836" lon="6.08103">
        <ele>1242</ele>
        <time>2013-01-12T09:04:26Z</time>
      </trkpt>
      <trkpt lat="45.57837" lon="6.08102">
        <ele>1242</ele>
        <time>2013-01-12T09:04:29Z</time>
      </trkpt>
      <trkpt lat="45.57838" lon="6.081">
        <ele>1242</ele>
        <time>2013-01-12T09:04:31Z</time>
      </trkpt>
      <trkpt lat="45.57839" lon="6.08098">
        <ele>1242</ele>
        <time>2013-01-12T09:04:33Z</time>
      </trkpt>
      <trkpt lat="45.5784" lon="6.08096">
        <ele>1241</ele>
        <time>2013-01-12T09:04:36Z</time>
      </trkpt>
      <trkpt lat="45.5784" lon="6.08091">
        <ele>1241</ele>
        <time>2013-01-12T09:04:39Z</time>
      </trkpt>
      <trkpt lat="45.5784" lon="6.08088">
        <ele>1241</ele>
        <time>2013-01-12T09:04:41Z</time>
      </trkpt>
      <trkpt lat="45.5784" lon="6.08085">
        <ele>1241</ele>
        <time>2013-01-12T09:04:43Z</time>
      </trkpt>
      <trkpt lat="45.57841" lon="6.08083">
        <ele>1241</ele>
        <time>2013-01-12T09:04:45Z</time>
      </trkpt>
      <trkpt lat="45.5784" lon="6.0808">
        <ele>1241</ele>
        <time>2013-01-12T09:04:47Z</time>
      </trkpt>
      <trkpt lat="45.57842" lon="6.08079">
        <ele>1241</ele>
        <time>2013-01-12T09:04:50Z</time>
      </trkpt>
      <trkpt lat="45.57843" lon="6.08077">
        <ele>1241</ele>
        <time>2013-01-12T09:04:52Z</time>
      </trkpt>
      <trkpt lat="45.57844" lon="6.08075">
        <ele>1241</ele>
        <time>2013-01-12T09:04:54Z</time>
      </trkpt>
      <trkpt lat="45.57845" lon="6.08072">
        <ele>1241</ele>
        <time>2013-01-12T09:04:57Z</time>
      </trkpt>
      <trkpt lat="45.57846" lon="6.08069">
        <ele>1241</ele>
        <time>2013-01-12T09:04:59Z</time>
      </trkpt>
      <trkpt lat="45.57846" lon="6.08068">
        <ele>1241</ele>
        <time>2013-01-12T09:05:01Z</time>
      </trkpt>
      <trkpt lat="45.57847" lon="6.08066">
        <ele>1241</ele>
        <time>2013-01-12T09:05:03Z</time>
      </trkpt>
      <trkpt lat="45.57847" lon="6.08064">
        <ele>1241</ele>
        <time>2013-01-12T09:05:05Z</time>
      </trkpt>
      <trkpt lat="45.57847" lon="6.08062">
        <ele>1241</ele>
        <time>2013-01-12T09:05:07Z</time>
      </trkpt>
      <trkpt lat="45.57848" lon="6.0806">
        <ele>1241</ele>
        <time>2013-01-12T09:05:09Z</time>
      </trkpt>
      <trkpt lat="45.57848" lon="6.08055">
        <ele>1241</ele>
        <time>2013-01-12T09:05:12Z</time>
      </trkpt>
      <trkpt lat="45.57849" lon="6.08051">
        <ele>1242</ele>
        <time>2013-01-12T09:05:15Z</time>
      </trkpt>
      <trkpt lat="45.5785" lon="6.08049">
        <ele>1242</ele>
        <time>2013-01-12T09:05:17Z</time>
      </trkpt>
      <trkpt lat="45.57851" lon="6.08048">
        <ele>1243</ele>
        <time>2013-01-12T09:05:19Z</time>
      </trkpt>
      <trkpt lat="45.57852" lon="6.08045">
        <ele>1243</ele>
        <time>2013-01-12T09:05:21Z</time>
      </trkpt>
      <trkpt lat="45.57854" lon="6.08042">
        <ele>1243</ele>
        <time>2013-01-12T09:05:24Z</time>
      </trkpt>
      <trkpt lat="45.57854" lon="6.08039">
        <ele>1243</ele>
        <time>2013-01-12T09:05:26Z</time>
      </trkpt>
      <trkpt lat="45.57855" lon="6.08037">
        <ele>1243</ele>
        <time>2013-01-12T09:05:28Z</time>
      </trkpt>
      <trkpt lat="45.57856" lon="6.08034">
        <ele>1243</ele>
        <time>2013-01-12T09:05:31Z</time>
      </trkpt>
      <trkpt lat="45.57858" lon="6.0803">
        <ele>1243</ele>
        <time>2013-01-12T09:05:34Z</time>
      </trkpt>
      <trkpt lat="45.57859" lon="6.08028">
        <ele>1243</ele>
        <time>2013-01-12T09:05:36Z</time>
      </trkpt>
      <trkpt lat="45.57859" lon="6.08026">
        <ele>1243</ele>
        <time>2013-01-12T09:05:38Z</time>
      </trkpt>
      <trkpt lat="45.5786" lon="6.08024">
        <ele>1243</ele>
        <time>2013-01-12T09:05:41Z</time>
      </trkpt>
      <trkpt lat="45.57861" lon="6.08021">
        <ele>1243</ele>
        <time>2013-01-12T09:05:43Z</time>
      </trkpt>
      <trkpt lat="45.57862" lon="6.08018">
        <ele>1243</ele>
        <time>2013-01-12T09:05:45Z</time>
      </trkpt>
      <trkpt lat="45.57863" lon="6.08016">
        <ele>1243</ele>
        <time>2013-01-12T09:05:47Z</time>
      </trkpt>
      <trkpt lat="45.57862" lon="6.08012">
        <ele>1243</ele>
        <time>2013-01-12T09:05:49Z</time>
      </trkpt>
      <trkpt lat="45.57864" lon="6.08009">
        <ele>1244</ele>
        <time>2013-01-12T09:05:51Z</time>
      </trkpt>
      <trkpt lat="45.57864" lon="6.08004">
        <ele>1244</ele>
        <time>2013-01-12T09:05:54Z</time>
      </trkpt>
      <trkpt lat="45.57866" lon="6.08">
        <ele>1244</ele>
        <time>2013-01-12T09:05:57Z</time>
      </trkpt>
      <trkpt lat="45.57867" lon="6.07998">
        <ele>1244</ele>
        <time>2013-01-12T09:05:59Z</time>
      </trkpt>
      <trkpt lat="45.5787" lon="6.07995">
        <ele>1246</ele>
        <time>2013-01-12T09:06:03Z</time>
      </trkpt>
      <trkpt lat="45.57872" lon="6.07992">
        <ele>1247</ele>
        <time>2013-01-12T09:06:06Z</time>
      </trkpt>
      <trkpt lat="45.57876" lon="6.07992">
        <ele>1249</ele>
        <time>2013-01-12T09:06:09Z</time>
      </trkpt>
      <trkpt lat="45.57877" lon="6.07993">
        <ele>1250</ele>
        <time>2013-01-12T09:06:11Z</time>
      </trkpt>
      <trkpt lat="45.57879" lon="6.07991">
        <ele>1251</ele>
        <time>2013-01-12T09:06:14Z</time>
      </trkpt>
      <trkpt lat="45.57881" lon="6.07991">
        <ele>1252</ele>
        <time>2013-01-12T09:06:16Z</time>
      </trkpt>
      <trkpt lat="45.57883" lon="6.07993">
        <ele>1253</ele>
        <time>2013-01-12T09:06:18Z</time>
      </trkpt>
      <trkpt lat="45.57885" lon="6.07996">
        <ele>1253</ele>
        <time>2013-01-12T09:06:20Z</time>
      </trkpt>
      <trkpt lat="45.57888" lon="6.07998">
        <ele>1254</ele>
        <time>2013-01-12T09:06:23Z</time>
      </trkpt>
      <trkpt lat="45.57892" lon="6.07999">
        <ele>1255</ele>
        <time>2013-01-12T09:06:26Z</time>
      </trkpt>
      <trkpt lat="45.57895" lon="6.08001">
        <ele>1255</ele>
        <time>2013-01-12T09:06:29Z</time>
      </trkpt>
      <trkpt lat="45.57898" lon="6.08002">
        <ele>1255</ele>
        <time>2013-01-12T09:06:32Z</time>
      </trkpt>
      <trkpt lat="45.57899" lon="6.08004">
        <ele>1255</ele>
        <time>2013-01-12T09:06:34Z</time>
      </trkpt>
      <trkpt lat="45.579" lon="6.08008">
        <ele>1255</ele>
        <time>2013-01-12T09:06:37Z</time>
      </trkpt>
      <trkpt lat="45.57901" lon="6.0801">
        <ele>1255</ele>
        <time>2013-01-12T09:06:39Z</time>
      </trkpt>
      <trkpt lat="45.57902" lon="6.08013">
        <ele>1255</ele>
        <time>2013-01-12T09:06:41Z</time>
      </trkpt>
      <trkpt lat="45.57904" lon="6.08016">
        <ele>1257</ele>
        <time>2013-01-12T09:06:43Z</time>
      </trkpt>
      <trkpt lat="45.57906" lon="6.0802">
        <ele>1260</ele>
        <time>2013-01-12T09:06:46Z</time>
      </trkpt>
      <trkpt lat="45.5791" lon="6.08024">
        <ele>1263</ele>
        <time>2013-01-12T09:06:50Z</time>
      </trkpt>
      <trkpt lat="45.57913" lon="6.08026">
        <ele>1265</ele>
        <time>2013-01-12T09:06:54Z</time>
      </trkpt>
      <trkpt lat="45.57915" lon="6.08026">
        <ele>1265</ele>
        <time>2013-01-12T09:06:56Z</time>
      </trkpt>
      <trkpt lat="45.57919" lon="6.08027">
        <ele>1265</ele>
        <time>2013-01-12T09:06:59Z</time>
      </trkpt>
      <trkpt lat="45.57922" lon="6.08028">
        <ele>1265</ele>
        <time>2013-01-12T09:07:02Z</time>
      </trkpt>
      <trkpt lat="45.57924" lon="6.0803">
        <ele>1265</ele>
        <time>2013-01-12T09:07:04Z</time>
      </trkpt>
      <trkpt lat="45.57926" lon="6.08031">
        <ele>1265</ele>
        <time>2013-01-12T09:07:06Z</time>
      </trkpt>
      <trkpt lat="45.57928" lon="6.08032">
        <ele>1265</ele>
        <time>2013-01-12T09:07:08Z</time>
      </trkpt>
      <trkpt lat="45.5793" lon="6.08033">
        <ele>1265</ele>
        <time>2013-01-12T09:07:10Z</time>
      </trkpt>
      <trkpt lat="45.57931" lon="6.08035">
        <ele>1265</ele>
        <time>2013-01-12T09:07:12Z</time>
      </trkpt>
      <trkpt lat="45.57933" lon="6.08037">
        <ele>1265</ele>
        <time>2013-01-12T09:07:14Z</time>
      </trkpt>
      <trkpt lat="45.57936" lon="6.08037">
        <ele>1265</ele>
        <time>2013-01-12T09:07:17Z</time>
      </trkpt>
      <trkpt lat="45.57937" lon="6.08038">
        <ele>1265</ele>
        <time>2013-01-12T09:07:19Z</time>
      </trkpt>
      <trkpt lat="45.5794" lon="6.08039">
        <ele>1265</ele>
        <time>2013-01-12T09:07:22Z</time>
      </trkpt>
      <trkpt lat="45.57943" lon="6.08042">
        <ele>1265</ele>
        <time>2013-01-12T09:07:25Z</time>
      </trkpt>
      <trkpt lat="45.57946" lon="6.08044">
        <ele>1265</ele>
        <time>2013-01-12T09:07:28Z</time>
      </trkpt>
      <trkpt lat="45.57948" lon="6.08045">
        <ele>1265</ele>
        <time>2013-01-12T09:07:30Z</time>
      </trkpt>
      <trkpt lat="45.57949" lon="6.08046">
        <ele>1265</ele>
        <time>2013-01-12T09:07:32Z</time>
      </trkpt>
      <trkpt lat="45.5795" lon="6.08047">
        <ele>1265</ele>
        <time>2013-01-12T09:07:34Z</time>
      </trkpt>
      <trkpt lat="45.57952" lon="6.08049">
        <ele>1265</ele>
        <time>2013-01-12T09:07:36Z</time>
      </trkpt>
      <trkpt lat="45.57954" lon="6.0805">
        <ele>1263</ele>
        <time>2013-01-12T09:07:38Z</time>
      </trkpt>
      <trkpt lat="45.57956" lon="6.08052">
        <ele>1262</ele>
        <time>2013-01-12T09:07:41Z</time>
      </trkpt>
      <trkpt lat="45.57958" lon="6.08053">
        <ele>1262</ele>
        <time>2013-01-12T09:07:43Z</time>
      </trkpt>
      <trkpt lat="45.5796" lon="6.08055">
        <ele>1261</ele>
        <time>2013-01-12T09:07:45Z</time>
      </trkpt>
      <trkpt lat="45.57962" lon="6.08056">
        <ele>1261</ele>
        <time>2013-01-12T09:07:47Z</time>
      </trkpt>
      <trkpt lat="45.57964" lon="6.08058">
        <ele>1261</ele>
        <time>2013-01-12T09:07:49Z</time>
      </trkpt>
      <trkpt lat="45.57966" lon="6.08057">
        <ele>1261</ele>
        <time>2013-01-12T09:07:51Z</time>
      </trkpt>
      <trkpt lat="45.57969" lon="6.08057">
        <ele>1261</ele>
        <time>2013-01-12T09:07:53Z</time>
      </trkpt>
      <trkpt lat="45.57972" lon="6.08059">
        <ele>1261</ele>
        <time>2013-01-12T09:07:56Z</time>
      </trkpt>
      <trkpt lat="45.57973" lon="6.08059">
        <ele>1261</ele>
        <time>2013-01-12T09:07:58Z</time>
      </trkpt>
      <trkpt lat="45.57976" lon="6.08061">
        <ele>1261</ele>
        <time>2013-01-12T09:08:01Z</time>
      </trkpt>
      <trkpt lat="45.57978" lon="6.08062">
        <ele>1261</ele>
        <time>2013-01-12T09:08:04Z</time>
      </trkpt>
      <trkpt lat="45.57981" lon="6.08062">
        <ele>1261</ele>
        <time>2013-01-12T09:08:08Z</time>
      </trkpt>
      <trkpt lat="45.57983" lon="6.08062">
        <ele>1261</ele>
        <time>2013-01-12T09:08:10Z</time>
      </trkpt>
      <trkpt lat="45.57985" lon="6.08063">
        <ele>1261</ele>
        <time>2013-01-12T09:08:12Z</time>
      </trkpt>
      <trkpt lat="45.57986" lon="6.08063">
        <ele>1262</ele>
        <time>2013-01-12T09:08:15Z</time>
      </trkpt>
      <trkpt lat="45.57987" lon="6.08061">
        <ele>1262</ele>
        <time>2013-01-12T09:08:17Z</time>
      </trkpt>
      <trkpt lat="45.57988" lon="6.08061">
        <ele>1262</ele>
        <time>2013-01-12T09:08:19Z</time>
      </trkpt>
      <trkpt lat="45.57991" lon="6.0806">
        <ele>1262</ele>
        <time>2013-01-12T09:08:23Z</time>
      </trkpt>
      <trkpt lat="45.57993" lon="6.08059">
        <ele>1262</ele>
        <time>2013-01-12T09:08:25Z</time>
      </trkpt>
      <trkpt lat="45.57995" lon="6.0806">
        <ele>1262</ele>
        <time>2013-01-12T09:08:27Z</time>
      </trkpt>
      <trkpt lat="45.57996" lon="6.0806">
        <ele>1262</ele>
        <time>2013-01-12T09:08:30Z</time>
      </trkpt>
      <trkpt lat="45.57998" lon="6.08057">
        <ele>1262</ele>
        <time>2013-01-12T09:08:33Z</time>
      </trkpt>
      <trkpt lat="45.57998" lon="6.08055">
        <ele>1262</ele>
        <time>2013-01-12T09:08:35Z</time>
      </trkpt>
      <trkpt lat="45.57998" lon="6.08052">
        <ele>1263</ele>
        <time>2013-01-12T09:08:38Z</time>
      </trkpt>
      <trkpt lat="45.57998" lon="6.0805">
        <ele>1264</ele>
        <time>2013-01-12T09:08:40Z</time>
      </trkpt>
      <trkpt lat="45.57996" lon="6.08048">
        <ele>1266</ele>
        <time>2013-01-12T09:08:44Z</time>
      </trkpt>
      <trkpt lat="45.57995" lon="6.08047">
        <ele>1269</ele>
        <time>2013-01-12T09:08:48Z</time>
      </trkpt>
      <trkpt lat="45.57995" lon="6.08045">
        <ele>1270</ele>
        <time>2013-01-12T09:08:50Z</time>
      </trkpt>
      <trkpt lat="45.57994" lon="6.08043">
        <ele>1271</ele>
        <time>2013-01-12T09:08:52Z</time>
      </trkpt>
      <trkpt lat="45.57993" lon="6.08041">
        <ele>1271</ele>
        <time>2013-01-12T09:08:54Z</time>
      </trkpt>
      <trkpt lat="45.57992" lon="6.08039">
        <ele>1271</ele>
        <time>2013-01-12T09:08:56Z</time>
      </trkpt>
      <trkpt lat="45.57991" lon="6.08038">
        <ele>1271</ele>
        <time>2013-01-12T09:08:58Z</time>
      </trkpt>
      <trkpt lat="45.5799" lon="6.08037">
        <ele>1271</ele>
        <time>2013-01-12T09:09:00Z</time>
      </trkpt>
      <trkpt lat="45.57988" lon="6.08038">
        <ele>1271</ele>
        <time>2013-01-12T09:09:02Z</time>
      </trkpt>
      <trkpt lat="45.57988" lon="6.08036">
        <ele>1271</ele>
        <time>2013-01-12T09:09:04Z</time>
      </trkpt>
      <trkpt lat="45.57986" lon="6.08034">
        <ele>1271</ele>
        <time>2013-01-12T09:09:06Z</time>
      </trkpt>
      <trkpt lat="45.57985" lon="6.08033">
        <ele>1271</ele>
        <time>2013-01-12T09:09:09Z</time>
      </trkpt>
      <trkpt lat="45.57983" lon="6.08031">
        <ele>1271</ele>
        <time>2013-01-12T09:09:11Z</time>
      </trkpt>
      <trkpt lat="45.57981" lon="6.08031">
        <ele>1271</ele>
        <time>2013-01-12T09:09:13Z</time>
      </trkpt>
      <trkpt lat="45.5798" lon="6.0803">
        <ele>1271</ele>
        <time>2013-01-12T09:09:15Z</time>
      </trkpt>
      <trkpt lat="45.57978" lon="6.08029">
        <ele>1271</ele>
        <time>2013-01-12T09:09:17Z</time>
      </trkpt>
      <trkpt lat="45.57976" lon="6.08028">
        <ele>1271</ele>
        <time>2013-01-12T09:09:19Z</time>
      </trkpt>
      <trkpt lat="45.57976" lon="6.08025">
        <ele>1271</ele>
        <time>2013-01-12T09:09:21Z</time>
      </trkpt>
      <trkpt lat="45.57976" lon="6.08023">
        <ele>1271</ele>
        <time>2013-01-12T09:09:23Z</time>
      </trkpt>
      <trkpt lat="45.57974" lon="6.08022">
        <ele>1271</ele>
        <time>2013-01-12T09:09:25Z</time>
      </trkpt>
      <trkpt lat="45.57972" lon="6.08021">
        <ele>1271</ele>
        <time>2013-01-12T09:09:27Z</time>
      </trkpt>
      <trkpt lat="45.5797" lon="6.0802">
        <ele>1271</ele>
        <time>2013-01-12T09:09:29Z</time>
      </trkpt>
      <trkpt lat="45.57968" lon="6.08017">
        <ele>1271</ele>
        <time>2013-01-12T09:09:31Z</time>
      </trkpt>
      <trkpt lat="45.57966" lon="6.08016">
        <ele>1271</ele>
        <time>2013-01-12T09:09:33Z</time>
      </trkpt>
      <trkpt lat="45.57965" lon="6.08013">
        <ele>1271</ele>
        <time>2013-01-12T09:09:35Z</time>
      </trkpt>
      <trkpt lat="45.57964" lon="6.08012">
        <ele>1271</ele>
        <time>2013-01-12T09:09:37Z</time>
      </trkpt>
      <trkpt lat="45.57962" lon="6.08013">
        <ele>1271</ele>
        <time>2013-01-12T09:09:39Z</time>
      </trkpt>
      <trkpt lat="45.5796" lon="6.08012">
        <ele>1272</ele>
        <time>2013-01-12T09:09:42Z</time>
      </trkpt>
      <trkpt lat="45.57958" lon="6.08011">
        <ele>1274</ele>
        <time>2013-01-12T09:09:44Z</time>
      </trkpt>
      <trkpt lat="45.57957" lon="6.0801">
        <ele>1275</ele>
        <time>2013-01-12T09:09:46Z</time>
      </trkpt>
      <trkpt lat="45.57956" lon="6.08008">
        <ele>1276</ele>
        <time>2013-01-12T09:09:48Z</time>
      </trkpt>
      <trkpt lat="45.57954" lon="6.08008">
        <ele>1277</ele>
        <time>2013-01-12T09:09:50Z</time>
      </trkpt>
      <trkpt lat="45.57954" lon="6.08004">
        <ele>1278</ele>
        <time>2013-01-12T09:09:52Z</time>
      </trkpt>
      <trkpt lat="45.57954" lon="6.08">
        <ele>1278</ele>
        <time>2013-01-12T09:09:54Z</time>
      </trkpt>
      <trkpt lat="45.57952" lon="6.07997">
        <ele>1278</ele>
        <time>2013-01-12T09:09:56Z</time>
      </trkpt>
      <trkpt lat="45.57951" lon="6.07994">
        <ele>1278</ele>
        <time>2013-01-12T09:09:58Z</time>
      </trkpt>
      <trkpt lat="45.57949" lon="6.07993">
        <ele>1278</ele>
        <time>2013-01-12T09:10:00Z</time>
      </trkpt>
      <trkpt lat="45.57947" lon="6.07991">
        <ele>1278</ele>
        <time>2013-01-12T09:10:02Z</time>
      </trkpt>
      <trkpt lat="45.57946" lon="6.0799">
        <ele>1278</ele>
        <time>2013-01-12T09:10:05Z</time>
      </trkpt>
      <trkpt lat="45.57945" lon="6.07987">
        <ele>1278</ele>
        <time>2013-01-12T09:10:07Z</time>
      </trkpt>
      <trkpt lat="45.57944" lon="6.07987">
        <ele>1278</ele>
        <time>2013-01-12T09:10:09Z</time>
      </trkpt>
      <trkpt lat="45.57941" lon="6.07986">
        <ele>1279</ele>
        <time>2013-01-12T09:10:12Z</time>
      </trkpt>
      <trkpt lat="45.5794" lon="6.07983">
        <ele>1280</ele>
        <time>2013-01-12T09:10:14Z</time>
      </trkpt>
      <trkpt lat="45.57939" lon="6.07981">
        <ele>1281</ele>
        <time>2013-01-12T09:10:16Z</time>
      </trkpt>
      <trkpt lat="45.57936" lon="6.07979">
        <ele>1281</ele>
        <time>2013-01-12T09:10:18Z</time>
      </trkpt>
      <trkpt lat="45.57936" lon="6.07976">
        <ele>1281</ele>
        <time>2013-01-12T09:10:20Z</time>
      </trkpt>
      <trkpt lat="45.57935" lon="6.07975">
        <ele>1282</ele>
        <time>2013-01-12T09:10:22Z</time>
      </trkpt>
      <trkpt lat="45.57934" lon="6.07973">
        <ele>1282</ele>
        <time>2013-01-12T09:10:24Z</time>
      </trkpt>
      <trkpt lat="45.57933" lon="6.07971">
        <ele>1282</ele>
        <time>2013-01-12T09:10:26Z</time>
      </trkpt>
      <trkpt lat="45.57932" lon="6.0797">
        <ele>1282</ele>
        <time>2013-01-12T09:10:28Z</time>
      </trkpt>
      <trkpt lat="45.5793" lon="6.07967">
        <ele>1282</ele>
        <time>2013-01-12T09:10:30Z</time>
      </trkpt>
      <trkpt lat="45.5793" lon="6.07964">
        <ele>1282</ele>
        <time>2013-01-12T09:10:32Z</time>
      </trkpt>
      <trkpt lat="45.57928" lon="6.07961">
        <ele>1282</ele>
        <time>2013-01-12T09:10:34Z</time>
      </trkpt>
      <trkpt lat="45.57928" lon="6.07958">
        <ele>1282</ele>
        <time>2013-01-12T09:10:36Z</time>
      </trkpt>
      <trkpt lat="45.57924" lon="6.07958">
        <ele>1282</ele>
        <time>2013-01-12T09:10:39Z</time>
      </trkpt>
      <trkpt lat="45.57922" lon="6.07957">
        <ele>1282</ele>
        <time>2013-01-12T09:10:42Z</time>
      </trkpt>
      <trkpt lat="45.57921" lon="6.07955">
        <ele>1283</ele>
        <time>2013-01-12T09:10:44Z</time>
      </trkpt>
      <trkpt lat="45.57919" lon="6.07951">
        <ele>1284</ele>
        <time>2013-01-12T09:10:48Z</time>
      </trkpt>
      <trkpt lat="45.57918" lon="6.07949">
        <ele>1285</ele>
        <time>2013-01-12T09:10:50Z</time>
      </trkpt>
      <trkpt lat="45.57916" lon="6.07946">
        <ele>1285</ele>
        <time>2013-01-12T09:10:53Z</time>
      </trkpt>
      <trkpt lat="45.57915" lon="6.07944">
        <ele>1286</ele>
        <time>2013-01-12T09:10:55Z</time>
      </trkpt>
      <trkpt lat="45.57912" lon="6.07946">
        <ele>1288</ele>
        <time>2013-01-12T09:10:58Z</time>
      </trkpt>
      <trkpt lat="45.57911" lon="6.07945">
        <ele>1290</ele>
        <time>2013-01-12T09:11:00Z</time>
      </trkpt>
      <trkpt lat="45.57909" lon="6.07944">
        <ele>1292</ele>
        <time>2013-01-12T09:11:02Z</time>
      </trkpt>
      <trkpt lat="45.57908" lon="6.07942">
        <ele>1294</ele>
        <time>2013-01-12T09:11:04Z</time>
      </trkpt>
      <trkpt lat="45.57906" lon="6.0794">
        <ele>1294</ele>
        <time>2013-01-12T09:11:06Z</time>
      </trkpt>
      <trkpt lat="45.57905" lon="6.07938">
        <ele>1294</ele>
        <time>2013-01-12T09:11:08Z</time>
      </trkpt>
      <trkpt lat="45.57905" lon="6.07935">
        <ele>1294</ele>
        <time>2013-01-12T09:11:10Z</time>
      </trkpt>
      <trkpt lat="45.57904" lon="6.07934">
        <ele>1294</ele>
        <time>2013-01-12T09:11:12Z</time>
      </trkpt>
      <trkpt lat="45.57902" lon="6.07932">
        <ele>1294</ele>
        <time>2013-01-12T09:11:14Z</time>
      </trkpt>
      <trkpt lat="45.57901" lon="6.0793">
        <ele>1294</ele>
        <time>2013-01-12T09:11:16Z</time>
      </trkpt>
      <trkpt lat="45.57901" lon="6.07927">
        <ele>1294</ele>
        <time>2013-01-12T09:11:18Z</time>
      </trkpt>
      <trkpt lat="45.579" lon="6.07925">
        <ele>1294</ele>
        <time>2013-01-12T09:11:21Z</time>
      </trkpt>
      <trkpt lat="45.57899" lon="6.07923">
        <ele>1294</ele>
        <time>2013-01-12T09:11:23Z</time>
      </trkpt>
      <trkpt lat="45.57898" lon="6.0792">
        <ele>1294</ele>
        <time>2013-01-12T09:11:25Z</time>
      </trkpt>
      <trkpt lat="45.57897" lon="6.07919">
        <ele>1294</ele>
        <time>2013-01-12T09:11:27Z</time>
      </trkpt>
      <trkpt lat="45.57896" lon="6.07917">
        <ele>1294</ele>
        <time>2013-01-12T09:11:29Z</time>
      </trkpt>
      <trkpt lat="45.57893" lon="6.07919">
        <ele>1294</ele>
        <time>2013-01-12T09:11:31Z</time>
      </trkpt>
      <trkpt lat="45.57892" lon="6.07917">
        <ele>1295</ele>
        <time>2013-01-12T09:11:33Z</time>
      </trkpt>
      <trkpt lat="45.57891" lon="6.07916">
        <ele>1296</ele>
        <time>2013-01-12T09:11:35Z</time>
      </trkpt>
      <trkpt lat="45.57891" lon="6.07913">
        <ele>1296</ele>
        <time>2013-01-12T09:11:37Z</time>
      </trkpt>
      <trkpt lat="45.57889" lon="6.07911">
        <ele>1297</ele>
        <time>2013-01-12T09:11:39Z</time>
      </trkpt>
      <trkpt lat="45.57888" lon="6.0791">
        <ele>1297</ele>
        <time>2013-01-12T09:11:41Z</time>
      </trkpt>
      <trkpt lat="45.57886" lon="6.07909">
        <ele>1297</ele>
        <time>2013-01-12T09:11:43Z</time>
      </trkpt>
      <trkpt lat="45.57885" lon="6.07906">
        <ele>1298</ele>
        <time>2013-01-12T09:11:45Z</time>
      </trkpt>
      <trkpt lat="45.57884" lon="6.07904">
        <ele>1298</ele>
        <time>2013-01-12T09:11:47Z</time>
      </trkpt>
      <trkpt lat="45.57882" lon="6.07903">
        <ele>1298</ele>
        <time>2013-01-12T09:11:49Z</time>
      </trkpt>
      <trkpt lat="45.57881" lon="6.07903">
        <ele>1298</ele>
        <time>2013-01-12T09:11:51Z</time>
      </trkpt>
      <trkpt lat="45.57879" lon="6.07902">
        <ele>1299</ele>
        <time>2013-01-12T09:11:53Z</time>
      </trkpt>
      <trkpt lat="45.57876" lon="6.07902">
        <ele>1302</ele>
        <time>2013-01-12T09:11:56Z</time>
      </trkpt>
      <trkpt lat="45.57874" lon="6.07901">
        <ele>1303</ele>
        <time>2013-01-12T09:11:58Z</time>
      </trkpt>
      <trkpt lat="45.57871" lon="6.07904">
        <ele>1305</ele>
        <time>2013-01-12T09:12:00Z</time>
      </trkpt>
      <trkpt lat="45.57868" lon="6.07903">
        <ele>1307</ele>
        <time>2013-01-12T09:12:03Z</time>
      </trkpt>
      <trkpt lat="45.57866" lon="6.07903">
        <ele>1307</ele>
        <time>2013-01-12T09:12:05Z</time>
      </trkpt>
      <trkpt lat="45.57865" lon="6.07903">
        <ele>1307</ele>
        <time>2013-01-12T09:12:07Z</time>
      </trkpt>
      <trkpt lat="45.57863" lon="6.07903">
        <ele>1307</ele>
        <time>2013-01-12T09:12:09Z</time>
      </trkpt>
      <trkpt lat="45.57862" lon="6.07903">
        <ele>1307</ele>
        <time>2013-01-12T09:12:13Z</time>
      </trkpt>
      <trkpt lat="45.57861" lon="6.07902">
        <ele>1307</ele>
        <time>2013-01-12T09:12:15Z</time>
      </trkpt>
      <trkpt lat="45.5786" lon="6.07902">
        <ele>1307</ele>
        <time>2013-01-12T09:12:17Z</time>
      </trkpt>
      <trkpt lat="45.57859" lon="6.07901">
        <ele>1307</ele>
        <time>2013-01-12T09:12:19Z</time>
      </trkpt>
      <trkpt lat="45.57857" lon="6.07901">
        <ele>1305</ele>
        <time>2013-01-12T09:12:22Z</time>
      </trkpt>
      <trkpt lat="45.57857" lon="6.07903">
        <ele>1305</ele>
        <time>2013-01-12T09:12:24Z</time>
      </trkpt>
      <trkpt lat="45.57856" lon="6.07904">
        <ele>1305</ele>
        <time>2013-01-12T09:12:27Z</time>
      </trkpt>
      <trkpt lat="45.57854" lon="6.07905">
        <ele>1305</ele>
        <time>2013-01-12T09:12:29Z</time>
      </trkpt>
      <trkpt lat="45.57851" lon="6.07905">
        <ele>1305</ele>
        <time>2013-01-12T09:12:32Z</time>
      </trkpt>
      <trkpt lat="45.5785" lon="6.07906">
        <ele>1305</ele>
        <time>2013-01-12T09:12:34Z</time>
      </trkpt>
      <trkpt lat="45.57848" lon="6.07906">
        <ele>1305</ele>
        <time>2013-01-12T09:12:36Z</time>
      </trkpt>
      <trkpt lat="45.57848" lon="6.07908">
        <ele>1304</ele>
        <time>2013-01-12T09:12:39Z</time>
      </trkpt>
      <trkpt lat="45.57848" lon="6.07911">
        <ele>1302</ele>
        <time>2013-01-12T09:12:42Z</time>
      </trkpt>
      <trkpt lat="45.57847" lon="6.07913">
        <ele>1302</ele>
        <time>2013-01-12T09:12:44Z</time>
      </trkpt>
      <trkpt lat="45.57846" lon="6.07917">
        <ele>1302</ele>
        <time>2013-01-12T09:12:47Z</time>
      </trkpt>
      <trkpt lat="45.57844" lon="6.07921">
        <ele>1302</ele>
        <time>2013-01-12T09:12:50Z</time>
      </trkpt>
      <trkpt lat="45.57843" lon="6.07923">
        <ele>1302</ele>
        <time>2013-01-12T09:12:52Z</time>
      </trkpt>
      <trkpt lat="45.5784" lon="6.07924">
        <ele>1302</ele>
        <time>2013-01-12T09:12:55Z</time>
      </trkpt>
      <trkpt lat="45.57839" lon="6.07927">
        <ele>1302</ele>
        <time>2013-01-12T09:12:57Z</time>
      </trkpt>
      <trkpt lat="45.57837" lon="6.0793">
        <ele>1302</ele>
        <time>2013-01-12T09:13:01Z</time>
      </trkpt>
      <trkpt lat="45.57835" lon="6.07931">
        <ele>1302</ele>
        <time>2013-01-12T09:13:03Z</time>
      </trkpt>
      <trkpt lat="45.57832" lon="6.07932">
        <ele>1302</ele>
        <time>2013-01-12T09:13:05Z</time>
      </trkpt>
      <trkpt lat="45.5783" lon="6.07934">
        <ele>1302</ele>
        <time>2013-01-12T09:13:07Z</time>
      </trkpt>
      <trkpt lat="45.57829" lon="6.07935">
        <ele>1302</ele>
        <time>2013-01-12T09:13:09Z</time>
      </trkpt>
      <trkpt lat="45.57827" lon="6.07938">
        <ele>1302</ele>
        <time>2013-01-12T09:13:11Z</time>
      </trkpt>
      <trkpt lat="45.57825" lon="6.0794">
        <ele>1302</ele>
        <time>2013-01-12T09:13:13Z</time>
      </trkpt>
      <trkpt lat="45.57822" lon="6.0794">
        <ele>1302</ele>
        <time>2013-01-12T09:13:16Z</time>
      </trkpt>
      <trkpt lat="45.5782" lon="6.07942">
        <ele>1302</ele>
        <time>2013-01-12T09:13:18Z</time>
      </trkpt>
      <trkpt lat="45.57819" lon="6.07943">
        <ele>1302</ele>
        <time>2013-01-12T09:13:20Z</time>
      </trkpt>
      <trkpt lat="45.57817" lon="6.07945">
        <ele>1302</ele>
        <time>2013-01-12T09:13:22Z</time>
      </trkpt>
      <trkpt lat="45.57816" lon="6.07947">
        <ele>1302</ele>
        <time>2013-01-12T09:13:24Z</time>
      </trkpt>
      <trkpt lat="45.57814" lon="6.07948">
        <ele>1302</ele>
        <time>2013-01-12T09:13:26Z</time>
      </trkpt>
      <trkpt lat="45.57812" lon="6.07949">
        <ele>1302</ele>
        <time>2013-01-12T09:13:28Z</time>
      </trkpt>
      <trkpt lat="45.57809" lon="6.07951">
        <ele>1302</ele>
        <time>2013-01-12T09:13:32Z</time>
      </trkpt>
      <trkpt lat="45.57807" lon="6.0795">
        <ele>1302</ele>
        <time>2013-01-12T09:13:34Z</time>
      </trkpt>
      <trkpt lat="45.57805" lon="6.07951">
        <ele>1302</ele>
        <time>2013-01-12T09:13:36Z</time>
      </trkpt>
      <trkpt lat="45.57803" lon="6.07951">
        <ele>1302</ele>
        <time>2013-01-12T09:13:38Z</time>
      </trkpt>
      <trkpt lat="45.57801" lon="6.07953">
        <ele>1302</ele>
        <time>2013-01-12T09:13:40Z</time>
      </trkpt>
      <trkpt lat="45.57799" lon="6.07952">
        <ele>1302</ele>
        <time>2013-01-12T09:13:42Z</time>
      </trkpt>
      <trkpt lat="45.57796" lon="6.07951">
        <ele>1303</ele>
        <time>2013-01-12T09:13:45Z</time>
      </trkpt>
      <trkpt lat="45.57794" lon="6.07948">
        <ele>1303</ele>
        <time>2013-01-12T09:13:48Z</time>
      </trkpt>
      <trkpt lat="45.57792" lon="6.07947">
        <ele>1303</ele>
        <time>2013-01-12T09:13:50Z</time>
      </trkpt>
      <trkpt lat="45.5779" lon="6.07945">
        <ele>1303</ele>
        <time>2013-01-12T09:13:52Z</time>
      </trkpt>
      <trkpt lat="45.57789" lon="6.07944">
        <ele>1303</ele>
        <time>2013-01-12T09:13:54Z</time>
      </trkpt>
      <trkpt lat="45.57787" lon="6.07943">
        <ele>1303</ele>
        <time>2013-01-12T09:13:56Z</time>
      </trkpt>
      <trkpt lat="45.57785" lon="6.07942">
        <ele>1303</ele>
        <time>2013-01-12T09:13:58Z</time>
      </trkpt>
      <trkpt lat="45.57784" lon="6.0794">
        <ele>1303</ele>
        <time>2013-01-12T09:14:00Z</time>
      </trkpt>
      <trkpt lat="45.57783" lon="6.07938">
        <ele>1303</ele>
        <time>2013-01-12T09:14:02Z</time>
      </trkpt>
      <trkpt lat="45.57782" lon="6.07937">
        <ele>1303</ele>
        <time>2013-01-12T09:14:04Z</time>
      </trkpt>
      <trkpt lat="45.5778" lon="6.07935">
        <ele>1303</ele>
        <time>2013-01-12T09:14:06Z</time>
      </trkpt>
      <trkpt lat="45.57778" lon="6.07931">
        <ele>1303</ele>
        <time>2013-01-12T09:14:10Z</time>
      </trkpt>
      <trkpt lat="45.57776" lon="6.07929">
        <ele>1303</ele>
        <time>2013-01-12T09:14:14Z</time>
      </trkpt>
      <trkpt lat="45.57774" lon="6.07925">
        <ele>1303</ele>
        <time>2013-01-12T09:14:18Z</time>
      </trkpt>
      <trkpt lat="45.57772" lon="6.07923">
        <ele>1303</ele>
        <time>2013-01-12T09:14:20Z</time>
      </trkpt>
      <trkpt lat="45.57771" lon="6.07921">
        <ele>1303</ele>
        <time>2013-01-12T09:14:22Z</time>
      </trkpt>
      <trkpt lat="45.57768" lon="6.07918">
        <ele>1304</ele>
        <time>2013-01-12T09:14:26Z</time>
      </trkpt>
      <trkpt lat="45.57766" lon="6.07915">
        <ele>1305</ele>
        <time>2013-01-12T09:14:30Z</time>
      </trkpt>
      <trkpt lat="45.57765" lon="6.07912">
        <ele>1305</ele>
        <time>2013-01-12T09:14:32Z</time>
      </trkpt>
      <trkpt lat="45.57764" lon="6.07911">
        <ele>1306</ele>
        <time>2013-01-12T09:14:34Z</time>
      </trkpt>
      <trkpt lat="45.57763" lon="6.07907">
        <ele>1306</ele>
        <time>2013-01-12T09:14:37Z</time>
      </trkpt>
      <trkpt lat="45.57762" lon="6.07904">
        <ele>1306</ele>
        <time>2013-01-12T09:14:39Z</time>
      </trkpt>
      <trkpt lat="45.57761" lon="6.07902">
        <ele>1306</ele>
        <time>2013-01-12T09:14:41Z</time>
      </trkpt>
      <trkpt lat="45.5776" lon="6.079">
        <ele>1306</ele>
        <time>2013-01-12T09:14:43Z</time>
      </trkpt>
      <trkpt lat="45.57759" lon="6.07899">
        <ele>1306</ele>
        <time>2013-01-12T09:14:45Z</time>
      </trkpt>
      <trkpt lat="45.57757" lon="6.07896">
        <ele>1306</ele>
        <time>2013-01-12T09:14:49Z</time>
      </trkpt>
      <trkpt lat="45.57756" lon="6.07894">
        <ele>1307</ele>
        <time>2013-01-12T09:14:51Z</time>
      </trkpt>
      <trkpt lat="45.57755" lon="6.07892">
        <ele>1307</ele>
        <time>2013-01-12T09:14:53Z</time>
      </trkpt>
      <trkpt lat="45.57754" lon="6.07891">
        <ele>1308</ele>
        <time>2013-01-12T09:14:56Z</time>
      </trkpt>
      <trkpt lat="45.57753" lon="6.07888">
        <ele>1309</ele>
        <time>2013-01-12T09:14:58Z</time>
      </trkpt>
      <trkpt lat="45.57752" lon="6.07886">
        <ele>1309</ele>
        <time>2013-01-12T09:15:00Z</time>
      </trkpt>
      <trkpt lat="45.57751" lon="6.07884">
        <ele>1309</ele>
        <time>2013-01-12T09:15:02Z</time>
      </trkpt>
      <trkpt lat="45.57749" lon="6.07879">
        <ele>1309</ele>
        <time>2013-01-12T09:15:06Z</time>
      </trkpt>
      <trkpt lat="45.57748" lon="6.07877">
        <ele>1309</ele>
        <time>2013-01-12T09:15:08Z</time>
      </trkpt>
      <trkpt lat="45.57747" lon="6.07875">
        <ele>1309</ele>
        <time>2013-01-12T09:15:10Z</time>
      </trkpt>
      <trkpt lat="45.57745" lon="6.07871">
        <ele>1309</ele>
        <time>2013-01-12T09:15:14Z</time>
      </trkpt>
      <trkpt lat="45.57743" lon="6.07867">
        <ele>1310</ele>
        <time>2013-01-12T09:15:18Z</time>
      </trkpt>
      <trkpt lat="45.57742" lon="6.07865">
        <ele>1310</ele>
        <time>2013-01-12T09:15:21Z</time>
      </trkpt>
      <trkpt lat="45.57742" lon="6.07863">
        <ele>1311</ele>
        <time>2013-01-12T09:15:23Z</time>
      </trkpt>
      <trkpt lat="45.5774" lon="6.0786">
        <ele>1312</ele>
        <time>2013-01-12T09:15:27Z</time>
      </trkpt>
      <trkpt lat="45.57739" lon="6.07858">
        <ele>1313</ele>
        <time>2013-01-12T09:15:29Z</time>
      </trkpt>
      <trkpt lat="45.57737" lon="6.07856">
        <ele>1314</ele>
        <time>2013-01-12T09:15:33Z</time>
      </trkpt>
      <trkpt lat="45.57736" lon="6.07855">
        <ele>1315</ele>
        <time>2013-01-12T09:15:35Z</time>
      </trkpt>
      <trkpt lat="45.57735" lon="6.07853">
        <ele>1316</ele>
        <time>2013-01-12T09:15:37Z</time>
      </trkpt>
      <trkpt lat="45.57734" lon="6.07852">
        <ele>1318</ele>
        <time>2013-01-12T09:15:40Z</time>
      </trkpt>
      <trkpt lat="45.57733" lon="6.07852">
        <ele>1320</ele>
        <time>2013-01-12T09:15:42Z</time>
      </trkpt>
      <trkpt lat="45.57732" lon="6.0785">
        <ele>1321</ele>
        <time>2013-01-12T09:15:44Z</time>
      </trkpt>
      <trkpt lat="45.57732" lon="6.07848">
        <ele>1321</ele>
        <time>2013-01-12T09:15:46Z</time>
      </trkpt>
      <trkpt lat="45.57731" lon="6.07846">
        <ele>1322</ele>
        <time>2013-01-12T09:15:49Z</time>
      </trkpt>
      <trkpt lat="45.57729" lon="6.07843">
        <ele>1325</ele>
        <time>2013-01-12T09:15:55Z</time>
      </trkpt>
      <trkpt lat="45.57727" lon="6.0784">
        <ele>1326</ele>
        <time>2013-01-12T09:15:58Z</time>
      </trkpt>
      <trkpt lat="45.57726" lon="6.07839">
        <ele>1326</ele>
        <time>2013-01-12T09:16:00Z</time>
      </trkpt>
      <trkpt lat="45.57726" lon="6.07838">
        <ele>1327</ele>
        <time>2013-01-12T09:16:02Z</time>
      </trkpt>
      <trkpt lat="45.57725" lon="6.07836">
        <ele>1328</ele>
        <time>2013-01-12T09:16:04Z</time>
      </trkpt>
      <trkpt lat="45.57724" lon="6.07835">
        <ele>1328</ele>
        <time>2013-01-12T09:16:06Z</time>
      </trkpt>
      <trkpt lat="45.57722" lon="6.07831">
        <ele>1328</ele>
        <time>2013-01-12T09:16:10Z</time>
      </trkpt>
      <trkpt lat="45.57721" lon="6.0783">
        <ele>1328</ele>
        <time>2013-01-12T09:16:12Z</time>
      </trkpt>
      <trkpt lat="45.5772" lon="6.07829">
        <ele>1328</ele>
        <time>2013-01-12T09:16:14Z</time>
      </trkpt>
      <trkpt lat="45.57718" lon="6.07825">
        <ele>1328</ele>
        <time>2013-01-12T09:16:18Z</time>
      </trkpt>
      <trkpt lat="45.57716" lon="6.07825">
        <ele>1328</ele>
        <time>2013-01-12T09:16:21Z</time>
      </trkpt>
      <trkpt lat="45.57714" lon="6.07825">
        <ele>1328</ele>
        <time>2013-01-12T09:16:23Z</time>
      </trkpt>
      <trkpt lat="45.57713" lon="6.07823">
        <ele>1328</ele>
        <time>2013-01-12T09:16:25Z</time>
      </trkpt>
      <trkpt lat="45.57711" lon="6.07823">
        <ele>1328</ele>
        <time>2013-01-12T09:16:27Z</time>
      </trkpt>
      <trkpt lat="45.57708" lon="6.07823">
        <ele>1329</ele>
        <time>2013-01-12T09:16:31Z</time>
      </trkpt>
      <trkpt lat="45.57707" lon="6.07823">
        <ele>1329</ele>
        <time>2013-01-12T09:16:33Z</time>
      </trkpt>
      <trkpt lat="45.57704" lon="6.07823">
        <ele>1329</ele>
        <time>2013-01-12T09:16:37Z</time>
      </trkpt>
      <trkpt lat="45.57703" lon="6.07822">
        <ele>1330</ele>
        <time>2013-01-12T09:16:39Z</time>
      </trkpt>
      <trkpt lat="45.577" lon="6.07822">
        <ele>1330</ele>
        <time>2013-01-12T09:16:43Z</time>
      </trkpt>
      <trkpt lat="45.57698" lon="6.07823">
        <ele>1331</ele>
        <time>2013-01-12T09:16:45Z</time>
      </trkpt>
      <trkpt lat="45.57695" lon="6.07823">
        <ele>1331</ele>
        <time>2013-01-12T09:16:48Z</time>
      </trkpt>
      <trkpt lat="45.57694" lon="6.07825">
        <ele>1331</ele>
        <time>2013-01-12T09:16:50Z</time>
      </trkpt>
      <trkpt lat="45.57692" lon="6.07825">
        <ele>1331</ele>
        <time>2013-01-12T09:16:52Z</time>
      </trkpt>
      <trkpt lat="45.5769" lon="6.07826">
        <ele>1331</ele>
        <time>2013-01-12T09:16:54Z</time>
      </trkpt>
      <trkpt lat="45.57689" lon="6.07827">
        <ele>1332</ele>
        <time>2013-01-12T09:16:56Z</time>
      </trkpt>
      <trkpt lat="45.57687" lon="6.07828">
        <ele>1332</ele>
        <time>2013-01-12T09:16:58Z</time>
      </trkpt>
      <trkpt lat="45.57686" lon="6.07827">
        <ele>1332</ele>
        <time>2013-01-12T09:17:00Z</time>
      </trkpt>
      <trkpt lat="45.57683" lon="6.07828">
        <ele>1332</ele>
        <time>2013-01-12T09:17:04Z</time>
      </trkpt>
      <trkpt lat="45.57681" lon="6.07829">
        <ele>1332</ele>
        <time>2013-01-12T09:17:06Z</time>
      </trkpt>
      <trkpt lat="45.5768" lon="6.07829">
        <ele>1332</ele>
        <time>2013-01-12T09:17:08Z</time>
      </trkpt>
      <trkpt lat="45.57678" lon="6.07829">
        <ele>1333</ele>
        <time>2013-01-12T09:17:10Z</time>
      </trkpt>
      <trkpt lat="45.57675" lon="6.07829">
        <ele>1333</ele>
        <time>2013-01-12T09:17:14Z</time>
      </trkpt>
      <trkpt lat="45.57674" lon="6.07829">
        <ele>1333</ele>
        <time>2013-01-12T09:17:16Z</time>
      </trkpt>
      <trkpt lat="45.57671" lon="6.07828">
        <ele>1334</ele>
        <time>2013-01-12T09:17:20Z</time>
      </trkpt>
      <trkpt lat="45.57669" lon="6.07828">
        <ele>1334</ele>
        <time>2013-01-12T09:17:22Z</time>
      </trkpt>
      <trkpt lat="45.57667" lon="6.07827">
        <ele>1334</ele>
        <time>2013-01-12T09:17:24Z</time>
      </trkpt>
      <trkpt lat="45.57666" lon="6.07824">
        <ele>1334</ele>
        <time>2013-01-12T09:17:27Z</time>
      </trkpt>
      <trkpt lat="45.57662" lon="6.07823">
        <ele>1334</ele>
        <time>2013-01-12T09:17:31Z</time>
      </trkpt>
      <trkpt lat="45.57661" lon="6.07823">
        <ele>1334</ele>
        <time>2013-01-12T09:17:33Z</time>
      </trkpt>
      <trkpt lat="45.57659" lon="6.07822">
        <ele>1334</ele>
        <time>2013-01-12T09:17:35Z</time>
      </trkpt>
      <trkpt lat="45.57658" lon="6.07822">
        <ele>1334</ele>
        <time>2013-01-12T09:17:37Z</time>
      </trkpt>
      <trkpt lat="45.57656" lon="6.07823">
        <ele>1334</ele>
        <time>2013-01-12T09:17:39Z</time>
      </trkpt>
      <trkpt lat="45.57654" lon="6.07823">
        <ele>1334</ele>
        <time>2013-01-12T09:17:41Z</time>
      </trkpt>
      <trkpt lat="45.57653" lon="6.07823">
        <ele>1335</ele>
        <time>2013-01-12T09:17:43Z</time>
      </trkpt>
      <trkpt lat="45.57651" lon="6.07823">
        <ele>1335</ele>
        <time>2013-01-12T09:17:45Z</time>
      </trkpt>
      <trkpt lat="45.57649" lon="6.07822">
        <ele>1336</ele>
        <time>2013-01-12T09:17:47Z</time>
      </trkpt>
      <trkpt lat="45.57648" lon="6.0782">
        <ele>1336</ele>
        <time>2013-01-12T09:17:49Z</time>
      </trkpt>
      <trkpt lat="45.57647" lon="6.07818">
        <ele>1336</ele>
        <time>2013-01-12T09:17:51Z</time>
      </trkpt>
      <trkpt lat="45.57644" lon="6.07815">
        <ele>1336</ele>
        <time>2013-01-12T09:17:55Z</time>
      </trkpt>
      <trkpt lat="45.57643" lon="6.07813">
        <ele>1336</ele>
        <time>2013-01-12T09:17:57Z</time>
      </trkpt>
      <trkpt lat="45.5764" lon="6.0781">
        <ele>1336</ele>
        <time>2013-01-12T09:18:01Z</time>
      </trkpt>
      <trkpt lat="45.57639" lon="6.07808">
        <ele>1336</ele>
        <time>2013-01-12T09:18:03Z</time>
      </trkpt>
      <trkpt lat="45.57638" lon="6.07806">
        <ele>1336</ele>
        <time>2013-01-12T09:18:05Z</time>
      </trkpt>
      <trkpt lat="45.57637" lon="6.07802">
        <ele>1336</ele>
        <time>2013-01-12T09:18:09Z</time>
      </trkpt>
      <trkpt lat="45.57637" lon="6.078">
        <ele>1336</ele>
        <time>2013-01-12T09:18:11Z</time>
      </trkpt>
      <trkpt lat="45.57653" lon="6.07801">
        <ele>1340</ele>
        <time>2013-01-12T09:18:16Z</time>
      </trkpt>
      <trkpt lat="45.57655" lon="6.07799">
        <ele>1340</ele>
        <time>2013-01-12T09:18:18Z</time>
      </trkpt>
      <trkpt lat="45.57657" lon="6.07798">
        <ele>1341</ele>
        <time>2013-01-12T09:18:21Z</time>
      </trkpt>
      <trkpt lat="45.57661" lon="6.07797">
        <ele>1341</ele>
        <time>2013-01-12T09:18:25Z</time>
      </trkpt>
      <trkpt lat="45.57663" lon="6.07796">
        <ele>1341</ele>
        <time>2013-01-12T09:18:27Z</time>
      </trkpt>
      <trkpt lat="45.57666" lon="6.07794">
        <ele>1341</ele>
        <time>2013-01-12T09:18:30Z</time>
      </trkpt>
      <trkpt lat="45.57668" lon="6.07793">
        <ele>1341</ele>
        <time>2013-01-12T09:18:32Z</time>
      </trkpt>
      <trkpt lat="45.57671" lon="6.07792">
        <ele>1341</ele>
        <time>2013-01-12T09:18:36Z</time>
      </trkpt>
      <trkpt lat="45.57672" lon="6.0779">
        <ele>1341</ele>
        <time>2013-01-12T09:18:38Z</time>
      </trkpt>
      <trkpt lat="45.57676" lon="6.07788">
        <ele>1341</ele>
        <time>2013-01-12T09:18:42Z</time>
      </trkpt>
      <trkpt lat="45.57677" lon="6.07787">
        <ele>1341</ele>
        <time>2013-01-12T09:18:44Z</time>
      </trkpt>
      <trkpt lat="45.5768" lon="6.07786">
        <ele>1341</ele>
        <time>2013-01-12T09:18:47Z</time>
      </trkpt>
      <trkpt lat="45.57682" lon="6.07785">
        <ele>1341</ele>
        <time>2013-01-12T09:18:49Z</time>
      </trkpt>
      <trkpt lat="45.57683" lon="6.07785">
        <ele>1341</ele>
        <time>2013-01-12T09:18:51Z</time>
      </trkpt>
      <trkpt lat="45.57685" lon="6.07785">
        <ele>1341</ele>
        <time>2013-01-12T09:18:53Z</time>
      </trkpt>
      <trkpt lat="45.57687" lon="6.07784">
        <ele>1341</ele>
        <time>2013-01-12T09:18:55Z</time>
      </trkpt>
      <trkpt lat="45.57689" lon="6.07783">
        <ele>1341</ele>
        <time>2013-01-12T09:18:57Z</time>
      </trkpt>
      <trkpt lat="45.57692" lon="6.07782">
        <ele>1342</ele>
        <time>2013-01-12T09:19:02Z</time>
      </trkpt>
      <trkpt lat="45.57695" lon="6.07781">
        <ele>1344</ele>
        <time>2013-01-12T09:19:06Z</time>
      </trkpt>
      <trkpt lat="45.57697" lon="6.07778">
        <ele>1344</ele>
        <time>2013-01-12T09:19:10Z</time>
      </trkpt>
      <trkpt lat="45.57699" lon="6.07778">
        <ele>1345</ele>
        <time>2013-01-12T09:19:13Z</time>
      </trkpt>
      <trkpt lat="45.57703" lon="6.07775">
        <ele>1345</ele>
        <time>2013-01-12T09:19:17Z</time>
      </trkpt>
      <trkpt lat="45.57705" lon="6.07775">
        <ele>1345</ele>
        <time>2013-01-12T09:19:19Z</time>
      </trkpt>
      <trkpt lat="45.57706" lon="6.07773">
        <ele>1345</ele>
        <time>2013-01-12T09:19:21Z</time>
      </trkpt>
      <trkpt lat="45.57708" lon="6.07773">
        <ele>1345</ele>
        <time>2013-01-12T09:19:23Z</time>
      </trkpt>
      <trkpt lat="45.57711" lon="6.07773">
        <ele>1347</ele>
        <time>2013-01-12T09:19:27Z</time>
      </trkpt>
      <trkpt lat="45.57712" lon="6.07773">
        <ele>1348</ele>
        <time>2013-01-12T09:19:29Z</time>
      </trkpt>
      <trkpt lat="45.57713" lon="6.07774">
        <ele>1348</ele>
        <time>2013-01-12T09:19:31Z</time>
      </trkpt>
      <trkpt lat="45.57716" lon="6.07773">
        <ele>1350</ele>
        <time>2013-01-12T09:19:37Z</time>
      </trkpt>
      <trkpt lat="45.57719" lon="6.07773">
        <ele>1351</ele>
        <time>2013-01-12T09:19:41Z</time>
      </trkpt>
      <trkpt lat="45.57721" lon="6.07773">
        <ele>1351</ele>
        <time>2013-01-12T09:19:43Z</time>
      </trkpt>
      <trkpt lat="45.57724" lon="6.07771">
        <ele>1352</ele>
        <time>2013-01-12T09:19:47Z</time>
      </trkpt>
      <trkpt lat="45.57727" lon="6.07769">
        <ele>1352</ele>
        <time>2013-01-12T09:19:51Z</time>
      </trkpt>
      <trkpt lat="45.57728" lon="6.07767">
        <ele>1352</ele>
        <time>2013-01-12T09:19:53Z</time>
      </trkpt>
      <trkpt lat="45.57729" lon="6.07766">
        <ele>1353</ele>
        <time>2013-01-12T09:19:56Z</time>
      </trkpt>
      <trkpt lat="45.57732" lon="6.07766">
        <ele>1353</ele>
        <time>2013-01-12T09:19:58Z</time>
      </trkpt>
      <trkpt lat="45.57734" lon="6.07767">
        <ele>1353</ele>
        <time>2013-01-12T09:20:00Z</time>
      </trkpt>
      <trkpt lat="45.57735" lon="6.07767">
        <ele>1353</ele>
        <time>2013-01-12T09:20:02Z</time>
      </trkpt>
      <trkpt lat="45.57736" lon="6.0777">
        <ele>1353</ele>
        <time>2013-01-12T09:20:06Z</time>
      </trkpt>
      <trkpt lat="45.57737" lon="6.07773">
        <ele>1354</ele>
        <time>2013-01-12T09:20:11Z</time>
      </trkpt>
      <trkpt lat="45.57738" lon="6.07776">
        <ele>1356</ele>
        <time>2013-01-12T09:20:15Z</time>
      </trkpt>
      <trkpt lat="45.57741" lon="6.07776">
        <ele>1357</ele>
        <time>2013-01-12T09:20:19Z</time>
      </trkpt>
      <trkpt lat="45.57744" lon="6.07779">
        <ele>1358</ele>
        <time>2013-01-12T09:20:24Z</time>
      </trkpt>
      <trkpt lat="45.57745" lon="6.07776">
        <ele>1358</ele>
        <time>2013-01-12T09:20:29Z</time>
      </trkpt>
      <trkpt lat="45.57745" lon="6.07783">
        <ele>1358</ele>
        <time>2013-01-12T09:20:36Z</time>
      </trkpt>
      <trkpt lat="45.57744" lon="6.07786">
        <ele>1366</ele>
        <time>2013-01-12T09:20:40Z</time>
      </trkpt>
      <trkpt lat="45.57749" lon="6.07784">
        <ele>1376</ele>
        <time>2013-01-12T09:20:45Z</time>
      </trkpt>
      <trkpt lat="45.57751" lon="6.07783">
        <ele>1376</ele>
        <time>2013-01-12T09:20:47Z</time>
      </trkpt>
      <trkpt lat="45.57752" lon="6.07782">
        <ele>1376</ele>
        <time>2013-01-12T09:20:49Z</time>
      </trkpt>
      <trkpt lat="45.57753" lon="6.07781">
        <ele>1376</ele>
        <time>2013-01-12T09:20:52Z</time>
      </trkpt>
      <trkpt lat="45.57752" lon="6.07779">
        <ele>1375</ele>
        <time>2013-01-12T09:21:06Z</time>
      </trkpt>
      <trkpt lat="45.57767" lon="6.07785">
        <ele>1363</ele>
        <time>2013-01-12T09:21:11Z</time>
      </trkpt>
      <trkpt lat="45.57774" lon="6.07792">
        <ele>1360</ele>
        <time>2013-01-12T09:21:15Z</time>
      </trkpt>
      <trkpt lat="45.57774" lon="6.07794">
        <ele>1360</ele>
        <time>2013-01-12T09:21:17Z</time>
      </trkpt>
      <trkpt lat="45.57775" lon="6.07795">
        <ele>1360</ele>
        <time>2013-01-12T09:21:19Z</time>
      </trkpt>
      <trkpt lat="45.57775" lon="6.07797">
        <ele>1360</ele>
        <time>2013-01-12T09:21:21Z</time>
      </trkpt>
      <trkpt lat="45.57775" lon="6.07799">
        <ele>1360</ele>
        <time>2013-01-12T09:21:23Z</time>
      </trkpt>
      <trkpt lat="45.57782" lon="6.07795">
        <ele>1362</ele>
        <time>2013-01-12T09:21:28Z</time>
      </trkpt>
      <trkpt lat="45.57784" lon="6.07794">
        <ele>1362</ele>
        <time>2013-01-12T09:21:30Z</time>
      </trkpt>
      <trkpt lat="45.57785" lon="6.07794">
        <ele>1362</ele>
        <time>2013-01-12T09:21:32Z</time>
      </trkpt>
      <trkpt lat="45.57787" lon="6.07793">
        <ele>1362</ele>
        <time>2013-01-12T09:21:34Z</time>
      </trkpt>
      <trkpt lat="45.57788" lon="6.07792">
        <ele>1362</ele>
        <time>2013-01-12T09:21:36Z</time>
      </trkpt>
      <trkpt lat="45.5779" lon="6.07791">
        <ele>1362</ele>
        <time>2013-01-12T09:21:38Z</time>
      </trkpt>
      <trkpt lat="45.57793" lon="6.07791">
        <ele>1362</ele>
        <time>2013-01-12T09:21:40Z</time>
      </trkpt>
      <trkpt lat="45.57795" lon="6.07788">
        <ele>1362</ele>
        <time>2013-01-12T09:21:44Z</time>
      </trkpt>
      <trkpt lat="45.57797" lon="6.07787">
        <ele>1362</ele>
        <time>2013-01-12T09:21:46Z</time>
      </trkpt>
      <trkpt lat="45.57801" lon="6.07786">
        <ele>1362</ele>
        <time>2013-01-12T09:21:50Z</time>
      </trkpt>
      <trkpt lat="45.57802" lon="6.07785">
        <ele>1362</ele>
        <time>2013-01-12T09:21:52Z</time>
      </trkpt>
      <trkpt lat="45.57804" lon="6.07784">
        <ele>1362</ele>
        <time>2013-01-12T09:21:54Z</time>
      </trkpt>
      <trkpt lat="45.57807" lon="6.07781">
        <ele>1362</ele>
        <time>2013-01-12T09:21:58Z</time>
      </trkpt>
      <trkpt lat="45.57809" lon="6.0778">
        <ele>1362</ele>
        <time>2013-01-12T09:22:01Z</time>
      </trkpt>
      <trkpt lat="45.57811" lon="6.07781">
        <ele>1362</ele>
        <time>2013-01-12T09:22:03Z</time>
      </trkpt>
      <trkpt lat="45.57813" lon="6.07781">
        <ele>1363</ele>
        <time>2013-01-12T09:22:06Z</time>
      </trkpt>
      <trkpt lat="45.57815" lon="6.0778">
        <ele>1364</ele>
        <time>2013-01-12T09:22:08Z</time>
      </trkpt>
      <trkpt lat="45.57816" lon="6.07779">
        <ele>1364</ele>
        <time>2013-01-12T09:22:10Z</time>
      </trkpt>
      <trkpt lat="45.57819" lon="6.07776">
        <ele>1366</ele>
        <time>2013-01-12T09:22:14Z</time>
      </trkpt>
      <trkpt lat="45.5782" lon="6.07776">
        <ele>1367</ele>
        <time>2013-01-12T09:22:16Z</time>
      </trkpt>
      <trkpt lat="45.57821" lon="6.07772">
        <ele>1367</ele>
        <time>2013-01-12T09:22:19Z</time>
      </trkpt>
      <trkpt lat="45.57823" lon="6.07771">
        <ele>1368</ele>
        <time>2013-01-12T09:22:21Z</time>
      </trkpt>
      <trkpt lat="45.57824" lon="6.07768">
        <ele>1368</ele>
        <time>2013-01-12T09:22:24Z</time>
      </trkpt>
      <trkpt lat="45.57825" lon="6.07765">
        <ele>1368</ele>
        <time>2013-01-12T09:22:26Z</time>
      </trkpt>
      <trkpt lat="45.57827" lon="6.07761">
        <ele>1368</ele>
        <time>2013-01-12T09:22:28Z</time>
      </trkpt>
      <trkpt lat="45.57828" lon="6.07757">
        <ele>1368</ele>
        <time>2013-01-12T09:22:31Z</time>
      </trkpt>
      <trkpt lat="45.5783" lon="6.07755">
        <ele>1368</ele>
        <time>2013-01-12T09:22:34Z</time>
      </trkpt>
      <trkpt lat="45.57831" lon="6.07755">
        <ele>1368</ele>
        <time>2013-01-12T09:22:36Z</time>
      </trkpt>
      <trkpt lat="45.57833" lon="6.07751">
        <ele>1369</ele>
        <time>2013-01-12T09:22:41Z</time>
      </trkpt>
      <trkpt lat="45.57834" lon="6.07745">
        <ele>1370</ele>
        <time>2013-01-12T09:22:44Z</time>
      </trkpt>
      <trkpt lat="45.57834" lon="6.07741">
        <ele>1370</ele>
        <time>2013-01-12T09:22:46Z</time>
      </trkpt>
      <trkpt lat="45.57834" lon="6.07735">
        <ele>1370</ele>
        <time>2013-01-12T09:22:50Z</time>
      </trkpt>
      <trkpt lat="45.57834" lon="6.07733">
        <ele>1370</ele>
        <time>2013-01-12T09:22:52Z</time>
      </trkpt>
      <trkpt lat="45.57835" lon="6.0773">
        <ele>1371</ele>
        <time>2013-01-12T09:22:54Z</time>
      </trkpt>
      <trkpt lat="45.57836" lon="6.07727">
        <ele>1372</ele>
        <time>2013-01-12T09:22:56Z</time>
      </trkpt>
      <trkpt lat="45.57838" lon="6.07727">
        <ele>1373</ele>
        <time>2013-01-12T09:22:59Z</time>
      </trkpt>
      <trkpt lat="45.57841" lon="6.07725">
        <ele>1373</ele>
        <time>2013-01-12T09:23:01Z</time>
      </trkpt>
      <trkpt lat="45.57844" lon="6.07723">
        <ele>1373</ele>
        <time>2013-01-12T09:23:04Z</time>
      </trkpt>
      <trkpt lat="45.57846" lon="6.07721">
        <ele>1373</ele>
        <time>2013-01-12T09:23:06Z</time>
      </trkpt>
      <trkpt lat="45.57848" lon="6.0772">
        <ele>1373</ele>
        <time>2013-01-12T09:23:08Z</time>
      </trkpt>
      <trkpt lat="45.5785" lon="6.07719">
        <ele>1373</ele>
        <time>2013-01-12T09:23:10Z</time>
      </trkpt>
      <trkpt lat="45.57852" lon="6.07717">
        <ele>1373</ele>
        <time>2013-01-12T09:23:12Z</time>
      </trkpt>
      <trkpt lat="45.57854" lon="6.07716">
        <ele>1373</ele>
        <time>2013-01-12T09:23:14Z</time>
      </trkpt>
      <trkpt lat="45.57856" lon="6.07716">
        <ele>1373</ele>
        <time>2013-01-12T09:23:16Z</time>
      </trkpt>
      <trkpt lat="45.5786" lon="6.07714">
        <ele>1372</ele>
        <time>2013-01-12T09:23:20Z</time>
      </trkpt>
      <trkpt lat="45.57862" lon="6.07713">
        <ele>1372</ele>
        <time>2013-01-12T09:23:22Z</time>
      </trkpt>
      <trkpt lat="45.57864" lon="6.07712">
        <ele>1372</ele>
        <time>2013-01-12T09:23:24Z</time>
      </trkpt>
      <trkpt lat="45.57865" lon="6.07713">
        <ele>1372</ele>
        <time>2013-01-12T09:23:26Z</time>
      </trkpt>
      <trkpt lat="45.57867" lon="6.07711">
        <ele>1372</ele>
        <time>2013-01-12T09:23:28Z</time>
      </trkpt>
      <trkpt lat="45.5787" lon="6.0771">
        <ele>1372</ele>
        <time>2013-01-12T09:23:33Z</time>
      </trkpt>
      <trkpt lat="45.57873" lon="6.07705">
        <ele>1372</ele>
        <time>2013-01-12T09:23:37Z</time>
      </trkpt>
      <trkpt lat="45.57875" lon="6.07701">
        <ele>1372</ele>
        <time>2013-01-12T09:23:41Z</time>
      </trkpt>
      <trkpt lat="45.57876" lon="6.07698">
        <ele>1372</ele>
        <time>2013-01-12T09:23:43Z</time>
      </trkpt>
      <trkpt lat="45.57877" lon="6.07696">
        <ele>1372</ele>
        <time>2013-01-12T09:23:45Z</time>
      </trkpt>
      <trkpt lat="45.57877" lon="6.07692">
        <ele>1372</ele>
        <time>2013-01-12T09:23:48Z</time>
      </trkpt>
      <trkpt lat="45.57879" lon="6.0769">
        <ele>1372</ele>
        <time>2013-01-12T09:23:52Z</time>
      </trkpt>
      <trkpt lat="45.57883" lon="6.07678">
        <ele>1372</ele>
        <time>2013-01-12T09:23:59Z</time>
      </trkpt>
      <trkpt lat="45.57883" lon="6.07674">
        <ele>1372</ele>
        <time>2013-01-12T09:24:03Z</time>
      </trkpt>
      <trkpt lat="45.57884" lon="6.07672">
        <ele>1372</ele>
        <time>2013-01-12T09:24:05Z</time>
      </trkpt>
      <trkpt lat="45.57885" lon="6.07667">
        <ele>1372</ele>
        <time>2013-01-12T09:24:09Z</time>
      </trkpt>
      <trkpt lat="45.57885" lon="6.07665">
        <ele>1372</ele>
        <time>2013-01-12T09:24:11Z</time>
      </trkpt>
      <trkpt lat="45.57885" lon="6.07663">
        <ele>1372</ele>
        <time>2013-01-12T09:24:13Z</time>
      </trkpt>
      <trkpt lat="45.57885" lon="6.07661">
        <ele>1374</ele>
        <time>2013-01-12T09:24:15Z</time>
      </trkpt>
      <trkpt lat="45.57884" lon="6.07657">
        <ele>1381</ele>
        <time>2013-01-12T09:24:22Z</time>
      </trkpt>
      <trkpt lat="45.57885" lon="6.07654">
        <ele>1384</ele>
        <time>2013-01-12T09:24:25Z</time>
      </trkpt>
      <trkpt lat="45.57885" lon="6.0765">
        <ele>1386</ele>
        <time>2013-01-12T09:24:28Z</time>
      </trkpt>
      <trkpt lat="45.57886" lon="6.07647">
        <ele>1386</ele>
        <time>2013-01-12T09:24:31Z</time>
      </trkpt>
      <trkpt lat="45.57887" lon="6.07645">
        <ele>1386</ele>
        <time>2013-01-12T09:24:34Z</time>
      </trkpt>
      <trkpt lat="45.57887" lon="6.07642">
        <ele>1386</ele>
        <time>2013-01-12T09:24:36Z</time>
      </trkpt>
      <trkpt lat="45.57887" lon="6.07639">
        <ele>1386</ele>
        <time>2013-01-12T09:24:38Z</time>
      </trkpt>
      <trkpt lat="45.57887" lon="6.07636">
        <ele>1386</ele>
        <time>2013-01-12T09:24:40Z</time>
      </trkpt>
      <trkpt lat="45.57887" lon="6.0763">
        <ele>1386</ele>
        <time>2013-01-12T09:24:43Z</time>
      </trkpt>
      <trkpt lat="45.57886" lon="6.07627">
        <ele>1386</ele>
        <time>2013-01-12T09:24:45Z</time>
      </trkpt>
      <trkpt lat="45.57885" lon="6.07624">
        <ele>1386</ele>
        <time>2013-01-12T09:24:47Z</time>
      </trkpt>
      <trkpt lat="45.57884" lon="6.0762">
        <ele>1386</ele>
        <time>2013-01-12T09:24:49Z</time>
      </trkpt>
      <trkpt lat="45.57884" lon="6.07618">
        <ele>1386</ele>
        <time>2013-01-12T09:24:51Z</time>
      </trkpt>
      <trkpt lat="45.57884" lon="6.07615">
        <ele>1387</ele>
        <time>2013-01-12T09:24:56Z</time>
      </trkpt>
      <trkpt lat="45.57884" lon="6.07614">
        <ele>1388</ele>
        <time>2013-01-12T09:24:58Z</time>
      </trkpt>
      <trkpt lat="45.57884" lon="6.07611">
        <ele>1389</ele>
        <time>2013-01-12T09:25:01Z</time>
      </trkpt>
      <trkpt lat="45.57886" lon="6.07608">
        <ele>1391</ele>
        <time>2013-01-12T09:25:07Z</time>
      </trkpt>
      <trkpt lat="45.57887" lon="6.07605">
        <ele>1391</ele>
        <time>2013-01-12T09:25:09Z</time>
      </trkpt>
      <trkpt lat="45.57888" lon="6.07603">
        <ele>1389</ele>
        <time>2013-01-12T09:25:11Z</time>
      </trkpt>
      <trkpt lat="45.57888" lon="6.07601">
        <ele>1388</ele>
        <time>2013-01-12T09:25:13Z</time>
      </trkpt>
      <trkpt lat="45.57889" lon="6.07599">
        <ele>1386</ele>
        <time>2013-01-12T09:25:17Z</time>
      </trkpt>
      <trkpt lat="45.57886" lon="6.07602">
        <ele>1386</ele>
        <time>2013-01-12T09:25:22Z</time>
      </trkpt>
      <trkpt lat="45.57886" lon="6.076">
        <ele>1386</ele>
        <time>2013-01-12T09:25:26Z</time>
      </trkpt>
      <trkpt lat="45.57884" lon="6.07598">
        <ele>1386</ele>
        <time>2013-01-12T09:25:29Z</time>
      </trkpt>
      <trkpt lat="45.57883" lon="6.07598">
        <ele>1386</ele>
        <time>2013-01-12T09:25:32Z</time>
      </trkpt>
      <trkpt lat="45.57883" lon="6.07595">
        <ele>1391</ele>
        <time>2013-01-12T09:25:36Z</time>
      </trkpt>
      <trkpt lat="45.57881" lon="6.07596">
        <ele>1393</ele>
        <time>2013-01-12T09:25:39Z</time>
      </trkpt>
      <trkpt lat="45.57883" lon="6.07592">
        <ele>1393</ele>
        <time>2013-01-12T09:25:42Z</time>
      </trkpt>
      <trkpt lat="45.57882" lon="6.07591">
        <ele>1393</ele>
        <time>2013-01-12T09:25:45Z</time>
      </trkpt>
      <trkpt lat="45.57879" lon="6.07595">
        <ele>1393</ele>
        <time>2013-01-12T09:25:47Z</time>
      </trkpt>
      <trkpt lat="45.57877" lon="6.07597">
        <ele>1394</ele>
        <time>2013-01-12T09:25:49Z</time>
      </trkpt>
      <trkpt lat="45.57875" lon="6.07598">
        <ele>1395</ele>
        <time>2013-01-12T09:25:51Z</time>
      </trkpt>
      <trkpt lat="45.57869" lon="6.07601">
        <ele>1395</ele>
        <time>2013-01-12T09:25:54Z</time>
      </trkpt>
      <trkpt lat="45.5787" lon="6.07594">
        <ele>1397</ele>
        <time>2013-01-12T09:25:59Z</time>
      </trkpt>
      <trkpt lat="45.57869" lon="6.07592">
        <ele>1397</ele>
        <time>2013-01-12T09:26:04Z</time>
      </trkpt>
      <trkpt lat="45.57868" lon="6.07591">
        <ele>1397</ele>
        <time>2013-01-12T09:26:06Z</time>
      </trkpt>
      <trkpt lat="45.57866" lon="6.07588">
        <ele>1397</ele>
        <time>2013-01-12T09:26:11Z</time>
      </trkpt>
      <trkpt lat="45.57867" lon="6.07591">
        <ele>1397</ele>
        <time>2013-01-12T09:26:15Z</time>
      </trkpt>
      <trkpt lat="45.57869" lon="6.07591">
        <ele>1399</ele>
        <time>2013-01-12T09:26:18Z</time>
      </trkpt>
      <trkpt lat="45.57872" lon="6.07588">
        <ele>1400</ele>
        <time>2013-01-12T09:26:20Z</time>
      </trkpt>
      <trkpt lat="45.57872" lon="6.07586">
        <ele>1401</ele>
        <time>2013-01-12T09:26:24Z</time>
      </trkpt>
      <trkpt lat="45.5787" lon="6.07587">
        <ele>1401</ele>
        <time>2013-01-12T09:26:26Z</time>
      </trkpt>
      <trkpt lat="45.57869" lon="6.07588">
        <ele>1401</ele>
        <time>2013-01-12T09:26:29Z</time>
      </trkpt>
      <trkpt lat="45.57868" lon="6.07586">
        <ele>1401</ele>
        <time>2013-01-12T09:26:34Z</time>
      </trkpt>
      <trkpt lat="45.57867" lon="6.07589">
        <ele>1400</ele>
        <time>2013-01-12T09:26:41Z</time>
      </trkpt>
      <trkpt lat="45.57866" lon="6.07587">
        <ele>1400</ele>
        <time>2013-01-12T09:26:43Z</time>
      </trkpt>
      <trkpt lat="45.57865" lon="6.07589">
        <ele>1400</ele>
        <time>2013-01-12T09:26:45Z</time>
      </trkpt>
      <trkpt lat="45.57862" lon="6.0759">
        <ele>1399</ele>
        <time>2013-01-12T09:26:51Z</time>
      </trkpt>
      <trkpt lat="45.57861" lon="6.07592">
        <ele>1399</ele>
        <time>2013-01-12T09:26:53Z</time>
      </trkpt>
      <trkpt lat="45.57862" lon="6.0759">
        <ele>1399</ele>
        <time>2013-01-12T09:26:58Z</time>
      </trkpt>
      <trkpt lat="45.57865" lon="6.07586">
        <ele>1399</ele>
        <time>2013-01-12T09:27:00Z</time>
      </trkpt>
      <trkpt lat="45.57866" lon="6.07583">
        <ele>1399</ele>
        <time>2013-01-12T09:27:02Z</time>
      </trkpt>
      <trkpt lat="45.57864" lon="6.07584">
        <ele>1399</ele>
        <time>2013-01-12T09:27:08Z</time>
      </trkpt>
      <trkpt lat="45.57866" lon="6.0758">
        <ele>1399</ele>
        <time>2013-01-12T09:27:12Z</time>
      </trkpt>
      <trkpt lat="45.57864" lon="6.07579">
        <ele>1399</ele>
        <time>2013-01-12T09:27:14Z</time>
      </trkpt>
      <trkpt lat="45.57862" lon="6.07579">
        <ele>1399</ele>
        <time>2013-01-12T09:27:16Z</time>
      </trkpt>
      <trkpt lat="45.57864" lon="6.07575">
        <ele>1399</ele>
        <time>2013-01-12T09:27:19Z</time>
      </trkpt>
      <trkpt lat="45.57864" lon="6.07574">
        <ele>1399</ele>
        <time>2013-01-12T09:27:21Z</time>
      </trkpt>
      <trkpt lat="45.57864" lon="6.07572">
        <ele>1399</ele>
        <time>2013-01-12T09:27:24Z</time>
      </trkpt>
      <trkpt lat="45.57857" lon="6.07577">
        <ele>1401</ele>
        <time>2013-01-12T09:27:27Z</time>
      </trkpt>
      <trkpt lat="45.57857" lon="6.07575">
        <ele>1401</ele>
        <time>2013-01-12T09:27:33Z</time>
      </trkpt>
      <trkpt lat="45.57856" lon="6.07574">
        <ele>1402</ele>
        <time>2013-01-12T09:27:39Z</time>
      </trkpt>
      <trkpt lat="45.57856" lon="6.07576">
        <ele>1402</ele>
        <time>2013-01-12T09:27:42Z</time>
      </trkpt>
      <trkpt lat="45.57854" lon="6.07572">
        <ele>1405</ele>
        <time>2013-01-12T09:27:46Z</time>
      </trkpt>
      <trkpt lat="45.57853" lon="6.07571">
        <ele>1406</ele>
        <time>2013-01-12T09:27:49Z</time>
      </trkpt>
      <trkpt lat="45.57851" lon="6.07571">
        <ele>1407</ele>
        <time>2013-01-12T09:27:52Z</time>
      </trkpt>
      <trkpt lat="45.5785" lon="6.07572">
        <ele>1408</ele>
        <time>2013-01-12T09:27:56Z</time>
      </trkpt>
      <trkpt lat="45.57851" lon="6.0757">
        <ele>1408</ele>
        <time>2013-01-12T09:28:01Z</time>
      </trkpt>
      <trkpt lat="45.57848" lon="6.0757">
        <ele>1408</ele>
        <time>2013-01-12T09:28:06Z</time>
      </trkpt>
      <trkpt lat="45.5785" lon="6.07566">
        <ele>1408</ele>
        <time>2013-01-12T09:28:09Z</time>
      </trkpt>
      <trkpt lat="45.57845" lon="6.07565">
        <ele>1408</ele>
        <time>2013-01-12T09:28:17Z</time>
      </trkpt>
      <trkpt lat="45.57843" lon="6.07565">
        <ele>1408</ele>
        <time>2013-01-12T09:28:20Z</time>
      </trkpt>
      <trkpt lat="45.57843" lon="6.07565">
        <ele>1408</ele>
        <time>2013-01-12T09:28:28Z</time>
      </trkpt>
      <trkpt lat="45.57842" lon="6.07566">
        <ele>1408</ele>
        <time>2013-01-12T09:28:31Z</time>
      </trkpt>
      <trkpt lat="45.57841" lon="6.07565">
        <ele>1409</ele>
        <time>2013-01-12T09:28:34Z</time>
      </trkpt>
      <trkpt lat="45.57843" lon="6.07557">
        <ele>1409</ele>
        <time>2013-01-12T09:28:41Z</time>
      </trkpt>
      <trkpt lat="45.57848" lon="6.07553">
        <ele>1412</ele>
        <time>2013-01-12T09:28:46Z</time>
      </trkpt>
      <trkpt lat="45.57847" lon="6.07553">
        <ele>1413</ele>
        <time>2013-01-12T09:28:53Z</time>
      </trkpt>
      <trkpt lat="45.57846" lon="6.07555">
        <ele>1413</ele>
        <time>2013-01-12T09:28:56Z</time>
      </trkpt>
      <trkpt lat="45.57843" lon="6.0756">
        <ele>1413</ele>
        <time>2013-01-12T09:29:01Z</time>
      </trkpt>
      <trkpt lat="45.57841" lon="6.0756">
        <ele>1413</ele>
        <time>2013-01-12T09:29:03Z</time>
      </trkpt>
      <trkpt lat="45.5784" lon="6.07559">
        <ele>1414</ele>
        <time>2013-01-12T09:29:06Z</time>
      </trkpt>
      <trkpt lat="45.57838" lon="6.07557">
        <ele>1414</ele>
        <time>2013-01-12T09:29:11Z</time>
      </trkpt>
      <trkpt lat="45.57838" lon="6.07559">
        <ele>1415</ele>
        <time>2013-01-12T09:29:13Z</time>
      </trkpt>
      <trkpt lat="45.5783" lon="6.07552">
        <ele>1425</ele>
        <time>2013-01-12T09:29:22Z</time>
      </trkpt>
      <trkpt lat="45.57829" lon="6.07551">
        <ele>1425</ele>
        <time>2013-01-12T09:29:25Z</time>
      </trkpt>
      <trkpt lat="45.57827" lon="6.0755">
        <ele>1425</ele>
        <time>2013-01-12T09:29:28Z</time>
      </trkpt>
      <trkpt lat="45.57826" lon="6.0755">
        <ele>1425</ele>
        <time>2013-01-12T09:29:31Z</time>
      </trkpt>
      <trkpt lat="45.57825" lon="6.0755">
        <ele>1425</ele>
        <time>2013-01-12T09:29:34Z</time>
      </trkpt>
      <trkpt lat="45.57823" lon="6.07549">
        <ele>1425</ele>
        <time>2013-01-12T09:29:37Z</time>
      </trkpt>
      <trkpt lat="45.57822" lon="6.07548">
        <ele>1425</ele>
        <time>2013-01-12T09:29:40Z</time>
      </trkpt>
      <trkpt lat="45.5782" lon="6.07546">
        <ele>1425</ele>
        <time>2013-01-12T09:29:44Z</time>
      </trkpt>
      <trkpt lat="45.5782" lon="6.07544">
        <ele>1425</ele>
        <time>2013-01-12T09:29:47Z</time>
      </trkpt>
      <trkpt lat="45.5782" lon="6.07543">
        <ele>1425</ele>
        <time>2013-01-12T09:29:49Z</time>
      </trkpt>
      <trkpt lat="45.5782" lon="6.0754">
        <ele>1425</ele>
        <time>2013-01-12T09:29:52Z</time>
      </trkpt>
      <trkpt lat="45.5782" lon="6.07538">
        <ele>1425</ele>
        <time>2013-01-12T09:29:55Z</time>
      </trkpt>
      <trkpt lat="45.57818" lon="6.07536">
        <ele>1425</ele>
        <time>2013-01-12T09:30:00Z</time>
      </trkpt>
      <trkpt lat="45.57817" lon="6.07536">
        <ele>1425</ele>
        <time>2013-01-12T09:30:03Z</time>
      </trkpt>
      <trkpt lat="45.57816" lon="6.07535">
        <ele>1425</ele>
        <time>2013-01-12T09:30:07Z</time>
      </trkpt>
      <trkpt lat="45.57814" lon="6.07535">
        <ele>1425</ele>
        <time>2013-01-12T09:30:09Z</time>
      </trkpt>
      <trkpt lat="45.57813" lon="6.07536">
        <ele>1425</ele>
        <time>2013-01-12T09:30:13Z</time>
      </trkpt>
      <trkpt lat="45.57811" lon="6.07536">
        <ele>1425</ele>
        <time>2013-01-12T09:30:15Z</time>
      </trkpt>
      <trkpt lat="45.5781" lon="6.07537">
        <ele>1425</ele>
        <time>2013-01-12T09:30:18Z</time>
      </trkpt>
      <trkpt lat="45.578" lon="6.07529">
        <ele>1429</ele>
        <time>2013-01-12T09:30:26Z</time>
      </trkpt>
      <trkpt lat="45.57799" lon="6.07529">
        <ele>1429</ele>
        <time>2013-01-12T09:30:30Z</time>
      </trkpt>
      <trkpt lat="45.57799" lon="6.07527">
        <ele>1429</ele>
        <time>2013-01-12T09:30:34Z</time>
      </trkpt>
      <trkpt lat="45.57806" lon="6.07521">
        <ele>1431</ele>
        <time>2013-01-12T09:30:40Z</time>
      </trkpt>
      <trkpt lat="45.57806" lon="6.07519">
        <ele>1432</ele>
        <time>2013-01-12T09:30:43Z</time>
      </trkpt>
      <trkpt lat="45.57805" lon="6.07517">
        <ele>1433</ele>
        <time>2013-01-12T09:30:47Z</time>
      </trkpt>
      <trkpt lat="45.57803" lon="6.07517">
        <ele>1433</ele>
        <time>2013-01-12T09:30:50Z</time>
      </trkpt>
      <trkpt lat="45.57802" lon="6.07517">
        <ele>1434</ele>
        <time>2013-01-12T09:30:52Z</time>
      </trkpt>
      <trkpt lat="45.578" lon="6.07517">
        <ele>1434</ele>
        <time>2013-01-12T09:30:56Z</time>
      </trkpt>
      <trkpt lat="45.57798" lon="6.07518">
        <ele>1434</ele>
        <time>2013-01-12T09:30:58Z</time>
      </trkpt>
      <trkpt lat="45.57795" lon="6.07518">
        <ele>1435</ele>
        <time>2013-01-12T09:31:02Z</time>
      </trkpt>
      <trkpt lat="45.57794" lon="6.07519">
        <ele>1435</ele>
        <time>2013-01-12T09:31:04Z</time>
      </trkpt>
      <trkpt lat="45.57792" lon="6.0752">
        <ele>1435</ele>
        <time>2013-01-12T09:31:06Z</time>
      </trkpt>
      <trkpt lat="45.5779" lon="6.07521">
        <ele>1436</ele>
        <time>2013-01-12T09:31:10Z</time>
      </trkpt>
      <trkpt lat="45.57788" lon="6.07523">
        <ele>1436</ele>
        <time>2013-01-12T09:31:12Z</time>
      </trkpt>
      <trkpt lat="45.57787" lon="6.07525">
        <ele>1436</ele>
        <time>2013-01-12T09:31:15Z</time>
      </trkpt>
      <trkpt lat="45.57786" lon="6.07527">
        <ele>1437</ele>
        <time>2013-01-12T09:31:17Z</time>
      </trkpt>
      <trkpt lat="45.57784" lon="6.0753">
        <ele>1438</ele>
        <time>2013-01-12T09:31:21Z</time>
      </trkpt>
      <trkpt lat="45.57783" lon="6.07532">
        <ele>1438</ele>
        <time>2013-01-12T09:31:23Z</time>
      </trkpt>
      <trkpt lat="45.57781" lon="6.07536">
        <ele>1439</ele>
        <time>2013-01-12T09:31:31Z</time>
      </trkpt>
      <trkpt lat="45.57779" lon="6.07538">
        <ele>1440</ele>
        <time>2013-01-12T09:31:35Z</time>
      </trkpt>
      <trkpt lat="45.57777" lon="6.07539">
        <ele>1440</ele>
        <time>2013-01-12T09:31:37Z</time>
      </trkpt>
      <trkpt lat="45.57774" lon="6.07542">
        <ele>1440</ele>
        <time>2013-01-12T09:31:40Z</time>
      </trkpt>
      <trkpt lat="45.57772" lon="6.07542">
        <ele>1440</ele>
        <time>2013-01-12T09:31:43Z</time>
      </trkpt>
      <trkpt lat="45.57769" lon="6.07543">
        <ele>1440</ele>
        <time>2013-01-12T09:31:47Z</time>
      </trkpt>
      <trkpt lat="45.57767" lon="6.07543">
        <ele>1440</ele>
        <time>2013-01-12T09:31:49Z</time>
      </trkpt>
      <trkpt lat="45.57763" lon="6.07543">
        <ele>1440</ele>
        <time>2013-01-12T09:31:52Z</time>
      </trkpt>
      <trkpt lat="45.57761" lon="6.07543">
        <ele>1440</ele>
        <time>2013-01-12T09:31:55Z</time>
      </trkpt>
      <trkpt lat="45.57758" lon="6.07542">
        <ele>1440</ele>
        <time>2013-01-12T09:31:59Z</time>
      </trkpt>
      <trkpt lat="45.57756" lon="6.07542">
        <ele>1440</ele>
        <time>2013-01-12T09:32:01Z</time>
      </trkpt>
      <trkpt lat="45.57753" lon="6.07542">
        <ele>1441</ele>
        <time>2013-01-12T09:32:05Z</time>
      </trkpt>
      <trkpt lat="45.57751" lon="6.07542">
        <ele>1441</ele>
        <time>2013-01-12T09:32:07Z</time>
      </trkpt>
      <trkpt lat="45.57748" lon="6.07543">
        <ele>1441</ele>
        <time>2013-01-12T09:32:12Z</time>
      </trkpt>
      <trkpt lat="45.57747" lon="6.07545">
        <ele>1441</ele>
        <time>2013-01-12T09:32:16Z</time>
      </trkpt>
      <trkpt lat="45.57742" lon="6.07543">
        <ele>1446</ele>
        <time>2013-01-12T09:32:21Z</time>
      </trkpt>
      <trkpt lat="45.5774" lon="6.07543">
        <ele>1446</ele>
        <time>2013-01-12T09:32:25Z</time>
      </trkpt>
      <trkpt lat="45.57738" lon="6.07542">
        <ele>1446</ele>
        <time>2013-01-12T09:32:27Z</time>
      </trkpt>
      <trkpt lat="45.57737" lon="6.07542">
        <ele>1446</ele>
        <time>2013-01-12T09:32:29Z</time>
      </trkpt>
      <trkpt lat="45.57734" lon="6.0754">
        <ele>1446</ele>
        <time>2013-01-12T09:32:33Z</time>
      </trkpt>
      <trkpt lat="45.57731" lon="6.07536">
        <ele>1446</ele>
        <time>2013-01-12T09:32:39Z</time>
      </trkpt>
      <trkpt lat="45.5773" lon="6.07535">
        <ele>1446</ele>
        <time>2013-01-12T09:32:42Z</time>
      </trkpt>
      <trkpt lat="45.57729" lon="6.07533">
        <ele>1446</ele>
        <time>2013-01-12T09:32:46Z</time>
      </trkpt>
      <trkpt lat="45.57728" lon="6.07531">
        <ele>1446</ele>
        <time>2013-01-12T09:32:49Z</time>
      </trkpt>
      <trkpt lat="45.57726" lon="6.07529">
        <ele>1446</ele>
        <time>2013-01-12T09:32:51Z</time>
      </trkpt>
      <trkpt lat="45.57723" lon="6.07525">
        <ele>1446</ele>
        <time>2013-01-12T09:32:54Z</time>
      </trkpt>
      <trkpt lat="45.57722" lon="6.07524">
        <ele>1446</ele>
        <time>2013-01-12T09:32:57Z</time>
      </trkpt>
      <trkpt lat="45.57719" lon="6.0752">
        <ele>1447</ele>
        <time>2013-01-12T09:33:01Z</time>
      </trkpt>
      <trkpt lat="45.57718" lon="6.07518">
        <ele>1447</ele>
        <time>2013-01-12T09:33:03Z</time>
      </trkpt>
      <trkpt lat="45.57717" lon="6.07517">
        <ele>1447</ele>
        <time>2013-01-12T09:33:05Z</time>
      </trkpt>
      <trkpt lat="45.57714" lon="6.07513">
        <ele>1448</ele>
        <time>2013-01-12T09:33:09Z</time>
      </trkpt>
      <trkpt lat="45.57711" lon="6.07509">
        <ele>1448</ele>
        <time>2013-01-12T09:33:13Z</time>
      </trkpt>
      <trkpt lat="45.57709" lon="6.07508">
        <ele>1448</ele>
        <time>2013-01-12T09:33:15Z</time>
      </trkpt>
      <trkpt lat="45.57708" lon="6.07505">
        <ele>1448</ele>
        <time>2013-01-12T09:33:17Z</time>
      </trkpt>
      <trkpt lat="45.57707" lon="6.07504">
        <ele>1448</ele>
        <time>2013-01-12T09:33:19Z</time>
      </trkpt>
      <trkpt lat="45.57706" lon="6.07501">
        <ele>1448</ele>
        <time>2013-01-12T09:33:22Z</time>
      </trkpt>
      <trkpt lat="45.57703" lon="6.07497">
        <ele>1448</ele>
        <time>2013-01-12T09:33:25Z</time>
      </trkpt>
      <trkpt lat="45.57701" lon="6.07495">
        <ele>1448</ele>
        <time>2013-01-12T09:33:29Z</time>
      </trkpt>
      <trkpt lat="45.57698" lon="6.07492">
        <ele>1449</ele>
        <time>2013-01-12T09:33:33Z</time>
      </trkpt>
      <trkpt lat="45.57697" lon="6.0749">
        <ele>1449</ele>
        <time>2013-01-12T09:33:36Z</time>
      </trkpt>
      <trkpt lat="45.57695" lon="6.07489">
        <ele>1449</ele>
        <time>2013-01-12T09:33:38Z</time>
      </trkpt>
      <trkpt lat="45.57692" lon="6.07485">
        <ele>1449</ele>
        <time>2013-01-12T09:33:41Z</time>
      </trkpt>
      <trkpt lat="45.57691" lon="6.07484">
        <ele>1449</ele>
        <time>2013-01-12T09:33:43Z</time>
      </trkpt>
      <trkpt lat="45.57689" lon="6.07482">
        <ele>1449</ele>
        <time>2013-01-12T09:33:46Z</time>
      </trkpt>
      <trkpt lat="45.57687" lon="6.07481">
        <ele>1449</ele>
        <time>2013-01-12T09:33:48Z</time>
      </trkpt>
      <trkpt lat="45.57684" lon="6.07479">
        <ele>1450</ele>
        <time>2013-01-12T09:33:51Z</time>
      </trkpt>
      <trkpt lat="45.57682" lon="6.07477">
        <ele>1450</ele>
        <time>2013-01-12T09:33:53Z</time>
      </trkpt>
      <trkpt lat="45.57681" lon="6.07476">
        <ele>1450</ele>
        <time>2013-01-12T09:33:55Z</time>
      </trkpt>
      <trkpt lat="45.57679" lon="6.07474">
        <ele>1450</ele>
        <time>2013-01-12T09:33:58Z</time>
      </trkpt>
      <trkpt lat="45.57677" lon="6.07473">
        <ele>1450</ele>
        <time>2013-01-12T09:34:00Z</time>
      </trkpt>
      <trkpt lat="45.57675" lon="6.0747">
        <ele>1450</ele>
        <time>2013-01-12T09:34:03Z</time>
      </trkpt>
      <trkpt lat="45.57673" lon="6.07468">
        <ele>1450</ele>
        <time>2013-01-12T09:34:07Z</time>
      </trkpt>
      <trkpt lat="45.57671" lon="6.07467">
        <ele>1450</ele>
        <time>2013-01-12T09:34:09Z</time>
      </trkpt>
      <trkpt lat="45.57667" lon="6.07464">
        <ele>1450</ele>
        <time>2013-01-12T09:34:12Z</time>
      </trkpt>
      <trkpt lat="45.57665" lon="6.07462">
        <ele>1451</ele>
        <time>2013-01-12T09:34:15Z</time>
      </trkpt>
      <trkpt lat="45.57664" lon="6.07461">
        <ele>1451</ele>
        <time>2013-01-12T09:34:17Z</time>
      </trkpt>
      <trkpt lat="45.57662" lon="6.07459">
        <ele>1451</ele>
        <time>2013-01-12T09:34:19Z</time>
      </trkpt>
      <trkpt lat="45.57659" lon="6.07456">
        <ele>1451</ele>
        <time>2013-01-12T09:34:23Z</time>
      </trkpt>
      <trkpt lat="45.57658" lon="6.07455">
        <ele>1451</ele>
        <time>2013-01-12T09:34:25Z</time>
      </trkpt>
      <trkpt lat="45.57656" lon="6.07454">
        <ele>1451</ele>
        <time>2013-01-12T09:34:27Z</time>
      </trkpt>
      <trkpt lat="45.57653" lon="6.07451">
        <ele>1452</ele>
        <time>2013-01-12T09:34:31Z</time>
      </trkpt>
      <trkpt lat="45.57652" lon="6.07451">
        <ele>1452</ele>
        <time>2013-01-12T09:34:33Z</time>
      </trkpt>
      <trkpt lat="45.57648" lon="6.0745">
        <ele>1453</ele>
        <time>2013-01-12T09:34:36Z</time>
      </trkpt>
      <trkpt lat="45.57647" lon="6.07449">
        <ele>1453</ele>
        <time>2013-01-12T09:34:39Z</time>
      </trkpt>
      <trkpt lat="45.57643" lon="6.07448">
        <ele>1453</ele>
        <time>2013-01-12T09:34:42Z</time>
      </trkpt>
      <trkpt lat="45.57641" lon="6.07447">
        <ele>1453</ele>
        <time>2013-01-12T09:34:44Z</time>
      </trkpt>
      <trkpt lat="45.57639" lon="6.07447">
        <ele>1453</ele>
        <time>2013-01-12T09:34:47Z</time>
      </trkpt>
      <trkpt lat="45.57637" lon="6.07446">
        <ele>1453</ele>
        <time>2013-01-12T09:34:50Z</time>
      </trkpt>
      <trkpt lat="45.57634" lon="6.07446">
        <ele>1453</ele>
        <time>2013-01-12T09:34:54Z</time>
      </trkpt>
      <trkpt lat="45.5763" lon="6.07444">
        <ele>1453</ele>
        <time>2013-01-12T09:34:57Z</time>
      </trkpt>
      <trkpt lat="45.57627" lon="6.07443">
        <ele>1453</ele>
        <time>2013-01-12T09:35:01Z</time>
      </trkpt>
      <trkpt lat="45.57626" lon="6.07443">
        <ele>1453</ele>
        <time>2013-01-12T09:35:03Z</time>
      </trkpt>
      <trkpt lat="45.57624" lon="6.07443">
        <ele>1453</ele>
        <time>2013-01-12T09:35:05Z</time>
      </trkpt>
      <trkpt lat="45.57621" lon="6.07442">
        <ele>1453</ele>
        <time>2013-01-12T09:35:08Z</time>
      </trkpt>
      <trkpt lat="45.57619" lon="6.07441">
        <ele>1453</ele>
        <time>2013-01-12T09:35:10Z</time>
      </trkpt>
      <trkpt lat="45.57617" lon="6.0744">
        <ele>1453</ele>
        <time>2013-01-12T09:35:12Z</time>
      </trkpt>
      <trkpt lat="45.57614" lon="6.07441">
        <ele>1453</ele>
        <time>2013-01-12T09:35:14Z</time>
      </trkpt>
      <trkpt lat="45.57611" lon="6.0744">
        <ele>1453</ele>
        <time>2013-01-12T09:35:17Z</time>
      </trkpt>
      <trkpt lat="45.57608" lon="6.07438">
        <ele>1453</ele>
        <time>2013-01-12T09:35:21Z</time>
      </trkpt>
      <trkpt lat="45.57606" lon="6.07437">
        <ele>1453</ele>
        <time>2013-01-12T09:35:24Z</time>
      </trkpt>
      <trkpt lat="45.57604" lon="6.07436">
        <ele>1453</ele>
        <time>2013-01-12T09:35:26Z</time>
      </trkpt>
      <trkpt lat="45.57602" lon="6.07435">
        <ele>1453</ele>
        <time>2013-01-12T09:35:29Z</time>
      </trkpt>
      <trkpt lat="45.57598" lon="6.07433">
        <ele>1453</ele>
        <time>2013-01-12T09:35:33Z</time>
      </trkpt>
      <trkpt lat="45.57597" lon="6.07433">
        <ele>1453</ele>
        <time>2013-01-12T09:35:35Z</time>
      </trkpt>
      <trkpt lat="45.57596" lon="6.07432">
        <ele>1453</ele>
        <time>2013-01-12T09:35:37Z</time>
      </trkpt>
      <trkpt lat="45.57594" lon="6.07431">
        <ele>1453</ele>
        <time>2013-01-12T09:35:39Z</time>
      </trkpt>
      <trkpt lat="45.57593" lon="6.07431">
        <ele>1453</ele>
        <time>2013-01-12T09:35:41Z</time>
      </trkpt>
      <trkpt lat="45.57591" lon="6.07431">
        <ele>1453</ele>
        <time>2013-01-12T09:35:43Z</time>
      </trkpt>
      <trkpt lat="45.57589" lon="6.07431">
        <ele>1453</ele>
        <time>2013-01-12T09:35:45Z</time>
      </trkpt>
      <trkpt lat="45.57588" lon="6.0743">
        <ele>1453</ele>
        <time>2013-01-12T09:35:47Z</time>
      </trkpt>
      <trkpt lat="45.57584" lon="6.0743">
        <ele>1453</ele>
        <time>2013-01-12T09:35:50Z</time>
      </trkpt>
      <trkpt lat="45.57581" lon="6.07429">
        <ele>1453</ele>
        <time>2013-01-12T09:35:53Z</time>
      </trkpt>
      <trkpt lat="45.57579" lon="6.07428">
        <ele>1453</ele>
        <time>2013-01-12T09:35:56Z</time>
      </trkpt>
      <trkpt lat="45.57575" lon="6.07427">
        <ele>1453</ele>
        <time>2013-01-12T09:36:00Z</time>
      </trkpt>
      <trkpt lat="45.57574" lon="6.07426">
        <ele>1453</ele>
        <time>2013-01-12T09:36:02Z</time>
      </trkpt>
      <trkpt lat="45.57572" lon="6.07425">
        <ele>1453</ele>
        <time>2013-01-12T09:36:04Z</time>
      </trkpt>
      <trkpt lat="45.57569" lon="6.07425">
        <ele>1453</ele>
        <time>2013-01-12T09:36:06Z</time>
      </trkpt>
      <trkpt lat="45.57568" lon="6.07424">
        <ele>1453</ele>
        <time>2013-01-12T09:36:09Z</time>
      </trkpt>
      <trkpt lat="45.57564" lon="6.07421">
        <ele>1454</ele>
        <time>2013-01-12T09:36:12Z</time>
      </trkpt>
      <trkpt lat="45.57563" lon="6.0742">
        <ele>1454</ele>
        <time>2013-01-12T09:36:14Z</time>
      </trkpt>
      <trkpt lat="45.57561" lon="6.07419">
        <ele>1455</ele>
        <time>2013-01-12T09:36:16Z</time>
      </trkpt>
      <trkpt lat="45.5756" lon="6.07418">
        <ele>1455</ele>
        <time>2013-01-12T09:36:19Z</time>
      </trkpt>
      <trkpt lat="45.57556" lon="6.07415">
        <ele>1455</ele>
        <time>2013-01-12T09:36:22Z</time>
      </trkpt>
      <trkpt lat="45.57555" lon="6.07414">
        <ele>1455</ele>
        <time>2013-01-12T09:36:25Z</time>
      </trkpt>
      <trkpt lat="45.57552" lon="6.0741">
        <ele>1455</ele>
        <time>2013-01-12T09:36:29Z</time>
      </trkpt>
      <trkpt lat="45.57549" lon="6.07407">
        <ele>1455</ele>
        <time>2013-01-12T09:36:33Z</time>
      </trkpt>
      <trkpt lat="45.57547" lon="6.07406">
        <ele>1455</ele>
        <time>2013-01-12T09:36:35Z</time>
      </trkpt>
      <trkpt lat="45.57545" lon="6.07404">
        <ele>1455</ele>
        <time>2013-01-12T09:36:37Z</time>
      </trkpt>
      <trkpt lat="45.57544" lon="6.07402">
        <ele>1455</ele>
        <time>2013-01-12T09:36:39Z</time>
      </trkpt>
      <trkpt lat="45.57542" lon="6.07401">
        <ele>1455</ele>
        <time>2013-01-12T09:36:41Z</time>
      </trkpt>
      <trkpt lat="45.57539" lon="6.07398">
        <ele>1455</ele>
        <time>2013-01-12T09:36:45Z</time>
      </trkpt>
      <trkpt lat="45.57536" lon="6.07396">
        <ele>1455</ele>
        <time>2013-01-12T09:36:47Z</time>
      </trkpt>
      <trkpt lat="45.57533" lon="6.07392">
        <ele>1455</ele>
        <time>2013-01-12T09:36:51Z</time>
      </trkpt>
      <trkpt lat="45.57531" lon="6.0739">
        <ele>1455</ele>
        <time>2013-01-12T09:36:53Z</time>
      </trkpt>
      <trkpt lat="45.57529" lon="6.07389">
        <ele>1455</ele>
        <time>2013-01-12T09:36:55Z</time>
      </trkpt>
      <trkpt lat="45.57527" lon="6.07387">
        <ele>1455</ele>
        <time>2013-01-12T09:36:57Z</time>
      </trkpt>
      <trkpt lat="45.57526" lon="6.07385">
        <ele>1455</ele>
        <time>2013-01-12T09:36:59Z</time>
      </trkpt>
      <trkpt lat="45.57524" lon="6.07384">
        <ele>1455</ele>
        <time>2013-01-12T09:37:01Z</time>
      </trkpt>
      <trkpt lat="45.57521" lon="6.07382">
        <ele>1455</ele>
        <time>2013-01-12T09:37:05Z</time>
      </trkpt>
      <trkpt lat="45.5752" lon="6.07381">
        <ele>1455</ele>
        <time>2013-01-12T09:37:07Z</time>
      </trkpt>
      <trkpt lat="45.57515" lon="6.07372">
        <ele>1455</ele>
        <time>2013-01-12T09:37:11Z</time>
      </trkpt>
      <trkpt lat="45.57514" lon="6.07371">
        <ele>1455</ele>
        <time>2013-01-12T09:37:17Z</time>
      </trkpt>
      <trkpt lat="45.57512" lon="6.07369">
        <ele>1455</ele>
        <time>2013-01-12T09:37:19Z</time>
      </trkpt>
      <trkpt lat="45.57509" lon="6.07366">
        <ele>1455</ele>
        <time>2013-01-12T09:37:23Z</time>
      </trkpt>
      <trkpt lat="45.57508" lon="6.07365">
        <ele>1455</ele>
        <time>2013-01-12T09:37:25Z</time>
      </trkpt>
      <trkpt lat="45.57505" lon="6.0736">
        <ele>1455</ele>
        <time>2013-01-12T09:37:29Z</time>
      </trkpt>
      <trkpt lat="45.57504" lon="6.07358">
        <ele>1455</ele>
        <time>2013-01-12T09:37:31Z</time>
      </trkpt>
      <trkpt lat="45.575" lon="6.07355">
        <ele>1455</ele>
        <time>2013-01-12T09:37:35Z</time>
      </trkpt>
      <trkpt lat="45.57498" lon="6.07355">
        <ele>1455</ele>
        <time>2013-01-12T09:37:37Z</time>
      </trkpt>
      <trkpt lat="45.57496" lon="6.07353">
        <ele>1455</ele>
        <time>2013-01-12T09:37:39Z</time>
      </trkpt>
      <trkpt lat="45.57493" lon="6.0735">
        <ele>1455</ele>
        <time>2013-01-12T09:37:42Z</time>
      </trkpt>
      <trkpt lat="45.57491" lon="6.07347">
        <ele>1455</ele>
        <time>2013-01-12T09:37:44Z</time>
      </trkpt>
      <trkpt lat="45.57489" lon="6.07344">
        <ele>1455</ele>
        <time>2013-01-12T09:37:46Z</time>
      </trkpt>
      <trkpt lat="45.57487" lon="6.0734">
        <ele>1455</ele>
        <time>2013-01-12T09:37:49Z</time>
      </trkpt>
      <trkpt lat="45.57486" lon="6.07337">
        <ele>1454</ele>
        <time>2013-01-12T09:37:51Z</time>
      </trkpt>
      <trkpt lat="45.57485" lon="6.07333">
        <ele>1452</ele>
        <time>2013-01-12T09:37:55Z</time>
      </trkpt>
      <trkpt lat="45.57484" lon="6.07331">
        <ele>1452</ele>
        <time>2013-01-12T09:37:57Z</time>
      </trkpt>
      <trkpt lat="45.5748" lon="6.07319">
        <ele>1448</ele>
        <time>2013-01-12T09:38:03Z</time>
      </trkpt>
      <trkpt lat="45.57479" lon="6.07314">
        <ele>1447</ele>
        <time>2013-01-12T09:38:06Z</time>
      </trkpt>
      <trkpt lat="45.57478" lon="6.07311">
        <ele>1445</ele>
        <time>2013-01-12T09:38:09Z</time>
      </trkpt>
      <trkpt lat="45.57478" lon="6.07309">
        <ele>1444</ele>
        <time>2013-01-12T09:38:11Z</time>
      </trkpt>
      <trkpt lat="45.57476" lon="6.07306">
        <ele>1444</ele>
        <time>2013-01-12T09:38:13Z</time>
      </trkpt>
      <trkpt lat="45.57476" lon="6.07303">
        <ele>1443</ele>
        <time>2013-01-12T09:38:15Z</time>
      </trkpt>
      <trkpt lat="45.57474" lon="6.073">
        <ele>1442</ele>
        <time>2013-01-12T09:38:19Z</time>
      </trkpt>
      <trkpt lat="45.57471" lon="6.07296">
        <ele>1441</ele>
        <time>2013-01-12T09:38:23Z</time>
      </trkpt>
      <trkpt lat="45.5747" lon="6.07294">
        <ele>1440</ele>
        <time>2013-01-12T09:38:25Z</time>
      </trkpt>
      <trkpt lat="45.57469" lon="6.07292">
        <ele>1440</ele>
        <time>2013-01-12T09:38:27Z</time>
      </trkpt>
      <trkpt lat="45.57466" lon="6.07289">
        <ele>1440</ele>
        <time>2013-01-12T09:38:31Z</time>
      </trkpt>
      <trkpt lat="45.57463" lon="6.07285">
        <ele>1440</ele>
        <time>2013-01-12T09:38:35Z</time>
      </trkpt>
      <trkpt lat="45.5746" lon="6.07282">
        <ele>1440</ele>
        <time>2013-01-12T09:38:39Z</time>
      </trkpt>
      <trkpt lat="45.57457" lon="6.07279">
        <ele>1440</ele>
        <time>2013-01-12T09:38:43Z</time>
      </trkpt>
      <trkpt lat="45.57455" lon="6.07278">
        <ele>1440</ele>
        <time>2013-01-12T09:38:45Z</time>
      </trkpt>
      <trkpt lat="45.57454" lon="6.07277">
        <ele>1440</ele>
        <time>2013-01-12T09:38:47Z</time>
      </trkpt>
      <trkpt lat="45.57453" lon="6.07275">
        <ele>1440</ele>
        <time>2013-01-12T09:38:50Z</time>
      </trkpt>
      <trkpt lat="45.57452" lon="6.07274">
        <ele>1440</ele>
        <time>2013-01-12T09:38:52Z</time>
      </trkpt>
      <trkpt lat="45.5745" lon="6.07272">
        <ele>1440</ele>
        <time>2013-01-12T09:38:54Z</time>
      </trkpt>
      <trkpt lat="45.57447" lon="6.07269">
        <ele>1440</ele>
        <time>2013-01-12T09:38:58Z</time>
      </trkpt>
      <trkpt lat="45.57443" lon="6.07266">
        <ele>1440</ele>
        <time>2013-01-12T09:39:02Z</time>
      </trkpt>
      <trkpt lat="45.57439" lon="6.07263">
        <ele>1440</ele>
        <time>2013-01-12T09:39:06Z</time>
      </trkpt>
      <trkpt lat="45.57435" lon="6.0726">
        <ele>1440</ele>
        <time>2013-01-12T09:39:10Z</time>
      </trkpt>
      <trkpt lat="45.57432" lon="6.07258">
        <ele>1440</ele>
        <time>2013-01-12T09:39:13Z</time>
      </trkpt>
      <trkpt lat="45.57428" lon="6.07255">
        <ele>1440</ele>
        <time>2013-01-12T09:39:17Z</time>
      </trkpt>
      <trkpt lat="45.57425" lon="6.07254">
        <ele>1440</ele>
        <time>2013-01-12T09:39:20Z</time>
      </trkpt>
      <trkpt lat="45.57423" lon="6.07253">
        <ele>1440</ele>
        <time>2013-01-12T09:39:23Z</time>
      </trkpt>
      <trkpt lat="45.57421" lon="6.07252">
        <ele>1440</ele>
        <time>2013-01-12T09:39:25Z</time>
      </trkpt>
      <trkpt lat="45.5742" lon="6.07251">
        <ele>1440</ele>
        <time>2013-01-12T09:39:27Z</time>
      </trkpt>
      <trkpt lat="45.57416" lon="6.0725">
        <ele>1440</ele>
        <time>2013-01-12T09:39:31Z</time>
      </trkpt>
      <trkpt lat="45.57413" lon="6.07249">
        <ele>1440</ele>
        <time>2013-01-12T09:39:34Z</time>
      </trkpt>
      <trkpt lat="45.57411" lon="6.07248">
        <ele>1440</ele>
        <time>2013-01-12T09:39:36Z</time>
      </trkpt>
      <trkpt lat="45.57409" lon="6.07247">
        <ele>1440</ele>
        <time>2013-01-12T09:39:38Z</time>
      </trkpt>
      <trkpt lat="45.57407" lon="6.07247">
        <ele>1440</ele>
        <time>2013-01-12T09:39:40Z</time>
      </trkpt>
      <trkpt lat="45.57406" lon="6.07246">
        <ele>1440</ele>
        <time>2013-01-12T09:39:42Z</time>
      </trkpt>
      <trkpt lat="45.57404" lon="6.07245">
        <ele>1440</ele>
        <time>2013-01-12T09:39:44Z</time>
      </trkpt>
      <trkpt lat="45.57401" lon="6.07244">
        <ele>1440</ele>
        <time>2013-01-12T09:39:48Z</time>
      </trkpt>
      <trkpt lat="45.57399" lon="6.07244">
        <ele>1440</ele>
        <time>2013-01-12T09:39:50Z</time>
      </trkpt>
      <trkpt lat="45.57397" lon="6.07243">
        <ele>1440</ele>
        <time>2013-01-12T09:39:52Z</time>
      </trkpt>
      <trkpt lat="45.57396" lon="6.07242">
        <ele>1440</ele>
        <time>2013-01-12T09:39:54Z</time>
      </trkpt>
      <trkpt lat="45.57392" lon="6.0724">
        <ele>1440</ele>
        <time>2013-01-12T09:39:58Z</time>
      </trkpt>
      <trkpt lat="45.5739" lon="6.07239">
        <ele>1440</ele>
        <time>2013-01-12T09:40:00Z</time>
      </trkpt>
      <trkpt lat="45.57388" lon="6.07238">
        <ele>1440</ele>
        <time>2013-01-12T09:40:02Z</time>
      </trkpt>
      <trkpt lat="45.57385" lon="6.07236">
        <ele>1440</ele>
        <time>2013-01-12T09:40:06Z</time>
      </trkpt>
      <trkpt lat="45.57383" lon="6.07235">
        <ele>1440</ele>
        <time>2013-01-12T09:40:08Z</time>
      </trkpt>
      <trkpt lat="45.57382" lon="6.07233">
        <ele>1440</ele>
        <time>2013-01-12T09:40:10Z</time>
      </trkpt>
      <trkpt lat="45.5738" lon="6.07232">
        <ele>1440</ele>
        <time>2013-01-12T09:40:12Z</time>
      </trkpt>
      <trkpt lat="45.57378" lon="6.07231">
        <ele>1440</ele>
        <time>2013-01-12T09:40:14Z</time>
      </trkpt>
      <trkpt lat="45.57377" lon="6.0723">
        <ele>1440</ele>
        <time>2013-01-12T09:40:16Z</time>
      </trkpt>
      <trkpt lat="45.57375" lon="6.07228">
        <ele>1440</ele>
        <time>2013-01-12T09:40:18Z</time>
      </trkpt>
      <trkpt lat="45.57372" lon="6.07225">
        <ele>1440</ele>
        <time>2013-01-12T09:40:22Z</time>
      </trkpt>
      <trkpt lat="45.57371" lon="6.07224">
        <ele>1440</ele>
        <time>2013-01-12T09:40:24Z</time>
      </trkpt>
      <trkpt lat="45.57368" lon="6.07222">
        <ele>1440</ele>
        <time>2013-01-12T09:40:28Z</time>
      </trkpt>
      <trkpt lat="45.57367" lon="6.0722">
        <ele>1440</ele>
        <time>2013-01-12T09:40:31Z</time>
      </trkpt>
      <trkpt lat="45.57365" lon="6.07219">
        <ele>1440</ele>
        <time>2013-01-12T09:40:33Z</time>
      </trkpt>
      <trkpt lat="45.57364" lon="6.07217">
        <ele>1440</ele>
        <time>2013-01-12T09:40:35Z</time>
      </trkpt>
      <trkpt lat="45.57362" lon="6.07216">
        <ele>1440</ele>
        <time>2013-01-12T09:40:38Z</time>
      </trkpt>
      <trkpt lat="45.57361" lon="6.07214">
        <ele>1440</ele>
        <time>2013-01-12T09:40:40Z</time>
      </trkpt>
      <trkpt lat="45.57359" lon="6.07211">
        <ele>1440</ele>
        <time>2013-01-12T09:40:44Z</time>
      </trkpt>
      <trkpt lat="45.57357" lon="6.07208">
        <ele>1440</ele>
        <time>2013-01-12T09:40:48Z</time>
      </trkpt>
      <trkpt lat="45.57357" lon="6.07206">
        <ele>1440</ele>
        <time>2013-01-12T09:40:50Z</time>
      </trkpt>
      <trkpt lat="45.57355" lon="6.07205">
        <ele>1440</ele>
        <time>2013-01-12T09:40:52Z</time>
      </trkpt>
      <trkpt lat="45.57355" lon="6.07203">
        <ele>1440</ele>
        <time>2013-01-12T09:40:54Z</time>
      </trkpt>
      <trkpt lat="45.57354" lon="6.07201">
        <ele>1440</ele>
        <time>2013-01-12T09:40:56Z</time>
      </trkpt>
      <trkpt lat="45.57352" lon="6.07199">
        <ele>1441</ele>
        <time>2013-01-12T09:40:58Z</time>
      </trkpt>
      <trkpt lat="45.57352" lon="6.07198">
        <ele>1441</ele>
        <time>2013-01-12T09:41:00Z</time>
      </trkpt>
      <trkpt lat="45.57349" lon="6.07195">
        <ele>1442</ele>
        <time>2013-01-12T09:41:04Z</time>
      </trkpt>
      <trkpt lat="45.57348" lon="6.07194">
        <ele>1443</ele>
        <time>2013-01-12T09:41:07Z</time>
      </trkpt>
      <trkpt lat="45.57345" lon="6.07192">
        <ele>1444</ele>
        <time>2013-01-12T09:41:11Z</time>
      </trkpt>
      <trkpt lat="45.57344" lon="6.07191">
        <ele>1444</ele>
        <time>2013-01-12T09:41:13Z</time>
      </trkpt>
      <trkpt lat="45.57343" lon="6.07191">
        <ele>1445</ele>
        <time>2013-01-12T09:41:15Z</time>
      </trkpt>
      <trkpt lat="45.57339" lon="6.0719">
        <ele>1446</ele>
        <time>2013-01-12T09:41:21Z</time>
      </trkpt>
      <trkpt lat="45.57338" lon="6.0719">
        <ele>1446</ele>
        <time>2013-01-12T09:41:23Z</time>
      </trkpt>
      <trkpt lat="45.57335" lon="6.07191">
        <ele>1447</ele>
        <time>2013-01-12T09:41:27Z</time>
      </trkpt>
      <trkpt lat="45.57332" lon="6.07191">
        <ele>1448</ele>
        <time>2013-01-12T09:41:31Z</time>
      </trkpt>
      <trkpt lat="45.57331" lon="6.07192">
        <ele>1448</ele>
        <time>2013-01-12T09:41:33Z</time>
      </trkpt>
      <trkpt lat="45.57329" lon="6.07191">
        <ele>1448</ele>
        <time>2013-01-12T09:41:35Z</time>
      </trkpt>
      <trkpt lat="45.57328" lon="6.07191">
        <ele>1449</ele>
        <time>2013-01-12T09:41:37Z</time>
      </trkpt>
      <trkpt lat="45.57325" lon="6.07192">
        <ele>1449</ele>
        <time>2013-01-12T09:41:41Z</time>
      </trkpt>
      <trkpt lat="45.57323" lon="6.07192">
        <ele>1450</ele>
        <time>2013-01-12T09:41:43Z</time>
      </trkpt>
      <trkpt lat="45.57322" lon="6.07192">
        <ele>1450</ele>
        <time>2013-01-12T09:41:45Z</time>
      </trkpt>
      <trkpt lat="45.5732" lon="6.07192">
        <ele>1451</ele>
        <time>2013-01-12T09:41:47Z</time>
      </trkpt>
      <trkpt lat="45.57318" lon="6.07192">
        <ele>1451</ele>
        <time>2013-01-12T09:41:49Z</time>
      </trkpt>
      <trkpt lat="45.57316" lon="6.07192">
        <ele>1451</ele>
        <time>2013-01-12T09:41:51Z</time>
      </trkpt>
      <trkpt lat="45.57314" lon="6.07193">
        <ele>1451</ele>
        <time>2013-01-12T09:41:53Z</time>
      </trkpt>
      <trkpt lat="45.57311" lon="6.07194">
        <ele>1452</ele>
        <time>2013-01-12T09:41:57Z</time>
      </trkpt>
      <trkpt lat="45.57309" lon="6.07196">
        <ele>1452</ele>
        <time>2013-01-12T09:41:59Z</time>
      </trkpt>
      <trkpt lat="45.57307" lon="6.07197">
        <ele>1452</ele>
        <time>2013-01-12T09:42:01Z</time>
      </trkpt>
      <trkpt lat="45.57304" lon="6.07197">
        <ele>1453</ele>
        <time>2013-01-12T09:42:05Z</time>
      </trkpt>
      <trkpt lat="45.57301" lon="6.07197">
        <ele>1454</ele>
        <time>2013-01-12T09:42:09Z</time>
      </trkpt>
      <trkpt lat="45.573" lon="6.07198">
        <ele>1454</ele>
        <time>2013-01-12T09:42:11Z</time>
      </trkpt>
      <trkpt lat="45.57298" lon="6.07199">
        <ele>1454</ele>
        <time>2013-01-12T09:42:13Z</time>
      </trkpt>
      <trkpt lat="45.57297" lon="6.07199">
        <ele>1455</ele>
        <time>2013-01-12T09:42:15Z</time>
      </trkpt>
      <trkpt lat="45.57296" lon="6.07201">
        <ele>1456</ele>
        <time>2013-01-12T09:42:17Z</time>
      </trkpt>
      <trkpt lat="45.57292" lon="6.07203">
        <ele>1457</ele>
        <time>2013-01-12T09:42:21Z</time>
      </trkpt>
      <trkpt lat="45.5729" lon="6.07204">
        <ele>1459</ele>
        <time>2013-01-12T09:42:23Z</time>
      </trkpt>
      <trkpt lat="45.57289" lon="6.07205">
        <ele>1460</ele>
        <time>2013-01-12T09:42:25Z</time>
      </trkpt>
      <trkpt lat="45.57287" lon="6.07204">
        <ele>1461</ele>
        <time>2013-01-12T09:42:27Z</time>
      </trkpt>
      <trkpt lat="45.57283" lon="6.07201">
        <ele>1462</ele>
        <time>2013-01-12T09:42:31Z</time>
      </trkpt>
      <trkpt lat="45.57282" lon="6.072">
        <ele>1463</ele>
        <time>2013-01-12T09:42:33Z</time>
      </trkpt>
      <trkpt lat="45.57281" lon="6.07198">
        <ele>1463</ele>
        <time>2013-01-12T09:42:36Z</time>
      </trkpt>
      <trkpt lat="45.57279" lon="6.07199">
        <ele>1463</ele>
        <time>2013-01-12T09:42:38Z</time>
      </trkpt>
      <trkpt lat="45.57278" lon="6.07199">
        <ele>1463</ele>
        <time>2013-01-12T09:42:40Z</time>
      </trkpt>
      <trkpt lat="45.57277" lon="6.072">
        <ele>1463</ele>
        <time>2013-01-12T09:42:42Z</time>
      </trkpt>
      <trkpt lat="45.57275" lon="6.07196">
        <ele>1464</ele>
        <time>2013-01-12T09:42:45Z</time>
      </trkpt>
      <trkpt lat="45.57273" lon="6.07195">
        <ele>1464</ele>
        <time>2013-01-12T09:42:48Z</time>
      </trkpt>
      <trkpt lat="45.57273" lon="6.07191">
        <ele>1464</ele>
        <time>2013-01-12T09:42:52Z</time>
      </trkpt>
      <trkpt lat="45.57273" lon="6.07189">
        <ele>1464</ele>
        <time>2013-01-12T09:42:54Z</time>
      </trkpt>
      <trkpt lat="45.57272" lon="6.07186">
        <ele>1464</ele>
        <time>2013-01-12T09:42:57Z</time>
      </trkpt>
      <trkpt lat="45.57272" lon="6.07185">
        <ele>1465</ele>
        <time>2013-01-12T09:42:59Z</time>
      </trkpt>
      <trkpt lat="45.5727" lon="6.07185">
        <ele>1467</ele>
        <time>2013-01-12T09:43:02Z</time>
      </trkpt>
      <trkpt lat="45.57269" lon="6.07185">
        <ele>1468</ele>
        <time>2013-01-12T09:43:07Z</time>
      </trkpt>
      <trkpt lat="45.57268" lon="6.07184">
        <ele>1469</ele>
        <time>2013-01-12T09:43:09Z</time>
      </trkpt>
      <trkpt lat="45.57266" lon="6.07183">
        <ele>1469</ele>
        <time>2013-01-12T09:43:12Z</time>
      </trkpt>
      <trkpt lat="45.57264" lon="6.07182">
        <ele>1469</ele>
        <time>2013-01-12T09:43:16Z</time>
      </trkpt>
      <trkpt lat="45.57262" lon="6.07181">
        <ele>1469</ele>
        <time>2013-01-12T09:43:19Z</time>
      </trkpt>
      <trkpt lat="45.57261" lon="6.07181">
        <ele>1469</ele>
        <time>2013-01-12T09:43:22Z</time>
      </trkpt>
      <trkpt lat="45.57259" lon="6.07182">
        <ele>1469</ele>
        <time>2013-01-12T09:43:25Z</time>
      </trkpt>
      <trkpt lat="45.57258" lon="6.07183">
        <ele>1470</ele>
        <time>2013-01-12T09:43:27Z</time>
      </trkpt>
      <trkpt lat="45.57244" lon="6.07182">
        <ele>1470</ele>
        <time>2013-01-12T09:43:35Z</time>
      </trkpt>
      <trkpt lat="45.57241" lon="6.07181">
        <ele>1470</ele>
        <time>2013-01-12T09:43:39Z</time>
      </trkpt>
      <trkpt lat="45.57239" lon="6.07181">
        <ele>1471</ele>
        <time>2013-01-12T09:43:41Z</time>
      </trkpt>
      <trkpt lat="45.57236" lon="6.0718">
        <ele>1471</ele>
        <time>2013-01-12T09:43:45Z</time>
      </trkpt>
      <trkpt lat="45.57233" lon="6.07179">
        <ele>1473</ele>
        <time>2013-01-12T09:43:53Z</time>
      </trkpt>
      <trkpt lat="45.57231" lon="6.07179">
        <ele>1474</ele>
        <time>2013-01-12T09:43:56Z</time>
      </trkpt>
      <trkpt lat="45.5723" lon="6.07179">
        <ele>1474</ele>
        <time>2013-01-12T09:43:58Z</time>
      </trkpt>
      <trkpt lat="45.57229" lon="6.07179">
        <ele>1476</ele>
        <time>2013-01-12T09:44:01Z</time>
      </trkpt>
      <trkpt lat="45.57227" lon="6.07179">
        <ele>1477</ele>
        <time>2013-01-12T09:44:03Z</time>
      </trkpt>
      <trkpt lat="45.57225" lon="6.0718">
        <ele>1478</ele>
        <time>2013-01-12T09:44:06Z</time>
      </trkpt>
      <trkpt lat="45.57222" lon="6.07178">
        <ele>1479</ele>
        <time>2013-01-12T09:44:10Z</time>
      </trkpt>
      <trkpt lat="45.5722" lon="6.07178">
        <ele>1479</ele>
        <time>2013-01-12T09:44:12Z</time>
      </trkpt>
      <trkpt lat="45.57219" lon="6.07177">
        <ele>1479</ele>
        <time>2013-01-12T09:44:14Z</time>
      </trkpt>
      <trkpt lat="45.57217" lon="6.07175">
        <ele>1479</ele>
        <time>2013-01-12T09:44:18Z</time>
      </trkpt>
      <trkpt lat="45.57215" lon="6.07174">
        <ele>1479</ele>
        <time>2013-01-12T09:44:20Z</time>
      </trkpt>
      <trkpt lat="45.57214" lon="6.07173">
        <ele>1479</ele>
        <time>2013-01-12T09:44:23Z</time>
      </trkpt>
      <trkpt lat="45.57212" lon="6.07172">
        <ele>1480</ele>
        <time>2013-01-12T09:44:25Z</time>
      </trkpt>
      <trkpt lat="45.57211" lon="6.07172">
        <ele>1481</ele>
        <time>2013-01-12T09:44:29Z</time>
      </trkpt>
      <trkpt lat="45.57209" lon="6.0717">
        <ele>1482</ele>
        <time>2013-01-12T09:44:32Z</time>
      </trkpt>
      <trkpt lat="45.57208" lon="6.07168">
        <ele>1483</ele>
        <time>2013-01-12T09:44:35Z</time>
      </trkpt>
      <trkpt lat="45.57206" lon="6.07168">
        <ele>1483</ele>
        <time>2013-01-12T09:44:38Z</time>
      </trkpt>
      <trkpt lat="45.57199" lon="6.07161">
        <ele>1489</ele>
        <time>2013-01-12T09:44:42Z</time>
      </trkpt>
      <trkpt lat="45.57198" lon="6.0716">
        <ele>1489</ele>
        <time>2013-01-12T09:44:44Z</time>
      </trkpt>
      <trkpt lat="45.57196" lon="6.07159">
        <ele>1489</ele>
        <time>2013-01-12T09:44:46Z</time>
      </trkpt>
      <trkpt lat="45.57195" lon="6.07157">
        <ele>1489</ele>
        <time>2013-01-12T09:44:48Z</time>
      </trkpt>
      <trkpt lat="45.57193" lon="6.07156">
        <ele>1489</ele>
        <time>2013-01-12T09:44:51Z</time>
      </trkpt>
      <trkpt lat="45.57192" lon="6.07155">
        <ele>1489</ele>
        <time>2013-01-12T09:44:53Z</time>
      </trkpt>
      <trkpt lat="45.57191" lon="6.07152">
        <ele>1489</ele>
        <time>2013-01-12T09:44:56Z</time>
      </trkpt>
      <trkpt lat="45.5719" lon="6.0715">
        <ele>1489</ele>
        <time>2013-01-12T09:44:59Z</time>
      </trkpt>
      <trkpt lat="45.57189" lon="6.07149">
        <ele>1489</ele>
        <time>2013-01-12T09:45:01Z</time>
      </trkpt>
      <trkpt lat="45.57186" lon="6.07146">
        <ele>1489</ele>
        <time>2013-01-12T09:45:06Z</time>
      </trkpt>
      <trkpt lat="45.57185" lon="6.07145">
        <ele>1489</ele>
        <time>2013-01-12T09:45:08Z</time>
      </trkpt>
      <trkpt lat="45.57182" lon="6.07144">
        <ele>1489</ele>
        <time>2013-01-12T09:45:13Z</time>
      </trkpt>
      <trkpt lat="45.57181" lon="6.07143">
        <ele>1489</ele>
        <time>2013-01-12T09:45:16Z</time>
      </trkpt>
      <trkpt lat="45.57179" lon="6.07142">
        <ele>1489</ele>
        <time>2013-01-12T09:45:19Z</time>
      </trkpt>
      <trkpt lat="45.57178" lon="6.07141">
        <ele>1489</ele>
        <time>2013-01-12T09:45:22Z</time>
      </trkpt>
      <trkpt lat="45.57176" lon="6.0714">
        <ele>1489</ele>
        <time>2013-01-12T09:45:25Z</time>
      </trkpt>
      <trkpt lat="45.57175" lon="6.07139">
        <ele>1489</ele>
        <time>2013-01-12T09:45:27Z</time>
      </trkpt>
      <trkpt lat="45.57173" lon="6.07139">
        <ele>1489</ele>
        <time>2013-01-12T09:45:30Z</time>
      </trkpt>
      <trkpt lat="45.57172" lon="6.07139">
        <ele>1490</ele>
        <time>2013-01-12T09:45:34Z</time>
      </trkpt>
      <trkpt lat="45.57171" lon="6.07141">
        <ele>1490</ele>
        <time>2013-01-12T09:45:38Z</time>
      </trkpt>
      <trkpt lat="45.57169" lon="6.07142">
        <ele>1491</ele>
        <time>2013-01-12T09:45:42Z</time>
      </trkpt>
      <trkpt lat="45.57168" lon="6.07143">
        <ele>1491</ele>
        <time>2013-01-12T09:45:44Z</time>
      </trkpt>
      <trkpt lat="45.57167" lon="6.07142">
        <ele>1491</ele>
        <time>2013-01-12T09:45:47Z</time>
      </trkpt>
      <trkpt lat="45.57166" lon="6.0714">
        <ele>1492</ele>
        <time>2013-01-12T09:45:50Z</time>
      </trkpt>
      <trkpt lat="45.57166" lon="6.07138">
        <ele>1492</ele>
        <time>2013-01-12T09:45:52Z</time>
      </trkpt>
      <trkpt lat="45.57157" lon="6.07123">
        <ele>1496</ele>
        <time>2013-01-12T09:45:59Z</time>
      </trkpt>
      <trkpt lat="45.57157" lon="6.07121">
        <ele>1497</ele>
        <time>2013-01-12T09:46:01Z</time>
      </trkpt>
      <trkpt lat="45.57156" lon="6.0712">
        <ele>1497</ele>
        <time>2013-01-12T09:46:03Z</time>
      </trkpt>
      <trkpt lat="45.57155" lon="6.07118">
        <ele>1498</ele>
        <time>2013-01-12T09:46:06Z</time>
      </trkpt>
      <trkpt lat="45.57154" lon="6.07116">
        <ele>1498</ele>
        <time>2013-01-12T09:46:08Z</time>
      </trkpt>
      <trkpt lat="45.57154" lon="6.07114">
        <ele>1499</ele>
        <time>2013-01-12T09:46:11Z</time>
      </trkpt>
      <trkpt lat="45.57154" lon="6.07113">
        <ele>1499</ele>
        <time>2013-01-12T09:46:13Z</time>
      </trkpt>
      <trkpt lat="45.57152" lon="6.07109">
        <ele>1500</ele>
        <time>2013-01-12T09:46:18Z</time>
      </trkpt>
      <trkpt lat="45.57151" lon="6.07107">
        <ele>1500</ele>
        <time>2013-01-12T09:46:20Z</time>
      </trkpt>
      <trkpt lat="45.5715" lon="6.07105">
        <ele>1501</ele>
        <time>2013-01-12T09:46:23Z</time>
      </trkpt>
      <trkpt lat="45.5715" lon="6.07104">
        <ele>1502</ele>
        <time>2013-01-12T09:46:25Z</time>
      </trkpt>
      <trkpt lat="45.57148" lon="6.071">
        <ele>1503</ele>
        <time>2013-01-12T09:46:30Z</time>
      </trkpt>
      <trkpt lat="45.57148" lon="6.07098">
        <ele>1504</ele>
        <time>2013-01-12T09:46:33Z</time>
      </trkpt>
      <trkpt lat="45.57148" lon="6.07095">
        <ele>1505</ele>
        <time>2013-01-12T09:46:37Z</time>
      </trkpt>
      <trkpt lat="45.57148" lon="6.07092">
        <ele>1506</ele>
        <time>2013-01-12T09:46:40Z</time>
      </trkpt>
      <trkpt lat="45.57148" lon="6.07089">
        <ele>1506</ele>
        <time>2013-01-12T09:46:43Z</time>
      </trkpt>
      <trkpt lat="45.57149" lon="6.07086">
        <ele>1506</ele>
        <time>2013-01-12T09:46:45Z</time>
      </trkpt>
      <trkpt lat="45.57151" lon="6.07083">
        <ele>1506</ele>
        <time>2013-01-12T09:46:48Z</time>
      </trkpt>
      <trkpt lat="45.57151" lon="6.07081">
        <ele>1507</ele>
        <time>2013-01-12T09:46:54Z</time>
      </trkpt>
      <trkpt lat="45.5715" lon="6.07081">
        <ele>1507</ele>
        <time>2013-01-12T09:46:56Z</time>
      </trkpt>
      <trkpt lat="45.57148" lon="6.0708">
        <ele>1507</ele>
        <time>2013-01-12T09:46:59Z</time>
      </trkpt>
      <trkpt lat="45.57147" lon="6.07079">
        <ele>1507</ele>
        <time>2013-01-12T09:47:02Z</time>
      </trkpt>
      <trkpt lat="45.57145" lon="6.07078">
        <ele>1507</ele>
        <time>2013-01-12T09:47:04Z</time>
      </trkpt>
      <trkpt lat="45.57144" lon="6.07077">
        <ele>1507</ele>
        <time>2013-01-12T09:47:07Z</time>
      </trkpt>
      <trkpt lat="45.57143" lon="6.07076">
        <ele>1507</ele>
        <time>2013-01-12T09:47:10Z</time>
      </trkpt>
      <trkpt lat="45.57142" lon="6.07074">
        <ele>1507</ele>
        <time>2013-01-12T09:47:13Z</time>
      </trkpt>
      <trkpt lat="45.57141" lon="6.07072">
        <ele>1507</ele>
        <time>2013-01-12T09:47:16Z</time>
      </trkpt>
      <trkpt lat="45.5714" lon="6.07071">
        <ele>1507</ele>
        <time>2013-01-12T09:47:20Z</time>
      </trkpt>
      <trkpt lat="45.57138" lon="6.07069">
        <ele>1507</ele>
        <time>2013-01-12T09:47:23Z</time>
      </trkpt>
      <trkpt lat="45.57137" lon="6.07067">
        <ele>1507</ele>
        <time>2013-01-12T09:47:26Z</time>
      </trkpt>
      <trkpt lat="45.57139" lon="6.07064">
        <ele>1507</ele>
        <time>2013-01-12T09:47:29Z</time>
      </trkpt>
      <trkpt lat="45.5714" lon="6.07062">
        <ele>1508</ele>
        <time>2013-01-12T09:47:31Z</time>
      </trkpt>
      <trkpt lat="45.57136" lon="6.07063">
        <ele>1513</ele>
        <time>2013-01-12T09:47:37Z</time>
      </trkpt>
      <trkpt lat="45.57135" lon="6.07061">
        <ele>1514</ele>
        <time>2013-01-12T09:47:39Z</time>
      </trkpt>
      <trkpt lat="45.57133" lon="6.07059">
        <ele>1514</ele>
        <time>2013-01-12T09:47:41Z</time>
      </trkpt>
      <trkpt lat="45.5713" lon="6.07047">
        <ele>1516</ele>
        <time>2013-01-12T09:47:46Z</time>
      </trkpt>
      <trkpt lat="45.5713" lon="6.07045">
        <ele>1518</ele>
        <time>2013-01-12T09:47:49Z</time>
      </trkpt>
      <trkpt lat="45.57129" lon="6.07043">
        <ele>1519</ele>
        <time>2013-01-12T09:47:52Z</time>
      </trkpt>
      <trkpt lat="45.57128" lon="6.07042">
        <ele>1520</ele>
        <time>2013-01-12T09:47:57Z</time>
      </trkpt>
      <trkpt lat="45.57127" lon="6.07041">
        <ele>1520</ele>
        <time>2013-01-12T09:48:01Z</time>
      </trkpt>
      <trkpt lat="45.57125" lon="6.0704">
        <ele>1520</ele>
        <time>2013-01-12T09:48:03Z</time>
      </trkpt>
      <trkpt lat="45.57124" lon="6.07039">
        <ele>1521</ele>
        <time>2013-01-12T09:48:05Z</time>
      </trkpt>
      <trkpt lat="45.57123" lon="6.07038">
        <ele>1521</ele>
        <time>2013-01-12T09:48:08Z</time>
      </trkpt>
      <trkpt lat="45.5712" lon="6.07037">
        <ele>1521</ele>
        <time>2013-01-12T09:48:13Z</time>
      </trkpt>
      <trkpt lat="45.57115" lon="6.07055">
        <ele>1522</ele>
        <time>2013-01-12T09:48:18Z</time>
      </trkpt>
      <trkpt lat="45.57114" lon="6.07055">
        <ele>1522</ele>
        <time>2013-01-12T09:48:22Z</time>
      </trkpt>
      <trkpt lat="45.57105" lon="6.07057">
        <ele>1525</ele>
        <time>2013-01-12T09:48:33Z</time>
      </trkpt>
      <trkpt lat="45.57105" lon="6.07059">
        <ele>1526</ele>
        <time>2013-01-12T09:48:35Z</time>
      </trkpt>
      <trkpt lat="45.57105" lon="6.0706">
        <ele>1526</ele>
        <time>2013-01-12T09:48:38Z</time>
      </trkpt>
      <trkpt lat="45.57105" lon="6.07062">
        <ele>1527</ele>
        <time>2013-01-12T09:48:41Z</time>
      </trkpt>
      <trkpt lat="45.57104" lon="6.07064">
        <ele>1527</ele>
        <time>2013-01-12T09:48:44Z</time>
      </trkpt>
      <trkpt lat="45.57104" lon="6.07066">
        <ele>1528</ele>
        <time>2013-01-12T09:48:46Z</time>
      </trkpt>
      <trkpt lat="45.57104" lon="6.07068">
        <ele>1529</ele>
        <time>2013-01-12T09:48:49Z</time>
      </trkpt>
      <trkpt lat="45.57103" lon="6.0707">
        <ele>1529</ele>
        <time>2013-01-12T09:48:52Z</time>
      </trkpt>
      <trkpt lat="45.57103" lon="6.07072">
        <ele>1529</ele>
        <time>2013-01-12T09:48:55Z</time>
      </trkpt>
      <trkpt lat="45.57103" lon="6.07074">
        <ele>1530</ele>
        <time>2013-01-12T09:48:58Z</time>
      </trkpt>
      <trkpt lat="45.57103" lon="6.07076">
        <ele>1530</ele>
        <time>2013-01-12T09:49:00Z</time>
      </trkpt>
      <trkpt lat="45.57103" lon="6.07077">
        <ele>1530</ele>
        <time>2013-01-12T09:49:03Z</time>
      </trkpt>
      <trkpt lat="45.57101" lon="6.07077">
        <ele>1531</ele>
        <time>2013-01-12T09:49:07Z</time>
      </trkpt>
      <trkpt lat="45.57093" lon="6.07077">
        <ele>1533</ele>
        <time>2013-01-12T09:49:11Z</time>
      </trkpt>
      <trkpt lat="45.57092" lon="6.07077">
        <ele>1533</ele>
        <time>2013-01-12T09:49:13Z</time>
      </trkpt>
      <trkpt lat="45.5709" lon="6.07077">
        <ele>1533</ele>
        <time>2013-01-12T09:49:15Z</time>
      </trkpt>
      <trkpt lat="45.57088" lon="6.07077">
        <ele>1533</ele>
        <time>2013-01-12T09:49:17Z</time>
      </trkpt>
      <trkpt lat="45.57087" lon="6.07076">
        <ele>1533</ele>
        <time>2013-01-12T09:49:20Z</time>
      </trkpt>
      <trkpt lat="45.57085" lon="6.07075">
        <ele>1533</ele>
        <time>2013-01-12T09:49:22Z</time>
      </trkpt>
      <trkpt lat="45.57084" lon="6.07075">
        <ele>1534</ele>
        <time>2013-01-12T09:49:24Z</time>
      </trkpt>
      <trkpt lat="45.57083" lon="6.07074">
        <ele>1534</ele>
        <time>2013-01-12T09:49:26Z</time>
      </trkpt>
      <trkpt lat="45.57082" lon="6.07074">
        <ele>1534</ele>
        <time>2013-01-12T09:49:28Z</time>
      </trkpt>
      <trkpt lat="45.5708" lon="6.07073">
        <ele>1534</ele>
        <time>2013-01-12T09:49:31Z</time>
      </trkpt>
      <trkpt lat="45.57079" lon="6.07072">
        <ele>1534</ele>
        <time>2013-01-12T09:49:34Z</time>
      </trkpt>
      <trkpt lat="45.57078" lon="6.07072">
        <ele>1534</ele>
        <time>2013-01-12T09:49:36Z</time>
      </trkpt>
      <trkpt lat="45.57077" lon="6.07072">
        <ele>1534</ele>
        <time>2013-01-12T09:49:38Z</time>
      </trkpt>
      <trkpt lat="45.57075" lon="6.07071">
        <ele>1534</ele>
        <time>2013-01-12T09:49:40Z</time>
      </trkpt>
      <trkpt lat="45.57073" lon="6.07071">
        <ele>1535</ele>
        <time>2013-01-12T09:49:43Z</time>
      </trkpt>
      <trkpt lat="45.57072" lon="6.0707">
        <ele>1535</ele>
        <time>2013-01-12T09:49:46Z</time>
      </trkpt>
      <trkpt lat="45.5707" lon="6.07069">
        <ele>1536</ele>
        <time>2013-01-12T09:49:49Z</time>
      </trkpt>
      <trkpt lat="45.57069" lon="6.07068">
        <ele>1537</ele>
        <time>2013-01-12T09:49:52Z</time>
      </trkpt>
      <trkpt lat="45.57068" lon="6.07067">
        <ele>1538</ele>
        <time>2013-01-12T09:49:56Z</time>
      </trkpt>
      <trkpt lat="45.57066" lon="6.07067">
        <ele>1539</ele>
        <time>2013-01-12T09:50:00Z</time>
      </trkpt>
      <trkpt lat="45.57064" lon="6.07065">
        <ele>1541</ele>
        <time>2013-01-12T09:50:06Z</time>
      </trkpt>
      <trkpt lat="45.57062" lon="6.07063">
        <ele>1542</ele>
        <time>2013-01-12T09:50:10Z</time>
      </trkpt>
      <trkpt lat="45.57061" lon="6.07063">
        <ele>1542</ele>
        <time>2013-01-12T09:50:13Z</time>
      </trkpt>
      <trkpt lat="45.57059" lon="6.07062">
        <ele>1543</ele>
        <time>2013-01-12T09:50:16Z</time>
      </trkpt>
      <trkpt lat="45.57058" lon="6.07061">
        <ele>1544</ele>
        <time>2013-01-12T09:50:20Z</time>
      </trkpt>
      <trkpt lat="45.57056" lon="6.0706">
        <ele>1544</ele>
        <time>2013-01-12T09:50:24Z</time>
      </trkpt>
      <trkpt lat="45.57055" lon="6.0706">
        <ele>1545</ele>
        <time>2013-01-12T09:50:27Z</time>
      </trkpt>
      <trkpt lat="45.57054" lon="6.07058">
        <ele>1546</ele>
        <time>2013-01-12T09:50:32Z</time>
      </trkpt>
      <trkpt lat="45.57052" lon="6.07057">
        <ele>1546</ele>
        <time>2013-01-12T09:50:35Z</time>
      </trkpt>
      <trkpt lat="45.57051" lon="6.07057">
        <ele>1547</ele>
        <time>2013-01-12T09:50:38Z</time>
      </trkpt>
      <trkpt lat="45.5705" lon="6.07057">
        <ele>1547</ele>
        <time>2013-01-12T09:50:41Z</time>
      </trkpt>
      <trkpt lat="45.57048" lon="6.07055">
        <ele>1548</ele>
        <time>2013-01-12T09:50:46Z</time>
      </trkpt>
      <trkpt lat="45.57045" lon="6.07052">
        <ele>1550</ele>
        <time>2013-01-12T09:50:53Z</time>
      </trkpt>
      <trkpt lat="45.57045" lon="6.0705">
        <ele>1550</ele>
        <time>2013-01-12T09:50:56Z</time>
      </trkpt>
      <trkpt lat="45.57043" lon="6.0705">
        <ele>1550</ele>
        <time>2013-01-12T09:51:01Z</time>
      </trkpt>
      <trkpt lat="45.57042" lon="6.0705">
        <ele>1551</ele>
        <time>2013-01-12T09:51:04Z</time>
      </trkpt>
      <trkpt lat="45.57033" lon="6.07047">
        <ele>1556</ele>
        <time>2013-01-12T09:51:08Z</time>
      </trkpt>
      <trkpt lat="45.5702" lon="6.07034">
        <ele>1563</ele>
        <time>2013-01-12T09:51:16Z</time>
      </trkpt>
      <trkpt lat="45.56983" lon="6.07002">
        <ele>1578</ele>
        <time>2013-01-12T09:51:30Z</time>
      </trkpt>
      <trkpt lat="45.56981" lon="6.07">
        <ele>1579</ele>
        <time>2013-01-12T09:51:33Z</time>
      </trkpt>
      <trkpt lat="45.5698" lon="6.06999">
        <ele>1579</ele>
        <time>2013-01-12T09:51:36Z</time>
      </trkpt>
      <trkpt lat="45.56979" lon="6.06997">
        <ele>1580</ele>
        <time>2013-01-12T09:51:39Z</time>
      </trkpt>
      <trkpt lat="45.56978" lon="6.06995">
        <ele>1580</ele>
        <time>2013-01-12T09:51:42Z</time>
      </trkpt>
      <trkpt lat="45.56977" lon="6.06993">
        <ele>1581</ele>
        <time>2013-01-12T09:51:46Z</time>
      </trkpt>
      <trkpt lat="45.56968" lon="6.06983">
        <ele>1586</ele>
        <time>2013-01-12T09:51:50Z</time>
      </trkpt>
      <trkpt lat="45.56971" lon="6.06995">
        <ele>1587</ele>
        <time>2013-01-12T09:51:53Z</time>
      </trkpt>
      <trkpt lat="45.56971" lon="6.06997">
        <ele>1587</ele>
        <time>2013-01-12T09:51:55Z</time>
      </trkpt>
      <trkpt lat="45.56971" lon="6.06998">
        <ele>1587</ele>
        <time>2013-01-12T09:51:57Z</time>
      </trkpt>
      <trkpt lat="45.56971" lon="6.07">
        <ele>1587</ele>
        <time>2013-01-12T09:51:59Z</time>
      </trkpt>
      <trkpt lat="45.5697" lon="6.07003">
        <ele>1588</ele>
        <time>2013-01-12T09:52:04Z</time>
      </trkpt>
      <trkpt lat="45.56966" lon="6.07002">
        <ele>1591</ele>
        <time>2013-01-12T09:52:10Z</time>
      </trkpt>
      <trkpt lat="45.56965" lon="6.07001">
        <ele>1592</ele>
        <time>2013-01-12T09:52:12Z</time>
      </trkpt>
      <trkpt lat="45.56963" lon="6.07">
        <ele>1592</ele>
        <time>2013-01-12T09:52:15Z</time>
      </trkpt>
      <trkpt lat="45.56962" lon="6.07">
        <ele>1593</ele>
        <time>2013-01-12T09:52:18Z</time>
      </trkpt>
      <trkpt lat="45.56961" lon="6.07">
        <ele>1593</ele>
        <time>2013-01-12T09:52:20Z</time>
      </trkpt>
      <trkpt lat="45.5696" lon="6.06999">
        <ele>1594</ele>
        <time>2013-01-12T09:52:22Z</time>
      </trkpt>
      <trkpt lat="45.56958" lon="6.06999">
        <ele>1595</ele>
        <time>2013-01-12T09:52:24Z</time>
      </trkpt>
      <trkpt lat="45.56957" lon="6.06999">
        <ele>1595</ele>
        <time>2013-01-12T09:52:27Z</time>
      </trkpt>
      <trkpt lat="45.56955" lon="6.06998">
        <ele>1596</ele>
        <time>2013-01-12T09:52:30Z</time>
      </trkpt>
      <trkpt lat="45.56954" lon="6.06997">
        <ele>1596</ele>
        <time>2013-01-12T09:52:32Z</time>
      </trkpt>
      <trkpt lat="45.56953" lon="6.06996">
        <ele>1597</ele>
        <time>2013-01-12T09:52:35Z</time>
      </trkpt>
      <trkpt lat="45.56951" lon="6.06995">
        <ele>1598</ele>
        <time>2013-01-12T09:52:38Z</time>
      </trkpt>
      <trkpt lat="45.5695" lon="6.06994">
        <ele>1598</ele>
        <time>2013-01-12T09:52:40Z</time>
      </trkpt>
      <trkpt lat="45.56941" lon="6.06989">
        <ele>1600</ele>
        <time>2013-01-12T09:52:46Z</time>
      </trkpt>
      <trkpt lat="45.5694" lon="6.06988">
        <ele>1600</ele>
        <time>2013-01-12T09:52:49Z</time>
      </trkpt>
      <trkpt lat="45.56938" lon="6.06987">
        <ele>1601</ele>
        <time>2013-01-12T09:52:51Z</time>
      </trkpt>
      <trkpt lat="45.56936" lon="6.06986">
        <ele>1601</ele>
        <time>2013-01-12T09:52:54Z</time>
      </trkpt>
      <trkpt lat="45.56935" lon="6.06985">
        <ele>1602</ele>
        <time>2013-01-12T09:52:56Z</time>
      </trkpt>
      <trkpt lat="45.56934" lon="6.06985">
        <ele>1602</ele>
        <time>2013-01-12T09:52:59Z</time>
      </trkpt>
      <trkpt lat="45.56932" lon="6.06984">
        <ele>1603</ele>
        <time>2013-01-12T09:53:01Z</time>
      </trkpt>
      <trkpt lat="45.5693" lon="6.06983">
        <ele>1603</ele>
        <time>2013-01-12T09:53:04Z</time>
      </trkpt>
      <trkpt lat="45.56929" lon="6.06983">
        <ele>1603</ele>
        <time>2013-01-12T09:53:07Z</time>
      </trkpt>
      <trkpt lat="45.56928" lon="6.06982">
        <ele>1604</ele>
        <time>2013-01-12T09:53:09Z</time>
      </trkpt>
      <trkpt lat="45.56926" lon="6.06982">
        <ele>1604</ele>
        <time>2013-01-12T09:53:11Z</time>
      </trkpt>
      <trkpt lat="45.56925" lon="6.06981">
        <ele>1605</ele>
        <time>2013-01-12T09:53:14Z</time>
      </trkpt>
      <trkpt lat="45.56923" lon="6.06982">
        <ele>1605</ele>
        <time>2013-01-12T09:53:19Z</time>
      </trkpt>
      <trkpt lat="45.56921" lon="6.06982">
        <ele>1606</ele>
        <time>2013-01-12T09:53:21Z</time>
      </trkpt>
      <trkpt lat="45.56919" lon="6.06981">
        <ele>1607</ele>
        <time>2013-01-12T09:53:26Z</time>
      </trkpt>
      <trkpt lat="45.56918" lon="6.06981">
        <ele>1607</ele>
        <time>2013-01-12T09:53:28Z</time>
      </trkpt>
      <trkpt lat="45.56916" lon="6.06981">
        <ele>1607</ele>
        <time>2013-01-12T09:53:31Z</time>
      </trkpt>
      <trkpt lat="45.56915" lon="6.06981">
        <ele>1607</ele>
        <time>2013-01-12T09:53:33Z</time>
      </trkpt>
      <trkpt lat="45.56912" lon="6.06981">
        <ele>1608</ele>
        <time>2013-01-12T09:53:37Z</time>
      </trkpt>
      <trkpt lat="45.5691" lon="6.06981">
        <ele>1609</ele>
        <time>2013-01-12T09:53:41Z</time>
      </trkpt>
      <trkpt lat="45.56907" lon="6.0698">
        <ele>1609</ele>
        <time>2013-01-12T09:53:44Z</time>
      </trkpt>
      <trkpt lat="45.56906" lon="6.0698">
        <ele>1610</ele>
        <time>2013-01-12T09:53:47Z</time>
      </trkpt>
      <trkpt lat="45.56904" lon="6.0698">
        <ele>1611</ele>
        <time>2013-01-12T09:53:50Z</time>
      </trkpt>
      <trkpt lat="45.56902" lon="6.06979">
        <ele>1611</ele>
        <time>2013-01-12T09:53:52Z</time>
      </trkpt>
      <trkpt lat="45.56901" lon="6.06978">
        <ele>1611</ele>
        <time>2013-01-12T09:53:54Z</time>
      </trkpt>
      <trkpt lat="45.569" lon="6.06977">
        <ele>1611</ele>
        <time>2013-01-12T09:53:57Z</time>
      </trkpt>
      <trkpt lat="45.56899" lon="6.06977">
        <ele>1612</ele>
        <time>2013-01-12T09:53:59Z</time>
      </trkpt>
      <trkpt lat="45.56897" lon="6.06977">
        <ele>1612</ele>
        <time>2013-01-12T09:54:01Z</time>
      </trkpt>
      <trkpt lat="45.56896" lon="6.06977">
        <ele>1612</ele>
        <time>2013-01-12T09:54:03Z</time>
      </trkpt>
      <trkpt lat="45.56895" lon="6.06977">
        <ele>1613</ele>
        <time>2013-01-12T09:54:05Z</time>
      </trkpt>
      <trkpt lat="45.56894" lon="6.06978">
        <ele>1613</ele>
        <time>2013-01-12T09:54:07Z</time>
      </trkpt>
      <trkpt lat="45.56893" lon="6.06978">
        <ele>1614</ele>
        <time>2013-01-12T09:54:09Z</time>
      </trkpt>
      <trkpt lat="45.56891" lon="6.06979">
        <ele>1614</ele>
        <time>2013-01-12T09:54:11Z</time>
      </trkpt>
      <trkpt lat="45.56889" lon="6.0698">
        <ele>1614</ele>
        <time>2013-01-12T09:54:14Z</time>
      </trkpt>
      <trkpt lat="45.56888" lon="6.0698">
        <ele>1614</ele>
        <time>2013-01-12T09:54:16Z</time>
      </trkpt>
      <trkpt lat="45.56887" lon="6.06981">
        <ele>1615</ele>
        <time>2013-01-12T09:54:18Z</time>
      </trkpt>
      <trkpt lat="45.56885" lon="6.06982">
        <ele>1615</ele>
        <time>2013-01-12T09:54:21Z</time>
      </trkpt>
      <trkpt lat="45.56884" lon="6.06983">
        <ele>1615</ele>
        <time>2013-01-12T09:54:23Z</time>
      </trkpt>
      <trkpt lat="45.56882" lon="6.06984">
        <ele>1615</ele>
        <time>2013-01-12T09:54:25Z</time>
      </trkpt>
      <trkpt lat="45.56881" lon="6.06986">
        <ele>1616</ele>
        <time>2013-01-12T09:54:27Z</time>
      </trkpt>
      <trkpt lat="45.56879" lon="6.06987">
        <ele>1616</ele>
        <time>2013-01-12T09:54:30Z</time>
      </trkpt>
      <trkpt lat="45.56873" lon="6.06995">
        <ele>1617</ele>
        <time>2013-01-12T09:54:35Z</time>
      </trkpt>
      <trkpt lat="45.56871" lon="6.06997">
        <ele>1617</ele>
        <time>2013-01-12T09:54:37Z</time>
      </trkpt>
      <trkpt lat="45.5687" lon="6.06999">
        <ele>1617</ele>
        <time>2013-01-12T09:54:40Z</time>
      </trkpt>
      <trkpt lat="45.56866" lon="6.07003">
        <ele>1617</ele>
        <time>2013-01-12T09:54:44Z</time>
      </trkpt>
      <trkpt lat="45.56864" lon="6.07007">
        <ele>1617</ele>
        <time>2013-01-12T09:54:47Z</time>
      </trkpt>
      <trkpt lat="45.56862" lon="6.07011">
        <ele>1617</ele>
        <time>2013-01-12T09:54:50Z</time>
      </trkpt>
      <trkpt lat="45.5686" lon="6.07012">
        <ele>1617</ele>
        <time>2013-01-12T09:54:53Z</time>
      </trkpt>
      <trkpt lat="45.56852" lon="6.0702">
        <ele>1617</ele>
        <time>2013-01-12T09:54:59Z</time>
      </trkpt>
      <trkpt lat="45.56842" lon="6.07026">
        <ele>1617</ele>
        <time>2013-01-12T09:55:06Z</time>
      </trkpt>
      <trkpt lat="45.56841" lon="6.07028">
        <ele>1617</ele>
        <time>2013-01-12T09:55:08Z</time>
      </trkpt>
      <trkpt lat="45.56838" lon="6.07029">
        <ele>1617</ele>
        <time>2013-01-12T09:55:12Z</time>
      </trkpt>
      <trkpt lat="45.56836" lon="6.0703">
        <ele>1617</ele>
        <time>2013-01-12T09:55:15Z</time>
      </trkpt>
      <trkpt lat="45.56835" lon="6.07031">
        <ele>1617</ele>
        <time>2013-01-12T09:55:17Z</time>
      </trkpt>
      <trkpt lat="45.56832" lon="6.07033">
        <ele>1617</ele>
        <time>2013-01-12T09:55:21Z</time>
      </trkpt>
      <trkpt lat="45.56831" lon="6.07034">
        <ele>1617</ele>
        <time>2013-01-12T09:55:23Z</time>
      </trkpt>
      <trkpt lat="45.56829" lon="6.07035">
        <ele>1617</ele>
        <time>2013-01-12T09:55:25Z</time>
      </trkpt>
      <trkpt lat="45.56826" lon="6.07039">
        <ele>1617</ele>
        <time>2013-01-12T09:55:29Z</time>
      </trkpt>
      <trkpt lat="45.56823" lon="6.07043">
        <ele>1617</ele>
        <time>2013-01-12T09:55:33Z</time>
      </trkpt>
      <trkpt lat="45.56821" lon="6.07044">
        <ele>1617</ele>
        <time>2013-01-12T09:55:35Z</time>
      </trkpt>
      <trkpt lat="45.56818" lon="6.07047">
        <ele>1617</ele>
        <time>2013-01-12T09:55:39Z</time>
      </trkpt>
      <trkpt lat="45.56816" lon="6.07048">
        <ele>1617</ele>
        <time>2013-01-12T09:55:41Z</time>
      </trkpt>
      <trkpt lat="45.56815" lon="6.0705">
        <ele>1617</ele>
        <time>2013-01-12T09:55:43Z</time>
      </trkpt>
      <trkpt lat="45.56811" lon="6.07052">
        <ele>1617</ele>
        <time>2013-01-12T09:55:47Z</time>
      </trkpt>
      <trkpt lat="45.56808" lon="6.07054">
        <ele>1617</ele>
        <time>2013-01-12T09:55:51Z</time>
      </trkpt>
      <trkpt lat="45.56807" lon="6.07055">
        <ele>1617</ele>
        <time>2013-01-12T09:55:53Z</time>
      </trkpt>
      <trkpt lat="45.56805" lon="6.07056">
        <ele>1617</ele>
        <time>2013-01-12T09:55:55Z</time>
      </trkpt>
      <trkpt lat="45.56803" lon="6.07057">
        <ele>1617</ele>
        <time>2013-01-12T09:55:57Z</time>
      </trkpt>
      <trkpt lat="45.568" lon="6.07058">
        <ele>1617</ele>
        <time>2013-01-12T09:56:00Z</time>
      </trkpt>
      <trkpt lat="45.56798" lon="6.07059">
        <ele>1617</ele>
        <time>2013-01-12T09:56:02Z</time>
      </trkpt>
      <trkpt lat="45.56795" lon="6.07061">
        <ele>1617</ele>
        <time>2013-01-12T09:56:06Z</time>
      </trkpt>
      <trkpt lat="45.56793" lon="6.07061">
        <ele>1617</ele>
        <time>2013-01-12T09:56:08Z</time>
      </trkpt>
      <trkpt lat="45.56792" lon="6.07062">
        <ele>1617</ele>
        <time>2013-01-12T09:56:10Z</time>
      </trkpt>
      <trkpt lat="45.56788" lon="6.07062">
        <ele>1617</ele>
        <time>2013-01-12T09:56:14Z</time>
      </trkpt>
      <trkpt lat="45.56786" lon="6.07062">
        <ele>1617</ele>
        <time>2013-01-12T09:56:16Z</time>
      </trkpt>
      <trkpt lat="45.56783" lon="6.07062">
        <ele>1617</ele>
        <time>2013-01-12T09:56:19Z</time>
      </trkpt>
      <trkpt lat="45.56781" lon="6.07062">
        <ele>1617</ele>
        <time>2013-01-12T09:56:21Z</time>
      </trkpt>
      <trkpt lat="45.56779" lon="6.07061">
        <ele>1617</ele>
        <time>2013-01-12T09:56:23Z</time>
      </trkpt>
      <trkpt lat="45.56778" lon="6.0706">
        <ele>1617</ele>
        <time>2013-01-12T09:56:25Z</time>
      </trkpt>
      <trkpt lat="45.56776" lon="6.0706">
        <ele>1617</ele>
        <time>2013-01-12T09:56:27Z</time>
      </trkpt>
      <trkpt lat="45.56774" lon="6.07059">
        <ele>1617</ele>
        <time>2013-01-12T09:56:29Z</time>
      </trkpt>
      <trkpt lat="45.56772" lon="6.07059">
        <ele>1617</ele>
        <time>2013-01-12T09:56:31Z</time>
      </trkpt>
      <trkpt lat="45.56763" lon="6.07056">
        <ele>1617</ele>
        <time>2013-01-12T09:56:37Z</time>
      </trkpt>
      <trkpt lat="45.56761" lon="6.07056">
        <ele>1617</ele>
        <time>2013-01-12T09:56:39Z</time>
      </trkpt>
      <trkpt lat="45.56758" lon="6.07056">
        <ele>1617</ele>
        <time>2013-01-12T09:56:43Z</time>
      </trkpt>
      <trkpt lat="45.56756" lon="6.07056">
        <ele>1617</ele>
        <time>2013-01-12T09:56:45Z</time>
      </trkpt>
      <trkpt lat="45.56752" lon="6.07056">
        <ele>1617</ele>
        <time>2013-01-12T09:56:49Z</time>
      </trkpt>
      <trkpt lat="45.5674" lon="6.07054">
        <ele>1619</ele>
        <time>2013-01-12T09:56:57Z</time>
      </trkpt>
      <trkpt lat="45.56737" lon="6.07053">
        <ele>1619</ele>
        <time>2013-01-12T09:57:01Z</time>
      </trkpt>
      <trkpt lat="45.56729" lon="6.07052">
        <ele>1619</ele>
        <time>2013-01-12T09:57:05Z</time>
      </trkpt>
      <trkpt lat="45.56727" lon="6.07052">
        <ele>1619</ele>
        <time>2013-01-12T09:57:07Z</time>
      </trkpt>
      <trkpt lat="45.56725" lon="6.07051">
        <ele>1619</ele>
        <time>2013-01-12T09:57:09Z</time>
      </trkpt>
      <trkpt lat="45.56723" lon="6.07051">
        <ele>1619</ele>
        <time>2013-01-12T09:57:11Z</time>
      </trkpt>
      <trkpt lat="45.56721" lon="6.0705">
        <ele>1619</ele>
        <time>2013-01-12T09:57:13Z</time>
      </trkpt>
      <trkpt lat="45.56717" lon="6.07049">
        <ele>1619</ele>
        <time>2013-01-12T09:57:16Z</time>
      </trkpt>
      <trkpt lat="45.56716" lon="6.07049">
        <ele>1619</ele>
        <time>2013-01-12T09:57:20Z</time>
      </trkpt>
      <trkpt lat="45.56713" lon="6.07047">
        <ele>1619</ele>
        <time>2013-01-12T09:57:23Z</time>
      </trkpt>
      <trkpt lat="45.5671" lon="6.07046">
        <ele>1619</ele>
        <time>2013-01-12T09:57:26Z</time>
      </trkpt>
      <trkpt lat="45.56708" lon="6.07046">
        <ele>1619</ele>
        <time>2013-01-12T09:57:28Z</time>
      </trkpt>
      <trkpt lat="45.56705" lon="6.07045">
        <ele>1619</ele>
        <time>2013-01-12T09:57:31Z</time>
      </trkpt>
      <trkpt lat="45.56701" lon="6.07043">
        <ele>1619</ele>
        <time>2013-01-12T09:57:35Z</time>
      </trkpt>
      <trkpt lat="45.567" lon="6.07042">
        <ele>1619</ele>
        <time>2013-01-12T09:57:37Z</time>
      </trkpt>
      <trkpt lat="45.56698" lon="6.07041">
        <ele>1620</ele>
        <time>2013-01-12T09:57:39Z</time>
      </trkpt>
      <trkpt lat="45.56695" lon="6.07039">
        <ele>1620</ele>
        <time>2013-01-12T09:57:43Z</time>
      </trkpt>
      <trkpt lat="45.56693" lon="6.07038">
        <ele>1620</ele>
        <time>2013-01-12T09:57:45Z</time>
      </trkpt>
      <trkpt lat="45.5669" lon="6.07036">
        <ele>1621</ele>
        <time>2013-01-12T09:57:49Z</time>
      </trkpt>
      <trkpt lat="45.56689" lon="6.07035">
        <ele>1621</ele>
        <time>2013-01-12T09:57:51Z</time>
      </trkpt>
      <trkpt lat="45.56687" lon="6.07034">
        <ele>1621</ele>
        <time>2013-01-12T09:57:53Z</time>
      </trkpt>
      <trkpt lat="45.56686" lon="6.07033">
        <ele>1622</ele>
        <time>2013-01-12T09:57:55Z</time>
      </trkpt>
      <trkpt lat="45.56684" lon="6.07031">
        <ele>1622</ele>
        <time>2013-01-12T09:57:57Z</time>
      </trkpt>
      <trkpt lat="45.56681" lon="6.07029">
        <ele>1622</ele>
        <time>2013-01-12T09:58:01Z</time>
      </trkpt>
      <trkpt lat="45.56679" lon="6.07027">
        <ele>1622</ele>
        <time>2013-01-12T09:58:03Z</time>
      </trkpt>
      <trkpt lat="45.56676" lon="6.07024">
        <ele>1623</ele>
        <time>2013-01-12T09:58:07Z</time>
      </trkpt>
      <trkpt lat="45.56675" lon="6.07022">
        <ele>1623</ele>
        <time>2013-01-12T09:58:09Z</time>
      </trkpt>
      <trkpt lat="45.56673" lon="6.0702">
        <ele>1624</ele>
        <time>2013-01-12T09:58:11Z</time>
      </trkpt>
      <trkpt lat="45.56671" lon="6.07016">
        <ele>1624</ele>
        <time>2013-01-12T09:58:15Z</time>
      </trkpt>
      <trkpt lat="45.56669" lon="6.07012">
        <ele>1624</ele>
        <time>2013-01-12T09:58:19Z</time>
      </trkpt>
      <trkpt lat="45.56668" lon="6.0701">
        <ele>1625</ele>
        <time>2013-01-12T09:58:21Z</time>
      </trkpt>
      <trkpt lat="45.56667" lon="6.07006">
        <ele>1625</ele>
        <time>2013-01-12T09:58:25Z</time>
      </trkpt>
      <trkpt lat="45.56666" lon="6.07004">
        <ele>1625</ele>
        <time>2013-01-12T09:58:27Z</time>
      </trkpt>
      <trkpt lat="45.56665" lon="6.07">
        <ele>1625</ele>
        <time>2013-01-12T09:58:31Z</time>
      </trkpt>
      <trkpt lat="45.56664" lon="6.06998">
        <ele>1626</ele>
        <time>2013-01-12T09:58:33Z</time>
      </trkpt>
      <trkpt lat="45.56663" lon="6.06995">
        <ele>1626</ele>
        <time>2013-01-12T09:58:35Z</time>
      </trkpt>
      <trkpt lat="45.56662" lon="6.06991">
        <ele>1626</ele>
        <time>2013-01-12T09:58:39Z</time>
      </trkpt>
      <trkpt lat="45.56661" lon="6.06989">
        <ele>1626</ele>
        <time>2013-01-12T09:58:41Z</time>
      </trkpt>
      <trkpt lat="45.56661" lon="6.06987">
        <ele>1627</ele>
        <time>2013-01-12T09:58:43Z</time>
      </trkpt>
      <trkpt lat="45.5666" lon="6.06985">
        <ele>1627</ele>
        <time>2013-01-12T09:58:45Z</time>
      </trkpt>
      <trkpt lat="45.56659" lon="6.06982">
        <ele>1627</ele>
        <time>2013-01-12T09:58:47Z</time>
      </trkpt>
      <trkpt lat="45.56659" lon="6.0698">
        <ele>1628</ele>
        <time>2013-01-12T09:58:49Z</time>
      </trkpt>
      <trkpt lat="45.56658" lon="6.06978">
        <ele>1628</ele>
        <time>2013-01-12T09:58:51Z</time>
      </trkpt>
      <trkpt lat="45.56658" lon="6.06976">
        <ele>1628</ele>
        <time>2013-01-12T09:58:53Z</time>
      </trkpt>
      <trkpt lat="45.56657" lon="6.06974">
        <ele>1629</ele>
        <time>2013-01-12T09:58:55Z</time>
      </trkpt>
      <trkpt lat="45.56657" lon="6.06972">
        <ele>1629</ele>
        <time>2013-01-12T09:58:57Z</time>
      </trkpt>
      <trkpt lat="45.56656" lon="6.0697">
        <ele>1629</ele>
        <time>2013-01-12T09:58:59Z</time>
      </trkpt>
      <trkpt lat="45.56656" lon="6.06968">
        <ele>1630</ele>
        <time>2013-01-12T09:59:01Z</time>
      </trkpt>
      <trkpt lat="45.56655" lon="6.06966">
        <ele>1630</ele>
        <time>2013-01-12T09:59:03Z</time>
      </trkpt>
      <trkpt lat="45.56655" lon="6.06964">
        <ele>1631</ele>
        <time>2013-01-12T09:59:05Z</time>
      </trkpt>
      <trkpt lat="45.56655" lon="6.06962">
        <ele>1631</ele>
        <time>2013-01-12T09:59:07Z</time>
      </trkpt>
      <trkpt lat="45.56654" lon="6.0696">
        <ele>1632</ele>
        <time>2013-01-12T09:59:09Z</time>
      </trkpt>
      <trkpt lat="45.56654" lon="6.06958">
        <ele>1632</ele>
        <time>2013-01-12T09:59:11Z</time>
      </trkpt>
      <trkpt lat="45.56653" lon="6.06956">
        <ele>1633</ele>
        <time>2013-01-12T09:59:13Z</time>
      </trkpt>
      <trkpt lat="45.56653" lon="6.06954">
        <ele>1633</ele>
        <time>2013-01-12T09:59:15Z</time>
      </trkpt>
      <trkpt lat="45.56653" lon="6.06952">
        <ele>1634</ele>
        <time>2013-01-12T09:59:17Z</time>
      </trkpt>
      <trkpt lat="45.56652" lon="6.0695">
        <ele>1634</ele>
        <time>2013-01-12T09:59:19Z</time>
      </trkpt>
      <trkpt lat="45.56652" lon="6.06948">
        <ele>1634</ele>
        <time>2013-01-12T09:59:21Z</time>
      </trkpt>
      <trkpt lat="45.56652" lon="6.06945">
        <ele>1635</ele>
        <time>2013-01-12T09:59:23Z</time>
      </trkpt>
      <trkpt lat="45.56651" lon="6.06943">
        <ele>1635</ele>
        <time>2013-01-12T09:59:25Z</time>
      </trkpt>
      <trkpt lat="45.56651" lon="6.06941">
        <ele>1635</ele>
        <time>2013-01-12T09:59:27Z</time>
      </trkpt>
      <trkpt lat="45.56651" lon="6.06937">
        <ele>1636</ele>
        <time>2013-01-12T09:59:31Z</time>
      </trkpt>
      <trkpt lat="45.56651" lon="6.06934">
        <ele>1636</ele>
        <time>2013-01-12T09:59:33Z</time>
      </trkpt>
      <trkpt lat="45.56651" lon="6.0693">
        <ele>1637</ele>
        <time>2013-01-12T09:59:37Z</time>
      </trkpt>
      <trkpt lat="45.56651" lon="6.06929">
        <ele>1637</ele>
        <time>2013-01-12T09:59:39Z</time>
      </trkpt>
      <trkpt lat="45.56651" lon="6.06926">
        <ele>1638</ele>
        <time>2013-01-12T09:59:43Z</time>
      </trkpt>
      <trkpt lat="45.56651" lon="6.06923">
        <ele>1639</ele>
        <time>2013-01-12T09:59:46Z</time>
      </trkpt>
      <trkpt lat="45.56651" lon="6.06922">
        <ele>1639</ele>
        <time>2013-01-12T09:59:49Z</time>
      </trkpt>
      <trkpt lat="45.56651" lon="6.0692">
        <ele>1639</ele>
        <time>2013-01-12T09:59:51Z</time>
      </trkpt>
      <trkpt lat="45.56651" lon="6.06916">
        <ele>1640</ele>
        <time>2013-01-12T09:59:55Z</time>
      </trkpt>
      <trkpt lat="45.5665" lon="6.06915">
        <ele>1640</ele>
        <time>2013-01-12T09:59:57Z</time>
      </trkpt>
      <trkpt lat="45.56649" lon="6.06913">
        <ele>1640</ele>
        <time>2013-01-12T10:00:00Z</time>
      </trkpt>
      <trkpt lat="45.56649" lon="6.06911">
        <ele>1640</ele>
        <time>2013-01-12T10:00:02Z</time>
      </trkpt>
      <trkpt lat="45.5665" lon="6.06899">
        <ele>1641</ele>
        <time>2013-01-12T10:00:08Z</time>
      </trkpt>
      <trkpt lat="45.5665" lon="6.06897">
        <ele>1641</ele>
        <time>2013-01-12T10:00:10Z</time>
      </trkpt>
      <trkpt lat="45.56651" lon="6.06895">
        <ele>1641</ele>
        <time>2013-01-12T10:00:12Z</time>
      </trkpt>
      <trkpt lat="45.56651" lon="6.06891">
        <ele>1641</ele>
        <time>2013-01-12T10:00:16Z</time>
      </trkpt>
      <trkpt lat="45.56651" lon="6.06888">
        <ele>1641</ele>
        <time>2013-01-12T10:00:18Z</time>
      </trkpt>
      <trkpt lat="45.56651" lon="6.06886">
        <ele>1641</ele>
        <time>2013-01-12T10:00:20Z</time>
      </trkpt>
      <trkpt lat="45.56651" lon="6.06884">
        <ele>1642</ele>
        <time>2013-01-12T10:00:22Z</time>
      </trkpt>
      <trkpt lat="45.56651" lon="6.06882">
        <ele>1642</ele>
        <time>2013-01-12T10:00:24Z</time>
      </trkpt>
      <trkpt lat="45.56651" lon="6.0688">
        <ele>1642</ele>
        <time>2013-01-12T10:00:26Z</time>
      </trkpt>
      <trkpt lat="45.56652" lon="6.06878">
        <ele>1643</ele>
        <time>2013-01-12T10:00:28Z</time>
      </trkpt>
      <trkpt lat="45.56652" lon="6.06874">
        <ele>1643</ele>
        <time>2013-01-12T10:00:32Z</time>
      </trkpt>
      <trkpt lat="45.56652" lon="6.06872">
        <ele>1643</ele>
        <time>2013-01-12T10:00:34Z</time>
      </trkpt>
      <trkpt lat="45.56652" lon="6.06871">
        <ele>1644</ele>
        <time>2013-01-12T10:00:36Z</time>
      </trkpt>
      <trkpt lat="45.56652" lon="6.06869">
        <ele>1644</ele>
        <time>2013-01-12T10:00:38Z</time>
      </trkpt>
      <trkpt lat="45.56652" lon="6.06866">
        <ele>1645</ele>
        <time>2013-01-12T10:00:42Z</time>
      </trkpt>
      <trkpt lat="45.56651" lon="6.06864">
        <ele>1645</ele>
        <time>2013-01-12T10:00:45Z</time>
      </trkpt>
      <trkpt lat="45.56651" lon="6.06863">
        <ele>1646</ele>
        <time>2013-01-12T10:00:47Z</time>
      </trkpt>
      <trkpt lat="45.56652" lon="6.06861">
        <ele>1647</ele>
        <time>2013-01-12T10:00:50Z</time>
      </trkpt>
      <trkpt lat="45.56655" lon="6.0685">
        <ele>1650</ele>
        <time>2013-01-12T10:00:58Z</time>
      </trkpt>
      <trkpt lat="45.56655" lon="6.06848">
        <ele>1650</ele>
        <time>2013-01-12T10:01:00Z</time>
      </trkpt>
      <trkpt lat="45.56655" lon="6.06847">
        <ele>1650</ele>
        <time>2013-01-12T10:01:02Z</time>
      </trkpt>
      <trkpt lat="45.56655" lon="6.06845">
        <ele>1651</ele>
        <time>2013-01-12T10:01:04Z</time>
      </trkpt>
      <trkpt lat="45.56654" lon="6.06844">
        <ele>1651</ele>
        <time>2013-01-12T10:01:06Z</time>
      </trkpt>
      <trkpt lat="45.56654" lon="6.06842">
        <ele>1652</ele>
        <time>2013-01-12T10:01:08Z</time>
      </trkpt>
      <trkpt lat="45.56654" lon="6.06839">
        <ele>1652</ele>
        <time>2013-01-12T10:01:12Z</time>
      </trkpt>
      <trkpt lat="45.56654" lon="6.06837">
        <ele>1653</ele>
        <time>2013-01-12T10:01:14Z</time>
      </trkpt>
      <trkpt lat="45.56654" lon="6.06833">
        <ele>1654</ele>
        <time>2013-01-12T10:01:19Z</time>
      </trkpt>
      <trkpt lat="45.56654" lon="6.06831">
        <ele>1654</ele>
        <time>2013-01-12T10:01:21Z</time>
      </trkpt>
      <trkpt lat="45.56654" lon="6.06829">
        <ele>1655</ele>
        <time>2013-01-12T10:01:24Z</time>
      </trkpt>
      <trkpt lat="45.56652" lon="6.06821">
        <ele>1656</ele>
        <time>2013-01-12T10:01:30Z</time>
      </trkpt>
      <trkpt lat="45.56635" lon="6.06803">
        <ele>1664</ele>
        <time>2013-01-12T10:01:36Z</time>
      </trkpt>
      <trkpt lat="45.56634" lon="6.06801">
        <ele>1665</ele>
        <time>2013-01-12T10:01:39Z</time>
      </trkpt>
      <trkpt lat="45.56633" lon="6.06799">
        <ele>1665</ele>
        <time>2013-01-12T10:01:44Z</time>
      </trkpt>
      <trkpt lat="45.56632" lon="6.06798">
        <ele>1665</ele>
        <time>2013-01-12T10:01:47Z</time>
      </trkpt>
      <trkpt lat="45.56631" lon="6.06796">
        <ele>1665</ele>
        <time>2013-01-12T10:01:49Z</time>
      </trkpt>
      <trkpt lat="45.5663" lon="6.06794">
        <ele>1665</ele>
        <time>2013-01-12T10:01:51Z</time>
      </trkpt>
      <trkpt lat="45.56628" lon="6.0679">
        <ele>1665</ele>
        <time>2013-01-12T10:01:55Z</time>
      </trkpt>
      <trkpt lat="45.56627" lon="6.06788">
        <ele>1665</ele>
        <time>2013-01-12T10:01:57Z</time>
      </trkpt>
      <trkpt lat="45.56627" lon="6.06786">
        <ele>1666</ele>
        <time>2013-01-12T10:01:59Z</time>
      </trkpt>
      <trkpt lat="45.56625" lon="6.06782">
        <ele>1666</ele>
        <time>2013-01-12T10:02:03Z</time>
      </trkpt>
      <trkpt lat="45.56625" lon="6.0678">
        <ele>1666</ele>
        <time>2013-01-12T10:02:05Z</time>
      </trkpt>
      <trkpt lat="45.56624" lon="6.06778">
        <ele>1666</ele>
        <time>2013-01-12T10:02:07Z</time>
      </trkpt>
      <trkpt lat="45.56623" lon="6.06776">
        <ele>1666</ele>
        <time>2013-01-12T10:02:09Z</time>
      </trkpt>
      <trkpt lat="45.56623" lon="6.06774">
        <ele>1666</ele>
        <time>2013-01-12T10:02:11Z</time>
      </trkpt>
      <trkpt lat="45.56622" lon="6.0677">
        <ele>1667</ele>
        <time>2013-01-12T10:02:15Z</time>
      </trkpt>
      <trkpt lat="45.56622" lon="6.06769">
        <ele>1667</ele>
        <time>2013-01-12T10:02:17Z</time>
      </trkpt>
      <trkpt lat="45.56619" lon="6.06757">
        <ele>1667</ele>
        <time>2013-01-12T10:02:22Z</time>
      </trkpt>
      <trkpt lat="45.56618" lon="6.06755">
        <ele>1668</ele>
        <time>2013-01-12T10:02:24Z</time>
      </trkpt>
      <trkpt lat="45.56617" lon="6.06753">
        <ele>1668</ele>
        <time>2013-01-12T10:02:26Z</time>
      </trkpt>
      <trkpt lat="45.56617" lon="6.06751">
        <ele>1668</ele>
        <time>2013-01-12T10:02:28Z</time>
      </trkpt>
      <trkpt lat="45.56615" lon="6.06748">
        <ele>1669</ele>
        <time>2013-01-12T10:02:32Z</time>
      </trkpt>
      <trkpt lat="45.56614" lon="6.06746">
        <ele>1669</ele>
        <time>2013-01-12T10:02:34Z</time>
      </trkpt>
      <trkpt lat="45.56612" lon="6.06743">
        <ele>1670</ele>
        <time>2013-01-12T10:02:38Z</time>
      </trkpt>
      <trkpt lat="45.56611" lon="6.06741">
        <ele>1670</ele>
        <time>2013-01-12T10:02:41Z</time>
      </trkpt>
      <trkpt lat="45.56609" lon="6.06737">
        <ele>1670</ele>
        <time>2013-01-12T10:02:45Z</time>
      </trkpt>
      <trkpt lat="45.56608" lon="6.06733">
        <ele>1671</ele>
        <time>2013-01-12T10:02:49Z</time>
      </trkpt>
      <trkpt lat="45.56607" lon="6.06731">
        <ele>1671</ele>
        <time>2013-01-12T10:02:51Z</time>
      </trkpt>
      <trkpt lat="45.56607" lon="6.06729">
        <ele>1671</ele>
        <time>2013-01-12T10:02:53Z</time>
      </trkpt>
      <trkpt lat="45.56606" lon="6.06726">
        <ele>1671</ele>
        <time>2013-01-12T10:02:57Z</time>
      </trkpt>
      <trkpt lat="45.56604" lon="6.06722">
        <ele>1672</ele>
        <time>2013-01-12T10:03:01Z</time>
      </trkpt>
      <trkpt lat="45.56603" lon="6.06721">
        <ele>1672</ele>
        <time>2013-01-12T10:03:03Z</time>
      </trkpt>
      <trkpt lat="45.56602" lon="6.06719">
        <ele>1672</ele>
        <time>2013-01-12T10:03:05Z</time>
      </trkpt>
      <trkpt lat="45.56601" lon="6.06717">
        <ele>1673</ele>
        <time>2013-01-12T10:03:08Z</time>
      </trkpt>
      <trkpt lat="45.566" lon="6.06715">
        <ele>1673</ele>
        <time>2013-01-12T10:03:11Z</time>
      </trkpt>
      <trkpt lat="45.56599" lon="6.06712">
        <ele>1673</ele>
        <time>2013-01-12T10:03:15Z</time>
      </trkpt>
      <trkpt lat="45.56598" lon="6.0671">
        <ele>1674</ele>
        <time>2013-01-12T10:03:18Z</time>
      </trkpt>
      <trkpt lat="45.56598" lon="6.06708">
        <ele>1674</ele>
        <time>2013-01-12T10:03:24Z</time>
      </trkpt>
      <trkpt lat="45.56597" lon="6.06706">
        <ele>1674</ele>
        <time>2013-01-12T10:03:26Z</time>
      </trkpt>
      <trkpt lat="45.56597" lon="6.06705">
        <ele>1674</ele>
        <time>2013-01-12T10:03:28Z</time>
      </trkpt>
      <trkpt lat="45.56596" lon="6.06701">
        <ele>1674</ele>
        <time>2013-01-12T10:03:32Z</time>
      </trkpt>
      <trkpt lat="45.56596" lon="6.067">
        <ele>1674</ele>
        <time>2013-01-12T10:03:34Z</time>
      </trkpt>
      <trkpt lat="45.56595" lon="6.06698">
        <ele>1675</ele>
        <time>2013-01-12T10:03:37Z</time>
      </trkpt>
      <trkpt lat="45.56594" lon="6.06695">
        <ele>1675</ele>
        <time>2013-01-12T10:03:41Z</time>
      </trkpt>
      <trkpt lat="45.56594" lon="6.06693">
        <ele>1675</ele>
        <time>2013-01-12T10:03:44Z</time>
      </trkpt>
      <trkpt lat="45.56594" lon="6.06691">
        <ele>1676</ele>
        <time>2013-01-12T10:03:48Z</time>
      </trkpt>
      <trkpt lat="45.56593" lon="6.06689">
        <ele>1676</ele>
        <time>2013-01-12T10:03:50Z</time>
      </trkpt>
      <trkpt lat="45.56593" lon="6.06686">
        <ele>1676</ele>
        <time>2013-01-12T10:03:54Z</time>
      </trkpt>
      <trkpt lat="45.56593" lon="6.06684">
        <ele>1677</ele>
        <time>2013-01-12T10:03:56Z</time>
      </trkpt>
      <trkpt lat="45.56593" lon="6.0668">
        <ele>1677</ele>
        <time>2013-01-12T10:04:00Z</time>
      </trkpt>
      <trkpt lat="45.56592" lon="6.06678">
        <ele>1677</ele>
        <time>2013-01-12T10:04:02Z</time>
      </trkpt>
      <trkpt lat="45.56592" lon="6.06676">
        <ele>1677</ele>
        <time>2013-01-12T10:04:04Z</time>
      </trkpt>
      <trkpt lat="45.56597" lon="6.06696">
        <ele>1677</ele>
        <time>2013-01-12T10:04:08Z</time>
      </trkpt>
      <trkpt lat="45.56598" lon="6.06702">
        <ele>1677</ele>
        <time>2013-01-12T10:04:10Z</time>
      </trkpt>
      <trkpt lat="45.56601" lon="6.06713">
        <ele>1677</ele>
        <time>2013-01-12T10:04:13Z</time>
      </trkpt>
      <trkpt lat="45.56605" lon="6.0672">
        <ele>1676</ele>
        <time>2013-01-12T10:04:15Z</time>
      </trkpt>
      <trkpt lat="45.56613" lon="6.06741">
        <ele>1672</ele>
        <time>2013-01-12T10:04:22Z</time>
      </trkpt>
      <trkpt lat="45.56617" lon="6.0675">
        <ele>1671</ele>
        <time>2013-01-12T10:04:24Z</time>
      </trkpt>
      <trkpt lat="45.56621" lon="6.06759">
        <ele>1670</ele>
        <time>2013-01-12T10:04:26Z</time>
      </trkpt>
      <trkpt lat="45.56623" lon="6.06769">
        <ele>1670</ele>
        <time>2013-01-12T10:04:28Z</time>
      </trkpt>
      <trkpt lat="45.56628" lon="6.06784">
        <ele>1668</ele>
        <time>2013-01-12T10:04:31Z</time>
      </trkpt>
      <trkpt lat="45.56631" lon="6.06793">
        <ele>1668</ele>
        <time>2013-01-12T10:04:33Z</time>
      </trkpt>
      <trkpt lat="45.56635" lon="6.068">
        <ele>1667</ele>
        <time>2013-01-12T10:04:36Z</time>
      </trkpt>
      <trkpt lat="45.5664" lon="6.06807">
        <ele>1666</ele>
        <time>2013-01-12T10:04:39Z</time>
      </trkpt>
      <trkpt lat="45.56643" lon="6.06823">
        <ele>1665</ele>
        <time>2013-01-12T10:04:45Z</time>
      </trkpt>
      <trkpt lat="45.56644" lon="6.0685">
        <ele>1664</ele>
        <time>2013-01-12T10:04:48Z</time>
      </trkpt>
      <trkpt lat="45.56645" lon="6.06873">
        <ele>1662</ele>
        <time>2013-01-12T10:04:50Z</time>
      </trkpt>
      <trkpt lat="45.56642" lon="6.06914">
        <ele>1659</ele>
        <time>2013-01-12T10:04:53Z</time>
      </trkpt>
      <trkpt lat="45.56641" lon="6.06937">
        <ele>1657</ele>
        <time>2013-01-12T10:04:55Z</time>
      </trkpt>
      <trkpt lat="45.56643" lon="6.06956">
        <ele>1654</ele>
        <time>2013-01-12T10:04:57Z</time>
      </trkpt>
      <trkpt lat="45.56651" lon="6.06977">
        <ele>1651</ele>
        <time>2013-01-12T10:04:59Z</time>
      </trkpt>
      <trkpt lat="45.56661" lon="6.06999">
        <ele>1647</ele>
        <time>2013-01-12T10:05:01Z</time>
      </trkpt>
      <trkpt lat="45.56672" lon="6.07021">
        <ele>1643</ele>
        <time>2013-01-12T10:05:03Z</time>
      </trkpt>
      <trkpt lat="45.56686" lon="6.07035">
        <ele>1639</ele>
        <time>2013-01-12T10:05:05Z</time>
      </trkpt>
      <trkpt lat="45.56703" lon="6.07044">
        <ele>1636</ele>
        <time>2013-01-12T10:05:07Z</time>
      </trkpt>
      <trkpt lat="45.56719" lon="6.07049">
        <ele>1633</ele>
        <time>2013-01-12T10:05:09Z</time>
      </trkpt>
      <trkpt lat="45.56738" lon="6.07052">
        <ele>1630</ele>
        <time>2013-01-12T10:05:12Z</time>
      </trkpt>
      <trkpt lat="45.56754" lon="6.07052">
        <ele>1627</ele>
        <time>2013-01-12T10:05:15Z</time>
      </trkpt>
      <trkpt lat="45.56767" lon="6.07053">
        <ele>1624</ele>
        <time>2013-01-12T10:05:18Z</time>
      </trkpt>
      <trkpt lat="45.56775" lon="6.07054">
        <ele>1622</ele>
        <time>2013-01-12T10:05:20Z</time>
      </trkpt>
      <trkpt lat="45.56783" lon="6.07056">
        <ele>1620</ele>
        <time>2013-01-12T10:05:22Z</time>
      </trkpt>
      <trkpt lat="45.56792" lon="6.07056">
        <ele>1620</ele>
        <time>2013-01-12T10:05:24Z</time>
      </trkpt>
      <trkpt lat="45.568" lon="6.07052">
        <ele>1619</ele>
        <time>2013-01-12T10:05:26Z</time>
      </trkpt>
      <trkpt lat="45.56809" lon="6.07047">
        <ele>1618</ele>
        <time>2013-01-12T10:05:28Z</time>
      </trkpt>
      <trkpt lat="45.5682" lon="6.07039">
        <ele>1616</ele>
        <time>2013-01-12T10:05:31Z</time>
      </trkpt>
      <trkpt lat="45.56828" lon="6.07032">
        <ele>1616</ele>
        <time>2013-01-12T10:05:34Z</time>
      </trkpt>
      <trkpt lat="45.56831" lon="6.07029">
        <ele>1615</ele>
        <time>2013-01-12T10:05:36Z</time>
      </trkpt>
      <trkpt lat="45.56844" lon="6.07017">
        <ele>1613</ele>
        <time>2013-01-12T10:05:42Z</time>
      </trkpt>
      <trkpt lat="45.56845" lon="6.07016">
        <ele>1613</ele>
        <time>2013-01-12T10:05:44Z</time>
      </trkpt>
      <trkpt lat="45.56846" lon="6.07015">
        <ele>1613</ele>
        <time>2013-01-12T10:05:46Z</time>
      </trkpt>
      <trkpt lat="45.56849" lon="6.07013">
        <ele>1613</ele>
        <time>2013-01-12T10:05:49Z</time>
      </trkpt>
      <trkpt lat="45.5685" lon="6.07013">
        <ele>1613</ele>
        <time>2013-01-12T10:05:51Z</time>
      </trkpt>
      <trkpt lat="45.56852" lon="6.07012">
        <ele>1613</ele>
        <time>2013-01-12T10:05:53Z</time>
      </trkpt>
      <trkpt lat="45.56855" lon="6.07009">
        <ele>1613</ele>
        <time>2013-01-12T10:05:58Z</time>
      </trkpt>
      <trkpt lat="45.56857" lon="6.07009">
        <ele>1613</ele>
        <time>2013-01-12T10:06:00Z</time>
      </trkpt>
      <trkpt lat="45.56859" lon="6.07008">
        <ele>1613</ele>
        <time>2013-01-12T10:06:03Z</time>
      </trkpt>
      <trkpt lat="45.5686" lon="6.07006">
        <ele>1613</ele>
        <time>2013-01-12T10:06:06Z</time>
      </trkpt>
      <trkpt lat="45.56864" lon="6.07004">
        <ele>1613</ele>
        <time>2013-01-12T10:06:11Z</time>
      </trkpt>
      <trkpt lat="45.56865" lon="6.07003">
        <ele>1613</ele>
        <time>2013-01-12T10:06:14Z</time>
      </trkpt>
      <trkpt lat="45.56867" lon="6.07002">
        <ele>1613</ele>
        <time>2013-01-12T10:06:17Z</time>
      </trkpt>
      <trkpt lat="45.5687" lon="6.07">
        <ele>1613</ele>
        <time>2013-01-12T10:06:21Z</time>
      </trkpt>
      <trkpt lat="45.56871" lon="6.06999">
        <ele>1613</ele>
        <time>2013-01-12T10:06:24Z</time>
      </trkpt>
      <trkpt lat="45.56873" lon="6.06998">
        <ele>1613</ele>
        <time>2013-01-12T10:06:27Z</time>
      </trkpt>
      <trkpt lat="45.56875" lon="6.06997">
        <ele>1613</ele>
        <time>2013-01-12T10:06:30Z</time>
      </trkpt>
      <trkpt lat="45.56877" lon="6.06996">
        <ele>1613</ele>
        <time>2013-01-12T10:06:33Z</time>
      </trkpt>
      <trkpt lat="45.5688" lon="6.06994">
        <ele>1613</ele>
        <time>2013-01-12T10:06:38Z</time>
      </trkpt>
      <trkpt lat="45.56881" lon="6.06992">
        <ele>1613</ele>
        <time>2013-01-12T10:06:41Z</time>
      </trkpt>
      <trkpt lat="45.56883" lon="6.06991">
        <ele>1613</ele>
        <time>2013-01-12T10:06:45Z</time>
      </trkpt>
      <trkpt lat="45.56886" lon="6.0699">
        <ele>1613</ele>
        <time>2013-01-12T10:06:49Z</time>
      </trkpt>
      <trkpt lat="45.56897" lon="6.06992">
        <ele>1613</ele>
        <time>2013-01-12T10:06:54Z</time>
      </trkpt>
      <trkpt lat="45.56902" lon="6.06992">
        <ele>1613</ele>
        <time>2013-01-12T10:06:56Z</time>
      </trkpt>
      <trkpt lat="45.5691" lon="6.06995">
        <ele>1613</ele>
        <time>2013-01-12T10:06:58Z</time>
      </trkpt>
      <trkpt lat="45.56919" lon="6.07002">
        <ele>1613</ele>
        <time>2013-01-12T10:07:00Z</time>
      </trkpt>
      <trkpt lat="45.56931" lon="6.07012">
        <ele>1612</ele>
        <time>2013-01-12T10:07:03Z</time>
      </trkpt>
      <trkpt lat="45.56937" lon="6.07006">
        <ele>1611</ele>
        <time>2013-01-12T10:07:05Z</time>
      </trkpt>
      <trkpt lat="45.56941" lon="6.06999">
        <ele>1609</ele>
        <time>2013-01-12T10:07:07Z</time>
      </trkpt>
      <trkpt lat="45.56953" lon="6.07003">
        <ele>1606</ele>
        <time>2013-01-12T10:07:10Z</time>
      </trkpt>
      <trkpt lat="45.56961" lon="6.07001">
        <ele>1604</ele>
        <time>2013-01-12T10:07:12Z</time>
      </trkpt>
      <trkpt lat="45.56973" lon="6.07003">
        <ele>1601</ele>
        <time>2013-01-12T10:07:15Z</time>
      </trkpt>
      <trkpt lat="45.5698" lon="6.07007">
        <ele>1599</ele>
        <time>2013-01-12T10:07:17Z</time>
      </trkpt>
      <trkpt lat="45.56989" lon="6.07011">
        <ele>1596</ele>
        <time>2013-01-12T10:07:19Z</time>
      </trkpt>
      <trkpt lat="45.56996" lon="6.07016">
        <ele>1593</ele>
        <time>2013-01-12T10:07:21Z</time>
      </trkpt>
      <trkpt lat="45.57003" lon="6.07017">
        <ele>1590</ele>
        <time>2013-01-12T10:07:23Z</time>
      </trkpt>
      <trkpt lat="45.57014" lon="6.07024">
        <ele>1585</ele>
        <time>2013-01-12T10:07:26Z</time>
      </trkpt>
      <trkpt lat="45.57021" lon="6.07031">
        <ele>1582</ele>
        <time>2013-01-12T10:07:28Z</time>
      </trkpt>
      <trkpt lat="45.57028" lon="6.07038">
        <ele>1578</ele>
        <time>2013-01-12T10:07:30Z</time>
      </trkpt>
      <trkpt lat="45.57036" lon="6.07044">
        <ele>1574</ele>
        <time>2013-01-12T10:07:32Z</time>
      </trkpt>
      <trkpt lat="45.57046" lon="6.0705">
        <ele>1570</ele>
        <time>2013-01-12T10:07:34Z</time>
      </trkpt>
      <trkpt lat="45.57055" lon="6.07052">
        <ele>1566</ele>
        <time>2013-01-12T10:07:36Z</time>
      </trkpt>
      <trkpt lat="45.57061" lon="6.07054">
        <ele>1562</ele>
        <time>2013-01-12T10:07:38Z</time>
      </trkpt>
      <trkpt lat="45.57065" lon="6.07052">
        <ele>1558</ele>
        <time>2013-01-12T10:07:40Z</time>
      </trkpt>
      <trkpt lat="45.57063" lon="6.07048">
        <ele>1548</ele>
        <time>2013-01-12T10:07:45Z</time>
      </trkpt>
      <trkpt lat="45.57071" lon="6.07057">
        <ele>1546</ele>
        <time>2013-01-12T10:07:50Z</time>
      </trkpt>
      <trkpt lat="45.57079" lon="6.0706">
        <ele>1546</ele>
        <time>2013-01-12T10:07:52Z</time>
      </trkpt>
      <trkpt lat="45.57089" lon="6.07065">
        <ele>1544</ele>
        <time>2013-01-12T10:07:54Z</time>
      </trkpt>
      <trkpt lat="45.57097" lon="6.07061">
        <ele>1542</ele>
        <time>2013-01-12T10:07:56Z</time>
      </trkpt>
      <trkpt lat="45.57099" lon="6.07052">
        <ele>1540</ele>
        <time>2013-01-12T10:07:58Z</time>
      </trkpt>
      <trkpt lat="45.57104" lon="6.07048">
        <ele>1538</ele>
        <time>2013-01-12T10:08:00Z</time>
      </trkpt>
      <trkpt lat="45.57112" lon="6.07046">
        <ele>1536</ele>
        <time>2013-01-12T10:08:02Z</time>
      </trkpt>
      <trkpt lat="45.5712" lon="6.07036">
        <ele>1533</ele>
        <time>2013-01-12T10:08:05Z</time>
      </trkpt>
      <trkpt lat="45.57126" lon="6.07039">
        <ele>1530</ele>
        <time>2013-01-12T10:08:07Z</time>
      </trkpt>
      <trkpt lat="45.57129" lon="6.07046">
        <ele>1527</ele>
        <time>2013-01-12T10:08:09Z</time>
      </trkpt>
      <trkpt lat="45.57131" lon="6.07056">
        <ele>1521</ele>
        <time>2013-01-12T10:08:14Z</time>
      </trkpt>
      <trkpt lat="45.57131" lon="6.07058">
        <ele>1519</ele>
        <time>2013-01-12T10:08:16Z</time>
      </trkpt>
      <trkpt lat="45.57131" lon="6.07059">
        <ele>1517</ele>
        <time>2013-01-12T10:08:20Z</time>
      </trkpt>
      <trkpt lat="45.57133" lon="6.07064">
        <ele>1517</ele>
        <time>2013-01-12T10:08:22Z</time>
      </trkpt>
      <trkpt lat="45.57137" lon="6.07069">
        <ele>1517</ele>
        <time>2013-01-12T10:08:24Z</time>
      </trkpt>
      <trkpt lat="45.57142" lon="6.07075">
        <ele>1516</ele>
        <time>2013-01-12T10:08:26Z</time>
      </trkpt>
      <trkpt lat="45.57148" lon="6.07081">
        <ele>1514</ele>
        <time>2013-01-12T10:08:28Z</time>
      </trkpt>
      <trkpt lat="45.57151" lon="6.07087">
        <ele>1512</ele>
        <time>2013-01-12T10:08:30Z</time>
      </trkpt>
      <trkpt lat="45.57153" lon="6.07089">
        <ele>1510</ele>
        <time>2013-01-12T10:08:34Z</time>
      </trkpt>
      <trkpt lat="45.57153" lon="6.07091">
        <ele>1510</ele>
        <time>2013-01-12T10:08:36Z</time>
      </trkpt>
      <trkpt lat="45.57151" lon="6.07094">
        <ele>1510</ele>
        <time>2013-01-12T10:08:42Z</time>
      </trkpt>
      <trkpt lat="45.57152" lon="6.07096">
        <ele>1510</ele>
        <time>2013-01-12T10:08:45Z</time>
      </trkpt>
      <trkpt lat="45.57153" lon="6.07098">
        <ele>1510</ele>
        <time>2013-01-12T10:08:47Z</time>
      </trkpt>
      <trkpt lat="45.57154" lon="6.07102">
        <ele>1510</ele>
        <time>2013-01-12T10:08:52Z</time>
      </trkpt>
      <trkpt lat="45.57155" lon="6.07105">
        <ele>1509</ele>
        <time>2013-01-12T10:08:54Z</time>
      </trkpt>
      <trkpt lat="45.57157" lon="6.07112">
        <ele>1508</ele>
        <time>2013-01-12T10:08:56Z</time>
      </trkpt>
      <trkpt lat="45.57162" lon="6.07127">
        <ele>1505</ele>
        <time>2013-01-12T10:08:59Z</time>
      </trkpt>
      <trkpt lat="45.57168" lon="6.07137">
        <ele>1503</ele>
        <time>2013-01-12T10:09:01Z</time>
      </trkpt>
      <trkpt lat="45.57178" lon="6.07143">
        <ele>1501</ele>
        <time>2013-01-12T10:09:03Z</time>
      </trkpt>
      <trkpt lat="45.57194" lon="6.07156">
        <ele>1498</ele>
        <time>2013-01-12T10:09:06Z</time>
      </trkpt>
      <trkpt lat="45.57203" lon="6.07166">
        <ele>1496</ele>
        <time>2013-01-12T10:09:08Z</time>
      </trkpt>
      <trkpt lat="45.57211" lon="6.07172">
        <ele>1494</ele>
        <time>2013-01-12T10:09:10Z</time>
      </trkpt>
      <trkpt lat="45.5722" lon="6.07178">
        <ele>1491</ele>
        <time>2013-01-12T10:09:12Z</time>
      </trkpt>
      <trkpt lat="45.57233" lon="6.0718">
        <ele>1488</ele>
        <time>2013-01-12T10:09:14Z</time>
      </trkpt>
      <trkpt lat="45.57247" lon="6.07181">
        <ele>1485</ele>
        <time>2013-01-12T10:09:16Z</time>
      </trkpt>
      <trkpt lat="45.57261" lon="6.0718">
        <ele>1481</ele>
        <time>2013-01-12T10:09:18Z</time>
      </trkpt>
      <trkpt lat="45.57277" lon="6.0719">
        <ele>1475</ele>
        <time>2013-01-12T10:09:21Z</time>
      </trkpt>
      <trkpt lat="45.573" lon="6.07195">
        <ele>1471</ele>
        <time>2013-01-12T10:09:24Z</time>
      </trkpt>
      <trkpt lat="45.57317" lon="6.07193">
        <ele>1469</ele>
        <time>2013-01-12T10:09:26Z</time>
      </trkpt>
      <trkpt lat="45.5733" lon="6.07196">
        <ele>1466</ele>
        <time>2013-01-12T10:09:28Z</time>
      </trkpt>
      <trkpt lat="45.57341" lon="6.07202">
        <ele>1463</ele>
        <time>2013-01-12T10:09:30Z</time>
      </trkpt>
      <trkpt lat="45.57353" lon="6.07211">
        <ele>1459</ele>
        <time>2013-01-12T10:09:32Z</time>
      </trkpt>
      <trkpt lat="45.57366" lon="6.07221">
        <ele>1456</ele>
        <time>2013-01-12T10:09:34Z</time>
      </trkpt>
      <trkpt lat="45.5738" lon="6.0723">
        <ele>1452</ele>
        <time>2013-01-12T10:09:36Z</time>
      </trkpt>
      <trkpt lat="45.57395" lon="6.07239">
        <ele>1448</ele>
        <time>2013-01-12T10:09:39Z</time>
      </trkpt>
      <trkpt lat="45.57402" lon="6.07242">
        <ele>1446</ele>
        <time>2013-01-12T10:09:41Z</time>
      </trkpt>
      <trkpt lat="45.57408" lon="6.07244">
        <ele>1444</ele>
        <time>2013-01-12T10:09:43Z</time>
      </trkpt>
      <trkpt lat="45.57414" lon="6.07246">
        <ele>1442</ele>
        <time>2013-01-12T10:09:45Z</time>
      </trkpt>
      <trkpt lat="45.57421" lon="6.07249">
        <ele>1440</ele>
        <time>2013-01-12T10:09:48Z</time>
      </trkpt>
      <trkpt lat="45.57424" lon="6.0725">
        <ele>1440</ele>
        <time>2013-01-12T10:09:50Z</time>
      </trkpt>
      <trkpt lat="45.57435" lon="6.07255">
        <ele>1438</ele>
        <time>2013-01-12T10:09:56Z</time>
      </trkpt>
      <trkpt lat="45.57437" lon="6.07257">
        <ele>1438</ele>
        <time>2013-01-12T10:10:00Z</time>
      </trkpt>
      <trkpt lat="45.57439" lon="6.07258">
        <ele>1438</ele>
        <time>2013-01-12T10:10:02Z</time>
      </trkpt>
      <trkpt lat="45.57441" lon="6.07259">
        <ele>1438</ele>
        <time>2013-01-12T10:10:06Z</time>
      </trkpt>
      <trkpt lat="45.57443" lon="6.07259">
        <ele>1438</ele>
        <time>2013-01-12T10:10:08Z</time>
      </trkpt>
      <trkpt lat="45.57447" lon="6.07259">
        <ele>1438</ele>
        <time>2013-01-12T10:10:12Z</time>
      </trkpt>
      <trkpt lat="45.57448" lon="6.0726">
        <ele>1438</ele>
        <time>2013-01-12T10:10:14Z</time>
      </trkpt>
      <trkpt lat="45.5745" lon="6.0726">
        <ele>1438</ele>
        <time>2013-01-12T10:10:16Z</time>
      </trkpt>
      <trkpt lat="45.57451" lon="6.07261">
        <ele>1438</ele>
        <time>2013-01-12T10:10:18Z</time>
      </trkpt>
      <trkpt lat="45.57452" lon="6.07261">
        <ele>1438</ele>
        <time>2013-01-12T10:10:20Z</time>
      </trkpt>
      <trkpt lat="45.57456" lon="6.07261">
        <ele>1438</ele>
        <time>2013-01-12T10:10:24Z</time>
      </trkpt>
      <trkpt lat="45.57459" lon="6.07261">
        <ele>1438</ele>
        <time>2013-01-12T10:10:28Z</time>
      </trkpt>
      <trkpt lat="45.5746" lon="6.07261">
        <ele>1438</ele>
        <time>2013-01-12T10:10:30Z</time>
      </trkpt>
      <trkpt lat="45.57462" lon="6.07261">
        <ele>1438</ele>
        <time>2013-01-12T10:10:32Z</time>
      </trkpt>
      <trkpt lat="45.57465" lon="6.07261">
        <ele>1438</ele>
        <time>2013-01-12T10:10:36Z</time>
      </trkpt>
      <trkpt lat="45.57467" lon="6.07262">
        <ele>1438</ele>
        <time>2013-01-12T10:10:38Z</time>
      </trkpt>
      <trkpt lat="45.57468" lon="6.07262">
        <ele>1439</ele>
        <time>2013-01-12T10:10:40Z</time>
      </trkpt>
      <trkpt lat="45.5747" lon="6.07261">
        <ele>1439</ele>
        <time>2013-01-12T10:10:42Z</time>
      </trkpt>
      <trkpt lat="45.57471" lon="6.07261">
        <ele>1439</ele>
        <time>2013-01-12T10:10:44Z</time>
      </trkpt>
      <trkpt lat="45.57474" lon="6.07261">
        <ele>1440</ele>
        <time>2013-01-12T10:10:48Z</time>
      </trkpt>
      <trkpt lat="45.57476" lon="6.07261">
        <ele>1440</ele>
        <time>2013-01-12T10:10:50Z</time>
      </trkpt>
      <trkpt lat="45.57481" lon="6.0726">
        <ele>1441</ele>
        <time>2013-01-12T10:10:56Z</time>
      </trkpt>
      <trkpt lat="45.57482" lon="6.0726">
        <ele>1441</ele>
        <time>2013-01-12T10:10:58Z</time>
      </trkpt>
      <trkpt lat="45.57484" lon="6.07259">
        <ele>1441</ele>
        <time>2013-01-12T10:11:00Z</time>
      </trkpt>
      <trkpt lat="45.57486" lon="6.07259">
        <ele>1441</ele>
        <time>2013-01-12T10:11:02Z</time>
      </trkpt>
      <trkpt lat="45.57487" lon="6.07259">
        <ele>1441</ele>
        <time>2013-01-12T10:11:04Z</time>
      </trkpt>
      <trkpt lat="45.57489" lon="6.07259">
        <ele>1441</ele>
        <time>2013-01-12T10:11:06Z</time>
      </trkpt>
      <trkpt lat="45.5749" lon="6.0726">
        <ele>1441</ele>
        <time>2013-01-12T10:11:08Z</time>
      </trkpt>
      <trkpt lat="45.57492" lon="6.07264">
        <ele>1442</ele>
        <time>2013-01-12T10:11:12Z</time>
      </trkpt>
      <trkpt lat="45.57492" lon="6.07266">
        <ele>1442</ele>
        <time>2013-01-12T10:11:14Z</time>
      </trkpt>
      <trkpt lat="45.57494" lon="6.07269">
        <ele>1443</ele>
        <time>2013-01-12T10:11:18Z</time>
      </trkpt>
      <trkpt lat="45.57494" lon="6.07271">
        <ele>1443</ele>
        <time>2013-01-12T10:11:20Z</time>
      </trkpt>
      <trkpt lat="45.57495" lon="6.07273">
        <ele>1443</ele>
        <time>2013-01-12T10:11:22Z</time>
      </trkpt>
      <trkpt lat="45.57495" lon="6.07275">
        <ele>1443</ele>
        <time>2013-01-12T10:11:24Z</time>
      </trkpt>
      <trkpt lat="45.57495" lon="6.07277">
        <ele>1444</ele>
        <time>2013-01-12T10:11:26Z</time>
      </trkpt>
      <trkpt lat="45.57496" lon="6.0728">
        <ele>1444</ele>
        <time>2013-01-12T10:11:30Z</time>
      </trkpt>
      <trkpt lat="45.57497" lon="6.07282">
        <ele>1445</ele>
        <time>2013-01-12T10:11:32Z</time>
      </trkpt>
      <trkpt lat="45.57497" lon="6.07283">
        <ele>1445</ele>
        <time>2013-01-12T10:11:34Z</time>
      </trkpt>
      <trkpt lat="45.57499" lon="6.07295">
        <ele>1446</ele>
        <time>2013-01-12T10:11:39Z</time>
      </trkpt>
      <trkpt lat="45.57499" lon="6.07297">
        <ele>1447</ele>
        <time>2013-01-12T10:11:42Z</time>
      </trkpt>
      <trkpt lat="45.575" lon="6.07298">
        <ele>1447</ele>
        <time>2013-01-12T10:11:44Z</time>
      </trkpt>
      <trkpt lat="45.575" lon="6.073">
        <ele>1448</ele>
        <time>2013-01-12T10:11:47Z</time>
      </trkpt>
      <trkpt lat="45.57509" lon="6.07291">
        <ele>1453</ele>
        <time>2013-01-12T10:11:51Z</time>
      </trkpt>
      <trkpt lat="45.5751" lon="6.07289">
        <ele>1454</ele>
        <time>2013-01-12T10:11:54Z</time>
      </trkpt>
      <trkpt lat="45.57512" lon="6.07289">
        <ele>1454</ele>
        <time>2013-01-12T10:11:56Z</time>
      </trkpt>
      <trkpt lat="45.57512" lon="6.07301">
        <ele>1455</ele>
        <time>2013-01-12T10:12:01Z</time>
      </trkpt>
      <trkpt lat="45.57512" lon="6.07304">
        <ele>1456</ele>
        <time>2013-01-12T10:12:06Z</time>
      </trkpt>
      <trkpt lat="45.57512" lon="6.07306">
        <ele>1456</ele>
        <time>2013-01-12T10:12:09Z</time>
      </trkpt>
      <trkpt lat="45.57512" lon="6.07308">
        <ele>1457</ele>
        <time>2013-01-12T10:12:12Z</time>
      </trkpt>
      <trkpt lat="45.57512" lon="6.0731">
        <ele>1458</ele>
        <time>2013-01-12T10:12:15Z</time>
      </trkpt>
      <trkpt lat="45.57513" lon="6.07312">
        <ele>1458</ele>
        <time>2013-01-12T10:12:18Z</time>
      </trkpt>
      <trkpt lat="45.57513" lon="6.07314">
        <ele>1459</ele>
        <time>2013-01-12T10:12:21Z</time>
      </trkpt>
      <trkpt lat="45.57514" lon="6.07318">
        <ele>1460</ele>
        <time>2013-01-12T10:12:26Z</time>
      </trkpt>
      <trkpt lat="45.57515" lon="6.07319">
        <ele>1460</ele>
        <time>2013-01-12T10:12:29Z</time>
      </trkpt>
      <trkpt lat="45.57515" lon="6.07321">
        <ele>1461</ele>
        <time>2013-01-12T10:12:33Z</time>
      </trkpt>
      <trkpt lat="45.57519" lon="6.07313">
        <ele>1461</ele>
        <time>2013-01-12T10:12:37Z</time>
      </trkpt>
      <trkpt lat="45.5752" lon="6.07312">
        <ele>1462</ele>
        <time>2013-01-12T10:12:40Z</time>
      </trkpt>
      <trkpt lat="45.57526" lon="6.07305">
        <ele>1465</ele>
        <time>2013-01-12T10:12:46Z</time>
      </trkpt>
      <trkpt lat="45.57529" lon="6.07304">
        <ele>1466</ele>
        <time>2013-01-12T10:12:51Z</time>
      </trkpt>
      <trkpt lat="45.5753" lon="6.07304">
        <ele>1467</ele>
        <time>2013-01-12T10:12:54Z</time>
      </trkpt>
      <trkpt lat="45.57532" lon="6.07303">
        <ele>1467</ele>
        <time>2013-01-12T10:12:56Z</time>
      </trkpt>
      <trkpt lat="45.57531" lon="6.07313">
        <ele>1468</ele>
        <time>2013-01-12T10:13:01Z</time>
      </trkpt>
      <trkpt lat="45.57532" lon="6.07317">
        <ele>1469</ele>
        <time>2013-01-12T10:13:06Z</time>
      </trkpt>
      <trkpt lat="45.57534" lon="6.07319">
        <ele>1470</ele>
        <time>2013-01-12T10:13:09Z</time>
      </trkpt>
      <trkpt lat="45.57535" lon="6.07321">
        <ele>1470</ele>
        <time>2013-01-12T10:13:12Z</time>
      </trkpt>
      <trkpt lat="45.57536" lon="6.07322">
        <ele>1470</ele>
        <time>2013-01-12T10:13:14Z</time>
      </trkpt>
      <trkpt lat="45.57537" lon="6.07322">
        <ele>1470</ele>
        <time>2013-01-12T10:13:16Z</time>
      </trkpt>
      <trkpt lat="45.57539" lon="6.07323">
        <ele>1471</ele>
        <time>2013-01-12T10:13:18Z</time>
      </trkpt>
      <trkpt lat="45.5754" lon="6.07324">
        <ele>1472</ele>
        <time>2013-01-12T10:13:22Z</time>
      </trkpt>
      <trkpt lat="45.57541" lon="6.07324">
        <ele>1472</ele>
        <time>2013-01-12T10:13:24Z</time>
      </trkpt>
      <trkpt lat="45.57542" lon="6.07324">
        <ele>1472</ele>
        <time>2013-01-12T10:13:27Z</time>
      </trkpt>
      <trkpt lat="45.57544" lon="6.07325">
        <ele>1473</ele>
        <time>2013-01-12T10:13:30Z</time>
      </trkpt>
      <trkpt lat="45.57545" lon="6.07324">
        <ele>1473</ele>
        <time>2013-01-12T10:13:32Z</time>
      </trkpt>
      <trkpt lat="45.57547" lon="6.07325">
        <ele>1473</ele>
        <time>2013-01-12T10:13:34Z</time>
      </trkpt>
      <trkpt lat="45.57549" lon="6.07326">
        <ele>1473</ele>
        <time>2013-01-12T10:13:36Z</time>
      </trkpt>
      <trkpt lat="45.5755" lon="6.07326">
        <ele>1473</ele>
        <time>2013-01-12T10:13:38Z</time>
      </trkpt>
      <trkpt lat="45.57552" lon="6.07327">
        <ele>1473</ele>
        <time>2013-01-12T10:13:40Z</time>
      </trkpt>
      <trkpt lat="45.57553" lon="6.07328">
        <ele>1473</ele>
        <time>2013-01-12T10:13:42Z</time>
      </trkpt>
      <trkpt lat="45.57554" lon="6.07328">
        <ele>1473</ele>
        <time>2013-01-12T10:13:44Z</time>
      </trkpt>
      <trkpt lat="45.57556" lon="6.07329">
        <ele>1473</ele>
        <time>2013-01-12T10:13:47Z</time>
      </trkpt>
      <trkpt lat="45.57559" lon="6.07332">
        <ele>1473</ele>
        <time>2013-01-12T10:13:52Z</time>
      </trkpt>
      <trkpt lat="45.57561" lon="6.07333">
        <ele>1473</ele>
        <time>2013-01-12T10:13:54Z</time>
      </trkpt>
      <trkpt lat="45.57562" lon="6.07334">
        <ele>1473</ele>
        <time>2013-01-12T10:13:56Z</time>
      </trkpt>
      <trkpt lat="45.57563" lon="6.07335">
        <ele>1473</ele>
        <time>2013-01-12T10:13:58Z</time>
      </trkpt>
      <trkpt lat="45.57565" lon="6.07336">
        <ele>1473</ele>
        <time>2013-01-12T10:14:01Z</time>
      </trkpt>
      <trkpt lat="45.57566" lon="6.07338">
        <ele>1473</ele>
        <time>2013-01-12T10:14:04Z</time>
      </trkpt>
      <trkpt lat="45.57567" lon="6.07338">
        <ele>1474</ele>
        <time>2013-01-12T10:14:09Z</time>
      </trkpt>
      <trkpt lat="45.57569" lon="6.07339">
        <ele>1474</ele>
        <time>2013-01-12T10:14:12Z</time>
      </trkpt>
      <trkpt lat="45.5757" lon="6.0734">
        <ele>1474</ele>
        <time>2013-01-12T10:14:14Z</time>
      </trkpt>
      <trkpt lat="45.57573" lon="6.07341">
        <ele>1474</ele>
        <time>2013-01-12T10:14:18Z</time>
      </trkpt>
      <trkpt lat="45.57575" lon="6.07342">
        <ele>1474</ele>
        <time>2013-01-12T10:14:20Z</time>
      </trkpt>
      <trkpt lat="45.57578" lon="6.07343">
        <ele>1474</ele>
        <time>2013-01-12T10:14:24Z</time>
      </trkpt>
      <trkpt lat="45.57579" lon="6.07343">
        <ele>1474</ele>
        <time>2013-01-12T10:14:26Z</time>
      </trkpt>
      <trkpt lat="45.57583" lon="6.07343">
        <ele>1474</ele>
        <time>2013-01-12T10:14:30Z</time>
      </trkpt>
      <trkpt lat="45.57584" lon="6.07343">
        <ele>1474</ele>
        <time>2013-01-12T10:14:32Z</time>
      </trkpt>
      <trkpt lat="45.57588" lon="6.07343">
        <ele>1475</ele>
        <time>2013-01-12T10:14:36Z</time>
      </trkpt>
      <trkpt lat="45.57589" lon="6.07343">
        <ele>1475</ele>
        <time>2013-01-12T10:14:38Z</time>
      </trkpt>
      <trkpt lat="45.57593" lon="6.07344">
        <ele>1475</ele>
        <time>2013-01-12T10:14:42Z</time>
      </trkpt>
      <trkpt lat="45.57595" lon="6.07345">
        <ele>1475</ele>
        <time>2013-01-12T10:14:44Z</time>
      </trkpt>
      <trkpt lat="45.57597" lon="6.07346">
        <ele>1475</ele>
        <time>2013-01-12T10:14:47Z</time>
      </trkpt>
      <trkpt lat="45.57599" lon="6.07346">
        <ele>1475</ele>
        <time>2013-01-12T10:14:53Z</time>
      </trkpt>
      <trkpt lat="45.57603" lon="6.07347">
        <ele>1475</ele>
        <time>2013-01-12T10:14:56Z</time>
      </trkpt>
      <trkpt lat="45.57605" lon="6.07348">
        <ele>1475</ele>
        <time>2013-01-12T10:14:58Z</time>
      </trkpt>
      <trkpt lat="45.57609" lon="6.07348">
        <ele>1475</ele>
        <time>2013-01-12T10:15:02Z</time>
      </trkpt>
      <trkpt lat="45.57612" lon="6.07349">
        <ele>1475</ele>
        <time>2013-01-12T10:15:05Z</time>
      </trkpt>
      <trkpt lat="45.57614" lon="6.07349">
        <ele>1475</ele>
        <time>2013-01-12T10:15:07Z</time>
      </trkpt>
      <trkpt lat="45.57616" lon="6.07349">
        <ele>1475</ele>
        <time>2013-01-12T10:15:10Z</time>
      </trkpt>
      <trkpt lat="45.57618" lon="6.07349">
        <ele>1475</ele>
        <time>2013-01-12T10:15:12Z</time>
      </trkpt>
      <trkpt lat="45.57619" lon="6.07349">
        <ele>1475</ele>
        <time>2013-01-12T10:15:14Z</time>
      </trkpt>
      <trkpt lat="45.57621" lon="6.07349">
        <ele>1475</ele>
        <time>2013-01-12T10:15:16Z</time>
      </trkpt>
      <trkpt lat="45.57631" lon="6.07349">
        <ele>1475</ele>
        <time>2013-01-12T10:15:22Z</time>
      </trkpt>
      <trkpt lat="45.57632" lon="6.07349">
        <ele>1475</ele>
        <time>2013-01-12T10:15:25Z</time>
      </trkpt>
      <trkpt lat="45.57634" lon="6.07349">
        <ele>1476</ele>
        <time>2013-01-12T10:15:28Z</time>
      </trkpt>
      <trkpt lat="45.57636" lon="6.07349">
        <ele>1477</ele>
        <time>2013-01-12T10:15:32Z</time>
      </trkpt>
      <trkpt lat="45.57637" lon="6.0735">
        <ele>1477</ele>
        <time>2013-01-12T10:15:35Z</time>
      </trkpt>
      <trkpt lat="45.57639" lon="6.07351">
        <ele>1478</ele>
        <time>2013-01-12T10:15:38Z</time>
      </trkpt>
      <trkpt lat="45.5764" lon="6.07353">
        <ele>1479</ele>
        <time>2013-01-12T10:15:41Z</time>
      </trkpt>
      <trkpt lat="45.5764" lon="6.07355">
        <ele>1480</ele>
        <time>2013-01-12T10:15:44Z</time>
      </trkpt>
      <trkpt lat="45.57647" lon="6.07363">
        <ele>1481</ele>
        <time>2013-01-12T10:15:48Z</time>
      </trkpt>
      <trkpt lat="45.5765" lon="6.07364">
        <ele>1481</ele>
        <time>2013-01-12T10:15:53Z</time>
      </trkpt>
      <trkpt lat="45.57652" lon="6.07364">
        <ele>1481</ele>
        <time>2013-01-12T10:15:57Z</time>
      </trkpt>
      <trkpt lat="45.57653" lon="6.07364">
        <ele>1481</ele>
        <time>2013-01-12T10:16:00Z</time>
      </trkpt>
      <trkpt lat="45.57655" lon="6.07364">
        <ele>1481</ele>
        <time>2013-01-12T10:16:08Z</time>
      </trkpt>
      <trkpt lat="45.57658" lon="6.07362">
        <ele>1481</ele>
        <time>2013-01-12T10:16:12Z</time>
      </trkpt>
      <trkpt lat="45.57667" lon="6.07357">
        <ele>1487</ele>
        <time>2013-01-12T10:16:17Z</time>
      </trkpt>
      <trkpt lat="45.5767" lon="6.07357">
        <ele>1487</ele>
        <time>2013-01-12T10:16:21Z</time>
      </trkpt>
      <trkpt lat="45.57672" lon="6.07357">
        <ele>1487</ele>
        <time>2013-01-12T10:16:23Z</time>
      </trkpt>
      <trkpt lat="45.57675" lon="6.07357">
        <ele>1487</ele>
        <time>2013-01-12T10:16:26Z</time>
      </trkpt>
      <trkpt lat="45.57676" lon="6.07358">
        <ele>1487</ele>
        <time>2013-01-12T10:16:28Z</time>
      </trkpt>
      <trkpt lat="45.57679" lon="6.07359">
        <ele>1487</ele>
        <time>2013-01-12T10:16:32Z</time>
      </trkpt>
      <trkpt lat="45.57681" lon="6.0736">
        <ele>1487</ele>
        <time>2013-01-12T10:16:34Z</time>
      </trkpt>
      <trkpt lat="45.57684" lon="6.07361">
        <ele>1487</ele>
        <time>2013-01-12T10:16:38Z</time>
      </trkpt>
      <trkpt lat="45.57685" lon="6.07362">
        <ele>1487</ele>
        <time>2013-01-12T10:16:40Z</time>
      </trkpt>
      <trkpt lat="45.57688" lon="6.07363">
        <ele>1487</ele>
        <time>2013-01-12T10:16:44Z</time>
      </trkpt>
      <trkpt lat="45.57689" lon="6.07364">
        <ele>1487</ele>
        <time>2013-01-12T10:16:49Z</time>
      </trkpt>
      <trkpt lat="45.57691" lon="6.07365">
        <ele>1487</ele>
        <time>2013-01-12T10:16:52Z</time>
      </trkpt>
      <trkpt lat="45.57692" lon="6.07365">
        <ele>1487</ele>
        <time>2013-01-12T10:16:54Z</time>
      </trkpt>
      <trkpt lat="45.57694" lon="6.07366">
        <ele>1487</ele>
        <time>2013-01-12T10:16:56Z</time>
      </trkpt>
      <trkpt lat="45.57695" lon="6.07366">
        <ele>1487</ele>
        <time>2013-01-12T10:16:58Z</time>
      </trkpt>
      <trkpt lat="45.57697" lon="6.07367">
        <ele>1487</ele>
        <time>2013-01-12T10:17:00Z</time>
      </trkpt>
      <trkpt lat="45.577" lon="6.07368">
        <ele>1487</ele>
        <time>2013-01-12T10:17:06Z</time>
      </trkpt>
      <trkpt lat="45.57701" lon="6.07369">
        <ele>1487</ele>
        <time>2013-01-12T10:17:08Z</time>
      </trkpt>
      <trkpt lat="45.57702" lon="6.07369">
        <ele>1487</ele>
        <time>2013-01-12T10:17:10Z</time>
      </trkpt>
      <trkpt lat="45.57704" lon="6.07371">
        <ele>1487</ele>
        <time>2013-01-12T10:17:12Z</time>
      </trkpt>
      <trkpt lat="45.57706" lon="6.07372">
        <ele>1487</ele>
        <time>2013-01-12T10:17:14Z</time>
      </trkpt>
      <trkpt lat="45.57707" lon="6.07373">
        <ele>1487</ele>
        <time>2013-01-12T10:17:16Z</time>
      </trkpt>
      <trkpt lat="45.57709" lon="6.07374">
        <ele>1487</ele>
        <time>2013-01-12T10:17:18Z</time>
      </trkpt>
      <trkpt lat="45.57711" lon="6.07374">
        <ele>1487</ele>
        <time>2013-01-12T10:17:20Z</time>
      </trkpt>
      <trkpt lat="45.57712" lon="6.07375">
        <ele>1487</ele>
        <time>2013-01-12T10:17:22Z</time>
      </trkpt>
      <trkpt lat="45.57714" lon="6.07375">
        <ele>1487</ele>
        <time>2013-01-12T10:17:24Z</time>
      </trkpt>
      <trkpt lat="45.57717" lon="6.07376">
        <ele>1487</ele>
        <time>2013-01-12T10:17:27Z</time>
      </trkpt>
      <trkpt lat="45.57719" lon="6.07378">
        <ele>1487</ele>
        <time>2013-01-12T10:17:29Z</time>
      </trkpt>
      <trkpt lat="45.57722" lon="6.0738">
        <ele>1487</ele>
        <time>2013-01-12T10:17:33Z</time>
      </trkpt>
      <trkpt lat="45.57725" lon="6.07381">
        <ele>1487</ele>
        <time>2013-01-12T10:17:35Z</time>
      </trkpt>
      <trkpt lat="45.57728" lon="6.07381">
        <ele>1487</ele>
        <time>2013-01-12T10:17:38Z</time>
      </trkpt>
      <trkpt lat="45.57731" lon="6.07381">
        <ele>1487</ele>
        <time>2013-01-12T10:17:40Z</time>
      </trkpt>
      <trkpt lat="45.57733" lon="6.07382">
        <ele>1487</ele>
        <time>2013-01-12T10:17:42Z</time>
      </trkpt>
      <trkpt lat="45.57734" lon="6.07382">
        <ele>1487</ele>
        <time>2013-01-12T10:17:44Z</time>
      </trkpt>
      <trkpt lat="45.57736" lon="6.07382">
        <ele>1487</ele>
        <time>2013-01-12T10:17:46Z</time>
      </trkpt>
      <trkpt lat="45.57737" lon="6.07381">
        <ele>1487</ele>
        <time>2013-01-12T10:17:49Z</time>
      </trkpt>
      <trkpt lat="45.57745" lon="6.07378">
        <ele>1487</ele>
        <time>2013-01-12T10:17:56Z</time>
      </trkpt>
      <trkpt lat="45.57745" lon="6.07401">
        <ele>1486</ele>
        <time>2013-01-12T10:18:01Z</time>
      </trkpt>
      <trkpt lat="45.5775" lon="6.0741">
        <ele>1485</ele>
        <time>2013-01-12T10:18:03Z</time>
      </trkpt>
      <trkpt lat="45.57748" lon="6.07421">
        <ele>1483</ele>
        <time>2013-01-12T10:18:05Z</time>
      </trkpt>
      <trkpt lat="45.57741" lon="6.07432">
        <ele>1481</ele>
        <time>2013-01-12T10:18:07Z</time>
      </trkpt>
      <trkpt lat="45.57736" lon="6.07442">
        <ele>1479</ele>
        <time>2013-01-12T10:18:09Z</time>
      </trkpt>
      <trkpt lat="45.57737" lon="6.07457">
        <ele>1477</ele>
        <time>2013-01-12T10:18:11Z</time>
      </trkpt>
      <trkpt lat="45.5774" lon="6.07482">
        <ele>1471</ele>
        <time>2013-01-12T10:18:14Z</time>
      </trkpt>
      <trkpt lat="45.57741" lon="6.07501">
        <ele>1467</ele>
        <time>2013-01-12T10:18:16Z</time>
      </trkpt>
      <trkpt lat="45.5774" lon="6.07519">
        <ele>1463</ele>
        <time>2013-01-12T10:18:18Z</time>
      </trkpt>
      <trkpt lat="45.57738" lon="6.07535">
        <ele>1459</ele>
        <time>2013-01-12T10:18:20Z</time>
      </trkpt>
      <trkpt lat="45.5774" lon="6.07548">
        <ele>1455</ele>
        <time>2013-01-12T10:18:22Z</time>
      </trkpt>
      <trkpt lat="45.57745" lon="6.07553">
        <ele>1451</ele>
        <time>2013-01-12T10:18:24Z</time>
      </trkpt>
      <trkpt lat="45.57743" lon="6.0755">
        <ele>1438</ele>
        <time>2013-01-12T10:18:31Z</time>
      </trkpt>
      <trkpt lat="45.57743" lon="6.07552">
        <ele>1438</ele>
        <time>2013-01-12T10:18:34Z</time>
      </trkpt>
      <trkpt lat="45.57743" lon="6.07554">
        <ele>1438</ele>
        <time>2013-01-12T10:18:37Z</time>
      </trkpt>
      <trkpt lat="45.57742" lon="6.07555">
        <ele>1438</ele>
        <time>2013-01-12T10:18:39Z</time>
      </trkpt>
      <trkpt lat="45.57742" lon="6.07557">
        <ele>1438</ele>
        <time>2013-01-12T10:18:41Z</time>
      </trkpt>
      <trkpt lat="45.57741" lon="6.07559">
        <ele>1438</ele>
        <time>2013-01-12T10:18:44Z</time>
      </trkpt>
      <trkpt lat="45.5774" lon="6.0756">
        <ele>1438</ele>
        <time>2013-01-12T10:18:46Z</time>
      </trkpt>
      <trkpt lat="45.57739" lon="6.07561">
        <ele>1438</ele>
        <time>2013-01-12T10:18:49Z</time>
      </trkpt>
      <trkpt lat="45.57738" lon="6.07561">
        <ele>1438</ele>
        <time>2013-01-12T10:18:52Z</time>
      </trkpt>
      <trkpt lat="45.57743" lon="6.07554">
        <ele>1438</ele>
        <time>2013-01-12T10:18:56Z</time>
      </trkpt>
      <trkpt lat="45.57743" lon="6.07552">
        <ele>1438</ele>
        <time>2013-01-12T10:18:59Z</time>
      </trkpt>
      <trkpt lat="45.5775" lon="6.07546">
        <ele>1438</ele>
        <time>2013-01-12T10:19:03Z</time>
      </trkpt>
      <trkpt lat="45.57751" lon="6.07546">
        <ele>1438</ele>
        <time>2013-01-12T10:19:05Z</time>
      </trkpt>
      <trkpt lat="45.57752" lon="6.07546">
        <ele>1438</ele>
        <time>2013-01-12T10:19:07Z</time>
      </trkpt>
      <trkpt lat="45.57753" lon="6.07547">
        <ele>1438</ele>
        <time>2013-01-12T10:19:11Z</time>
      </trkpt>
      <trkpt lat="45.57755" lon="6.07548">
        <ele>1438</ele>
        <time>2013-01-12T10:19:15Z</time>
      </trkpt>
      <trkpt lat="45.57757" lon="6.0755">
        <ele>1437</ele>
        <time>2013-01-12T10:19:21Z</time>
      </trkpt>
      <trkpt lat="45.57767" lon="6.07564">
        <ele>1433</ele>
        <time>2013-01-12T10:19:23Z</time>
      </trkpt>
      <trkpt lat="45.57769" lon="6.0757">
        <ele>1433</ele>
        <time>2013-01-12T10:19:25Z</time>
      </trkpt>
      <trkpt lat="45.57769" lon="6.07575">
        <ele>1432</ele>
        <time>2013-01-12T10:19:27Z</time>
      </trkpt>
      <trkpt lat="45.5777" lon="6.07579">
        <ele>1432</ele>
        <time>2013-01-12T10:19:29Z</time>
      </trkpt>
      <trkpt lat="45.57771" lon="6.07583">
        <ele>1431</ele>
        <time>2013-01-12T10:19:32Z</time>
      </trkpt>
      <trkpt lat="45.57771" lon="6.07585">
        <ele>1431</ele>
        <time>2013-01-12T10:19:34Z</time>
      </trkpt>
      <trkpt lat="45.57771" lon="6.07589">
        <ele>1430</ele>
        <time>2013-01-12T10:19:36Z</time>
      </trkpt>
      <trkpt lat="45.57772" lon="6.07595">
        <ele>1430</ele>
        <time>2013-01-12T10:19:38Z</time>
      </trkpt>
      <trkpt lat="45.57772" lon="6.076">
        <ele>1429</ele>
        <time>2013-01-12T10:19:40Z</time>
      </trkpt>
      <trkpt lat="45.57774" lon="6.07609">
        <ele>1429</ele>
        <time>2013-01-12T10:19:42Z</time>
      </trkpt>
      <trkpt lat="45.5778" lon="6.07614">
        <ele>1427</ele>
        <time>2013-01-12T10:19:44Z</time>
      </trkpt>
      <trkpt lat="45.57786" lon="6.07617">
        <ele>1426</ele>
        <time>2013-01-12T10:19:46Z</time>
      </trkpt>
      <trkpt lat="45.5779" lon="6.07617">
        <ele>1424</ele>
        <time>2013-01-12T10:19:48Z</time>
      </trkpt>
      <trkpt lat="45.57791" lon="6.07625">
        <ele>1422</ele>
        <time>2013-01-12T10:19:50Z</time>
      </trkpt>
      <trkpt lat="45.57792" lon="6.07633">
        <ele>1420</ele>
        <time>2013-01-12T10:19:52Z</time>
      </trkpt>
      <trkpt lat="45.57798" lon="6.07635">
        <ele>1418</ele>
        <time>2013-01-12T10:19:54Z</time>
      </trkpt>
      <trkpt lat="45.57803" lon="6.07639">
        <ele>1416</ele>
        <time>2013-01-12T10:19:56Z</time>
      </trkpt>
      <trkpt lat="45.57804" lon="6.07647">
        <ele>1414</ele>
        <time>2013-01-12T10:19:58Z</time>
      </trkpt>
      <trkpt lat="45.5781" lon="6.07654">
        <ele>1412</ele>
        <time>2013-01-12T10:20:00Z</time>
      </trkpt>
      <trkpt lat="45.57817" lon="6.07663">
        <ele>1409</ele>
        <time>2013-01-12T10:20:02Z</time>
      </trkpt>
      <trkpt lat="45.57825" lon="6.07669">
        <ele>1405</ele>
        <time>2013-01-12T10:20:04Z</time>
      </trkpt>
      <trkpt lat="45.5783" lon="6.0767">
        <ele>1401</ele>
        <time>2013-01-12T10:20:06Z</time>
      </trkpt>
      <trkpt lat="45.57833" lon="6.07667">
        <ele>1397</ele>
        <time>2013-01-12T10:20:08Z</time>
      </trkpt>
      <trkpt lat="45.57837" lon="6.07664">
        <ele>1393</ele>
        <time>2013-01-12T10:20:10Z</time>
      </trkpt>
      <trkpt lat="45.57843" lon="6.07662">
        <ele>1389</ele>
        <time>2013-01-12T10:20:12Z</time>
      </trkpt>
      <trkpt lat="45.57852" lon="6.07663">
        <ele>1385</ele>
        <time>2013-01-12T10:20:14Z</time>
      </trkpt>
      <trkpt lat="45.57858" lon="6.07669">
        <ele>1381</ele>
        <time>2013-01-12T10:20:16Z</time>
      </trkpt>
      <trkpt lat="45.57864" lon="6.07679">
        <ele>1377</ele>
        <time>2013-01-12T10:20:18Z</time>
      </trkpt>
      <trkpt lat="45.5787" lon="6.07686">
        <ele>1373</ele>
        <time>2013-01-12T10:20:20Z</time>
      </trkpt>
      <trkpt lat="45.57869" lon="6.07683">
        <ele>1369</ele>
        <time>2013-01-12T10:20:23Z</time>
      </trkpt>
      <trkpt lat="45.57883" lon="6.07683">
        <ele>1364</ele>
        <time>2013-01-12T10:20:34Z</time>
      </trkpt>
      <trkpt lat="45.57882" lon="6.07684">
        <ele>1364</ele>
        <time>2013-01-12T10:20:40Z</time>
      </trkpt>
      <trkpt lat="45.57883" lon="6.07688">
        <ele>1364</ele>
        <time>2013-01-12T10:20:46Z</time>
      </trkpt>
      <trkpt lat="45.57884" lon="6.0769">
        <ele>1365</ele>
        <time>2013-01-12T10:20:55Z</time>
      </trkpt>
      <trkpt lat="45.57886" lon="6.07706">
        <ele>1365</ele>
        <time>2013-01-12T10:21:01Z</time>
      </trkpt>
      <trkpt lat="45.57891" lon="6.07718">
        <ele>1364</ele>
        <time>2013-01-12T10:21:03Z</time>
      </trkpt>
      <trkpt lat="45.57898" lon="6.07729">
        <ele>1363</ele>
        <time>2013-01-12T10:21:05Z</time>
      </trkpt>
      <trkpt lat="45.57906" lon="6.07739">
        <ele>1361</ele>
        <time>2013-01-12T10:21:07Z</time>
      </trkpt>
      <trkpt lat="45.57915" lon="6.07753">
        <ele>1359</ele>
        <time>2013-01-12T10:21:09Z</time>
      </trkpt>
      <trkpt lat="45.57925" lon="6.07767">
        <ele>1357</ele>
        <time>2013-01-12T10:21:11Z</time>
      </trkpt>
      <trkpt lat="45.57932" lon="6.07781">
        <ele>1353</ele>
        <time>2013-01-12T10:21:13Z</time>
      </trkpt>
      <trkpt lat="45.57937" lon="6.07791">
        <ele>1349</ele>
        <time>2013-01-12T10:21:15Z</time>
      </trkpt>
      <trkpt lat="45.57942" lon="6.07801">
        <ele>1345</ele>
        <time>2013-01-12T10:21:17Z</time>
      </trkpt>
      <trkpt lat="45.57948" lon="6.07811">
        <ele>1342</ele>
        <time>2013-01-12T10:21:19Z</time>
      </trkpt>
      <trkpt lat="45.57952" lon="6.07822">
        <ele>1338</ele>
        <time>2013-01-12T10:21:21Z</time>
      </trkpt>
      <trkpt lat="45.57955" lon="6.07833">
        <ele>1335</ele>
        <time>2013-01-12T10:21:23Z</time>
      </trkpt>
      <trkpt lat="45.57957" lon="6.07844">
        <ele>1331</ele>
        <time>2013-01-12T10:21:25Z</time>
      </trkpt>
      <trkpt lat="45.5796" lon="6.07853">
        <ele>1327</ele>
        <time>2013-01-12T10:21:27Z</time>
      </trkpt>
      <trkpt lat="45.57963" lon="6.07853">
        <ele>1324</ele>
        <time>2013-01-12T10:21:29Z</time>
      </trkpt>
      <trkpt lat="45.57965" lon="6.07856">
        <ele>1321</ele>
        <time>2013-01-12T10:21:31Z</time>
      </trkpt>
      <trkpt lat="45.57967" lon="6.07861">
        <ele>1317</ele>
        <time>2013-01-12T10:21:34Z</time>
      </trkpt>
      <trkpt lat="45.57969" lon="6.07866">
        <ele>1314</ele>
        <time>2013-01-12T10:21:37Z</time>
      </trkpt>
      <trkpt lat="45.57968" lon="6.07867">
        <ele>1309</ele>
        <time>2013-01-12T10:21:42Z</time>
      </trkpt>
      <trkpt lat="45.57967" lon="6.07869">
        <ele>1309</ele>
        <time>2013-01-12T10:21:47Z</time>
      </trkpt>
      <trkpt lat="45.57965" lon="6.07869">
        <ele>1309</ele>
        <time>2013-01-12T10:21:50Z</time>
      </trkpt>
      <trkpt lat="45.57964" lon="6.07871">
        <ele>1309</ele>
        <time>2013-01-12T10:21:52Z</time>
      </trkpt>
      <trkpt lat="45.57962" lon="6.07871">
        <ele>1310</ele>
        <time>2013-01-12T10:21:56Z</time>
      </trkpt>
      <trkpt lat="45.57961" lon="6.07872">
        <ele>1310</ele>
        <time>2013-01-12T10:22:00Z</time>
      </trkpt>
      <trkpt lat="45.57962" lon="6.07884">
        <ele>1318</ele>
        <time>2013-01-12T10:22:09Z</time>
      </trkpt>
      <trkpt lat="45.57962" lon="6.07886">
        <ele>1318</ele>
        <time>2013-01-12T10:22:12Z</time>
      </trkpt>
      <trkpt lat="45.57962" lon="6.0789">
        <ele>1318</ele>
        <time>2013-01-12T10:22:14Z</time>
      </trkpt>
      <trkpt lat="45.57961" lon="6.07895">
        <ele>1317</ele>
        <time>2013-01-12T10:22:17Z</time>
      </trkpt>
      <trkpt lat="45.57962" lon="6.07901">
        <ele>1316</ele>
        <time>2013-01-12T10:22:19Z</time>
      </trkpt>
      <trkpt lat="45.57966" lon="6.07905">
        <ele>1315</ele>
        <time>2013-01-12T10:22:21Z</time>
      </trkpt>
      <trkpt lat="45.5797" lon="6.07907">
        <ele>1313</ele>
        <time>2013-01-12T10:22:23Z</time>
      </trkpt>
      <trkpt lat="45.57974" lon="6.07908">
        <ele>1311</ele>
        <time>2013-01-12T10:22:25Z</time>
      </trkpt>
      <trkpt lat="45.57975" lon="6.07908">
        <ele>1306</ele>
        <time>2013-01-12T10:22:30Z</time>
      </trkpt>
      <trkpt lat="45.57975" lon="6.07903">
        <ele>1293</ele>
        <time>2013-01-12T10:22:36Z</time>
      </trkpt>
      <trkpt lat="45.57975" lon="6.07909">
        <ele>1292</ele>
        <time>2013-01-12T10:22:38Z</time>
      </trkpt>
      <trkpt lat="45.57976" lon="6.07914">
        <ele>1292</ele>
        <time>2013-01-12T10:22:40Z</time>
      </trkpt>
      <trkpt lat="45.57977" lon="6.0792">
        <ele>1292</ele>
        <time>2013-01-12T10:22:42Z</time>
      </trkpt>
      <trkpt lat="45.57978" lon="6.07922">
        <ele>1292</ele>
        <time>2013-01-12T10:22:44Z</time>
      </trkpt>
      <trkpt lat="45.57978" lon="6.07924">
        <ele>1292</ele>
        <time>2013-01-12T10:22:47Z</time>
      </trkpt>
      <trkpt lat="45.5798" lon="6.07924">
        <ele>1292</ele>
        <time>2013-01-12T10:22:50Z</time>
      </trkpt>
      <trkpt lat="45.57977" lon="6.07933">
        <ele>1294</ele>
        <time>2013-01-12T10:22:53Z</time>
      </trkpt>
      <trkpt lat="45.57977" lon="6.07938">
        <ele>1294</ele>
        <time>2013-01-12T10:22:55Z</time>
      </trkpt>
      <trkpt lat="45.57976" lon="6.07943">
        <ele>1294</ele>
        <time>2013-01-12T10:22:57Z</time>
      </trkpt>
      <trkpt lat="45.57973" lon="6.07946">
        <ele>1294</ele>
        <time>2013-01-12T10:22:59Z</time>
      </trkpt>
      <trkpt lat="45.5797" lon="6.07948">
        <ele>1294</ele>
        <time>2013-01-12T10:23:01Z</time>
      </trkpt>
      <trkpt lat="45.57967" lon="6.0795">
        <ele>1294</ele>
        <time>2013-01-12T10:23:03Z</time>
      </trkpt>
      <trkpt lat="45.57964" lon="6.07956">
        <ele>1294</ele>
        <time>2013-01-12T10:23:05Z</time>
      </trkpt>
      <trkpt lat="45.57966" lon="6.07963">
        <ele>1292</ele>
        <time>2013-01-12T10:23:07Z</time>
      </trkpt>
      <trkpt lat="45.57967" lon="6.07969">
        <ele>1290</ele>
        <time>2013-01-12T10:23:09Z</time>
      </trkpt>
      <trkpt lat="45.57968" lon="6.07973">
        <ele>1288</ele>
        <time>2013-01-12T10:23:11Z</time>
      </trkpt>
      <trkpt lat="45.57968" lon="6.07977">
        <ele>1288</ele>
        <time>2013-01-12T10:23:13Z</time>
      </trkpt>
      <trkpt lat="45.57968" lon="6.0798">
        <ele>1288</ele>
        <time>2013-01-12T10:23:16Z</time>
      </trkpt>
      <trkpt lat="45.57969" lon="6.07982">
        <ele>1288</ele>
        <time>2013-01-12T10:23:18Z</time>
      </trkpt>
      <trkpt lat="45.5797" lon="6.07984">
        <ele>1288</ele>
        <time>2013-01-12T10:23:20Z</time>
      </trkpt>
      <trkpt lat="45.57972" lon="6.07988">
        <ele>1288</ele>
        <time>2013-01-12T10:23:22Z</time>
      </trkpt>
      <trkpt lat="45.57976" lon="6.07989">
        <ele>1287</ele>
        <time>2013-01-12T10:23:24Z</time>
      </trkpt>
      <trkpt lat="45.5798" lon="6.07991">
        <ele>1285</ele>
        <time>2013-01-12T10:23:26Z</time>
      </trkpt>
      <trkpt lat="45.57983" lon="6.07993">
        <ele>1283</ele>
        <time>2013-01-12T10:23:28Z</time>
      </trkpt>
      <trkpt lat="45.57984" lon="6.07994">
        <ele>1281</ele>
        <time>2013-01-12T10:23:30Z</time>
      </trkpt>
      <trkpt lat="45.57987" lon="6.07995">
        <ele>1280</ele>
        <time>2013-01-12T10:23:35Z</time>
      </trkpt>
      <trkpt lat="45.5799" lon="6.07997">
        <ele>1280</ele>
        <time>2013-01-12T10:23:41Z</time>
      </trkpt>
      <trkpt lat="45.57988" lon="6.07998">
        <ele>1280</ele>
        <time>2013-01-12T10:23:44Z</time>
      </trkpt>
      <trkpt lat="45.57988" lon="6.08">
        <ele>1280</ele>
        <time>2013-01-12T10:23:46Z</time>
      </trkpt>
      <trkpt lat="45.57987" lon="6.08006">
        <ele>1278</ele>
        <time>2013-01-12T10:23:48Z</time>
      </trkpt>
      <trkpt lat="45.57988" lon="6.08013">
        <ele>1276</ele>
        <time>2013-01-12T10:23:50Z</time>
      </trkpt>
      <trkpt lat="45.57991" lon="6.08018">
        <ele>1274</ele>
        <time>2013-01-12T10:23:52Z</time>
      </trkpt>
      <trkpt lat="45.57995" lon="6.08023">
        <ele>1273</ele>
        <time>2013-01-12T10:23:54Z</time>
      </trkpt>
      <trkpt lat="45.57999" lon="6.08029">
        <ele>1271</ele>
        <time>2013-01-12T10:23:56Z</time>
      </trkpt>
      <trkpt lat="45.58001" lon="6.08042">
        <ele>1269</ele>
        <time>2013-01-12T10:23:58Z</time>
      </trkpt>
      <trkpt lat="45.57996" lon="6.08057">
        <ele>1267</ele>
        <time>2013-01-12T10:24:00Z</time>
      </trkpt>
      <trkpt lat="45.57985" lon="6.08063">
        <ele>1265</ele>
        <time>2013-01-12T10:24:02Z</time>
      </trkpt>
      <trkpt lat="45.57973" lon="6.0806">
        <ele>1263</ele>
        <time>2013-01-12T10:24:04Z</time>
      </trkpt>
      <trkpt lat="45.57964" lon="6.0806">
        <ele>1261</ele>
        <time>2013-01-12T10:24:06Z</time>
      </trkpt>
      <trkpt lat="45.57957" lon="6.0806">
        <ele>1259</ele>
        <time>2013-01-12T10:24:08Z</time>
      </trkpt>
      <trkpt lat="45.57954" lon="6.0806">
        <ele>1259</ele>
        <time>2013-01-12T10:24:13Z</time>
      </trkpt>
      <trkpt lat="45.5796" lon="6.08054">
        <ele>1268</ele>
        <time>2013-01-12T10:24:15Z</time>
      </trkpt>
      <trkpt lat="45.57959" lon="6.08052">
        <ele>1267</ele>
        <time>2013-01-12T10:24:20Z</time>
      </trkpt>
      <trkpt lat="45.57957" lon="6.08053">
        <ele>1267</ele>
        <time>2013-01-12T10:24:22Z</time>
      </trkpt>
      <trkpt lat="45.57953" lon="6.08058">
        <ele>1267</ele>
        <time>2013-01-12T10:24:27Z</time>
      </trkpt>
      <trkpt lat="45.57952" lon="6.08059">
        <ele>1267</ele>
        <time>2013-01-12T10:24:29Z</time>
      </trkpt>
      <trkpt lat="45.57956" lon="6.08055">
        <ele>1267</ele>
        <time>2013-01-12T10:24:33Z</time>
      </trkpt>
      <trkpt lat="45.57956" lon="6.08053">
        <ele>1267</ele>
        <time>2013-01-12T10:24:38Z</time>
      </trkpt>
      <trkpt lat="45.57954" lon="6.08058">
        <ele>1267</ele>
        <time>2013-01-12T10:24:41Z</time>
      </trkpt>
      <trkpt lat="45.57961" lon="6.08052">
        <ele>1267</ele>
        <time>2013-01-12T10:24:47Z</time>
      </trkpt>
      <trkpt lat="45.57962" lon="6.08051">
        <ele>1267</ele>
        <time>2013-01-12T10:24:49Z</time>
      </trkpt>
      <trkpt lat="45.5796" lon="6.08058">
        <ele>1267</ele>
        <time>2013-01-12T10:24:55Z</time>
      </trkpt>
      <trkpt lat="45.57958" lon="6.0806">
        <ele>1267</ele>
        <time>2013-01-12T10:24:59Z</time>
      </trkpt>
      <trkpt lat="45.57956" lon="6.08062">
        <ele>1267</ele>
        <time>2013-01-12T10:25:01Z</time>
      </trkpt>
      <trkpt lat="45.57958" lon="6.0806">
        <ele>1267</ele>
        <time>2013-01-12T10:25:06Z</time>
      </trkpt>
      <trkpt lat="45.5796" lon="6.08055">
        <ele>1268</ele>
        <time>2013-01-12T10:25:08Z</time>
      </trkpt>
      <trkpt lat="45.57959" lon="6.08056">
        <ele>1268</ele>
        <time>2013-01-12T10:25:10Z</time>
      </trkpt>
      <trkpt lat="45.57957" lon="6.08057">
        <ele>1268</ele>
        <time>2013-01-12T10:25:12Z</time>
      </trkpt>
      <trkpt lat="45.5796" lon="6.08051">
        <ele>1268</ele>
        <time>2013-01-12T10:25:15Z</time>
      </trkpt>
      <trkpt lat="45.57959" lon="6.08054">
        <ele>1269</ele>
        <time>2013-01-12T10:25:23Z</time>
      </trkpt>
      <trkpt lat="45.57958" lon="6.08053">
        <ele>1268</ele>
        <time>2013-01-12T10:25:28Z</time>
      </trkpt>
      <trkpt lat="45.57953" lon="6.08055">
        <ele>1265</ele>
        <time>2013-01-12T10:25:34Z</time>
      </trkpt>
      <trkpt lat="45.57951" lon="6.08056">
        <ele>1265</ele>
        <time>2013-01-12T10:25:36Z</time>
      </trkpt>
      <trkpt lat="45.5795" lon="6.08057">
        <ele>1265</ele>
        <time>2013-01-12T10:25:39Z</time>
      </trkpt>
      <trkpt lat="45.57949" lon="6.08055">
        <ele>1265</ele>
        <time>2013-01-12T10:25:41Z</time>
      </trkpt>
      <trkpt lat="45.57948" lon="6.08054">
        <ele>1265</ele>
        <time>2013-01-12T10:25:43Z</time>
      </trkpt>
      <trkpt lat="45.57946" lon="6.08052">
        <ele>1265</ele>
        <time>2013-01-12T10:25:45Z</time>
      </trkpt>
      <trkpt lat="45.57943" lon="6.08047">
        <ele>1265</ele>
        <time>2013-01-12T10:25:47Z</time>
      </trkpt>
      <trkpt lat="45.5794" lon="6.08043">
        <ele>1264</ele>
        <time>2013-01-12T10:25:49Z</time>
      </trkpt>
      <trkpt lat="45.57935" lon="6.08039">
        <ele>1264</ele>
        <time>2013-01-12T10:25:51Z</time>
      </trkpt>
      <trkpt lat="45.57931" lon="6.08034">
        <ele>1263</ele>
        <time>2013-01-12T10:25:53Z</time>
      </trkpt>
      <trkpt lat="45.57927" lon="6.08028">
        <ele>1262</ele>
        <time>2013-01-12T10:25:55Z</time>
      </trkpt>
      <trkpt lat="45.57922" lon="6.08023">
        <ele>1260</ele>
        <time>2013-01-12T10:25:57Z</time>
      </trkpt>
      <trkpt lat="45.5792" lon="6.08024">
        <ele>1258</ele>
        <time>2013-01-12T10:25:59Z</time>
      </trkpt>
      <trkpt lat="45.57916" lon="6.08019">
        <ele>1253</ele>
        <time>2013-01-12T10:26:09Z</time>
      </trkpt>
      <trkpt lat="45.57911" lon="6.08017">
        <ele>1253</ele>
        <time>2013-01-12T10:26:11Z</time>
      </trkpt>
      <trkpt lat="45.57906" lon="6.08011">
        <ele>1253</ele>
        <time>2013-01-12T10:26:13Z</time>
      </trkpt>
      <trkpt lat="45.57898" lon="6.08007">
        <ele>1253</ele>
        <time>2013-01-12T10:26:15Z</time>
      </trkpt>
      <trkpt lat="45.57888" lon="6.08003">
        <ele>1253</ele>
        <time>2013-01-12T10:26:17Z</time>
      </trkpt>
      <trkpt lat="45.57874" lon="6.08003">
        <ele>1254</ele>
        <time>2013-01-12T10:26:19Z</time>
      </trkpt>
      <trkpt lat="45.57864" lon="6.08004">
        <ele>1256</ele>
        <time>2013-01-12T10:26:21Z</time>
      </trkpt>
      <trkpt lat="45.5786" lon="6.08013">
        <ele>1257</ele>
        <time>2013-01-12T10:26:23Z</time>
      </trkpt>
      <trkpt lat="45.57858" lon="6.08024">
        <ele>1257</ele>
        <time>2013-01-12T10:26:25Z</time>
      </trkpt>
      <trkpt lat="45.57857" lon="6.08035">
        <ele>1257</ele>
        <time>2013-01-12T10:26:27Z</time>
      </trkpt>
      <trkpt lat="45.57854" lon="6.08047">
        <ele>1256</ele>
        <time>2013-01-12T10:26:29Z</time>
      </trkpt>
      <trkpt lat="45.57851" lon="6.08059">
        <ele>1254</ele>
        <time>2013-01-12T10:26:31Z</time>
      </trkpt>
      <trkpt lat="45.57847" lon="6.08071">
        <ele>1252</ele>
        <time>2013-01-12T10:26:33Z</time>
      </trkpt>
      <trkpt lat="45.57843" lon="6.08082">
        <ele>1250</ele>
        <time>2013-01-12T10:26:35Z</time>
      </trkpt>
      <trkpt lat="45.57838" lon="6.08093">
        <ele>1248</ele>
        <time>2013-01-12T10:26:37Z</time>
      </trkpt>
      <trkpt lat="45.57832" lon="6.08103">
        <ele>1245</ele>
        <time>2013-01-12T10:26:39Z</time>
      </trkpt>
      <trkpt lat="45.57826" lon="6.08111">
        <ele>1243</ele>
        <time>2013-01-12T10:26:41Z</time>
      </trkpt>
      <trkpt lat="45.57818" lon="6.08118">
        <ele>1241</ele>
        <time>2013-01-12T10:26:43Z</time>
      </trkpt>
      <trkpt lat="45.57809" lon="6.08123">
        <ele>1239</ele>
        <time>2013-01-12T10:26:45Z</time>
      </trkpt>
      <trkpt lat="45.578" lon="6.08128">
        <ele>1237</ele>
        <time>2013-01-12T10:26:47Z</time>
      </trkpt>
      <trkpt lat="45.5779" lon="6.08131">
        <ele>1235</ele>
        <time>2013-01-12T10:26:49Z</time>
      </trkpt>
      <trkpt lat="45.57779" lon="6.08131">
        <ele>1233</ele>
        <time>2013-01-12T10:26:51Z</time>
      </trkpt>
      <trkpt lat="45.57768" lon="6.0813">
        <ele>1231</ele>
        <time>2013-01-12T10:26:53Z</time>
      </trkpt>
      <trkpt lat="45.57757" lon="6.08126">
        <ele>1229</ele>
        <time>2013-01-12T10:26:55Z</time>
      </trkpt>
      <trkpt lat="45.57745" lon="6.08122">
        <ele>1227</ele>
        <time>2013-01-12T10:26:57Z</time>
      </trkpt>
      <trkpt lat="45.57732" lon="6.08118">
        <ele>1225</ele>
        <time>2013-01-12T10:26:59Z</time>
      </trkpt>
      <trkpt lat="45.57721" lon="6.08111">
        <ele>1224</ele>
        <time>2013-01-12T10:27:01Z</time>
      </trkpt>
      <trkpt lat="45.57712" lon="6.081">
        <ele>1224</ele>
        <time>2013-01-12T10:27:03Z</time>
      </trkpt>
      <trkpt lat="45.57704" lon="6.08089">
        <ele>1224</ele>
        <time>2013-01-12T10:27:05Z</time>
      </trkpt>
      <trkpt lat="45.57695" lon="6.0808">
        <ele>1224</ele>
        <time>2013-01-12T10:27:07Z</time>
      </trkpt>
      <trkpt lat="45.57685" lon="6.08072">
        <ele>1223</ele>
        <time>2013-01-12T10:27:09Z</time>
      </trkpt>
      <trkpt lat="45.57676" lon="6.08067">
        <ele>1221</ele>
        <time>2013-01-12T10:27:11Z</time>
      </trkpt>
      <trkpt lat="45.57667" lon="6.08064">
        <ele>1220</ele>
        <time>2013-01-12T10:27:13Z</time>
      </trkpt>
      <trkpt lat="45.5766" lon="6.08065">
        <ele>1219</ele>
        <time>2013-01-12T10:27:15Z</time>
      </trkpt>
      <trkpt lat="45.57654" lon="6.0807">
        <ele>1218</ele>
        <time>2013-01-12T10:27:17Z</time>
      </trkpt>
      <trkpt lat="45.5765" lon="6.08071">
        <ele>1216</ele>
        <time>2013-01-12T10:27:20Z</time>
      </trkpt>
      <trkpt lat="45.57645" lon="6.08073">
        <ele>1215</ele>
        <time>2013-01-12T10:27:22Z</time>
      </trkpt>
      <trkpt lat="45.57642" lon="6.08075">
        <ele>1215</ele>
        <time>2013-01-12T10:27:24Z</time>
      </trkpt>
      <trkpt lat="45.57637" lon="6.08075">
        <ele>1214</ele>
        <time>2013-01-12T10:27:26Z</time>
      </trkpt>
      <trkpt lat="45.5763" lon="6.08074">
        <ele>1213</ele>
        <time>2013-01-12T10:27:28Z</time>
      </trkpt>
      <trkpt lat="45.57622" lon="6.08075">
        <ele>1211</ele>
        <time>2013-01-12T10:27:30Z</time>
      </trkpt>
      <trkpt lat="45.57613" lon="6.08077">
        <ele>1209</ele>
        <time>2013-01-12T10:27:32Z</time>
      </trkpt>
      <trkpt lat="45.57602" lon="6.08081">
        <ele>1207</ele>
        <time>2013-01-12T10:27:34Z</time>
      </trkpt>
      <trkpt lat="45.57592" lon="6.08083">
        <ele>1205</ele>
        <time>2013-01-12T10:27:36Z</time>
      </trkpt>
      <trkpt lat="45.57583" lon="6.08084">
        <ele>1204</ele>
        <time>2013-01-12T10:27:38Z</time>
      </trkpt>
      <trkpt lat="45.57573" lon="6.08086">
        <ele>1202</ele>
        <time>2013-01-12T10:27:40Z</time>
      </trkpt>
      <trkpt lat="45.57562" lon="6.08088">
        <ele>1201</ele>
        <time>2013-01-12T10:27:42Z</time>
      </trkpt>
      <trkpt lat="45.57551" lon="6.08088">
        <ele>1200</ele>
        <time>2013-01-12T10:27:44Z</time>
      </trkpt>
      <trkpt lat="45.57542" lon="6.08086">
        <ele>1200</ele>
        <time>2013-01-12T10:27:46Z</time>
      </trkpt>
      <trkpt lat="45.57532" lon="6.08084">
        <ele>1200</ele>
        <time>2013-01-12T10:27:48Z</time>
      </trkpt>
      <trkpt lat="45.57523" lon="6.08083">
        <ele>1199</ele>
        <time>2013-01-12T10:27:50Z</time>
      </trkpt>
      <trkpt lat="45.57513" lon="6.08082">
        <ele>1199</ele>
        <time>2013-01-12T10:27:52Z</time>
      </trkpt>
      <trkpt lat="45.57505" lon="6.08079">
        <ele>1197</ele>
        <time>2013-01-12T10:27:54Z</time>
      </trkpt>
      <trkpt lat="45.57496" lon="6.08077">
        <ele>1195</ele>
        <time>2013-01-12T10:27:56Z</time>
      </trkpt>
      <trkpt lat="45.57486" lon="6.08076">
        <ele>1193</ele>
        <time>2013-01-12T10:27:58Z</time>
      </trkpt>
      <trkpt lat="45.57477" lon="6.0807">
        <ele>1191</ele>
        <time>2013-01-12T10:28:00Z</time>
      </trkpt>
      <trkpt lat="45.57469" lon="6.08061">
        <ele>1189</ele>
        <time>2013-01-12T10:28:02Z</time>
      </trkpt>
      <trkpt lat="45.57463" lon="6.08048">
        <ele>1187</ele>
        <time>2013-01-12T10:28:04Z</time>
      </trkpt>
      <trkpt lat="45.57458" lon="6.08035">
        <ele>1185</ele>
        <time>2013-01-12T10:28:06Z</time>
      </trkpt>
      <trkpt lat="45.57455" lon="6.0802">
        <ele>1185</ele>
        <time>2013-01-12T10:28:08Z</time>
      </trkpt>
      <trkpt lat="45.5745" lon="6.0801">
        <ele>1185</ele>
        <time>2013-01-12T10:28:10Z</time>
      </trkpt>
      <trkpt lat="45.5744" lon="6.0802">
        <ele>1184</ele>
        <time>2013-01-12T10:28:12Z</time>
      </trkpt>
      <trkpt lat="45.57436" lon="6.08025">
        <ele>1184</ele>
        <time>2013-01-12T10:28:14Z</time>
      </trkpt>
      <trkpt lat="45.57431" lon="6.08029">
        <ele>1183</ele>
        <time>2013-01-12T10:28:16Z</time>
      </trkpt>
      <trkpt lat="45.57428" lon="6.08032">
        <ele>1182</ele>
        <time>2013-01-12T10:28:18Z</time>
      </trkpt>
      <trkpt lat="45.57423" lon="6.08034">
        <ele>1181</ele>
        <time>2013-01-12T10:28:20Z</time>
      </trkpt>
      <trkpt lat="45.57415" lon="6.0804">
        <ele>1181</ele>
        <time>2013-01-12T10:28:22Z</time>
      </trkpt>
      <trkpt lat="45.57409" lon="6.08045">
        <ele>1181</ele>
        <time>2013-01-12T10:28:24Z</time>
      </trkpt>
      <trkpt lat="45.57403" lon="6.08052">
        <ele>1181</ele>
        <time>2013-01-12T10:28:26Z</time>
      </trkpt>
      <trkpt lat="45.57397" lon="6.08058">
        <ele>1181</ele>
        <time>2013-01-12T10:28:28Z</time>
      </trkpt>
      <trkpt lat="45.57391" lon="6.08065">
        <ele>1179</ele>
        <time>2013-01-12T10:28:30Z</time>
      </trkpt>
      <trkpt lat="45.57382" lon="6.0807">
        <ele>1177</ele>
        <time>2013-01-12T10:28:32Z</time>
      </trkpt>
      <trkpt lat="45.57373" lon="6.08073">
        <ele>1175</ele>
        <time>2013-01-12T10:28:34Z</time>
      </trkpt>
      <trkpt lat="45.57362" lon="6.08074">
        <ele>1173</ele>
        <time>2013-01-12T10:28:36Z</time>
      </trkpt>
      <trkpt lat="45.57351" lon="6.08079">
        <ele>1171</ele>
        <time>2013-01-12T10:28:38Z</time>
      </trkpt>
      <trkpt lat="45.57338" lon="6.08079">
        <ele>1169</ele>
        <time>2013-01-12T10:28:40Z</time>
      </trkpt>
      <trkpt lat="45.57323" lon="6.08078">
        <ele>1169</ele>
        <time>2013-01-12T10:28:42Z</time>
      </trkpt>
      <trkpt lat="45.57312" lon="6.0807">
        <ele>1167</ele>
        <time>2013-01-12T10:28:44Z</time>
      </trkpt>
      <trkpt lat="45.57299" lon="6.08063">
        <ele>1165</ele>
        <time>2013-01-12T10:28:46Z</time>
      </trkpt>
      <trkpt lat="45.57288" lon="6.08055">
        <ele>1163</ele>
        <time>2013-01-12T10:28:48Z</time>
      </trkpt>
      <trkpt lat="45.57281" lon="6.08043">
        <ele>1161</ele>
        <time>2013-01-12T10:28:50Z</time>
      </trkpt>
      <trkpt lat="45.57276" lon="6.08029">
        <ele>1159</ele>
        <time>2013-01-12T10:28:52Z</time>
      </trkpt>
      <trkpt lat="45.57274" lon="6.08016">
        <ele>1157</ele>
        <time>2013-01-12T10:28:54Z</time>
      </trkpt>
      <trkpt lat="45.57273" lon="6.08003">
        <ele>1156</ele>
        <time>2013-01-12T10:28:56Z</time>
      </trkpt>
      <trkpt lat="45.57272" lon="6.07993">
        <ele>1154</ele>
        <time>2013-01-12T10:28:58Z</time>
      </trkpt>
      <trkpt lat="45.57268" lon="6.07983">
        <ele>1153</ele>
        <time>2013-01-12T10:29:00Z</time>
      </trkpt>
      <trkpt lat="45.57266" lon="6.07971">
        <ele>1152</ele>
        <time>2013-01-12T10:29:02Z</time>
      </trkpt>
      <trkpt lat="45.57264" lon="6.0796">
        <ele>1152</ele>
        <time>2013-01-12T10:29:04Z</time>
      </trkpt>
      <trkpt lat="45.57263" lon="6.07952">
        <ele>1152</ele>
        <time>2013-01-12T10:29:06Z</time>
      </trkpt>
      <trkpt lat="45.57261" lon="6.07948">
        <ele>1152</ele>
        <time>2013-01-12T10:29:08Z</time>
      </trkpt>
      <trkpt lat="45.57261" lon="6.07944">
        <ele>1152</ele>
        <time>2013-01-12T10:29:12Z</time>
      </trkpt>
      <trkpt lat="45.57256" lon="6.07947">
        <ele>1152</ele>
        <time>2013-01-12T10:29:15Z</time>
      </trkpt>
      <trkpt lat="45.57253" lon="6.07949">
        <ele>1154</ele>
        <time>2013-01-12T10:29:18Z</time>
      </trkpt>
      <trkpt lat="45.57251" lon="6.07949">
        <ele>1155</ele>
        <time>2013-01-12T10:29:20Z</time>
      </trkpt>
      <trkpt lat="45.57248" lon="6.07949">
        <ele>1157</ele>
        <time>2013-01-12T10:29:22Z</time>
      </trkpt>
      <trkpt lat="45.57245" lon="6.07951">
        <ele>1158</ele>
        <time>2013-01-12T10:29:24Z</time>
      </trkpt>
      <trkpt lat="45.57242" lon="6.07952">
        <ele>1160</ele>
        <time>2013-01-12T10:29:26Z</time>
      </trkpt>
      <trkpt lat="45.57239" lon="6.07953">
        <ele>1164</ele>
        <time>2013-01-12T10:29:30Z</time>
      </trkpt>
      <trkpt lat="45.57236" lon="6.07955">
        <ele>1167</ele>
        <time>2013-01-12T10:29:33Z</time>
      </trkpt>
      <trkpt lat="45.57235" lon="6.07957">
        <ele>1168</ele>
        <time>2013-01-12T10:29:35Z</time>
      </trkpt>
      <trkpt lat="45.57232" lon="6.07961">
        <ele>1169</ele>
        <time>2013-01-12T10:29:37Z</time>
      </trkpt>
      <trkpt lat="45.57232" lon="6.07962">
        <ele>1171</ele>
        <time>2013-01-12T10:29:39Z</time>
      </trkpt>
      <trkpt lat="45.57231" lon="6.07965">
        <ele>1172</ele>
        <time>2013-01-12T10:29:43Z</time>
      </trkpt>
      <trkpt lat="45.57232" lon="6.07966">
        <ele>1172</ele>
        <time>2013-01-12T10:29:46Z</time>
      </trkpt>
      <trkpt lat="45.57233" lon="6.0797">
        <ele>1173</ele>
        <time>2013-01-12T10:29:49Z</time>
      </trkpt>
      <trkpt lat="45.57234" lon="6.07972">
        <ele>1174</ele>
        <time>2013-01-12T10:29:52Z</time>
      </trkpt>
      <trkpt lat="45.57235" lon="6.07972">
        <ele>1175</ele>
        <time>2013-01-12T10:29:54Z</time>
      </trkpt>
      <trkpt lat="45.57236" lon="6.07973">
        <ele>1175</ele>
        <time>2013-01-12T10:29:56Z</time>
      </trkpt>
      <trkpt lat="45.57238" lon="6.07974">
        <ele>1175</ele>
        <time>2013-01-12T10:29:59Z</time>
      </trkpt>
      <trkpt lat="45.57239" lon="6.07974">
        <ele>1175</ele>
        <time>2013-01-12T10:30:01Z</time>
      </trkpt>
      <trkpt lat="45.57241" lon="6.07971">
        <ele>1175</ele>
        <time>2013-01-12T10:30:04Z</time>
      </trkpt>
      <trkpt lat="45.57242" lon="6.0797">
        <ele>1175</ele>
        <time>2013-01-12T10:30:06Z</time>
      </trkpt>
      <trkpt lat="45.57241" lon="6.07968">
        <ele>1172</ele>
        <time>2013-01-12T10:30:10Z</time>
      </trkpt>
      <trkpt lat="45.57244" lon="6.07978">
        <ele>1165</ele>
        <time>2013-01-12T10:30:15Z</time>
      </trkpt>
      <trkpt lat="45.57246" lon="6.07981">
        <ele>1165</ele>
        <time>2013-01-12T10:30:17Z</time>
      </trkpt>
      <trkpt lat="45.57248" lon="6.07983">
        <ele>1165</ele>
        <time>2013-01-12T10:30:19Z</time>
      </trkpt>
      <trkpt lat="45.57248" lon="6.07985">
        <ele>1165</ele>
        <time>2013-01-12T10:30:21Z</time>
      </trkpt>
      <trkpt lat="45.57244" lon="6.07985">
        <ele>1165</ele>
        <time>2013-01-12T10:30:25Z</time>
      </trkpt>
      <trkpt lat="45.57245" lon="6.07986">
        <ele>1165</ele>
        <time>2013-01-12T10:30:27Z</time>
      </trkpt>
      <trkpt lat="45.57246" lon="6.07987">
        <ele>1165</ele>
        <time>2013-01-12T10:30:29Z</time>
      </trkpt>
      <trkpt lat="45.57246" lon="6.07988">
        <ele>1165</ele>
        <time>2013-01-12T10:30:31Z</time>
      </trkpt>
      <trkpt lat="45.57246" lon="6.0799">
        <ele>1165</ele>
        <time>2013-01-12T10:30:33Z</time>
      </trkpt>
      <trkpt lat="45.57244" lon="6.0799">
        <ele>1165</ele>
        <time>2013-01-12T10:30:35Z</time>
      </trkpt>
      <trkpt lat="45.57243" lon="6.0799">
        <ele>1165</ele>
        <time>2013-01-12T10:30:37Z</time>
      </trkpt>
      <trkpt lat="45.57242" lon="6.07992">
        <ele>1165</ele>
        <time>2013-01-12T10:30:43Z</time>
      </trkpt>
      <trkpt lat="45.57241" lon="6.07993">
        <ele>1165</ele>
        <time>2013-01-12T10:30:46Z</time>
      </trkpt>
      <trkpt lat="45.57239" lon="6.07994">
        <ele>1165</ele>
        <time>2013-01-12T10:30:49Z</time>
      </trkpt>
      <trkpt lat="45.57236" lon="6.07995">
        <ele>1165</ele>
        <time>2013-01-12T10:30:51Z</time>
      </trkpt>
      <trkpt lat="45.57235" lon="6.07994">
        <ele>1165</ele>
        <time>2013-01-12T10:30:53Z</time>
      </trkpt>
      <trkpt lat="45.57237" lon="6.08002">
        <ele>1164</ele>
        <time>2013-01-12T10:31:01Z</time>
      </trkpt>
      <trkpt lat="45.57237" lon="6.08003">
        <ele>1164</ele>
        <time>2013-01-12T10:31:04Z</time>
      </trkpt>
      <trkpt lat="45.57236" lon="6.08005">
        <ele>1164</ele>
        <time>2013-01-12T10:31:08Z</time>
      </trkpt>
      <trkpt lat="45.57236" lon="6.08007">
        <ele>1164</ele>
        <time>2013-01-12T10:31:11Z</time>
      </trkpt>
      <trkpt lat="45.57235" lon="6.08009">
        <ele>1164</ele>
        <time>2013-01-12T10:31:14Z</time>
      </trkpt>
      <trkpt lat="45.57234" lon="6.08011">
        <ele>1164</ele>
        <time>2013-01-12T10:31:18Z</time>
      </trkpt>
      <trkpt lat="45.57233" lon="6.08012">
        <ele>1164</ele>
        <time>2013-01-12T10:31:21Z</time>
      </trkpt>
      <trkpt lat="45.57232" lon="6.08014">
        <ele>1164</ele>
        <time>2013-01-12T10:31:24Z</time>
      </trkpt>
      <trkpt lat="45.5723" lon="6.08015">
        <ele>1164</ele>
        <time>2013-01-12T10:31:27Z</time>
      </trkpt>
      <trkpt lat="45.5723" lon="6.08017">
        <ele>1164</ele>
        <time>2013-01-12T10:31:30Z</time>
      </trkpt>
      <trkpt lat="45.57227" lon="6.08018">
        <ele>1164</ele>
        <time>2013-01-12T10:31:33Z</time>
      </trkpt>
      <trkpt lat="45.57225" lon="6.0802">
        <ele>1164</ele>
        <time>2013-01-12T10:31:36Z</time>
      </trkpt>
      <trkpt lat="45.57224" lon="6.08021">
        <ele>1164</ele>
        <time>2013-01-12T10:31:38Z</time>
      </trkpt>
      <trkpt lat="45.57222" lon="6.08023">
        <ele>1164</ele>
        <time>2013-01-12T10:31:42Z</time>
      </trkpt>
      <trkpt lat="45.5722" lon="6.08024">
        <ele>1164</ele>
        <time>2013-01-12T10:31:46Z</time>
      </trkpt>
      <trkpt lat="45.5722" lon="6.08026">
        <ele>1164</ele>
        <time>2013-01-12T10:31:49Z</time>
      </trkpt>
      <trkpt lat="45.57219" lon="6.08027">
        <ele>1164</ele>
        <time>2013-01-12T10:31:51Z</time>
      </trkpt>
      <trkpt lat="45.57218" lon="6.08029">
        <ele>1164</ele>
        <time>2013-01-12T10:31:54Z</time>
      </trkpt>
      <trkpt lat="45.57217" lon="6.08031">
        <ele>1163</ele>
        <time>2013-01-12T10:31:57Z</time>
      </trkpt>
      <trkpt lat="45.57214" lon="6.08035">
        <ele>1163</ele>
        <time>2013-01-12T10:32:02Z</time>
      </trkpt>
      <trkpt lat="45.57213" lon="6.08036">
        <ele>1163</ele>
        <time>2013-01-12T10:32:04Z</time>
      </trkpt>
      <trkpt lat="45.57212" lon="6.08037">
        <ele>1163</ele>
        <time>2013-01-12T10:32:07Z</time>
      </trkpt>
      <trkpt lat="45.57209" lon="6.08041">
        <ele>1163</ele>
        <time>2013-01-12T10:32:12Z</time>
      </trkpt>
      <trkpt lat="45.57209" lon="6.08042">
        <ele>1163</ele>
        <time>2013-01-12T10:32:14Z</time>
      </trkpt>
      <trkpt lat="45.57207" lon="6.08044">
        <ele>1162</ele>
        <time>2013-01-12T10:32:16Z</time>
      </trkpt>
      <trkpt lat="45.57207" lon="6.08046">
        <ele>1162</ele>
        <time>2013-01-12T10:32:18Z</time>
      </trkpt>
      <trkpt lat="45.57206" lon="6.08048">
        <ele>1162</ele>
        <time>2013-01-12T10:32:20Z</time>
      </trkpt>
      <trkpt lat="45.57205" lon="6.0805">
        <ele>1162</ele>
        <time>2013-01-12T10:32:22Z</time>
      </trkpt>
      <trkpt lat="45.57205" lon="6.08051">
        <ele>1162</ele>
        <time>2013-01-12T10:32:24Z</time>
      </trkpt>
      <trkpt lat="45.57203" lon="6.08054">
        <ele>1162</ele>
        <time>2013-01-12T10:32:28Z</time>
      </trkpt>
      <trkpt lat="45.57201" lon="6.08056">
        <ele>1161</ele>
        <time>2013-01-12T10:32:31Z</time>
      </trkpt>
      <trkpt lat="45.57198" lon="6.08057">
        <ele>1161</ele>
        <time>2013-01-12T10:32:34Z</time>
      </trkpt>
      <trkpt lat="45.57197" lon="6.08058">
        <ele>1161</ele>
        <time>2013-01-12T10:32:36Z</time>
      </trkpt>
      <trkpt lat="45.57195" lon="6.0806">
        <ele>1161</ele>
        <time>2013-01-12T10:32:40Z</time>
      </trkpt>
      <trkpt lat="45.57194" lon="6.08059">
        <ele>1161</ele>
        <time>2013-01-12T10:32:42Z</time>
      </trkpt>
      <trkpt lat="45.57191" lon="6.08062">
        <ele>1161</ele>
        <time>2013-01-12T10:32:46Z</time>
      </trkpt>
      <trkpt lat="45.5719" lon="6.08063">
        <ele>1161</ele>
        <time>2013-01-12T10:32:48Z</time>
      </trkpt>
      <trkpt lat="45.57188" lon="6.08064">
        <ele>1161</ele>
        <time>2013-01-12T10:32:50Z</time>
      </trkpt>
      <trkpt lat="45.57187" lon="6.08064">
        <ele>1161</ele>
        <time>2013-01-12T10:32:53Z</time>
      </trkpt>
      <trkpt lat="45.5719" lon="6.08063">
        <ele>1161</ele>
        <time>2013-01-12T10:32:57Z</time>
      </trkpt>
      <trkpt lat="45.57189" lon="6.0806">
        <ele>1161</ele>
        <time>2013-01-12T10:33:00Z</time>
      </trkpt>
      <trkpt lat="45.57182" lon="6.08065">
        <ele>1159</ele>
        <time>2013-01-12T10:33:06Z</time>
      </trkpt>
      <trkpt lat="45.57179" lon="6.08067">
        <ele>1160</ele>
        <time>2013-01-12T10:33:09Z</time>
      </trkpt>
      <trkpt lat="45.57175" lon="6.08067">
        <ele>1160</ele>
        <time>2013-01-12T10:33:11Z</time>
      </trkpt>
      <trkpt lat="45.57171" lon="6.08069">
        <ele>1160</ele>
        <time>2013-01-12T10:33:14Z</time>
      </trkpt>
      <trkpt lat="45.57168" lon="6.0807">
        <ele>1160</ele>
        <time>2013-01-12T10:33:16Z</time>
      </trkpt>
      <trkpt lat="45.5716" lon="6.08074">
        <ele>1160</ele>
        <time>2013-01-12T10:33:19Z</time>
      </trkpt>
      <trkpt lat="45.57154" lon="6.08075">
        <ele>1160</ele>
        <time>2013-01-12T10:33:21Z</time>
      </trkpt>
      <trkpt lat="45.57145" lon="6.08077">
        <ele>1158</ele>
        <time>2013-01-12T10:33:24Z</time>
      </trkpt>
      <trkpt lat="45.57137" lon="6.08081">
        <ele>1158</ele>
        <time>2013-01-12T10:33:26Z</time>
      </trkpt>
      <trkpt lat="45.57124" lon="6.08083">
        <ele>1158</ele>
        <time>2013-01-12T10:33:29Z</time>
      </trkpt>
      <trkpt lat="45.57114" lon="6.08083">
        <ele>1158</ele>
        <time>2013-01-12T10:33:31Z</time>
      </trkpt>
      <trkpt lat="45.571" lon="6.08084">
        <ele>1158</ele>
        <time>2013-01-12T10:33:34Z</time>
      </trkpt>
      <trkpt lat="45.57092" lon="6.08083">
        <ele>1158</ele>
        <time>2013-01-12T10:33:36Z</time>
      </trkpt>
      <trkpt lat="45.5708" lon="6.08085">
        <ele>1157</ele>
        <time>2013-01-12T10:33:39Z</time>
      </trkpt>
      <trkpt lat="45.57074" lon="6.08089">
        <ele>1156</ele>
        <time>2013-01-12T10:33:41Z</time>
      </trkpt>
      <trkpt lat="45.57067" lon="6.08095">
        <ele>1155</ele>
        <time>2013-01-12T10:33:44Z</time>
      </trkpt>
      <trkpt lat="45.57064" lon="6.08097">
        <ele>1154</ele>
        <time>2013-01-12T10:33:47Z</time>
      </trkpt>
      <trkpt lat="45.57057" lon="6.08105">
        <ele>1148</ele>
        <time>2013-01-12T10:33:53Z</time>
      </trkpt>
      <trkpt lat="45.57054" lon="6.08109">
        <ele>1148</ele>
        <time>2013-01-12T10:33:57Z</time>
      </trkpt>
      <trkpt lat="45.57051" lon="6.08112">
        <ele>1148</ele>
        <time>2013-01-12T10:33:59Z</time>
      </trkpt>
      <trkpt lat="45.5705" lon="6.08114">
        <ele>1148</ele>
        <time>2013-01-12T10:34:01Z</time>
      </trkpt>
      <trkpt lat="45.57048" lon="6.08115">
        <ele>1148</ele>
        <time>2013-01-12T10:34:03Z</time>
      </trkpt>
      <trkpt lat="45.57045" lon="6.08118">
        <ele>1148</ele>
        <time>2013-01-12T10:34:07Z</time>
      </trkpt>
      <trkpt lat="45.57042" lon="6.08119">
        <ele>1148</ele>
        <time>2013-01-12T10:34:10Z</time>
      </trkpt>
      <trkpt lat="45.5704" lon="6.08122">
        <ele>1148</ele>
        <time>2013-01-12T10:34:13Z</time>
      </trkpt>
      <trkpt lat="45.57037" lon="6.08125">
        <ele>1148</ele>
        <time>2013-01-12T10:34:16Z</time>
      </trkpt>
      <trkpt lat="45.57036" lon="6.08126">
        <ele>1148</ele>
        <time>2013-01-12T10:34:19Z</time>
      </trkpt>
      <trkpt lat="45.57033" lon="6.0813">
        <ele>1147</ele>
        <time>2013-01-12T10:34:24Z</time>
      </trkpt>
      <trkpt lat="45.5703" lon="6.08134">
        <ele>1147</ele>
        <time>2013-01-12T10:34:28Z</time>
      </trkpt>
      <trkpt lat="45.57029" lon="6.08135">
        <ele>1147</ele>
        <time>2013-01-12T10:34:30Z</time>
      </trkpt>
      <trkpt lat="45.57027" lon="6.08137">
        <ele>1146</ele>
        <time>2013-01-12T10:34:34Z</time>
      </trkpt>
      <trkpt lat="45.57024" lon="6.08138">
        <ele>1145</ele>
        <time>2013-01-12T10:34:37Z</time>
      </trkpt>
      <trkpt lat="45.57021" lon="6.0814">
        <ele>1145</ele>
        <time>2013-01-12T10:34:40Z</time>
      </trkpt>
      <trkpt lat="45.57019" lon="6.08142">
        <ele>1145</ele>
        <time>2013-01-12T10:34:42Z</time>
      </trkpt>
      <trkpt lat="45.57017" lon="6.08144">
        <ele>1145</ele>
        <time>2013-01-12T10:34:44Z</time>
      </trkpt>
      <trkpt lat="45.57016" lon="6.08145">
        <ele>1145</ele>
        <time>2013-01-12T10:34:46Z</time>
      </trkpt>
      <trkpt lat="45.57013" lon="6.08146">
        <ele>1145</ele>
        <time>2013-01-12T10:34:49Z</time>
      </trkpt>
      <trkpt lat="45.57011" lon="6.08147">
        <ele>1145</ele>
        <time>2013-01-12T10:34:51Z</time>
      </trkpt>
      <trkpt lat="45.57008" lon="6.08148">
        <ele>1144</ele>
        <time>2013-01-12T10:34:53Z</time>
      </trkpt>
      <trkpt lat="45.57005" lon="6.08151">
        <ele>1144</ele>
        <time>2013-01-12T10:34:55Z</time>
      </trkpt>
      <trkpt lat="45.57" lon="6.08155">
        <ele>1144</ele>
        <time>2013-01-12T10:34:57Z</time>
      </trkpt>
      <trkpt lat="45.56992" lon="6.08161">
        <ele>1144</ele>
        <time>2013-01-12T10:35:00Z</time>
      </trkpt>
      <trkpt lat="45.56989" lon="6.08163">
        <ele>1144</ele>
        <time>2013-01-12T10:35:02Z</time>
      </trkpt>
      <trkpt lat="45.56985" lon="6.08165">
        <ele>1144</ele>
        <time>2013-01-12T10:35:06Z</time>
      </trkpt>
      <trkpt lat="45.56984" lon="6.08164">
        <ele>1144</ele>
        <time>2013-01-12T10:35:08Z</time>
      </trkpt>
      <trkpt lat="45.56982" lon="6.08164">
        <ele>1144</ele>
        <time>2013-01-12T10:35:11Z</time>
      </trkpt>
      <trkpt lat="45.56975" lon="6.08158">
        <ele>1144</ele>
        <time>2013-01-12T10:35:16Z</time>
      </trkpt>
      <trkpt lat="45.56974" lon="6.08158">
        <ele>1144</ele>
        <time>2013-01-12T10:35:18Z</time>
      </trkpt>
      <trkpt lat="45.56972" lon="6.08158">
        <ele>1144</ele>
        <time>2013-01-12T10:35:20Z</time>
      </trkpt>
      <trkpt lat="45.56971" lon="6.08158">
        <ele>1144</ele>
        <time>2013-01-12T10:35:22Z</time>
      </trkpt>
      <trkpt lat="45.56969" lon="6.08156">
        <ele>1144</ele>
        <time>2013-01-12T10:35:25Z</time>
      </trkpt>
      <trkpt lat="45.56968" lon="6.08154">
        <ele>1144</ele>
        <time>2013-01-12T10:35:27Z</time>
      </trkpt>
      <trkpt lat="45.56967" lon="6.08154">
        <ele>1143</ele>
        <time>2013-01-12T10:35:30Z</time>
      </trkpt>
      <trkpt lat="45.56965" lon="6.08153">
        <ele>1143</ele>
        <time>2013-01-12T10:35:33Z</time>
      </trkpt>
      <trkpt lat="45.56962" lon="6.08153">
        <ele>1143</ele>
        <time>2013-01-12T10:35:36Z</time>
      </trkpt>
      <trkpt lat="45.5696" lon="6.08152">
        <ele>1143</ele>
        <time>2013-01-12T10:35:38Z</time>
      </trkpt>
      <trkpt lat="45.56958" lon="6.08152">
        <ele>1142</ele>
        <time>2013-01-12T10:35:40Z</time>
      </trkpt>
      <trkpt lat="45.56957" lon="6.08151">
        <ele>1142</ele>
        <time>2013-01-12T10:35:42Z</time>
      </trkpt>
      <trkpt lat="45.56955" lon="6.0815">
        <ele>1142</ele>
        <time>2013-01-12T10:35:44Z</time>
      </trkpt>
      <trkpt lat="45.56952" lon="6.0815">
        <ele>1142</ele>
        <time>2013-01-12T10:35:47Z</time>
      </trkpt>
      <trkpt lat="45.5695" lon="6.08149">
        <ele>1142</ele>
        <time>2013-01-12T10:35:49Z</time>
      </trkpt>
      <trkpt lat="45.56947" lon="6.08149">
        <ele>1142</ele>
        <time>2013-01-12T10:35:51Z</time>
      </trkpt>
      <trkpt lat="45.56945" lon="6.08149">
        <ele>1142</ele>
        <time>2013-01-12T10:35:53Z</time>
      </trkpt>
      <trkpt lat="45.56944" lon="6.08148">
        <ele>1142</ele>
        <time>2013-01-12T10:35:55Z</time>
      </trkpt>
      <trkpt lat="45.56938" lon="6.08147">
        <ele>1142</ele>
        <time>2013-01-12T10:35:59Z</time>
      </trkpt>
      <trkpt lat="45.56936" lon="6.08146">
        <ele>1142</ele>
        <time>2013-01-12T10:36:02Z</time>
      </trkpt>
      <trkpt lat="45.56929" lon="6.08147">
        <ele>1143</ele>
        <time>2013-01-12T10:36:07Z</time>
      </trkpt>
      <trkpt lat="45.56926" lon="6.08151">
        <ele>1143</ele>
        <time>2013-01-12T10:36:11Z</time>
      </trkpt>
      <trkpt lat="45.56924" lon="6.08153">
        <ele>1143</ele>
        <time>2013-01-12T10:36:13Z</time>
      </trkpt>
      <trkpt lat="45.56923" lon="6.08155">
        <ele>1143</ele>
        <time>2013-01-12T10:36:15Z</time>
      </trkpt>
      <trkpt lat="45.56921" lon="6.08158">
        <ele>1143</ele>
        <time>2013-01-12T10:36:17Z</time>
      </trkpt>
      <trkpt lat="45.56919" lon="6.08162">
        <ele>1143</ele>
        <time>2013-01-12T10:36:20Z</time>
      </trkpt>
      <trkpt lat="45.56919" lon="6.08164">
        <ele>1143</ele>
        <time>2013-01-12T10:36:22Z</time>
      </trkpt>
      <trkpt lat="45.56919" lon="6.08166">
        <ele>1143</ele>
        <time>2013-01-12T10:36:24Z</time>
      </trkpt>
      <trkpt lat="45.56918" lon="6.08169">
        <ele>1143</ele>
        <time>2013-01-12T10:36:29Z</time>
      </trkpt>
      <trkpt lat="45.56919" lon="6.08171">
        <ele>1143</ele>
        <time>2013-01-12T10:36:33Z</time>
      </trkpt>
      <trkpt lat="45.56921" lon="6.08172">
        <ele>1143</ele>
        <time>2013-01-12T10:36:37Z</time>
      </trkpt>
      <trkpt lat="45.56924" lon="6.08179">
        <ele>1143</ele>
        <time>2013-01-12T10:36:40Z</time>
      </trkpt>
      <trkpt lat="45.56924" lon="6.08181">
        <ele>1143</ele>
        <time>2013-01-12T10:36:43Z</time>
      </trkpt>
      <trkpt lat="45.56924" lon="6.08182">
        <ele>1143</ele>
        <time>2013-01-12T10:36:46Z</time>
      </trkpt>
      <trkpt lat="45.56925" lon="6.08185">
        <ele>1143</ele>
        <time>2013-01-12T10:36:50Z</time>
      </trkpt>
      <trkpt lat="45.56925" lon="6.08187">
        <ele>1143</ele>
        <time>2013-01-12T10:36:53Z</time>
      </trkpt>
      <trkpt lat="45.56925" lon="6.08188">
        <ele>1143</ele>
        <time>2013-01-12T10:36:55Z</time>
      </trkpt>
      <trkpt lat="45.56925" lon="6.0819">
        <ele>1143</ele>
        <time>2013-01-12T10:36:58Z</time>
      </trkpt>
      <trkpt lat="45.56923" lon="6.08205">
        <ele>1143</ele>
        <time>2013-01-12T10:37:02Z</time>
      </trkpt>
      <trkpt lat="45.56924" lon="6.08207">
        <ele>1143</ele>
        <time>2013-01-12T10:37:04Z</time>
      </trkpt>
      <trkpt lat="45.56925" lon="6.08209">
        <ele>1143</ele>
        <time>2013-01-12T10:37:06Z</time>
      </trkpt>
      <trkpt lat="45.56926" lon="6.08211">
        <ele>1143</ele>
        <time>2013-01-12T10:37:08Z</time>
      </trkpt>
      <trkpt lat="45.56927" lon="6.08215">
        <ele>1143</ele>
        <time>2013-01-12T10:37:12Z</time>
      </trkpt>
      <trkpt lat="45.56927" lon="6.08217">
        <ele>1143</ele>
        <time>2013-01-12T10:37:14Z</time>
      </trkpt>
      <trkpt lat="45.56926" lon="6.08218">
        <ele>1143</ele>
        <time>2013-01-12T10:37:16Z</time>
      </trkpt>
      <trkpt lat="45.56926" lon="6.0822">
        <ele>1143</ele>
        <time>2013-01-12T10:37:18Z</time>
      </trkpt>
      <trkpt lat="45.56926" lon="6.08222">
        <ele>1143</ele>
        <time>2013-01-12T10:37:20Z</time>
      </trkpt>
      <trkpt lat="45.56926" lon="6.08223">
        <ele>1143</ele>
        <time>2013-01-12T10:37:22Z</time>
      </trkpt>
      <trkpt lat="45.56925" lon="6.08225">
        <ele>1143</ele>
        <time>2013-01-12T10:37:24Z</time>
      </trkpt>
      <trkpt lat="45.56924" lon="6.08227">
        <ele>1143</ele>
        <time>2013-01-12T10:37:27Z</time>
      </trkpt>
      <trkpt lat="45.56923" lon="6.08228">
        <ele>1143</ele>
        <time>2013-01-12T10:37:30Z</time>
      </trkpt>
      <trkpt lat="45.56923" lon="6.0823">
        <ele>1143</ele>
        <time>2013-01-12T10:37:33Z</time>
      </trkpt>
      <trkpt lat="45.56921" lon="6.08231">
        <ele>1143</ele>
        <time>2013-01-12T10:37:35Z</time>
      </trkpt>
      <trkpt lat="45.56921" lon="6.08232">
        <ele>1143</ele>
        <time>2013-01-12T10:37:38Z</time>
      </trkpt>
      <trkpt lat="45.5692" lon="6.08234">
        <ele>1143</ele>
        <time>2013-01-12T10:37:41Z</time>
      </trkpt>
      <trkpt lat="45.56919" lon="6.08236">
        <ele>1143</ele>
        <time>2013-01-12T10:37:44Z</time>
      </trkpt>
      <trkpt lat="45.56917" lon="6.08238">
        <ele>1143</ele>
        <time>2013-01-12T10:37:48Z</time>
      </trkpt>
      <trkpt lat="45.56916" lon="6.08239">
        <ele>1143</ele>
        <time>2013-01-12T10:37:50Z</time>
      </trkpt>
      <trkpt lat="45.56912" lon="6.08241">
        <ele>1143</ele>
        <time>2013-01-12T10:37:54Z</time>
      </trkpt>
      <trkpt lat="45.56911" lon="6.08243">
        <ele>1143</ele>
        <time>2013-01-12T10:37:56Z</time>
      </trkpt>
      <trkpt lat="45.56909" lon="6.08244">
        <ele>1143</ele>
        <time>2013-01-12T10:37:58Z</time>
      </trkpt>
      <trkpt lat="45.56906" lon="6.08246">
        <ele>1145</ele>
        <time>2013-01-12T10:38:01Z</time>
      </trkpt>
      <trkpt lat="45.56904" lon="6.08248">
        <ele>1146</ele>
        <time>2013-01-12T10:38:03Z</time>
      </trkpt>
      <trkpt lat="45.56902" lon="6.08249">
        <ele>1147</ele>
        <time>2013-01-12T10:38:05Z</time>
      </trkpt>
      <trkpt lat="45.569" lon="6.0825">
        <ele>1148</ele>
        <time>2013-01-12T10:38:07Z</time>
      </trkpt>
      <trkpt lat="45.56899" lon="6.08251">
        <ele>1149</ele>
        <time>2013-01-12T10:38:10Z</time>
      </trkpt>
      <trkpt lat="45.56897" lon="6.08252">
        <ele>1150</ele>
        <time>2013-01-12T10:38:12Z</time>
      </trkpt>
      <trkpt lat="45.56894" lon="6.08253">
        <ele>1151</ele>
        <time>2013-01-12T10:38:15Z</time>
      </trkpt>
      <trkpt lat="45.56892" lon="6.08252">
        <ele>1152</ele>
        <time>2013-01-12T10:38:18Z</time>
      </trkpt>
      <trkpt lat="45.56891" lon="6.08252">
        <ele>1152</ele>
        <time>2013-01-12T10:38:20Z</time>
      </trkpt>
      <trkpt lat="45.5689" lon="6.08253">
        <ele>1152</ele>
        <time>2013-01-12T10:38:22Z</time>
      </trkpt>
      <trkpt lat="45.56889" lon="6.08253">
        <ele>1152</ele>
        <time>2013-01-12T10:38:24Z</time>
      </trkpt>
      <trkpt lat="45.56887" lon="6.08254">
        <ele>1152</ele>
        <time>2013-01-12T10:38:29Z</time>
      </trkpt>
      <trkpt lat="45.56885" lon="6.08256">
        <ele>1152</ele>
        <time>2013-01-12T10:38:32Z</time>
      </trkpt>
      <trkpt lat="45.56884" lon="6.08257">
        <ele>1152</ele>
        <time>2013-01-12T10:38:35Z</time>
      </trkpt>
      <trkpt lat="45.56882" lon="6.08258">
        <ele>1152</ele>
        <time>2013-01-12T10:38:38Z</time>
      </trkpt>
      <trkpt lat="45.56881" lon="6.0826">
        <ele>1152</ele>
        <time>2013-01-12T10:38:41Z</time>
      </trkpt>
      <trkpt lat="45.5688" lon="6.0826">
        <ele>1152</ele>
        <time>2013-01-12T10:38:46Z</time>
      </trkpt>
      <trkpt lat="45.56879" lon="6.08259">
        <ele>1152</ele>
        <time>2013-01-12T10:38:49Z</time>
      </trkpt>
      <trkpt lat="45.56877" lon="6.0826">
        <ele>1152</ele>
        <time>2013-01-12T10:38:55Z</time>
      </trkpt>
      <trkpt lat="45.56876" lon="6.08261">
        <ele>1152</ele>
        <time>2013-01-12T10:38:57Z</time>
      </trkpt>
      <trkpt lat="45.56875" lon="6.08261">
        <ele>1152</ele>
        <time>2013-01-12T10:38:59Z</time>
      </trkpt>
      <trkpt lat="45.56873" lon="6.08264">
        <ele>1152</ele>
        <time>2013-01-12T10:39:02Z</time>
      </trkpt>
      <trkpt lat="45.56872" lon="6.08265">
        <ele>1152</ele>
        <time>2013-01-12T10:39:05Z</time>
      </trkpt>
      <trkpt lat="45.56871" lon="6.08267">
        <ele>1152</ele>
        <time>2013-01-12T10:39:08Z</time>
      </trkpt>
      <trkpt lat="45.5687" lon="6.08267">
        <ele>1152</ele>
        <time>2013-01-12T10:39:11Z</time>
      </trkpt>
      <trkpt lat="45.56868" lon="6.08269">
        <ele>1152</ele>
        <time>2013-01-12T10:39:13Z</time>
      </trkpt>
      <trkpt lat="45.56869" lon="6.08271">
        <ele>1152</ele>
        <time>2013-01-12T10:39:16Z</time>
      </trkpt>
      <trkpt lat="45.5687" lon="6.08272">
        <ele>1152</ele>
        <time>2013-01-12T10:39:19Z</time>
      </trkpt>
      <trkpt lat="45.56867" lon="6.08274">
        <ele>1152</ele>
        <time>2013-01-12T10:39:23Z</time>
      </trkpt>
      <trkpt lat="45.56865" lon="6.08274">
        <ele>1152</ele>
        <time>2013-01-12T10:39:28Z</time>
      </trkpt>
      <trkpt lat="45.56864" lon="6.08274">
        <ele>1152</ele>
        <time>2013-01-12T10:39:30Z</time>
      </trkpt>
      <trkpt lat="45.56863" lon="6.08275">
        <ele>1152</ele>
        <time>2013-01-12T10:39:33Z</time>
      </trkpt>
      <trkpt lat="45.56862" lon="6.08275">
        <ele>1152</ele>
        <time>2013-01-12T10:39:35Z</time>
      </trkpt>
      <trkpt lat="45.56861" lon="6.08275">
        <ele>1152</ele>
        <time>2013-01-12T10:39:37Z</time>
      </trkpt>
      <trkpt lat="45.5686" lon="6.08277">
        <ele>1152</ele>
        <time>2013-01-12T10:39:39Z</time>
      </trkpt>
      <trkpt lat="45.56858" lon="6.08277">
        <ele>1152</ele>
        <time>2013-01-12T10:39:42Z</time>
      </trkpt>
      <trkpt lat="45.56857" lon="6.08278">
        <ele>1152</ele>
        <time>2013-01-12T10:39:44Z</time>
      </trkpt>
      <trkpt lat="45.56856" lon="6.08279">
        <ele>1152</ele>
        <time>2013-01-12T10:39:46Z</time>
      </trkpt>
      <trkpt lat="45.56854" lon="6.08281">
        <ele>1152</ele>
        <time>2013-01-12T10:39:49Z</time>
      </trkpt>
      <trkpt lat="45.56853" lon="6.08282">
        <ele>1152</ele>
        <time>2013-01-12T10:39:51Z</time>
      </trkpt>
      <trkpt lat="45.56851" lon="6.08283">
        <ele>1152</ele>
        <time>2013-01-12T10:39:53Z</time>
      </trkpt>
      <trkpt lat="45.5685" lon="6.08283">
        <ele>1152</ele>
        <time>2013-01-12T10:39:55Z</time>
      </trkpt>
      <trkpt lat="45.56849" lon="6.08284">
        <ele>1152</ele>
        <time>2013-01-12T10:39:58Z</time>
      </trkpt>
      <trkpt lat="45.56847" lon="6.08285">
        <ele>1152</ele>
        <time>2013-01-12T10:40:01Z</time>
      </trkpt>
      <trkpt lat="45.56846" lon="6.08284">
        <ele>1152</ele>
        <time>2013-01-12T10:40:06Z</time>
      </trkpt>
      <trkpt lat="45.56845" lon="6.08285">
        <ele>1152</ele>
        <time>2013-01-12T10:40:09Z</time>
      </trkpt>
      <trkpt lat="45.56843" lon="6.08286">
        <ele>1152</ele>
        <time>2013-01-12T10:40:14Z</time>
      </trkpt>
      <trkpt lat="45.56842" lon="6.08287">
        <ele>1152</ele>
        <time>2013-01-12T10:40:16Z</time>
      </trkpt>
      <trkpt lat="45.56841" lon="6.08288">
        <ele>1152</ele>
        <time>2013-01-12T10:40:19Z</time>
      </trkpt>
      <trkpt lat="45.56839" lon="6.08288">
        <ele>1152</ele>
        <time>2013-01-12T10:40:22Z</time>
      </trkpt>
      <trkpt lat="45.56838" lon="6.08288">
        <ele>1152</ele>
        <time>2013-01-12T10:40:24Z</time>
      </trkpt>
      <trkpt lat="45.56835" lon="6.08291">
        <ele>1152</ele>
        <time>2013-01-12T10:40:30Z</time>
      </trkpt>
      <trkpt lat="45.56828" lon="6.08293">
        <ele>1155</ele>
        <time>2013-01-12T10:40:34Z</time>
      </trkpt>
      <trkpt lat="45.56827" lon="6.08292">
        <ele>1156</ele>
        <time>2013-01-12T10:40:37Z</time>
      </trkpt>
      <trkpt lat="45.56825" lon="6.08293">
        <ele>1156</ele>
        <time>2013-01-12T10:40:39Z</time>
      </trkpt>
      <trkpt lat="45.56825" lon="6.08291">
        <ele>1156</ele>
        <time>2013-01-12T10:40:42Z</time>
      </trkpt>
      <trkpt lat="45.56823" lon="6.0829">
        <ele>1156</ele>
        <time>2013-01-12T10:40:46Z</time>
      </trkpt>
      <trkpt lat="45.56822" lon="6.0829">
        <ele>1156</ele>
        <time>2013-01-12T10:40:50Z</time>
      </trkpt>
      <trkpt lat="45.5682" lon="6.0829">
        <ele>1156</ele>
        <time>2013-01-12T10:40:53Z</time>
      </trkpt>
      <trkpt lat="45.56819" lon="6.08289">
        <ele>1156</ele>
        <time>2013-01-12T10:40:56Z</time>
      </trkpt>
      <trkpt lat="45.56817" lon="6.08289">
        <ele>1156</ele>
        <time>2013-01-12T10:40:58Z</time>
      </trkpt>
      <trkpt lat="45.56815" lon="6.0829">
        <ele>1157</ele>
        <time>2013-01-12T10:41:01Z</time>
      </trkpt>
      <trkpt lat="45.56813" lon="6.08291">
        <ele>1157</ele>
        <time>2013-01-12T10:41:03Z</time>
      </trkpt>
      <trkpt lat="45.56811" lon="6.08292">
        <ele>1158</ele>
        <time>2013-01-12T10:41:06Z</time>
      </trkpt>
      <trkpt lat="45.5681" lon="6.08292">
        <ele>1159</ele>
        <time>2013-01-12T10:41:08Z</time>
      </trkpt>
      <trkpt lat="45.56808" lon="6.08291">
        <ele>1159</ele>
        <time>2013-01-12T10:41:10Z</time>
      </trkpt>
      <trkpt lat="45.56807" lon="6.08292">
        <ele>1160</ele>
        <time>2013-01-12T10:41:13Z</time>
      </trkpt>
      <trkpt lat="45.56804" lon="6.08292">
        <ele>1161</ele>
        <time>2013-01-12T10:41:18Z</time>
      </trkpt>
      <trkpt lat="45.56803" lon="6.08293">
        <ele>1161</ele>
        <time>2013-01-12T10:41:20Z</time>
      </trkpt>
      <trkpt lat="45.56801" lon="6.08293">
        <ele>1161</ele>
        <time>2013-01-12T10:41:22Z</time>
      </trkpt>
      <trkpt lat="45.568" lon="6.08293">
        <ele>1161</ele>
        <time>2013-01-12T10:41:25Z</time>
      </trkpt>
      <trkpt lat="45.56799" lon="6.08292">
        <ele>1161</ele>
        <time>2013-01-12T10:41:30Z</time>
      </trkpt>
      <trkpt lat="45.56797" lon="6.08292">
        <ele>1161</ele>
        <time>2013-01-12T10:41:34Z</time>
      </trkpt>
      <trkpt lat="45.56795" lon="6.08293">
        <ele>1161</ele>
        <time>2013-01-12T10:41:36Z</time>
      </trkpt>
      <trkpt lat="45.56793" lon="6.08294">
        <ele>1161</ele>
        <time>2013-01-12T10:41:38Z</time>
      </trkpt>
      <trkpt lat="45.56792" lon="6.08294">
        <ele>1162</ele>
        <time>2013-01-12T10:41:40Z</time>
      </trkpt>
      <trkpt lat="45.5679" lon="6.08295">
        <ele>1163</ele>
        <time>2013-01-12T10:41:43Z</time>
      </trkpt>
      <trkpt lat="45.56789" lon="6.08296">
        <ele>1164</ele>
        <time>2013-01-12T10:41:45Z</time>
      </trkpt>
      <trkpt lat="45.56787" lon="6.08297">
        <ele>1164</ele>
        <time>2013-01-12T10:41:48Z</time>
      </trkpt>
      <trkpt lat="45.56785" lon="6.08298">
        <ele>1164</ele>
        <time>2013-01-12T10:41:51Z</time>
      </trkpt>
      <trkpt lat="45.56784" lon="6.08298">
        <ele>1165</ele>
        <time>2013-01-12T10:41:53Z</time>
      </trkpt>
      <trkpt lat="45.56782" lon="6.08299">
        <ele>1165</ele>
        <time>2013-01-12T10:41:55Z</time>
      </trkpt>
      <trkpt lat="45.5678" lon="6.08299">
        <ele>1166</ele>
        <time>2013-01-12T10:41:57Z</time>
      </trkpt>
      <trkpt lat="45.56779" lon="6.08298">
        <ele>1166</ele>
        <time>2013-01-12T10:41:59Z</time>
      </trkpt>
      <trkpt lat="45.56778" lon="6.08296">
        <ele>1168</ele>
        <time>2013-01-12T10:42:06Z</time>
      </trkpt>
      <trkpt lat="45.56777" lon="6.08296">
        <ele>1168</ele>
        <time>2013-01-12T10:42:08Z</time>
      </trkpt>
      <trkpt lat="45.56773" lon="6.08296">
        <ele>1168</ele>
        <time>2013-01-12T10:42:14Z</time>
      </trkpt>
      <trkpt lat="45.5677" lon="6.08298">
        <ele>1168</ele>
        <time>2013-01-12T10:42:17Z</time>
      </trkpt>
      <trkpt lat="45.56768" lon="6.08299">
        <ele>1169</ele>
        <time>2013-01-12T10:42:19Z</time>
      </trkpt>
      <trkpt lat="45.56768" lon="6.08297">
        <ele>1170</ele>
        <time>2013-01-12T10:42:23Z</time>
      </trkpt>
      <trkpt lat="45.56766" lon="6.08297">
        <ele>1170</ele>
        <time>2013-01-12T10:42:26Z</time>
      </trkpt>
      <trkpt lat="45.56765" lon="6.08297">
        <ele>1170</ele>
        <time>2013-01-12T10:42:28Z</time>
      </trkpt>
      <trkpt lat="45.56763" lon="6.08296">
        <ele>1170</ele>
        <time>2013-01-12T10:42:31Z</time>
      </trkpt>
      <trkpt lat="45.56761" lon="6.08296">
        <ele>1170</ele>
        <time>2013-01-12T10:42:34Z</time>
      </trkpt>
      <trkpt lat="45.5676" lon="6.08296">
        <ele>1170</ele>
        <time>2013-01-12T10:42:36Z</time>
      </trkpt>
      <trkpt lat="45.56758" lon="6.08296">
        <ele>1170</ele>
        <time>2013-01-12T10:42:38Z</time>
      </trkpt>
      <trkpt lat="45.56757" lon="6.08296">
        <ele>1170</ele>
        <time>2013-01-12T10:42:40Z</time>
      </trkpt>
      <trkpt lat="45.56754" lon="6.08296">
        <ele>1170</ele>
        <time>2013-01-12T10:42:43Z</time>
      </trkpt>
      <trkpt lat="45.56752" lon="6.08296">
        <ele>1170</ele>
        <time>2013-01-12T10:42:45Z</time>
      </trkpt>
      <trkpt lat="45.56751" lon="6.08296">
        <ele>1171</ele>
        <time>2013-01-12T10:42:47Z</time>
      </trkpt>
      <trkpt lat="45.5675" lon="6.08295">
        <ele>1171</ele>
        <time>2013-01-12T10:42:49Z</time>
      </trkpt>
      <trkpt lat="45.56748" lon="6.08294">
        <ele>1171</ele>
        <time>2013-01-12T10:42:52Z</time>
      </trkpt>
      <trkpt lat="45.56747" lon="6.08293">
        <ele>1171</ele>
        <time>2013-01-12T10:42:54Z</time>
      </trkpt>
      <trkpt lat="45.56746" lon="6.08293">
        <ele>1171</ele>
        <time>2013-01-12T10:42:56Z</time>
      </trkpt>
      <trkpt lat="45.56745" lon="6.08293">
        <ele>1171</ele>
        <time>2013-01-12T10:42:59Z</time>
      </trkpt>
      <trkpt lat="45.56744" lon="6.08293">
        <ele>1171</ele>
        <time>2013-01-12T10:43:01Z</time>
      </trkpt>
      <trkpt lat="45.56742" lon="6.08292">
        <ele>1171</ele>
        <time>2013-01-12T10:43:04Z</time>
      </trkpt>
      <trkpt lat="45.56738" lon="6.08286">
        <ele>1171</ele>
        <time>2013-01-12T10:43:06Z</time>
      </trkpt>
      <trkpt lat="45.56737" lon="6.08285">
        <ele>1171</ele>
        <time>2013-01-12T10:43:08Z</time>
      </trkpt>
      <trkpt lat="45.56735" lon="6.08285">
        <ele>1171</ele>
        <time>2013-01-12T10:43:10Z</time>
      </trkpt>
      <trkpt lat="45.56734" lon="6.08285">
        <ele>1171</ele>
        <time>2013-01-12T10:43:12Z</time>
      </trkpt>
      <trkpt lat="45.56734" lon="6.08283">
        <ele>1171</ele>
        <time>2013-01-12T10:43:14Z</time>
      </trkpt>
      <trkpt lat="45.56733" lon="6.08281">
        <ele>1171</ele>
        <time>2013-01-12T10:43:17Z</time>
      </trkpt>
      <trkpt lat="45.56733" lon="6.08279">
        <ele>1171</ele>
        <time>2013-01-12T10:43:19Z</time>
      </trkpt>
      <trkpt lat="45.56733" lon="6.08277">
        <ele>1171</ele>
        <time>2013-01-12T10:43:22Z</time>
      </trkpt>
      <trkpt lat="45.56732" lon="6.08276">
        <ele>1171</ele>
        <time>2013-01-12T10:43:25Z</time>
      </trkpt>
      <trkpt lat="45.56731" lon="6.08276">
        <ele>1171</ele>
        <time>2013-01-12T10:43:27Z</time>
      </trkpt>
      <trkpt lat="45.56729" lon="6.08276">
        <ele>1171</ele>
        <time>2013-01-12T10:43:29Z</time>
      </trkpt>
      <trkpt lat="45.56728" lon="6.08277">
        <ele>1171</ele>
        <time>2013-01-12T10:43:31Z</time>
      </trkpt>
      <trkpt lat="45.56726" lon="6.08279">
        <ele>1175</ele>
        <time>2013-01-12T10:43:38Z</time>
      </trkpt>
      <trkpt lat="45.56724" lon="6.08278">
        <ele>1175</ele>
        <time>2013-01-12T10:43:40Z</time>
      </trkpt>
      <trkpt lat="45.56722" lon="6.08279">
        <ele>1175</ele>
        <time>2013-01-12T10:43:42Z</time>
      </trkpt>
      <trkpt lat="45.5672" lon="6.0828">
        <ele>1175</ele>
        <time>2013-01-12T10:43:44Z</time>
      </trkpt>
      <trkpt lat="45.56718" lon="6.0828">
        <ele>1175</ele>
        <time>2013-01-12T10:43:47Z</time>
      </trkpt>
      <trkpt lat="45.56717" lon="6.08279">
        <ele>1175</ele>
        <time>2013-01-12T10:43:50Z</time>
      </trkpt>
      <trkpt lat="45.56715" lon="6.08278">
        <ele>1175</ele>
        <time>2013-01-12T10:43:52Z</time>
      </trkpt>
      <trkpt lat="45.56714" lon="6.08278">
        <ele>1174</ele>
        <time>2013-01-12T10:43:56Z</time>
      </trkpt>
      <trkpt lat="45.56712" lon="6.08279">
        <ele>1174</ele>
        <time>2013-01-12T10:43:58Z</time>
      </trkpt>
      <trkpt lat="45.5671" lon="6.08279">
        <ele>1174</ele>
        <time>2013-01-12T10:44:00Z</time>
      </trkpt>
      <trkpt lat="45.56709" lon="6.08279">
        <ele>1174</ele>
        <time>2013-01-12T10:44:02Z</time>
      </trkpt>
      <trkpt lat="45.56708" lon="6.08279">
        <ele>1174</ele>
        <time>2013-01-12T10:44:04Z</time>
      </trkpt>
      <trkpt lat="45.56707" lon="6.08276">
        <ele>1174</ele>
        <time>2013-01-12T10:44:06Z</time>
      </trkpt>
      <trkpt lat="45.56705" lon="6.08273">
        <ele>1173</ele>
        <time>2013-01-12T10:44:09Z</time>
      </trkpt>
      <trkpt lat="45.56703" lon="6.08272">
        <ele>1171</ele>
        <time>2013-01-12T10:44:14Z</time>
      </trkpt>
      <trkpt lat="45.56702" lon="6.08271">
        <ele>1170</ele>
        <time>2013-01-12T10:44:17Z</time>
      </trkpt>
      <trkpt lat="45.56701" lon="6.08269">
        <ele>1169</ele>
        <time>2013-01-12T10:44:19Z</time>
      </trkpt>
      <trkpt lat="45.56701" lon="6.08267">
        <ele>1169</ele>
        <time>2013-01-12T10:44:21Z</time>
      </trkpt>
      <trkpt lat="45.56699" lon="6.08265">
        <ele>1168</ele>
        <time>2013-01-12T10:44:23Z</time>
      </trkpt>
      <trkpt lat="45.56698" lon="6.08264">
        <ele>1168</ele>
        <time>2013-01-12T10:44:25Z</time>
      </trkpt>
      <trkpt lat="45.56695" lon="6.08266">
        <ele>1168</ele>
        <time>2013-01-12T10:44:28Z</time>
      </trkpt>
      <trkpt lat="45.56694" lon="6.08266">
        <ele>1168</ele>
        <time>2013-01-12T10:44:30Z</time>
      </trkpt>
      <trkpt lat="45.56691" lon="6.08267">
        <ele>1168</ele>
        <time>2013-01-12T10:44:33Z</time>
      </trkpt>
      <trkpt lat="45.56688" lon="6.08268">
        <ele>1168</ele>
        <time>2013-01-12T10:44:37Z</time>
      </trkpt>
      <trkpt lat="45.56687" lon="6.08266">
        <ele>1168</ele>
        <time>2013-01-12T10:44:42Z</time>
      </trkpt>
      <trkpt lat="45.56686" lon="6.08266">
        <ele>1168</ele>
        <time>2013-01-12T10:44:44Z</time>
      </trkpt>
      <trkpt lat="45.56684" lon="6.08266">
        <ele>1168</ele>
        <time>2013-01-12T10:44:48Z</time>
      </trkpt>
      <trkpt lat="45.56682" lon="6.08267">
        <ele>1171</ele>
        <time>2013-01-12T10:44:52Z</time>
      </trkpt>
      <trkpt lat="45.56681" lon="6.08268">
        <ele>1172</ele>
        <time>2013-01-12T10:44:54Z</time>
      </trkpt>
      <trkpt lat="45.56679" lon="6.08269">
        <ele>1173</ele>
        <time>2013-01-12T10:44:58Z</time>
      </trkpt>
      <trkpt lat="45.56678" lon="6.08269">
        <ele>1173</ele>
        <time>2013-01-12T10:45:01Z</time>
      </trkpt>
      <trkpt lat="45.56676" lon="6.08268">
        <ele>1173</ele>
        <time>2013-01-12T10:45:04Z</time>
      </trkpt>
      <trkpt lat="45.56675" lon="6.08266">
        <ele>1173</ele>
        <time>2013-01-12T10:45:06Z</time>
      </trkpt>
      <trkpt lat="45.56675" lon="6.08265">
        <ele>1173</ele>
        <time>2013-01-12T10:45:08Z</time>
      </trkpt>
      <trkpt lat="45.56673" lon="6.08265">
        <ele>1173</ele>
        <time>2013-01-12T10:45:11Z</time>
      </trkpt>
      <trkpt lat="45.56672" lon="6.08266">
        <ele>1174</ele>
        <time>2013-01-12T10:45:14Z</time>
      </trkpt>
      <trkpt lat="45.5667" lon="6.08266">
        <ele>1174</ele>
        <time>2013-01-12T10:45:16Z</time>
      </trkpt>
      <trkpt lat="45.56668" lon="6.08265">
        <ele>1174</ele>
        <time>2013-01-12T10:45:18Z</time>
      </trkpt>
      <trkpt lat="45.56667" lon="6.08263">
        <ele>1174</ele>
        <time>2013-01-12T10:45:21Z</time>
      </trkpt>
      <trkpt lat="45.56665" lon="6.08264">
        <ele>1174</ele>
        <time>2013-01-12T10:45:23Z</time>
      </trkpt>
      <trkpt lat="45.56664" lon="6.08263">
        <ele>1174</ele>
        <time>2013-01-12T10:45:25Z</time>
      </trkpt>
      <trkpt lat="45.56658" lon="6.08267">
        <ele>1185</ele>
        <time>2013-01-12T10:45:31Z</time>
      </trkpt>
      <trkpt lat="45.56652" lon="6.08266">
        <ele>1199</ele>
        <time>2013-01-12T10:45:36Z</time>
      </trkpt>
      <trkpt lat="45.56651" lon="6.08266">
        <ele>1199</ele>
        <time>2013-01-12T10:45:39Z</time>
      </trkpt>
      <trkpt lat="45.5665" lon="6.08265">
        <ele>1199</ele>
        <time>2013-01-12T10:45:41Z</time>
      </trkpt>
      <trkpt lat="45.56648" lon="6.08266">
        <ele>1199</ele>
        <time>2013-01-12T10:45:44Z</time>
      </trkpt>
      <trkpt lat="45.56646" lon="6.08267">
        <ele>1199</ele>
        <time>2013-01-12T10:45:47Z</time>
      </trkpt>
      <trkpt lat="45.56645" lon="6.08267">
        <ele>1199</ele>
        <time>2013-01-12T10:45:50Z</time>
      </trkpt>
      <trkpt lat="45.56644" lon="6.08267">
        <ele>1199</ele>
        <time>2013-01-12T10:45:53Z</time>
      </trkpt>
      <trkpt lat="45.56639" lon="6.08268">
        <ele>1199</ele>
        <time>2013-01-12T10:45:58Z</time>
      </trkpt>
      <trkpt lat="45.56638" lon="6.08268">
        <ele>1199</ele>
        <time>2013-01-12T10:46:01Z</time>
      </trkpt>
      <trkpt lat="45.56635" lon="6.08269">
        <ele>1199</ele>
        <time>2013-01-12T10:46:03Z</time>
      </trkpt>
      <trkpt lat="45.56633" lon="6.08266">
        <ele>1199</ele>
        <time>2013-01-12T10:46:06Z</time>
      </trkpt>
      <trkpt lat="45.56631" lon="6.08264">
        <ele>1199</ele>
        <time>2013-01-12T10:46:08Z</time>
      </trkpt>
      <trkpt lat="45.5663" lon="6.08263">
        <ele>1199</ele>
        <time>2013-01-12T10:46:10Z</time>
      </trkpt>
      <trkpt lat="45.56627" lon="6.08265">
        <ele>1198</ele>
        <time>2013-01-12T10:46:12Z</time>
      </trkpt>
      <trkpt lat="45.56624" lon="6.08266">
        <ele>1197</ele>
        <time>2013-01-12T10:46:16Z</time>
      </trkpt>
      <trkpt lat="45.56619" lon="6.08269">
        <ele>1196</ele>
        <time>2013-01-12T10:46:20Z</time>
      </trkpt>
      <trkpt lat="45.56618" lon="6.08269">
        <ele>1196</ele>
        <time>2013-01-12T10:46:24Z</time>
      </trkpt>
      <trkpt lat="45.56615" lon="6.08268">
        <ele>1196</ele>
        <time>2013-01-12T10:46:26Z</time>
      </trkpt>
      <trkpt lat="45.56612" lon="6.08268">
        <ele>1196</ele>
        <time>2013-01-12T10:46:28Z</time>
      </trkpt>
      <trkpt lat="45.56611" lon="6.08267">
        <ele>1196</ele>
        <time>2013-01-12T10:46:30Z</time>
      </trkpt>
      <trkpt lat="45.5661" lon="6.08266">
        <ele>1196</ele>
        <time>2013-01-12T10:46:33Z</time>
      </trkpt>
      <trkpt lat="45.56608" lon="6.08265">
        <ele>1196</ele>
        <time>2013-01-12T10:46:35Z</time>
      </trkpt>
      <trkpt lat="45.56607" lon="6.08266">
        <ele>1196</ele>
        <time>2013-01-12T10:46:37Z</time>
      </trkpt>
      <trkpt lat="45.56605" lon="6.08266">
        <ele>1196</ele>
        <time>2013-01-12T10:46:39Z</time>
      </trkpt>
      <trkpt lat="45.56604" lon="6.08266">
        <ele>1196</ele>
        <time>2013-01-12T10:46:41Z</time>
      </trkpt>
      <trkpt lat="45.56602" lon="6.08265">
        <ele>1196</ele>
        <time>2013-01-12T10:46:44Z</time>
      </trkpt>
      <trkpt lat="45.56596" lon="6.08261">
        <ele>1195</ele>
        <time>2013-01-12T10:46:47Z</time>
      </trkpt>
      <trkpt lat="45.56596" lon="6.08259">
        <ele>1195</ele>
        <time>2013-01-12T10:46:50Z</time>
      </trkpt>
      <trkpt lat="45.56593" lon="6.08259">
        <ele>1195</ele>
        <time>2013-01-12T10:46:52Z</time>
      </trkpt>
      <trkpt lat="45.56592" lon="6.08259">
        <ele>1195</ele>
        <time>2013-01-12T10:46:54Z</time>
      </trkpt>
      <trkpt lat="45.56589" lon="6.0826">
        <ele>1194</ele>
        <time>2013-01-12T10:46:57Z</time>
      </trkpt>
      <trkpt lat="45.56587" lon="6.08261">
        <ele>1193</ele>
        <time>2013-01-12T10:46:59Z</time>
      </trkpt>
      <trkpt lat="45.56585" lon="6.08261">
        <ele>1192</ele>
        <time>2013-01-12T10:47:01Z</time>
      </trkpt>
      <trkpt lat="45.56582" lon="6.08263">
        <ele>1191</ele>
        <time>2013-01-12T10:47:03Z</time>
      </trkpt>
      <trkpt lat="45.56578" lon="6.08264">
        <ele>1189</ele>
        <time>2013-01-12T10:47:06Z</time>
      </trkpt>
      <trkpt lat="45.5658" lon="6.08259">
        <ele>1188</ele>
        <time>2013-01-12T10:47:09Z</time>
      </trkpt>
      <trkpt lat="45.56579" lon="6.0826">
        <ele>1188</ele>
        <time>2013-01-12T10:47:14Z</time>
      </trkpt>
      <trkpt lat="45.56578" lon="6.08261">
        <ele>1188</ele>
        <time>2013-01-12T10:47:17Z</time>
      </trkpt>
      <trkpt lat="45.56575" lon="6.08263">
        <ele>1188</ele>
        <time>2013-01-12T10:47:19Z</time>
      </trkpt>
      <trkpt lat="45.56574" lon="6.08264">
        <ele>1188</ele>
        <time>2013-01-12T10:47:22Z</time>
      </trkpt>
      <trkpt lat="45.56572" lon="6.08265">
        <ele>1188</ele>
        <time>2013-01-12T10:47:25Z</time>
      </trkpt>
      <trkpt lat="45.56572" lon="6.08266">
        <ele>1188</ele>
        <time>2013-01-12T10:47:27Z</time>
      </trkpt>
      <trkpt lat="45.56572" lon="6.08268">
        <ele>1188</ele>
        <time>2013-01-12T10:47:30Z</time>
      </trkpt>
      <trkpt lat="45.56572" lon="6.0827">
        <ele>1188</ele>
        <time>2013-01-12T10:47:32Z</time>
      </trkpt>
      <trkpt lat="45.56571" lon="6.08272">
        <ele>1188</ele>
        <time>2013-01-12T10:47:36Z</time>
      </trkpt>
      <trkpt lat="45.56572" lon="6.08273">
        <ele>1189</ele>
        <time>2013-01-12T10:47:40Z</time>
      </trkpt>
      <trkpt lat="45.56573" lon="6.08274">
        <ele>1190</ele>
        <time>2013-01-12T10:47:44Z</time>
      </trkpt>
      <trkpt lat="45.56571" lon="6.08277">
        <ele>1191</ele>
        <time>2013-01-12T10:47:52Z</time>
      </trkpt>
      <trkpt lat="45.56569" lon="6.08276">
        <ele>1191</ele>
        <time>2013-01-12T10:47:57Z</time>
      </trkpt>
      <trkpt lat="45.56568" lon="6.08274">
        <ele>1194</ele>
        <time>2013-01-12T10:48:02Z</time>
      </trkpt>
      <trkpt lat="45.56569" lon="6.08275">
        <ele>1194</ele>
        <time>2013-01-12T10:48:04Z</time>
      </trkpt>
      <trkpt lat="45.5657" lon="6.08276">
        <ele>1194</ele>
        <time>2013-01-12T10:48:06Z</time>
      </trkpt>
      <trkpt lat="45.56571" lon="6.08278">
        <ele>1194</ele>
        <time>2013-01-12T10:48:08Z</time>
      </trkpt>
      <trkpt lat="45.56572" lon="6.08279">
        <ele>1194</ele>
        <time>2013-01-12T10:48:10Z</time>
      </trkpt>
      <trkpt lat="45.56573" lon="6.08281">
        <ele>1194</ele>
        <time>2013-01-12T10:48:13Z</time>
      </trkpt>
      <trkpt lat="45.56572" lon="6.08284">
        <ele>1194</ele>
        <time>2013-01-12T10:48:15Z</time>
      </trkpt>
      <trkpt lat="45.56574" lon="6.08287">
        <ele>1194</ele>
        <time>2013-01-12T10:48:17Z</time>
      </trkpt>
      <trkpt lat="45.56576" lon="6.08288">
        <ele>1194</ele>
        <time>2013-01-12T10:48:19Z</time>
      </trkpt>
      <trkpt lat="45.56577" lon="6.08289">
        <ele>1193</ele>
        <time>2013-01-12T10:48:22Z</time>
      </trkpt>
      <trkpt lat="45.56579" lon="6.08291">
        <ele>1191</ele>
        <time>2013-01-12T10:48:24Z</time>
      </trkpt>
      <trkpt lat="45.5658" lon="6.08292">
        <ele>1190</ele>
        <time>2013-01-12T10:48:28Z</time>
      </trkpt>
      <trkpt lat="45.56581" lon="6.08294">
        <ele>1190</ele>
        <time>2013-01-12T10:48:30Z</time>
      </trkpt>
      <trkpt lat="45.56583" lon="6.08296">
        <ele>1190</ele>
        <time>2013-01-12T10:48:33Z</time>
      </trkpt>
      <trkpt lat="45.56583" lon="6.08297">
        <ele>1190</ele>
        <time>2013-01-12T10:48:35Z</time>
      </trkpt>
      <trkpt lat="45.56585" lon="6.08299">
        <ele>1190</ele>
        <time>2013-01-12T10:48:38Z</time>
      </trkpt>
      <trkpt lat="45.56586" lon="6.083">
        <ele>1190</ele>
        <time>2013-01-12T10:48:41Z</time>
      </trkpt>
      <trkpt lat="45.56588" lon="6.08302">
        <ele>1190</ele>
        <time>2013-01-12T10:48:43Z</time>
      </trkpt>
      <trkpt lat="45.56589" lon="6.08302">
        <ele>1190</ele>
        <time>2013-01-12T10:48:48Z</time>
      </trkpt>
      <trkpt lat="45.56593" lon="6.08307">
        <ele>1190</ele>
        <time>2013-01-12T10:48:55Z</time>
      </trkpt>
      <trkpt lat="45.56593" lon="6.08309">
        <ele>1191</ele>
        <time>2013-01-12T10:48:59Z</time>
      </trkpt>
      <trkpt lat="45.56597" lon="6.08317">
        <ele>1194</ele>
        <time>2013-01-12T10:49:06Z</time>
      </trkpt>
      <trkpt lat="45.56599" lon="6.08319">
        <ele>1193</ele>
        <time>2013-01-12T10:49:08Z</time>
      </trkpt>
      <trkpt lat="45.56601" lon="6.08321">
        <ele>1193</ele>
        <time>2013-01-12T10:49:10Z</time>
      </trkpt>
      <trkpt lat="45.56602" lon="6.08324">
        <ele>1192</ele>
        <time>2013-01-12T10:49:13Z</time>
      </trkpt>
      <trkpt lat="45.56604" lon="6.08326">
        <ele>1191</ele>
        <time>2013-01-12T10:49:15Z</time>
      </trkpt>
      <trkpt lat="45.56607" lon="6.08327">
        <ele>1189</ele>
        <time>2013-01-12T10:49:17Z</time>
      </trkpt>
      <trkpt lat="45.56609" lon="6.0833">
        <ele>1186</ele>
        <time>2013-01-12T10:49:20Z</time>
      </trkpt>
      <trkpt lat="45.5661" lon="6.08332">
        <ele>1185</ele>
        <time>2013-01-12T10:49:22Z</time>
      </trkpt>
      <trkpt lat="45.56612" lon="6.08334">
        <ele>1184</ele>
        <time>2013-01-12T10:49:24Z</time>
      </trkpt>
      <trkpt lat="45.56613" lon="6.08336">
        <ele>1182</ele>
        <time>2013-01-12T10:49:26Z</time>
      </trkpt>
      <trkpt lat="45.56615" lon="6.08338">
        <ele>1182</ele>
        <time>2013-01-12T10:49:28Z</time>
      </trkpt>
      <trkpt lat="45.56617" lon="6.08341">
        <ele>1182</ele>
        <time>2013-01-12T10:49:31Z</time>
      </trkpt>
      <trkpt lat="45.56618" lon="6.08344">
        <ele>1182</ele>
        <time>2013-01-12T10:49:33Z</time>
      </trkpt>
      <trkpt lat="45.5662" lon="6.08346">
        <ele>1182</ele>
        <time>2013-01-12T10:49:35Z</time>
      </trkpt>
      <trkpt lat="45.56621" lon="6.08349">
        <ele>1182</ele>
        <time>2013-01-12T10:49:37Z</time>
      </trkpt>
      <trkpt lat="45.56622" lon="6.08351">
        <ele>1182</ele>
        <time>2013-01-12T10:49:40Z</time>
      </trkpt>
      <trkpt lat="45.56624" lon="6.08353">
        <ele>1182</ele>
        <time>2013-01-12T10:49:42Z</time>
      </trkpt>
      <trkpt lat="45.56624" lon="6.08356">
        <ele>1182</ele>
        <time>2013-01-12T10:49:44Z</time>
      </trkpt>
      <trkpt lat="45.56625" lon="6.08357">
        <ele>1182</ele>
        <time>2013-01-12T10:49:47Z</time>
      </trkpt>
      <trkpt lat="45.56627" lon="6.08358">
        <ele>1182</ele>
        <time>2013-01-12T10:49:49Z</time>
      </trkpt>
      <trkpt lat="45.56629" lon="6.08359">
        <ele>1182</ele>
        <time>2013-01-12T10:49:51Z</time>
      </trkpt>
      <trkpt lat="45.56631" lon="6.08361">
        <ele>1182</ele>
        <time>2013-01-12T10:49:54Z</time>
      </trkpt>
      <trkpt lat="45.56633" lon="6.08361">
        <ele>1182</ele>
        <time>2013-01-12T10:49:56Z</time>
      </trkpt>
      <trkpt lat="45.56633" lon="6.08363">
        <ele>1182</ele>
        <time>2013-01-12T10:49:58Z</time>
      </trkpt>
      <trkpt lat="45.56632" lon="6.08364">
        <ele>1182</ele>
        <time>2013-01-12T10:50:00Z</time>
      </trkpt>
      <trkpt lat="45.56631" lon="6.08365">
        <ele>1182</ele>
        <time>2013-01-12T10:50:02Z</time>
      </trkpt>
      <trkpt lat="45.56633" lon="6.08367">
        <ele>1182</ele>
        <time>2013-01-12T10:50:04Z</time>
      </trkpt>
      <trkpt lat="45.56634" lon="6.08367">
        <ele>1182</ele>
        <time>2013-01-12T10:50:06Z</time>
      </trkpt>
      <trkpt lat="45.56637" lon="6.08368">
        <ele>1182</ele>
        <time>2013-01-12T10:50:08Z</time>
      </trkpt>
      <trkpt lat="45.56639" lon="6.08369">
        <ele>1182</ele>
        <time>2013-01-12T10:50:11Z</time>
      </trkpt>
      <trkpt lat="45.56641" lon="6.08371">
        <ele>1182</ele>
        <time>2013-01-12T10:50:13Z</time>
      </trkpt>
      <trkpt lat="45.56643" lon="6.08372">
        <ele>1182</ele>
        <time>2013-01-12T10:50:15Z</time>
      </trkpt>
      <trkpt lat="45.56644" lon="6.08373">
        <ele>1182</ele>
        <time>2013-01-12T10:50:17Z</time>
      </trkpt>
      <trkpt lat="45.56646" lon="6.08375">
        <ele>1182</ele>
        <time>2013-01-12T10:50:20Z</time>
      </trkpt>
      <trkpt lat="45.56647" lon="6.08376">
        <ele>1182</ele>
        <time>2013-01-12T10:50:22Z</time>
      </trkpt>
      <trkpt lat="45.56649" lon="6.08376">
        <ele>1182</ele>
        <time>2013-01-12T10:50:24Z</time>
      </trkpt>
      <trkpt lat="45.56651" lon="6.08378">
        <ele>1182</ele>
        <time>2013-01-12T10:50:26Z</time>
      </trkpt>
      <trkpt lat="45.56652" lon="6.08379">
        <ele>1182</ele>
        <time>2013-01-12T10:50:29Z</time>
      </trkpt>
      <trkpt lat="45.56654" lon="6.0838">
        <ele>1182</ele>
        <time>2013-01-12T10:50:31Z</time>
      </trkpt>
      <trkpt lat="45.56657" lon="6.08382">
        <ele>1182</ele>
        <time>2013-01-12T10:50:33Z</time>
      </trkpt>
      <trkpt lat="45.56658" lon="6.08383">
        <ele>1182</ele>
        <time>2013-01-12T10:50:35Z</time>
      </trkpt>
      <trkpt lat="45.56661" lon="6.08385">
        <ele>1182</ele>
        <time>2013-01-12T10:50:40Z</time>
      </trkpt>
      <trkpt lat="45.56662" lon="6.08386">
        <ele>1182</ele>
        <time>2013-01-12T10:50:42Z</time>
      </trkpt>
      <trkpt lat="45.5667" lon="6.0839">
        <ele>1187</ele>
        <time>2013-01-12T10:50:47Z</time>
      </trkpt>
      <trkpt lat="45.56671" lon="6.08391">
        <ele>1187</ele>
        <time>2013-01-12T10:50:50Z</time>
      </trkpt>
      <trkpt lat="45.56673" lon="6.08392">
        <ele>1187</ele>
        <time>2013-01-12T10:50:52Z</time>
      </trkpt>
      <trkpt lat="45.56674" lon="6.08392">
        <ele>1187</ele>
        <time>2013-01-12T10:50:54Z</time>
      </trkpt>
      <trkpt lat="45.56676" lon="6.08393">
        <ele>1187</ele>
        <time>2013-01-12T10:50:57Z</time>
      </trkpt>
      <trkpt lat="45.56678" lon="6.08394">
        <ele>1187</ele>
        <time>2013-01-12T10:51:00Z</time>
      </trkpt>
      <trkpt lat="45.56678" lon="6.08396">
        <ele>1187</ele>
        <time>2013-01-12T10:51:03Z</time>
      </trkpt>
      <trkpt lat="45.56681" lon="6.08394">
        <ele>1187</ele>
        <time>2013-01-12T10:51:09Z</time>
      </trkpt>
      <trkpt lat="45.56683" lon="6.08395">
        <ele>1187</ele>
        <time>2013-01-12T10:51:11Z</time>
      </trkpt>
      <trkpt lat="45.56684" lon="6.08397">
        <ele>1187</ele>
        <time>2013-01-12T10:51:13Z</time>
      </trkpt>
      <trkpt lat="45.56686" lon="6.08398">
        <ele>1187</ele>
        <time>2013-01-12T10:51:16Z</time>
      </trkpt>
      <trkpt lat="45.56687" lon="6.08399">
        <ele>1187</ele>
        <time>2013-01-12T10:51:18Z</time>
      </trkpt>
      <trkpt lat="45.56689" lon="6.08399">
        <ele>1187</ele>
        <time>2013-01-12T10:51:22Z</time>
      </trkpt>
      <trkpt lat="45.56689" lon="6.08403">
        <ele>1187</ele>
        <time>2013-01-12T10:51:27Z</time>
      </trkpt>
      <trkpt lat="45.56688" lon="6.08405">
        <ele>1188</ele>
        <time>2013-01-12T10:51:29Z</time>
      </trkpt>
      <trkpt lat="45.56694" lon="6.08402">
        <ele>1193</ele>
        <time>2013-01-12T10:51:35Z</time>
      </trkpt>
      <trkpt lat="45.56696" lon="6.08403">
        <ele>1193</ele>
        <time>2013-01-12T10:51:37Z</time>
      </trkpt>
      <trkpt lat="45.56697" lon="6.08404">
        <ele>1193</ele>
        <time>2013-01-12T10:51:39Z</time>
      </trkpt>
      <trkpt lat="45.56699" lon="6.08404">
        <ele>1193</ele>
        <time>2013-01-12T10:51:41Z</time>
      </trkpt>
      <trkpt lat="45.56701" lon="6.08405">
        <ele>1193</ele>
        <time>2013-01-12T10:51:43Z</time>
      </trkpt>
      <trkpt lat="45.56703" lon="6.08406">
        <ele>1193</ele>
        <time>2013-01-12T10:51:45Z</time>
      </trkpt>
      <trkpt lat="45.56705" lon="6.08407">
        <ele>1193</ele>
        <time>2013-01-12T10:51:47Z</time>
      </trkpt>
      <trkpt lat="45.56707" lon="6.08407">
        <ele>1193</ele>
        <time>2013-01-12T10:51:49Z</time>
      </trkpt>
      <trkpt lat="45.56708" lon="6.08409">
        <ele>1193</ele>
        <time>2013-01-12T10:51:51Z</time>
      </trkpt>
      <trkpt lat="45.5671" lon="6.08408">
        <ele>1193</ele>
        <time>2013-01-12T10:51:53Z</time>
      </trkpt>
      <trkpt lat="45.56711" lon="6.08407">
        <ele>1193</ele>
        <time>2013-01-12T10:51:55Z</time>
      </trkpt>
      <trkpt lat="45.5671" lon="6.08406">
        <ele>1197</ele>
        <time>2013-01-12T10:52:00Z</time>
      </trkpt>
      <trkpt lat="45.5671" lon="6.08408">
        <ele>1197</ele>
        <time>2013-01-12T10:52:02Z</time>
      </trkpt>
      <trkpt lat="45.56709" lon="6.08411">
        <ele>1197</ele>
        <time>2013-01-12T10:52:04Z</time>
      </trkpt>
      <trkpt lat="45.56708" lon="6.08413">
        <ele>1197</ele>
        <time>2013-01-12T10:52:06Z</time>
      </trkpt>
      <trkpt lat="45.56706" lon="6.08416">
        <ele>1197</ele>
        <time>2013-01-12T10:52:10Z</time>
      </trkpt>
      <trkpt lat="45.56706" lon="6.08418">
        <ele>1192</ele>
        <time>2013-01-12T10:52:16Z</time>
      </trkpt>
      <trkpt lat="45.56704" lon="6.08418">
        <ele>1191</ele>
        <time>2013-01-12T10:52:18Z</time>
      </trkpt>
      <trkpt lat="45.56701" lon="6.08419">
        <ele>1190</ele>
        <time>2013-01-12T10:52:20Z</time>
      </trkpt>
      <trkpt lat="45.567" lon="6.0842">
        <ele>1189</ele>
        <time>2013-01-12T10:52:22Z</time>
      </trkpt>
      <trkpt lat="45.567" lon="6.08422">
        <ele>1188</ele>
        <time>2013-01-12T10:52:25Z</time>
      </trkpt>
      <trkpt lat="45.567" lon="6.0842">
        <ele>1188</ele>
        <time>2013-01-12T10:52:27Z</time>
      </trkpt>
      <trkpt lat="45.56702" lon="6.08421">
        <ele>1188</ele>
        <time>2013-01-12T10:52:31Z</time>
      </trkpt>
      <trkpt lat="45.56703" lon="6.08421">
        <ele>1188</ele>
        <time>2013-01-12T10:52:33Z</time>
      </trkpt>
      <trkpt lat="45.56704" lon="6.08422">
        <ele>1188</ele>
        <time>2013-01-12T10:52:35Z</time>
      </trkpt>
      <trkpt lat="45.56706" lon="6.08423">
        <ele>1188</ele>
        <time>2013-01-12T10:52:38Z</time>
      </trkpt>
      <trkpt lat="45.56706" lon="6.08425">
        <ele>1187</ele>
        <time>2013-01-12T10:52:40Z</time>
      </trkpt>
      <trkpt lat="45.56708" lon="6.08426">
        <ele>1185</ele>
        <time>2013-01-12T10:52:42Z</time>
      </trkpt>
      <trkpt lat="45.5671" lon="6.08427">
        <ele>1184</ele>
        <time>2013-01-12T10:52:45Z</time>
      </trkpt>
      <trkpt lat="45.56711" lon="6.08427">
        <ele>1184</ele>
        <time>2013-01-12T10:52:47Z</time>
      </trkpt>
      <trkpt lat="45.56712" lon="6.08425">
        <ele>1184</ele>
        <time>2013-01-12T10:52:49Z</time>
      </trkpt>
      <trkpt lat="45.56714" lon="6.08425">
        <ele>1184</ele>
        <time>2013-01-12T10:52:51Z</time>
      </trkpt>
      <trkpt lat="45.56715" lon="6.08425">
        <ele>1184</ele>
        <time>2013-01-12T10:52:53Z</time>
      </trkpt>
      <trkpt lat="45.56716" lon="6.08427">
        <ele>1184</ele>
        <time>2013-01-12T10:52:57Z</time>
      </trkpt>
      <trkpt lat="45.56718" lon="6.08427">
        <ele>1184</ele>
        <time>2013-01-12T10:52:59Z</time>
      </trkpt>
      <trkpt lat="45.5672" lon="6.08426">
        <ele>1184</ele>
        <time>2013-01-12T10:53:01Z</time>
      </trkpt>
      <trkpt lat="45.56721" lon="6.08427">
        <ele>1183</ele>
        <time>2013-01-12T10:53:03Z</time>
      </trkpt>
      <trkpt lat="45.56722" lon="6.08426">
        <ele>1183</ele>
        <time>2013-01-12T10:53:05Z</time>
      </trkpt>
      <trkpt lat="45.56723" lon="6.08425">
        <ele>1183</ele>
        <time>2013-01-12T10:53:08Z</time>
      </trkpt>
      <trkpt lat="45.56728" lon="6.08422">
        <ele>1180</ele>
        <time>2013-01-12T10:53:11Z</time>
      </trkpt>
      <trkpt lat="45.56729" lon="6.08423">
        <ele>1180</ele>
        <time>2013-01-12T10:53:13Z</time>
      </trkpt>
      <trkpt lat="45.56731" lon="6.08423">
        <ele>1180</ele>
        <time>2013-01-12T10:53:15Z</time>
      </trkpt>
      <trkpt lat="45.56735" lon="6.08425">
        <ele>1180</ele>
        <time>2013-01-12T10:53:17Z</time>
      </trkpt>
      <trkpt lat="45.56738" lon="6.08427">
        <ele>1180</ele>
        <time>2013-01-12T10:53:19Z</time>
      </trkpt>
      <trkpt lat="45.5674" lon="6.08428">
        <ele>1180</ele>
        <time>2013-01-12T10:53:21Z</time>
      </trkpt>
      <trkpt lat="45.56744" lon="6.08429">
        <ele>1180</ele>
        <time>2013-01-12T10:53:24Z</time>
      </trkpt>
      <trkpt lat="45.56747" lon="6.08429">
        <ele>1180</ele>
        <time>2013-01-12T10:53:26Z</time>
      </trkpt>
      <trkpt lat="45.56749" lon="6.08431">
        <ele>1181</ele>
        <time>2013-01-12T10:53:28Z</time>
      </trkpt>
      <trkpt lat="45.56751" lon="6.08431">
        <ele>1183</ele>
        <time>2013-01-12T10:53:30Z</time>
      </trkpt>
      <trkpt lat="45.56753" lon="6.08431">
        <ele>1184</ele>
        <time>2013-01-12T10:53:33Z</time>
      </trkpt>
      <trkpt lat="45.56755" lon="6.08432">
        <ele>1184</ele>
        <time>2013-01-12T10:53:35Z</time>
      </trkpt>
      <trkpt lat="45.56755" lon="6.08436">
        <ele>1184</ele>
        <time>2013-01-12T10:53:37Z</time>
      </trkpt>
      <trkpt lat="45.56756" lon="6.08438">
        <ele>1184</ele>
        <time>2013-01-12T10:53:39Z</time>
      </trkpt>
      <trkpt lat="45.56757" lon="6.0844">
        <ele>1184</ele>
        <time>2013-01-12T10:53:41Z</time>
      </trkpt>
      <trkpt lat="45.56759" lon="6.08441">
        <ele>1184</ele>
        <time>2013-01-12T10:53:43Z</time>
      </trkpt>
      <trkpt lat="45.56761" lon="6.08445">
        <ele>1184</ele>
        <time>2013-01-12T10:53:46Z</time>
      </trkpt>
      <trkpt lat="45.56763" lon="6.08445">
        <ele>1184</ele>
        <time>2013-01-12T10:53:48Z</time>
      </trkpt>
      <trkpt lat="45.56766" lon="6.08445">
        <ele>1184</ele>
        <time>2013-01-12T10:53:50Z</time>
      </trkpt>
      <trkpt lat="45.56767" lon="6.08444">
        <ele>1184</ele>
        <time>2013-01-12T10:53:52Z</time>
      </trkpt>
      <trkpt lat="45.56768" lon="6.08447">
        <ele>1184</ele>
        <time>2013-01-12T10:53:54Z</time>
      </trkpt>
      <trkpt lat="45.5677" lon="6.08449">
        <ele>1184</ele>
        <time>2013-01-12T10:53:56Z</time>
      </trkpt>
      <trkpt lat="45.56772" lon="6.0845">
        <ele>1184</ele>
        <time>2013-01-12T10:53:58Z</time>
      </trkpt>
      <trkpt lat="45.56774" lon="6.08449">
        <ele>1183</ele>
        <time>2013-01-12T10:54:00Z</time>
      </trkpt>
      <trkpt lat="45.56776" lon="6.0845">
        <ele>1183</ele>
        <time>2013-01-12T10:54:02Z</time>
      </trkpt>
      <trkpt lat="45.56778" lon="6.08453">
        <ele>1183</ele>
        <time>2013-01-12T10:54:05Z</time>
      </trkpt>
      <trkpt lat="45.5678" lon="6.08454">
        <ele>1183</ele>
        <time>2013-01-12T10:54:08Z</time>
      </trkpt>
      <trkpt lat="45.56782" lon="6.08456">
        <ele>1183</ele>
        <time>2013-01-12T10:54:10Z</time>
      </trkpt>
      <trkpt lat="45.56784" lon="6.08457">
        <ele>1183</ele>
        <time>2013-01-12T10:54:12Z</time>
      </trkpt>
      <trkpt lat="45.56786" lon="6.08457">
        <ele>1183</ele>
        <time>2013-01-12T10:54:14Z</time>
      </trkpt>
      <trkpt lat="45.56789" lon="6.08457">
        <ele>1183</ele>
        <time>2013-01-12T10:54:16Z</time>
      </trkpt>
      <trkpt lat="45.56791" lon="6.08457">
        <ele>1183</ele>
        <time>2013-01-12T10:54:18Z</time>
      </trkpt>
      <trkpt lat="45.56794" lon="6.08457">
        <ele>1183</ele>
        <time>2013-01-12T10:54:20Z</time>
      </trkpt>
      <trkpt lat="45.56797" lon="6.08459">
        <ele>1183</ele>
        <time>2013-01-12T10:54:22Z</time>
      </trkpt>
      <trkpt lat="45.568" lon="6.0846">
        <ele>1183</ele>
        <time>2013-01-12T10:54:24Z</time>
      </trkpt>
      <trkpt lat="45.56802" lon="6.08463">
        <ele>1183</ele>
        <time>2013-01-12T10:54:26Z</time>
      </trkpt>
      <trkpt lat="45.56804" lon="6.08467">
        <ele>1181</ele>
        <time>2013-01-12T10:54:29Z</time>
      </trkpt>
      <trkpt lat="45.56806" lon="6.08471">
        <ele>1181</ele>
        <time>2013-01-12T10:54:31Z</time>
      </trkpt>
      <trkpt lat="45.56809" lon="6.08474">
        <ele>1181</ele>
        <time>2013-01-12T10:54:33Z</time>
      </trkpt>
      <trkpt lat="45.56813" lon="6.08477">
        <ele>1181</ele>
        <time>2013-01-12T10:54:35Z</time>
      </trkpt>
      <trkpt lat="45.56816" lon="6.08481">
        <ele>1181</ele>
        <time>2013-01-12T10:54:38Z</time>
      </trkpt>
      <trkpt lat="45.56818" lon="6.08486">
        <ele>1181</ele>
        <time>2013-01-12T10:54:41Z</time>
      </trkpt>
      <trkpt lat="45.56818" lon="6.08489">
        <ele>1180</ele>
        <time>2013-01-12T10:54:43Z</time>
      </trkpt>
      <trkpt lat="45.56819" lon="6.08492">
        <ele>1179</ele>
        <time>2013-01-12T10:54:46Z</time>
      </trkpt>
      <trkpt lat="45.5682" lon="6.08495">
        <ele>1179</ele>
        <time>2013-01-12T10:54:48Z</time>
      </trkpt>
      <trkpt lat="45.56821" lon="6.08497">
        <ele>1179</ele>
        <time>2013-01-12T10:54:50Z</time>
      </trkpt>
      <trkpt lat="45.56823" lon="6.08498">
        <ele>1179</ele>
        <time>2013-01-12T10:54:52Z</time>
      </trkpt>
      <trkpt lat="45.56826" lon="6.08499">
        <ele>1179</ele>
        <time>2013-01-12T10:54:54Z</time>
      </trkpt>
      <trkpt lat="45.56829" lon="6.085">
        <ele>1179</ele>
        <time>2013-01-12T10:54:56Z</time>
      </trkpt>
      <trkpt lat="45.56832" lon="6.085">
        <ele>1179</ele>
        <time>2013-01-12T10:54:58Z</time>
      </trkpt>
      <trkpt lat="45.56835" lon="6.08501">
        <ele>1179</ele>
        <time>2013-01-12T10:55:00Z</time>
      </trkpt>
      <trkpt lat="45.56838" lon="6.08499">
        <ele>1179</ele>
        <time>2013-01-12T10:55:03Z</time>
      </trkpt>
      <trkpt lat="45.56839" lon="6.08498">
        <ele>1179</ele>
        <time>2013-01-12T10:55:05Z</time>
      </trkpt>
      <trkpt lat="45.56839" lon="6.08494">
        <ele>1179</ele>
        <time>2013-01-12T10:55:07Z</time>
      </trkpt>
      <trkpt lat="45.56842" lon="6.08491">
        <ele>1179</ele>
        <time>2013-01-12T10:55:09Z</time>
      </trkpt>
      <trkpt lat="45.56844" lon="6.08489">
        <ele>1180</ele>
        <time>2013-01-12T10:55:11Z</time>
      </trkpt>
      <trkpt lat="45.56847" lon="6.08489">
        <ele>1181</ele>
        <time>2013-01-12T10:55:13Z</time>
      </trkpt>
      <trkpt lat="45.56848" lon="6.08488">
        <ele>1181</ele>
        <time>2013-01-12T10:55:15Z</time>
      </trkpt>
      <trkpt lat="45.56851" lon="6.08486">
        <ele>1182</ele>
        <time>2013-01-12T10:55:17Z</time>
      </trkpt>
      <trkpt lat="45.56853" lon="6.08487">
        <ele>1182</ele>
        <time>2013-01-12T10:55:19Z</time>
      </trkpt>
      <trkpt lat="45.56854" lon="6.08488">
        <ele>1182</ele>
        <time>2013-01-12T10:55:21Z</time>
      </trkpt>
      <trkpt lat="45.56855" lon="6.08486">
        <ele>1182</ele>
        <time>2013-01-12T10:55:23Z</time>
      </trkpt>
      <trkpt lat="45.56857" lon="6.08485">
        <ele>1182</ele>
        <time>2013-01-12T10:55:25Z</time>
      </trkpt>
      <trkpt lat="45.56859" lon="6.08485">
        <ele>1182</ele>
        <time>2013-01-12T10:55:27Z</time>
      </trkpt>
      <trkpt lat="45.56861" lon="6.08484">
        <ele>1182</ele>
        <time>2013-01-12T10:55:29Z</time>
      </trkpt>
      <trkpt lat="45.56865" lon="6.08483">
        <ele>1182</ele>
        <time>2013-01-12T10:55:32Z</time>
      </trkpt>
      <trkpt lat="45.56867" lon="6.08482">
        <ele>1182</ele>
        <time>2013-01-12T10:55:34Z</time>
      </trkpt>
      <trkpt lat="45.56871" lon="6.08483">
        <ele>1182</ele>
        <time>2013-01-12T10:55:37Z</time>
      </trkpt>
      <trkpt lat="45.56874" lon="6.08483">
        <ele>1181</ele>
        <time>2013-01-12T10:55:40Z</time>
      </trkpt>
      <trkpt lat="45.56876" lon="6.08484">
        <ele>1181</ele>
        <time>2013-01-12T10:55:42Z</time>
      </trkpt>
      <trkpt lat="45.56878" lon="6.08485">
        <ele>1181</ele>
        <time>2013-01-12T10:55:44Z</time>
      </trkpt>
      <trkpt lat="45.56879" lon="6.08487">
        <ele>1181</ele>
        <time>2013-01-12T10:55:46Z</time>
      </trkpt>
      <trkpt lat="45.56882" lon="6.0849">
        <ele>1181</ele>
        <time>2013-01-12T10:55:49Z</time>
      </trkpt>
      <trkpt lat="45.56884" lon="6.08491">
        <ele>1181</ele>
        <time>2013-01-12T10:55:51Z</time>
      </trkpt>
      <trkpt lat="45.56886" lon="6.08493">
        <ele>1180</ele>
        <time>2013-01-12T10:55:53Z</time>
      </trkpt>
      <trkpt lat="45.56888" lon="6.08495">
        <ele>1180</ele>
        <time>2013-01-12T10:55:55Z</time>
      </trkpt>
      <trkpt lat="45.56891" lon="6.08497">
        <ele>1179</ele>
        <time>2013-01-12T10:55:58Z</time>
      </trkpt>
      <trkpt lat="45.56893" lon="6.08498">
        <ele>1179</ele>
        <time>2013-01-12T10:56:00Z</time>
      </trkpt>
      <trkpt lat="45.56897" lon="6.08498">
        <ele>1179</ele>
        <time>2013-01-12T10:56:02Z</time>
      </trkpt>
      <trkpt lat="45.56899" lon="6.08498">
        <ele>1179</ele>
        <time>2013-01-12T10:56:04Z</time>
      </trkpt>
      <trkpt lat="45.56902" lon="6.08498">
        <ele>1179</ele>
        <time>2013-01-12T10:56:07Z</time>
      </trkpt>
      <trkpt lat="45.56905" lon="6.08497">
        <ele>1179</ele>
        <time>2013-01-12T10:56:09Z</time>
      </trkpt>
      <trkpt lat="45.56907" lon="6.08498">
        <ele>1179</ele>
        <time>2013-01-12T10:56:11Z</time>
      </trkpt>
      <trkpt lat="45.56908" lon="6.08499">
        <ele>1179</ele>
        <time>2013-01-12T10:56:14Z</time>
      </trkpt>
      <trkpt lat="45.56911" lon="6.08499">
        <ele>1179</ele>
        <time>2013-01-12T10:56:16Z</time>
      </trkpt>
      <trkpt lat="45.56913" lon="6.08499">
        <ele>1179</ele>
        <time>2013-01-12T10:56:18Z</time>
      </trkpt>
      <trkpt lat="45.56916" lon="6.08499">
        <ele>1179</ele>
        <time>2013-01-12T10:56:21Z</time>
      </trkpt>
      <trkpt lat="45.56919" lon="6.08499">
        <ele>1179</ele>
        <time>2013-01-12T10:56:23Z</time>
      </trkpt>
      <trkpt lat="45.56921" lon="6.08498">
        <ele>1179</ele>
        <time>2013-01-12T10:56:25Z</time>
      </trkpt>
      <trkpt lat="45.56923" lon="6.08498">
        <ele>1179</ele>
        <time>2013-01-12T10:56:27Z</time>
      </trkpt>
      <trkpt lat="45.56926" lon="6.08497">
        <ele>1179</ele>
        <time>2013-01-12T10:56:29Z</time>
      </trkpt>
      <trkpt lat="45.56929" lon="6.08496">
        <ele>1179</ele>
        <time>2013-01-12T10:56:32Z</time>
      </trkpt>
      <trkpt lat="45.56931" lon="6.08496">
        <ele>1179</ele>
        <time>2013-01-12T10:56:34Z</time>
      </trkpt>
      <trkpt lat="45.56933" lon="6.08495">
        <ele>1179</ele>
        <time>2013-01-12T10:56:36Z</time>
      </trkpt>
      <trkpt lat="45.56935" lon="6.08493">
        <ele>1179</ele>
        <time>2013-01-12T10:56:38Z</time>
      </trkpt>
      <trkpt lat="45.56937" lon="6.08492">
        <ele>1179</ele>
        <time>2013-01-12T10:56:40Z</time>
      </trkpt>
      <trkpt lat="45.56939" lon="6.08492">
        <ele>1179</ele>
        <time>2013-01-12T10:56:42Z</time>
      </trkpt>
      <trkpt lat="45.5694" lon="6.0849">
        <ele>1179</ele>
        <time>2013-01-12T10:56:44Z</time>
      </trkpt>
      <trkpt lat="45.56942" lon="6.08489">
        <ele>1179</ele>
        <time>2013-01-12T10:56:46Z</time>
      </trkpt>
      <trkpt lat="45.56943" lon="6.08487">
        <ele>1179</ele>
        <time>2013-01-12T10:56:48Z</time>
      </trkpt>
      <trkpt lat="45.56945" lon="6.08485">
        <ele>1179</ele>
        <time>2013-01-12T10:56:50Z</time>
      </trkpt>
      <trkpt lat="45.56946" lon="6.08483">
        <ele>1179</ele>
        <time>2013-01-12T10:56:52Z</time>
      </trkpt>
      <trkpt lat="45.56947" lon="6.08481">
        <ele>1179</ele>
        <time>2013-01-12T10:56:54Z</time>
      </trkpt>
      <trkpt lat="45.56948" lon="6.08479">
        <ele>1179</ele>
        <time>2013-01-12T10:56:56Z</time>
      </trkpt>
      <trkpt lat="45.5695" lon="6.08477">
        <ele>1179</ele>
        <time>2013-01-12T10:56:59Z</time>
      </trkpt>
      <trkpt lat="45.56951" lon="6.08474">
        <ele>1179</ele>
        <time>2013-01-12T10:57:01Z</time>
      </trkpt>
      <trkpt lat="45.56955" lon="6.0847">
        <ele>1179</ele>
        <time>2013-01-12T10:57:04Z</time>
      </trkpt>
      <trkpt lat="45.56958" lon="6.08465">
        <ele>1179</ele>
        <time>2013-01-12T10:57:07Z</time>
      </trkpt>
      <trkpt lat="45.56961" lon="6.08462">
        <ele>1179</ele>
        <time>2013-01-12T10:57:10Z</time>
      </trkpt>
      <trkpt lat="45.56964" lon="6.08459">
        <ele>1179</ele>
        <time>2013-01-12T10:57:13Z</time>
      </trkpt>
      <trkpt lat="45.56966" lon="6.08458">
        <ele>1179</ele>
        <time>2013-01-12T10:57:15Z</time>
      </trkpt>
      <trkpt lat="45.56968" lon="6.08457">
        <ele>1179</ele>
        <time>2013-01-12T10:57:17Z</time>
      </trkpt>
      <trkpt lat="45.5697" lon="6.08455">
        <ele>1179</ele>
        <time>2013-01-12T10:57:19Z</time>
      </trkpt>
      <trkpt lat="45.56971" lon="6.08455">
        <ele>1179</ele>
        <time>2013-01-12T10:57:21Z</time>
      </trkpt>
      <trkpt lat="45.56972" lon="6.08457">
        <ele>1179</ele>
        <time>2013-01-12T10:57:23Z</time>
      </trkpt>
      <trkpt lat="45.56973" lon="6.08457">
        <ele>1179</ele>
        <time>2013-01-12T10:57:25Z</time>
      </trkpt>
      <trkpt lat="45.56973" lon="6.08459">
        <ele>1179</ele>
        <time>2013-01-12T10:57:27Z</time>
      </trkpt>
      <trkpt lat="45.56973" lon="6.08461">
        <ele>1179</ele>
        <time>2013-01-12T10:57:29Z</time>
      </trkpt>
      <trkpt lat="45.56976" lon="6.08462">
        <ele>1178</ele>
        <time>2013-01-12T10:57:33Z</time>
      </trkpt>
      <trkpt lat="45.56974" lon="6.08466">
        <ele>1177</ele>
        <time>2013-01-12T10:57:35Z</time>
      </trkpt>
      <trkpt lat="45.56972" lon="6.08468">
        <ele>1176</ele>
        <time>2013-01-12T10:57:37Z</time>
      </trkpt>
      <trkpt lat="45.5697" lon="6.0847">
        <ele>1174</ele>
        <time>2013-01-12T10:57:39Z</time>
      </trkpt>
      <trkpt lat="45.56969" lon="6.08471">
        <ele>1171</ele>
        <time>2013-01-12T10:57:42Z</time>
      </trkpt>
      <trkpt lat="45.56965" lon="6.08474">
        <ele>1171</ele>
        <time>2013-01-12T10:57:45Z</time>
      </trkpt>
      <trkpt lat="45.56966" lon="6.08475">
        <ele>1171</ele>
        <time>2013-01-12T10:57:48Z</time>
      </trkpt>
      <trkpt lat="45.56969" lon="6.08475">
        <ele>1171</ele>
        <time>2013-01-12T10:57:51Z</time>
      </trkpt>
      <trkpt lat="45.5697" lon="6.08475">
        <ele>1171</ele>
        <time>2013-01-12T10:57:54Z</time>
      </trkpt>
      <trkpt lat="45.56973" lon="6.08472">
        <ele>1171</ele>
        <time>2013-01-12T10:57:57Z</time>
      </trkpt>
      <trkpt lat="45.56977" lon="6.08466">
        <ele>1171</ele>
        <time>2013-01-12T10:58:02Z</time>
      </trkpt>
      <trkpt lat="45.56979" lon="6.08465">
        <ele>1171</ele>
        <time>2013-01-12T10:58:04Z</time>
      </trkpt>
      <trkpt lat="45.56981" lon="6.08463">
        <ele>1171</ele>
        <time>2013-01-12T10:58:07Z</time>
      </trkpt>
      <trkpt lat="45.56983" lon="6.08462">
        <ele>1171</ele>
        <time>2013-01-12T10:58:09Z</time>
      </trkpt>
      <trkpt lat="45.56985" lon="6.0846">
        <ele>1171</ele>
        <time>2013-01-12T10:58:11Z</time>
      </trkpt>
      <trkpt lat="45.56987" lon="6.0846">
        <ele>1171</ele>
        <time>2013-01-12T10:58:13Z</time>
      </trkpt>
      <trkpt lat="45.56989" lon="6.08459">
        <ele>1171</ele>
        <time>2013-01-12T10:58:15Z</time>
      </trkpt>
      <trkpt lat="45.5699" lon="6.08458">
        <ele>1171</ele>
        <time>2013-01-12T10:58:17Z</time>
      </trkpt>
      <trkpt lat="45.56993" lon="6.08457">
        <ele>1171</ele>
        <time>2013-01-12T10:58:19Z</time>
      </trkpt>
      <trkpt lat="45.56995" lon="6.08456">
        <ele>1171</ele>
        <time>2013-01-12T10:58:21Z</time>
      </trkpt>
      <trkpt lat="45.56997" lon="6.08455">
        <ele>1171</ele>
        <time>2013-01-12T10:58:23Z</time>
      </trkpt>
      <trkpt lat="45.56999" lon="6.08454">
        <ele>1171</ele>
        <time>2013-01-12T10:58:25Z</time>
      </trkpt>
      <trkpt lat="45.57001" lon="6.08453">
        <ele>1172</ele>
        <time>2013-01-12T10:58:27Z</time>
      </trkpt>
      <trkpt lat="45.57003" lon="6.08451">
        <ele>1173</ele>
        <time>2013-01-12T10:58:29Z</time>
      </trkpt>
      <trkpt lat="45.57005" lon="6.08451">
        <ele>1174</ele>
        <time>2013-01-12T10:58:31Z</time>
      </trkpt>
      <trkpt lat="45.57008" lon="6.0845">
        <ele>1174</ele>
        <time>2013-01-12T10:58:33Z</time>
      </trkpt>
      <trkpt lat="45.57011" lon="6.08449">
        <ele>1175</ele>
        <time>2013-01-12T10:58:36Z</time>
      </trkpt>
      <trkpt lat="45.57014" lon="6.0845">
        <ele>1176</ele>
        <time>2013-01-12T10:58:39Z</time>
      </trkpt>
      <trkpt lat="45.57016" lon="6.08452">
        <ele>1176</ele>
        <time>2013-01-12T10:58:41Z</time>
      </trkpt>
      <trkpt lat="45.57017" lon="6.08453">
        <ele>1176</ele>
        <time>2013-01-12T10:58:43Z</time>
      </trkpt>
      <trkpt lat="45.5702" lon="6.08453">
        <ele>1176</ele>
        <time>2013-01-12T10:58:46Z</time>
      </trkpt>
      <trkpt lat="45.57022" lon="6.08453">
        <ele>1176</ele>
        <time>2013-01-12T10:58:48Z</time>
      </trkpt>
      <trkpt lat="45.57025" lon="6.08452">
        <ele>1176</ele>
        <time>2013-01-12T10:58:50Z</time>
      </trkpt>
      <trkpt lat="45.57027" lon="6.08453">
        <ele>1176</ele>
        <time>2013-01-12T10:58:52Z</time>
      </trkpt>
      <trkpt lat="45.5703" lon="6.08454">
        <ele>1177</ele>
        <time>2013-01-12T10:58:54Z</time>
      </trkpt>
      <trkpt lat="45.57033" lon="6.08457">
        <ele>1177</ele>
        <time>2013-01-12T10:58:57Z</time>
      </trkpt>
      <trkpt lat="45.57036" lon="6.08457">
        <ele>1177</ele>
        <time>2013-01-12T10:58:59Z</time>
      </trkpt>
      <trkpt lat="45.5704" lon="6.08459">
        <ele>1177</ele>
        <time>2013-01-12T10:59:02Z</time>
      </trkpt>
      <trkpt lat="45.57042" lon="6.0846">
        <ele>1177</ele>
        <time>2013-01-12T10:59:04Z</time>
      </trkpt>
      <trkpt lat="45.57045" lon="6.08462">
        <ele>1177</ele>
        <time>2013-01-12T10:59:07Z</time>
      </trkpt>
      <trkpt lat="45.57048" lon="6.08462">
        <ele>1177</ele>
        <time>2013-01-12T10:59:09Z</time>
      </trkpt>
      <trkpt lat="45.5705" lon="6.08463">
        <ele>1177</ele>
        <time>2013-01-12T10:59:11Z</time>
      </trkpt>
      <trkpt lat="45.57052" lon="6.08464">
        <ele>1177</ele>
        <time>2013-01-12T10:59:13Z</time>
      </trkpt>
      <trkpt lat="45.57054" lon="6.08465">
        <ele>1177</ele>
        <time>2013-01-12T10:59:15Z</time>
      </trkpt>
      <trkpt lat="45.57057" lon="6.08466">
        <ele>1177</ele>
        <time>2013-01-12T10:59:17Z</time>
      </trkpt>
      <trkpt lat="45.57059" lon="6.08466">
        <ele>1177</ele>
        <time>2013-01-12T10:59:19Z</time>
      </trkpt>
      <trkpt lat="45.57061" lon="6.08468">
        <ele>1177</ele>
        <time>2013-01-12T10:59:21Z</time>
      </trkpt>
      <trkpt lat="45.57063" lon="6.08469">
        <ele>1177</ele>
        <time>2013-01-12T10:59:23Z</time>
      </trkpt>
      <trkpt lat="45.57064" lon="6.08471">
        <ele>1177</ele>
        <time>2013-01-12T10:59:25Z</time>
      </trkpt>
      <trkpt lat="45.57066" lon="6.08473">
        <ele>1177</ele>
        <time>2013-01-12T10:59:27Z</time>
      </trkpt>
      <trkpt lat="45.57067" lon="6.08475">
        <ele>1175</ele>
        <time>2013-01-12T10:59:29Z</time>
      </trkpt>
      <trkpt lat="45.57069" lon="6.08477">
        <ele>1173</ele>
        <time>2013-01-12T10:59:31Z</time>
      </trkpt>
      <trkpt lat="45.57072" lon="6.08478">
        <ele>1173</ele>
        <time>2013-01-12T10:59:33Z</time>
      </trkpt>
      <trkpt lat="45.57075" lon="6.08478">
        <ele>1173</ele>
        <time>2013-01-12T10:59:35Z</time>
      </trkpt>
      <trkpt lat="45.57077" lon="6.0848">
        <ele>1173</ele>
        <time>2013-01-12T10:59:37Z</time>
      </trkpt>
      <trkpt lat="45.57079" lon="6.08481">
        <ele>1173</ele>
        <time>2013-01-12T10:59:39Z</time>
      </trkpt>
      <trkpt lat="45.57081" lon="6.08483">
        <ele>1173</ele>
        <time>2013-01-12T10:59:41Z</time>
      </trkpt>
      <trkpt lat="45.57083" lon="6.08486">
        <ele>1173</ele>
        <time>2013-01-12T10:59:44Z</time>
      </trkpt>
      <trkpt lat="45.57085" lon="6.08488">
        <ele>1173</ele>
        <time>2013-01-12T10:59:46Z</time>
      </trkpt>
      <trkpt lat="45.57087" lon="6.0849">
        <ele>1171</ele>
        <time>2013-01-12T10:59:48Z</time>
      </trkpt>
      <trkpt lat="45.5709" lon="6.08492">
        <ele>1170</ele>
        <time>2013-01-12T10:59:51Z</time>
      </trkpt>
      <trkpt lat="45.57092" lon="6.08494">
        <ele>1169</ele>
        <time>2013-01-12T10:59:53Z</time>
      </trkpt>
      <trkpt lat="45.57093" lon="6.08496">
        <ele>1169</ele>
        <time>2013-01-12T10:59:55Z</time>
      </trkpt>
      <trkpt lat="45.57097" lon="6.08498">
        <ele>1169</ele>
        <time>2013-01-12T10:59:58Z</time>
      </trkpt>
      <trkpt lat="45.57098" lon="6.08501">
        <ele>1168</ele>
        <time>2013-01-12T11:00:00Z</time>
      </trkpt>
      <trkpt lat="45.571" lon="6.08503">
        <ele>1168</ele>
        <time>2013-01-12T11:00:02Z</time>
      </trkpt>
      <trkpt lat="45.57101" lon="6.08505">
        <ele>1167</ele>
        <time>2013-01-12T11:00:04Z</time>
      </trkpt>
      <trkpt lat="45.57103" lon="6.08509">
        <ele>1166</ele>
        <time>2013-01-12T11:00:07Z</time>
      </trkpt>
      <trkpt lat="45.57104" lon="6.08512">
        <ele>1165</ele>
        <time>2013-01-12T11:00:09Z</time>
      </trkpt>
      <trkpt lat="45.57108" lon="6.08523">
        <ele>1165</ele>
        <time>2013-01-12T11:00:15Z</time>
      </trkpt>
      <trkpt lat="45.57109" lon="6.08525">
        <ele>1165</ele>
        <time>2013-01-12T11:00:17Z</time>
      </trkpt>
      <trkpt lat="45.57109" lon="6.08527">
        <ele>1165</ele>
        <time>2013-01-12T11:00:19Z</time>
      </trkpt>
      <trkpt lat="45.57109" lon="6.08529">
        <ele>1165</ele>
        <time>2013-01-12T11:00:21Z</time>
      </trkpt>
      <trkpt lat="45.57111" lon="6.0853">
        <ele>1165</ele>
        <time>2013-01-12T11:00:24Z</time>
      </trkpt>
      <trkpt lat="45.57112" lon="6.08528">
        <ele>1165</ele>
        <time>2013-01-12T11:00:26Z</time>
      </trkpt>
      <trkpt lat="45.57111" lon="6.08531">
        <ele>1165</ele>
        <time>2013-01-12T11:00:33Z</time>
      </trkpt>
      <trkpt lat="45.57112" lon="6.08531">
        <ele>1165</ele>
        <time>2013-01-12T11:00:35Z</time>
      </trkpt>
      <trkpt lat="45.57112" lon="6.08533">
        <ele>1165</ele>
        <time>2013-01-12T11:00:38Z</time>
      </trkpt>
      <trkpt lat="45.57113" lon="6.0854">
        <ele>1165</ele>
        <time>2013-01-12T11:00:41Z</time>
      </trkpt>
      <trkpt lat="45.57112" lon="6.0854">
        <ele>1165</ele>
        <time>2013-01-12T11:00:43Z</time>
      </trkpt>
      <trkpt lat="45.57109" lon="6.08541">
        <ele>1165</ele>
        <time>2013-01-12T11:00:48Z</time>
      </trkpt>
      <trkpt lat="45.57104" lon="6.08544">
        <ele>1165</ele>
        <time>2013-01-12T11:00:53Z</time>
      </trkpt>
      <trkpt lat="45.57103" lon="6.08545">
        <ele>1165</ele>
        <time>2013-01-12T11:00:55Z</time>
      </trkpt>
      <trkpt lat="45.57102" lon="6.08547">
        <ele>1165</ele>
        <time>2013-01-12T11:00:57Z</time>
      </trkpt>
      <trkpt lat="45.57101" lon="6.08548">
        <ele>1165</ele>
        <time>2013-01-12T11:00:59Z</time>
      </trkpt>
      <trkpt lat="45.57099" lon="6.08549">
        <ele>1165</ele>
        <time>2013-01-12T11:01:01Z</time>
      </trkpt>
      <trkpt lat="45.57097" lon="6.08544">
        <ele>1165</ele>
        <time>2013-01-12T11:01:06Z</time>
      </trkpt>
      <trkpt lat="45.57096" lon="6.08544">
        <ele>1165</ele>
        <time>2013-01-12T11:01:09Z</time>
      </trkpt>
      <trkpt lat="45.57094" lon="6.08543">
        <ele>1165</ele>
        <time>2013-01-12T11:01:11Z</time>
      </trkpt>
      <trkpt lat="45.57096" lon="6.08543">
        <ele>1165</ele>
        <time>2013-01-12T11:01:18Z</time>
      </trkpt>
      <trkpt lat="45.57096" lon="6.08544">
        <ele>1165</ele>
        <time>2013-01-12T11:01:20Z</time>
      </trkpt>
      <trkpt lat="45.57098" lon="6.08544">
        <ele>1165</ele>
        <time>2013-01-12T11:01:22Z</time>
      </trkpt>
      <trkpt lat="45.571" lon="6.08543">
        <ele>1165</ele>
        <time>2013-01-12T11:01:24Z</time>
      </trkpt>
      <trkpt lat="45.57106" lon="6.08548">
        <ele>1165</ele>
        <time>2013-01-12T11:01:30Z</time>
      </trkpt>
      <trkpt lat="45.57107" lon="6.08552">
        <ele>1165</ele>
        <time>2013-01-12T11:01:32Z</time>
      </trkpt>
      <trkpt lat="45.57108" lon="6.08555">
        <ele>1163</ele>
        <time>2013-01-12T11:01:34Z</time>
      </trkpt>
      <trkpt lat="45.57109" lon="6.08558">
        <ele>1162</ele>
        <time>2013-01-12T11:01:36Z</time>
      </trkpt>
      <trkpt lat="45.57109" lon="6.08561">
        <ele>1162</ele>
        <time>2013-01-12T11:01:38Z</time>
      </trkpt>
      <trkpt lat="45.57111" lon="6.08566">
        <ele>1161</ele>
        <time>2013-01-12T11:01:40Z</time>
      </trkpt>
      <trkpt lat="45.57114" lon="6.08572">
        <ele>1160</ele>
        <time>2013-01-12T11:01:42Z</time>
      </trkpt>
      <trkpt lat="45.57116" lon="6.08579">
        <ele>1160</ele>
        <time>2013-01-12T11:01:44Z</time>
      </trkpt>
      <trkpt lat="45.57116" lon="6.08588">
        <ele>1160</ele>
        <time>2013-01-12T11:01:46Z</time>
      </trkpt>
      <trkpt lat="45.57117" lon="6.08595">
        <ele>1160</ele>
        <time>2013-01-12T11:01:48Z</time>
      </trkpt>
      <trkpt lat="45.57117" lon="6.08603">
        <ele>1160</ele>
        <time>2013-01-12T11:01:50Z</time>
      </trkpt>
      <trkpt lat="45.57117" lon="6.0861">
        <ele>1160</ele>
        <time>2013-01-12T11:01:52Z</time>
      </trkpt>
      <trkpt lat="45.57119" lon="6.08614">
        <ele>1160</ele>
        <time>2013-01-12T11:01:54Z</time>
      </trkpt>
      <trkpt lat="45.5712" lon="6.08619">
        <ele>1160</ele>
        <time>2013-01-12T11:01:56Z</time>
      </trkpt>
      <trkpt lat="45.57121" lon="6.08623">
        <ele>1160</ele>
        <time>2013-01-12T11:01:58Z</time>
      </trkpt>
      <trkpt lat="45.57123" lon="6.08628">
        <ele>1160</ele>
        <time>2013-01-12T11:02:00Z</time>
      </trkpt>
      <trkpt lat="45.57125" lon="6.08634">
        <ele>1160</ele>
        <time>2013-01-12T11:02:02Z</time>
      </trkpt>
      <trkpt lat="45.57127" lon="6.0864">
        <ele>1160</ele>
        <time>2013-01-12T11:02:04Z</time>
      </trkpt>
      <trkpt lat="45.57129" lon="6.08646">
        <ele>1160</ele>
        <time>2013-01-12T11:02:06Z</time>
      </trkpt>
      <trkpt lat="45.5713" lon="6.08652">
        <ele>1160</ele>
        <time>2013-01-12T11:02:08Z</time>
      </trkpt>
      <trkpt lat="45.57131" lon="6.08658">
        <ele>1160</ele>
        <time>2013-01-12T11:02:10Z</time>
      </trkpt>
      <trkpt lat="45.57132" lon="6.08664">
        <ele>1160</ele>
        <time>2013-01-12T11:02:12Z</time>
      </trkpt>
      <trkpt lat="45.57132" lon="6.08668">
        <ele>1160</ele>
        <time>2013-01-12T11:02:14Z</time>
      </trkpt>
      <trkpt lat="45.57132" lon="6.08672">
        <ele>1160</ele>
        <time>2013-01-12T11:02:16Z</time>
      </trkpt>
      <trkpt lat="45.57132" lon="6.08678">
        <ele>1160</ele>
        <time>2013-01-12T11:02:18Z</time>
      </trkpt>
      <trkpt lat="45.57132" lon="6.08682">
        <ele>1160</ele>
        <time>2013-01-12T11:02:20Z</time>
      </trkpt>
      <trkpt lat="45.57131" lon="6.08689">
        <ele>1160</ele>
        <time>2013-01-12T11:02:22Z</time>
      </trkpt>
      <trkpt lat="45.5713" lon="6.08696">
        <ele>1160</ele>
        <time>2013-01-12T11:02:24Z</time>
      </trkpt>
      <trkpt lat="45.57127" lon="6.08703">
        <ele>1160</ele>
        <time>2013-01-12T11:02:26Z</time>
      </trkpt>
      <trkpt lat="45.57124" lon="6.08709">
        <ele>1159</ele>
        <time>2013-01-12T11:02:28Z</time>
      </trkpt>
      <trkpt lat="45.57123" lon="6.08716">
        <ele>1159</ele>
        <time>2013-01-12T11:02:30Z</time>
      </trkpt>
      <trkpt lat="45.57119" lon="6.08723">
        <ele>1158</ele>
        <time>2013-01-12T11:02:32Z</time>
      </trkpt>
      <trkpt lat="45.57116" lon="6.08731">
        <ele>1158</ele>
        <time>2013-01-12T11:02:34Z</time>
      </trkpt>
      <trkpt lat="45.57111" lon="6.08738">
        <ele>1158</ele>
        <time>2013-01-12T11:02:36Z</time>
      </trkpt>
      <trkpt lat="45.57108" lon="6.08747">
        <ele>1158</ele>
        <time>2013-01-12T11:02:38Z</time>
      </trkpt>
      <trkpt lat="45.57105" lon="6.08756">
        <ele>1158</ele>
        <time>2013-01-12T11:02:40Z</time>
      </trkpt>
      <trkpt lat="45.57103" lon="6.08765">
        <ele>1157</ele>
        <time>2013-01-12T11:02:42Z</time>
      </trkpt>
      <trkpt lat="45.57103" lon="6.08773">
        <ele>1156</ele>
        <time>2013-01-12T11:02:44Z</time>
      </trkpt>
      <trkpt lat="45.57104" lon="6.08779">
        <ele>1155</ele>
        <time>2013-01-12T11:02:46Z</time>
      </trkpt>
      <trkpt lat="45.57106" lon="6.08785">
        <ele>1155</ele>
        <time>2013-01-12T11:02:48Z</time>
      </trkpt>
      <trkpt lat="45.57108" lon="6.0879">
        <ele>1155</ele>
        <time>2013-01-12T11:02:50Z</time>
      </trkpt>
      <trkpt lat="45.57111" lon="6.08795">
        <ele>1155</ele>
        <time>2013-01-12T11:02:52Z</time>
      </trkpt>
      <trkpt lat="45.57114" lon="6.08798">
        <ele>1154</ele>
        <time>2013-01-12T11:02:54Z</time>
      </trkpt>
      <trkpt lat="45.57116" lon="6.088">
        <ele>1154</ele>
        <time>2013-01-12T11:02:56Z</time>
      </trkpt>
      <trkpt lat="45.5712" lon="6.08804">
        <ele>1153</ele>
        <time>2013-01-12T11:02:58Z</time>
      </trkpt>
      <trkpt lat="45.57124" lon="6.08807">
        <ele>1152</ele>
        <time>2013-01-12T11:03:00Z</time>
      </trkpt>
      <trkpt lat="45.57129" lon="6.08809">
        <ele>1151</ele>
        <time>2013-01-12T11:03:02Z</time>
      </trkpt>
      <trkpt lat="45.57132" lon="6.08813">
        <ele>1150</ele>
        <time>2013-01-12T11:03:04Z</time>
      </trkpt>
      <trkpt lat="45.57135" lon="6.08818">
        <ele>1149</ele>
        <time>2013-01-12T11:03:06Z</time>
      </trkpt>
      <trkpt lat="45.57138" lon="6.08826">
        <ele>1148</ele>
        <time>2013-01-12T11:03:08Z</time>
      </trkpt>
      <trkpt lat="45.57138" lon="6.08835">
        <ele>1148</ele>
        <time>2013-01-12T11:03:10Z</time>
      </trkpt>
      <trkpt lat="45.57139" lon="6.08845">
        <ele>1148</ele>
        <time>2013-01-12T11:03:12Z</time>
      </trkpt>
      <trkpt lat="45.57139" lon="6.08854">
        <ele>1148</ele>
        <time>2013-01-12T11:03:14Z</time>
      </trkpt>
      <trkpt lat="45.5714" lon="6.08864">
        <ele>1148</ele>
        <time>2013-01-12T11:03:16Z</time>
      </trkpt>
      <trkpt lat="45.57141" lon="6.08874">
        <ele>1148</ele>
        <time>2013-01-12T11:03:18Z</time>
      </trkpt>
      <trkpt lat="45.57144" lon="6.0888">
        <ele>1148</ele>
        <time>2013-01-12T11:03:20Z</time>
      </trkpt>
      <trkpt lat="45.57148" lon="6.08884">
        <ele>1148</ele>
        <time>2013-01-12T11:03:22Z</time>
      </trkpt>
      <trkpt lat="45.57152" lon="6.08888">
        <ele>1148</ele>
        <time>2013-01-12T11:03:24Z</time>
      </trkpt>
      <trkpt lat="45.57155" lon="6.0889">
        <ele>1148</ele>
        <time>2013-01-12T11:03:26Z</time>
      </trkpt>
      <trkpt lat="45.5716" lon="6.08891">
        <ele>1148</ele>
        <time>2013-01-12T11:03:28Z</time>
      </trkpt>
      <trkpt lat="45.57166" lon="6.08891">
        <ele>1148</ele>
        <time>2013-01-12T11:03:30Z</time>
      </trkpt>
      <trkpt lat="45.57172" lon="6.0889">
        <ele>1148</ele>
        <time>2013-01-12T11:03:32Z</time>
      </trkpt>
      <trkpt lat="45.57176" lon="6.0889">
        <ele>1148</ele>
        <time>2013-01-12T11:03:34Z</time>
      </trkpt>
      <trkpt lat="45.5718" lon="6.08889">
        <ele>1150</ele>
        <time>2013-01-12T11:03:36Z</time>
      </trkpt>
      <trkpt lat="45.57186" lon="6.08887">
        <ele>1152</ele>
        <time>2013-01-12T11:03:38Z</time>
      </trkpt>
      <trkpt lat="45.57193" lon="6.08883">
        <ele>1154</ele>
        <time>2013-01-12T11:03:40Z</time>
      </trkpt>
      <trkpt lat="45.572" lon="6.0888">
        <ele>1156</ele>
        <time>2013-01-12T11:03:42Z</time>
      </trkpt>
      <trkpt lat="45.57206" lon="6.08878">
        <ele>1158</ele>
        <time>2013-01-12T11:03:44Z</time>
      </trkpt>
      <trkpt lat="45.57211" lon="6.08878">
        <ele>1159</ele>
        <time>2013-01-12T11:03:46Z</time>
      </trkpt>
      <trkpt lat="45.57214" lon="6.08879">
        <ele>1159</ele>
        <time>2013-01-12T11:03:48Z</time>
      </trkpt>
      <trkpt lat="45.57216" lon="6.08882">
        <ele>1159</ele>
        <time>2013-01-12T11:03:50Z</time>
      </trkpt>
      <trkpt lat="45.57217" lon="6.08885">
        <ele>1158</ele>
        <time>2013-01-12T11:03:52Z</time>
      </trkpt>
      <trkpt lat="45.57218" lon="6.08888">
        <ele>1156</ele>
        <time>2013-01-12T11:03:54Z</time>
      </trkpt>
      <trkpt lat="45.57221" lon="6.08893">
        <ele>1153</ele>
        <time>2013-01-12T11:03:57Z</time>
      </trkpt>
      <trkpt lat="45.57222" lon="6.08896">
        <ele>1151</ele>
        <time>2013-01-12T11:03:59Z</time>
      </trkpt>
      <trkpt lat="45.57224" lon="6.08899">
        <ele>1148</ele>
        <time>2013-01-12T11:04:02Z</time>
      </trkpt>
      <trkpt lat="45.57227" lon="6.08902">
        <ele>1146</ele>
        <time>2013-01-12T11:04:04Z</time>
      </trkpt>
      <trkpt lat="45.57231" lon="6.08906">
        <ele>1144</ele>
        <time>2013-01-12T11:04:06Z</time>
      </trkpt>
      <trkpt lat="45.57236" lon="6.08908">
        <ele>1142</ele>
        <time>2013-01-12T11:04:08Z</time>
      </trkpt>
      <trkpt lat="45.5724" lon="6.08912">
        <ele>1141</ele>
        <time>2013-01-12T11:04:10Z</time>
      </trkpt>
      <trkpt lat="45.57244" lon="6.08916">
        <ele>1140</ele>
        <time>2013-01-12T11:04:12Z</time>
      </trkpt>
      <trkpt lat="45.57248" lon="6.0892">
        <ele>1139</ele>
        <time>2013-01-12T11:04:14Z</time>
      </trkpt>
      <trkpt lat="45.57253" lon="6.08923">
        <ele>1138</ele>
        <time>2013-01-12T11:04:16Z</time>
      </trkpt>
      <trkpt lat="45.57258" lon="6.08926">
        <ele>1138</ele>
        <time>2013-01-12T11:04:18Z</time>
      </trkpt>
      <trkpt lat="45.57263" lon="6.0893">
        <ele>1138</ele>
        <time>2013-01-12T11:04:20Z</time>
      </trkpt>
      <trkpt lat="45.57268" lon="6.08934">
        <ele>1137</ele>
        <time>2013-01-12T11:04:22Z</time>
      </trkpt>
      <trkpt lat="45.57274" lon="6.08938">
        <ele>1137</ele>
        <time>2013-01-12T11:04:24Z</time>
      </trkpt>
      <trkpt lat="45.57278" lon="6.08942">
        <ele>1136</ele>
        <time>2013-01-12T11:04:26Z</time>
      </trkpt>
      <trkpt lat="45.57283" lon="6.08946">
        <ele>1136</ele>
        <time>2013-01-12T11:04:28Z</time>
      </trkpt>
      <trkpt lat="45.57289" lon="6.08951">
        <ele>1134</ele>
        <time>2013-01-12T11:04:30Z</time>
      </trkpt>
      <trkpt lat="45.57296" lon="6.08955">
        <ele>1133</ele>
        <time>2013-01-12T11:04:32Z</time>
      </trkpt>
      <trkpt lat="45.57303" lon="6.08959">
        <ele>1133</ele>
        <time>2013-01-12T11:04:34Z</time>
      </trkpt>
      <trkpt lat="45.5731" lon="6.08962">
        <ele>1133</ele>
        <time>2013-01-12T11:04:36Z</time>
      </trkpt>
      <trkpt lat="45.57317" lon="6.08965">
        <ele>1133</ele>
        <time>2013-01-12T11:04:38Z</time>
      </trkpt>
      <trkpt lat="45.57323" lon="6.08969">
        <ele>1133</ele>
        <time>2013-01-12T11:04:40Z</time>
      </trkpt>
      <trkpt lat="45.57331" lon="6.08974">
        <ele>1133</ele>
        <time>2013-01-12T11:04:42Z</time>
      </trkpt>
      <trkpt lat="45.57336" lon="6.0898">
        <ele>1133</ele>
        <time>2013-01-12T11:04:44Z</time>
      </trkpt>
      <trkpt lat="45.57342" lon="6.08985">
        <ele>1133</ele>
        <time>2013-01-12T11:04:46Z</time>
      </trkpt>
      <trkpt lat="45.57348" lon="6.08989">
        <ele>1132</ele>
        <time>2013-01-12T11:04:48Z</time>
      </trkpt>
      <trkpt lat="45.57354" lon="6.08992">
        <ele>1132</ele>
        <time>2013-01-12T11:04:50Z</time>
      </trkpt>
      <trkpt lat="45.57359" lon="6.08996">
        <ele>1132</ele>
        <time>2013-01-12T11:04:52Z</time>
      </trkpt>
      <trkpt lat="45.57367" lon="6.08999">
        <ele>1132</ele>
        <time>2013-01-12T11:04:54Z</time>
      </trkpt>
      <trkpt lat="45.57373" lon="6.09004">
        <ele>1132</ele>
        <time>2013-01-12T11:04:56Z</time>
      </trkpt>
      <trkpt lat="45.57379" lon="6.09011">
        <ele>1132</ele>
        <time>2013-01-12T11:04:58Z</time>
      </trkpt>
      <trkpt lat="45.57383" lon="6.09017">
        <ele>1132</ele>
        <time>2013-01-12T11:05:00Z</time>
      </trkpt>
      <trkpt lat="45.57388" lon="6.09022">
        <ele>1132</ele>
        <time>2013-01-12T11:05:02Z</time>
      </trkpt>
      <trkpt lat="45.57389" lon="6.09032">
        <ele>1132</ele>
        <time>2013-01-12T11:05:04Z</time>
      </trkpt>
      <trkpt lat="45.57392" lon="6.09042">
        <ele>1132</ele>
        <time>2013-01-12T11:05:06Z</time>
      </trkpt>
      <trkpt lat="45.57395" lon="6.09051">
        <ele>1132</ele>
        <time>2013-01-12T11:05:08Z</time>
      </trkpt>
      <trkpt lat="45.574" lon="6.09061">
        <ele>1132</ele>
        <time>2013-01-12T11:05:10Z</time>
      </trkpt>
      <trkpt lat="45.57407" lon="6.09069">
        <ele>1132</ele>
        <time>2013-01-12T11:05:12Z</time>
      </trkpt>
      <trkpt lat="45.57412" lon="6.09078">
        <ele>1132</ele>
        <time>2013-01-12T11:05:14Z</time>
      </trkpt>
      <trkpt lat="45.57416" lon="6.09086">
        <ele>1132</ele>
        <time>2013-01-12T11:05:16Z</time>
      </trkpt>
      <trkpt lat="45.57419" lon="6.09094">
        <ele>1132</ele>
        <time>2013-01-12T11:05:18Z</time>
      </trkpt>
      <trkpt lat="45.57421" lon="6.09103">
        <ele>1131</ele>
        <time>2013-01-12T11:05:20Z</time>
      </trkpt>
      <trkpt lat="45.57423" lon="6.09113">
        <ele>1131</ele>
        <time>2013-01-12T11:05:22Z</time>
      </trkpt>
      <trkpt lat="45.57425" lon="6.09124">
        <ele>1130</ele>
        <time>2013-01-12T11:05:24Z</time>
      </trkpt>
      <trkpt lat="45.57425" lon="6.09134">
        <ele>1129</ele>
        <time>2013-01-12T11:05:26Z</time>
      </trkpt>
      <trkpt lat="45.57426" lon="6.09144">
        <ele>1128</ele>
        <time>2013-01-12T11:05:28Z</time>
      </trkpt>
      <trkpt lat="45.57425" lon="6.09153">
        <ele>1127</ele>
        <time>2013-01-12T11:05:30Z</time>
      </trkpt>
      <trkpt lat="45.57424" lon="6.09161">
        <ele>1127</ele>
        <time>2013-01-12T11:05:32Z</time>
      </trkpt>
      <trkpt lat="45.57422" lon="6.09169">
        <ele>1127</ele>
        <time>2013-01-12T11:05:34Z</time>
      </trkpt>
      <trkpt lat="45.5742" lon="6.09176">
        <ele>1126</ele>
        <time>2013-01-12T11:05:36Z</time>
      </trkpt>
      <trkpt lat="45.57418" lon="6.09186">
        <ele>1125</ele>
        <time>2013-01-12T11:05:38Z</time>
      </trkpt>
      <trkpt lat="45.57417" lon="6.09195">
        <ele>1123</ele>
        <time>2013-01-12T11:05:40Z</time>
      </trkpt>
      <trkpt lat="45.57417" lon="6.09203">
        <ele>1122</ele>
        <time>2013-01-12T11:05:42Z</time>
      </trkpt>
      <trkpt lat="45.57417" lon="6.09212">
        <ele>1121</ele>
        <time>2013-01-12T11:05:44Z</time>
      </trkpt>
      <trkpt lat="45.57417" lon="6.09221">
        <ele>1119</ele>
        <time>2013-01-12T11:05:46Z</time>
      </trkpt>
      <trkpt lat="45.57416" lon="6.09228">
        <ele>1118</ele>
        <time>2013-01-12T11:05:48Z</time>
      </trkpt>
      <trkpt lat="45.57417" lon="6.09235">
        <ele>1117</ele>
        <time>2013-01-12T11:05:50Z</time>
      </trkpt>
      <trkpt lat="45.57419" lon="6.09242">
        <ele>1116</ele>
        <time>2013-01-12T11:05:52Z</time>
      </trkpt>
      <trkpt lat="45.57423" lon="6.09247">
        <ele>1115</ele>
        <time>2013-01-12T11:05:54Z</time>
      </trkpt>
      <trkpt lat="45.57428" lon="6.09251">
        <ele>1114</ele>
        <time>2013-01-12T11:05:56Z</time>
      </trkpt>
      <trkpt lat="45.57433" lon="6.09251">
        <ele>1114</ele>
        <time>2013-01-12T11:05:58Z</time>
      </trkpt>
      <trkpt lat="45.57437" lon="6.09249">
        <ele>1113</ele>
        <time>2013-01-12T11:06:00Z</time>
      </trkpt>
      <trkpt lat="45.5744" lon="6.09243">
        <ele>1113</ele>
        <time>2013-01-12T11:06:02Z</time>
      </trkpt>
      <trkpt lat="45.57445" lon="6.09237">
        <ele>1113</ele>
        <time>2013-01-12T11:06:04Z</time>
      </trkpt>
      <trkpt lat="45.5745" lon="6.09231">
        <ele>1113</ele>
        <time>2013-01-12T11:06:06Z</time>
      </trkpt>
      <trkpt lat="45.57459" lon="6.09225">
        <ele>1113</ele>
        <time>2013-01-12T11:06:08Z</time>
      </trkpt>
      <trkpt lat="45.57467" lon="6.09218">
        <ele>1113</ele>
        <time>2013-01-12T11:06:10Z</time>
      </trkpt>
      <trkpt lat="45.57473" lon="6.0921">
        <ele>1115</ele>
        <time>2013-01-12T11:06:12Z</time>
      </trkpt>
      <trkpt lat="45.57478" lon="6.09202">
        <ele>1117</ele>
        <time>2013-01-12T11:06:14Z</time>
      </trkpt>
      <trkpt lat="45.57483" lon="6.09194">
        <ele>1119</ele>
        <time>2013-01-12T11:06:16Z</time>
      </trkpt>
      <trkpt lat="45.57485" lon="6.09187">
        <ele>1121</ele>
        <time>2013-01-12T11:06:18Z</time>
      </trkpt>
      <trkpt lat="45.57487" lon="6.09182">
        <ele>1123</ele>
        <time>2013-01-12T11:06:20Z</time>
      </trkpt>
      <trkpt lat="45.57491" lon="6.09174">
        <ele>1125</ele>
        <time>2013-01-12T11:06:22Z</time>
      </trkpt>
      <trkpt lat="45.57495" lon="6.09167">
        <ele>1126</ele>
        <time>2013-01-12T11:06:24Z</time>
      </trkpt>
      <trkpt lat="45.57499" lon="6.0916">
        <ele>1127</ele>
        <time>2013-01-12T11:06:26Z</time>
      </trkpt>
      <trkpt lat="45.57504" lon="6.09156">
        <ele>1127</ele>
        <time>2013-01-12T11:06:28Z</time>
      </trkpt>
      <trkpt lat="45.57509" lon="6.09152">
        <ele>1127</ele>
        <time>2013-01-12T11:06:30Z</time>
      </trkpt>
      <trkpt lat="45.57515" lon="6.09148">
        <ele>1127</ele>
        <time>2013-01-12T11:06:32Z</time>
      </trkpt>
      <trkpt lat="45.57518" lon="6.09144">
        <ele>1127</ele>
        <time>2013-01-12T11:06:34Z</time>
      </trkpt>
      <trkpt lat="45.57521" lon="6.09139">
        <ele>1126</ele>
        <time>2013-01-12T11:06:36Z</time>
      </trkpt>
      <trkpt lat="45.57526" lon="6.09134">
        <ele>1125</ele>
        <time>2013-01-12T11:06:38Z</time>
      </trkpt>
      <trkpt lat="45.57532" lon="6.0913">
        <ele>1124</ele>
        <time>2013-01-12T11:06:40Z</time>
      </trkpt>
      <trkpt lat="45.57537" lon="6.09126">
        <ele>1124</ele>
        <time>2013-01-12T11:06:42Z</time>
      </trkpt>
      <trkpt lat="45.57541" lon="6.09121">
        <ele>1124</ele>
        <time>2013-01-12T11:06:44Z</time>
      </trkpt>
      <trkpt lat="45.57544" lon="6.09114">
        <ele>1124</ele>
        <time>2013-01-12T11:06:46Z</time>
      </trkpt>
      <trkpt lat="45.57546" lon="6.09107">
        <ele>1123</ele>
        <time>2013-01-12T11:06:48Z</time>
      </trkpt>
      <trkpt lat="45.57549" lon="6.09101">
        <ele>1122</ele>
        <time>2013-01-12T11:06:50Z</time>
      </trkpt>
      <trkpt lat="45.57552" lon="6.09094">
        <ele>1120</ele>
        <time>2013-01-12T11:06:52Z</time>
      </trkpt>
      <trkpt lat="45.57553" lon="6.09085">
        <ele>1118</ele>
        <time>2013-01-12T11:06:54Z</time>
      </trkpt>
      <trkpt lat="45.57558" lon="6.09079">
        <ele>1118</ele>
        <time>2013-01-12T11:06:56Z</time>
      </trkpt>
      <trkpt lat="45.57563" lon="6.09074">
        <ele>1117</ele>
        <time>2013-01-12T11:06:58Z</time>
      </trkpt>
      <trkpt lat="45.57571" lon="6.09068">
        <ele>1114</ele>
        <time>2013-01-12T11:07:01Z</time>
      </trkpt>
      <trkpt lat="45.57578" lon="6.09067">
        <ele>1112</ele>
        <time>2013-01-12T11:07:03Z</time>
      </trkpt>
      <trkpt lat="45.57586" lon="6.09066">
        <ele>1110</ele>
        <time>2013-01-12T11:07:05Z</time>
      </trkpt>
      <trkpt lat="45.57594" lon="6.09066">
        <ele>1108</ele>
        <time>2013-01-12T11:07:07Z</time>
      </trkpt>
      <trkpt lat="45.57604" lon="6.09065">
        <ele>1106</ele>
        <time>2013-01-12T11:07:09Z</time>
      </trkpt>
      <trkpt lat="45.57612" lon="6.09063">
        <ele>1104</ele>
        <time>2013-01-12T11:07:11Z</time>
      </trkpt>
      <trkpt lat="45.57622" lon="6.09059">
        <ele>1102</ele>
        <time>2013-01-12T11:07:13Z</time>
      </trkpt>
      <trkpt lat="45.57629" lon="6.09051">
        <ele>1102</ele>
        <time>2013-01-12T11:07:15Z</time>
      </trkpt>
      <trkpt lat="45.57634" lon="6.09043">
        <ele>1102</ele>
        <time>2013-01-12T11:07:17Z</time>
      </trkpt>
      <trkpt lat="45.57637" lon="6.09037">
        <ele>1102</ele>
        <time>2013-01-12T11:07:19Z</time>
      </trkpt>
      <trkpt lat="45.57639" lon="6.0903">
        <ele>1102</ele>
        <time>2013-01-12T11:07:21Z</time>
      </trkpt>
      <trkpt lat="45.57642" lon="6.09024">
        <ele>1102</ele>
        <time>2013-01-12T11:07:23Z</time>
      </trkpt>
      <trkpt lat="45.57647" lon="6.09018">
        <ele>1102</ele>
        <time>2013-01-12T11:07:25Z</time>
      </trkpt>
      <trkpt lat="45.57653" lon="6.0901">
        <ele>1102</ele>
        <time>2013-01-12T11:07:27Z</time>
      </trkpt>
      <trkpt lat="45.57658" lon="6.09004">
        <ele>1101</ele>
        <time>2013-01-12T11:07:29Z</time>
      </trkpt>
      <trkpt lat="45.57663" lon="6.08997">
        <ele>1100</ele>
        <time>2013-01-12T11:07:31Z</time>
      </trkpt>
      <trkpt lat="45.57669" lon="6.08992">
        <ele>1099</ele>
        <time>2013-01-12T11:07:33Z</time>
      </trkpt>
      <trkpt lat="45.57674" lon="6.08988">
        <ele>1097</ele>
        <time>2013-01-12T11:07:35Z</time>
      </trkpt>
      <trkpt lat="45.57679" lon="6.08985">
        <ele>1096</ele>
        <time>2013-01-12T11:07:37Z</time>
      </trkpt>
      <trkpt lat="45.57688" lon="6.08979">
        <ele>1095</ele>
        <time>2013-01-12T11:07:40Z</time>
      </trkpt>
      <trkpt lat="45.57693" lon="6.08973">
        <ele>1095</ele>
        <time>2013-01-12T11:07:42Z</time>
      </trkpt>
      <trkpt lat="45.57696" lon="6.08969">
        <ele>1095</ele>
        <time>2013-01-12T11:07:44Z</time>
      </trkpt>
      <trkpt lat="45.57701" lon="6.08964">
        <ele>1095</ele>
        <time>2013-01-12T11:07:46Z</time>
      </trkpt>
      <trkpt lat="45.57706" lon="6.08959">
        <ele>1095</ele>
        <time>2013-01-12T11:07:48Z</time>
      </trkpt>
      <trkpt lat="45.57713" lon="6.08956">
        <ele>1095</ele>
        <time>2013-01-12T11:07:50Z</time>
      </trkpt>
      <trkpt lat="45.57719" lon="6.0895">
        <ele>1095</ele>
        <time>2013-01-12T11:07:52Z</time>
      </trkpt>
      <trkpt lat="45.57721" lon="6.08943">
        <ele>1094</ele>
        <time>2013-01-12T11:07:54Z</time>
      </trkpt>
      <trkpt lat="45.57725" lon="6.08935">
        <ele>1094</ele>
        <time>2013-01-12T11:07:56Z</time>
      </trkpt>
      <trkpt lat="45.57729" lon="6.08926">
        <ele>1093</ele>
        <time>2013-01-12T11:07:58Z</time>
      </trkpt>
      <trkpt lat="45.57737" lon="6.08921">
        <ele>1093</ele>
        <time>2013-01-12T11:08:00Z</time>
      </trkpt>
      <trkpt lat="45.57745" lon="6.08915">
        <ele>1093</ele>
        <time>2013-01-12T11:08:02Z</time>
      </trkpt>
      <trkpt lat="45.57753" lon="6.08908">
        <ele>1093</ele>
        <time>2013-01-12T11:08:04Z</time>
      </trkpt>
      <trkpt lat="45.57761" lon="6.08896">
        <ele>1094</ele>
        <time>2013-01-12T11:08:07Z</time>
      </trkpt>
      <trkpt lat="45.57765" lon="6.08892">
        <ele>1095</ele>
        <time>2013-01-12T11:08:09Z</time>
      </trkpt>
      <trkpt lat="45.57775" lon="6.08886">
        <ele>1095</ele>
        <time>2013-01-12T11:08:12Z</time>
      </trkpt>
      <trkpt lat="45.5778" lon="6.08884">
        <ele>1095</ele>
        <time>2013-01-12T11:08:14Z</time>
      </trkpt>
      <trkpt lat="45.57791" lon="6.08882">
        <ele>1095</ele>
        <time>2013-01-12T11:08:17Z</time>
      </trkpt>
      <trkpt lat="45.57799" lon="6.08884">
        <ele>1095</ele>
        <time>2013-01-12T11:08:19Z</time>
      </trkpt>
      <trkpt lat="45.57806" lon="6.08885">
        <ele>1095</ele>
        <time>2013-01-12T11:08:21Z</time>
      </trkpt>
      <trkpt lat="45.57817" lon="6.08887">
        <ele>1092</ele>
        <time>2013-01-12T11:08:24Z</time>
      </trkpt>
      <trkpt lat="45.57828" lon="6.08889">
        <ele>1089</ele>
        <time>2013-01-12T11:08:27Z</time>
      </trkpt>
      <trkpt lat="45.57836" lon="6.08889">
        <ele>1087</ele>
        <time>2013-01-12T11:08:29Z</time>
      </trkpt>
      <trkpt lat="45.57848" lon="6.08889">
        <ele>1085</ele>
        <time>2013-01-12T11:08:32Z</time>
      </trkpt>
      <trkpt lat="45.57857" lon="6.08886">
        <ele>1084</ele>
        <time>2013-01-12T11:08:34Z</time>
      </trkpt>
      <trkpt lat="45.57868" lon="6.0888">
        <ele>1084</ele>
        <time>2013-01-12T11:08:37Z</time>
      </trkpt>
      <trkpt lat="45.57875" lon="6.08874">
        <ele>1084</ele>
        <time>2013-01-12T11:08:39Z</time>
      </trkpt>
      <trkpt lat="45.57887" lon="6.08862">
        <ele>1084</ele>
        <time>2013-01-12T11:08:42Z</time>
      </trkpt>
      <trkpt lat="45.57893" lon="6.08856">
        <ele>1084</ele>
        <time>2013-01-12T11:08:44Z</time>
      </trkpt>
      <trkpt lat="45.57901" lon="6.08852">
        <ele>1084</ele>
        <time>2013-01-12T11:08:47Z</time>
      </trkpt>
      <trkpt lat="45.57911" lon="6.0885">
        <ele>1084</ele>
        <time>2013-01-12T11:08:50Z</time>
      </trkpt>
      <trkpt lat="45.57919" lon="6.0885">
        <ele>1084</ele>
        <time>2013-01-12T11:08:53Z</time>
      </trkpt>
      <trkpt lat="45.57924" lon="6.08851">
        <ele>1084</ele>
        <time>2013-01-12T11:08:55Z</time>
      </trkpt>
      <trkpt lat="45.57935" lon="6.08857">
        <ele>1084</ele>
        <time>2013-01-12T11:08:58Z</time>
      </trkpt>
      <trkpt lat="45.57943" lon="6.08859">
        <ele>1084</ele>
        <time>2013-01-12T11:09:00Z</time>
      </trkpt>
      <trkpt lat="45.5795" lon="6.08863">
        <ele>1084</ele>
        <time>2013-01-12T11:09:03Z</time>
      </trkpt>
      <trkpt lat="45.57953" lon="6.08865">
        <ele>1084</ele>
        <time>2013-01-12T11:09:05Z</time>
      </trkpt>
      <trkpt lat="45.57962" lon="6.08862">
        <ele>1082</ele>
        <time>2013-01-12T11:09:09Z</time>
      </trkpt>
      <trkpt lat="45.57965" lon="6.08861">
        <ele>1080</ele>
        <time>2013-01-12T11:09:11Z</time>
      </trkpt>
      <trkpt lat="45.5797" lon="6.0886">
        <ele>1078</ele>
        <time>2013-01-12T11:09:13Z</time>
      </trkpt>
      <trkpt lat="45.57977" lon="6.08857">
        <ele>1076</ele>
        <time>2013-01-12T11:09:15Z</time>
      </trkpt>
      <trkpt lat="45.57984" lon="6.08852">
        <ele>1073</ele>
        <time>2013-01-12T11:09:18Z</time>
      </trkpt>
      <trkpt lat="45.57989" lon="6.08852">
        <ele>1071</ele>
        <time>2013-01-12T11:09:20Z</time>
      </trkpt>
      <trkpt lat="45.57996" lon="6.08853">
        <ele>1069</ele>
        <time>2013-01-12T11:09:22Z</time>
      </trkpt>
      <trkpt lat="45.58004" lon="6.08853">
        <ele>1067</ele>
        <time>2013-01-12T11:09:24Z</time>
      </trkpt>
      <trkpt lat="45.58012" lon="6.08853">
        <ele>1065</ele>
        <time>2013-01-12T11:09:26Z</time>
      </trkpt>
      <trkpt lat="45.5802" lon="6.08857">
        <ele>1062</ele>
        <time>2013-01-12T11:09:29Z</time>
      </trkpt>
      <trkpt lat="45.58027" lon="6.08857">
        <ele>1060</ele>
        <time>2013-01-12T11:09:31Z</time>
      </trkpt>
      <trkpt lat="45.5804" lon="6.08853">
        <ele>1057</ele>
        <time>2013-01-12T11:09:34Z</time>
      </trkpt>
      <trkpt lat="45.58047" lon="6.08848">
        <ele>1057</ele>
        <time>2013-01-12T11:09:36Z</time>
      </trkpt>
      <trkpt lat="45.58059" lon="6.08842">
        <ele>1057</ele>
        <time>2013-01-12T11:09:39Z</time>
      </trkpt>
      <trkpt lat="45.58067" lon="6.08838">
        <ele>1056</ele>
        <time>2013-01-12T11:09:41Z</time>
      </trkpt>
      <trkpt lat="45.58081" lon="6.08832">
        <ele>1055</ele>
        <time>2013-01-12T11:09:44Z</time>
      </trkpt>
      <trkpt lat="45.5809" lon="6.08827">
        <ele>1054</ele>
        <time>2013-01-12T11:09:46Z</time>
      </trkpt>
      <trkpt lat="45.58103" lon="6.08827">
        <ele>1053</ele>
        <time>2013-01-12T11:09:49Z</time>
      </trkpt>
      <trkpt lat="45.5811" lon="6.08831">
        <ele>1053</ele>
        <time>2013-01-12T11:09:51Z</time>
      </trkpt>
      <trkpt lat="45.58121" lon="6.08838">
        <ele>1050</ele>
        <time>2013-01-12T11:09:54Z</time>
      </trkpt>
      <trkpt lat="45.58127" lon="6.08845">
        <ele>1049</ele>
        <time>2013-01-12T11:09:56Z</time>
      </trkpt>
      <trkpt lat="45.58133" lon="6.08857">
        <ele>1046</ele>
        <time>2013-01-12T11:09:59Z</time>
      </trkpt>
      <trkpt lat="45.58133" lon="6.08869">
        <ele>1044</ele>
        <time>2013-01-12T11:10:01Z</time>
      </trkpt>
      <trkpt lat="45.58131" lon="6.08887">
        <ele>1041</ele>
        <time>2013-01-12T11:10:04Z</time>
      </trkpt>
      <trkpt lat="45.58128" lon="6.08898">
        <ele>1039</ele>
        <time>2013-01-12T11:10:06Z</time>
      </trkpt>
      <trkpt lat="45.58123" lon="6.08917">
        <ele>1038</ele>
        <time>2013-01-12T11:10:09Z</time>
      </trkpt>
      <trkpt lat="45.58121" lon="6.0893">
        <ele>1037</ele>
        <time>2013-01-12T11:10:11Z</time>
      </trkpt>
      <trkpt lat="45.5812" lon="6.08944">
        <ele>1037</ele>
        <time>2013-01-12T11:10:13Z</time>
      </trkpt>
      <trkpt lat="45.58122" lon="6.08965">
        <ele>1037</ele>
        <time>2013-01-12T11:10:16Z</time>
      </trkpt>
      <trkpt lat="45.58135" lon="6.08974">
        <ele>1037</ele>
        <time>2013-01-12T11:10:19Z</time>
      </trkpt>
      <trkpt lat="45.5814" lon="6.08982">
        <ele>1037</ele>
        <time>2013-01-12T11:10:21Z</time>
      </trkpt>
      <trkpt lat="45.58149" lon="6.08991">
        <ele>1037</ele>
        <time>2013-01-12T11:10:24Z</time>
      </trkpt>
      <trkpt lat="45.58156" lon="6.08998">
        <ele>1037</ele>
        <time>2013-01-12T11:10:26Z</time>
      </trkpt>
      <trkpt lat="45.58163" lon="6.09013">
        <ele>1037</ele>
        <time>2013-01-12T11:10:29Z</time>
      </trkpt>
      <trkpt lat="45.58169" lon="6.09022">
        <ele>1036</ele>
        <time>2013-01-12T11:10:31Z</time>
      </trkpt>
      <trkpt lat="45.58175" lon="6.09031">
        <ele>1035</ele>
        <time>2013-01-12T11:10:33Z</time>
      </trkpt>
      <trkpt lat="45.58182" lon="6.09039">
        <ele>1035</ele>
        <time>2013-01-12T11:10:35Z</time>
      </trkpt>
      <trkpt lat="45.58192" lon="6.09044">
        <ele>1034</ele>
        <time>2013-01-12T11:10:37Z</time>
      </trkpt>
      <trkpt lat="45.58208" lon="6.09048">
        <ele>1033</ele>
        <time>2013-01-12T11:10:40Z</time>
      </trkpt>
      <trkpt lat="45.58217" lon="6.09052">
        <ele>1033</ele>
        <time>2013-01-12T11:10:42Z</time>
      </trkpt>
      <trkpt lat="45.58226" lon="6.09055">
        <ele>1033</ele>
        <time>2013-01-12T11:10:44Z</time>
      </trkpt>
      <trkpt lat="45.58237" lon="6.09058">
        <ele>1033</ele>
        <time>2013-01-12T11:10:46Z</time>
      </trkpt>
      <trkpt lat="45.58246" lon="6.09063">
        <ele>1033</ele>
        <time>2013-01-12T11:10:48Z</time>
      </trkpt>
      <trkpt lat="45.58254" lon="6.09068">
        <ele>1034</ele>
        <time>2013-01-12T11:10:50Z</time>
      </trkpt>
      <trkpt lat="45.58262" lon="6.09073">
        <ele>1036</ele>
        <time>2013-01-12T11:10:52Z</time>
      </trkpt>
      <trkpt lat="45.58273" lon="6.0908">
        <ele>1039</ele>
        <time>2013-01-12T11:10:55Z</time>
      </trkpt>
      <trkpt lat="45.58282" lon="6.09085">
        <ele>1041</ele>
        <time>2013-01-12T11:10:57Z</time>
      </trkpt>
      <trkpt lat="45.58292" lon="6.09088">
        <ele>1043</ele>
        <time>2013-01-12T11:10:59Z</time>
      </trkpt>
      <trkpt lat="45.58302" lon="6.09091">
        <ele>1045</ele>
        <time>2013-01-12T11:11:01Z</time>
      </trkpt>
      <trkpt lat="45.58312" lon="6.09094">
        <ele>1047</ele>
        <time>2013-01-12T11:11:03Z</time>
      </trkpt>
      <trkpt lat="45.58318" lon="6.09097">
        <ele>1049</ele>
        <time>2013-01-12T11:11:05Z</time>
      </trkpt>
      <trkpt lat="45.58326" lon="6.09101">
        <ele>1051</ele>
        <time>2013-01-12T11:11:07Z</time>
      </trkpt>
      <trkpt lat="45.58336" lon="6.09105">
        <ele>1052</ele>
        <time>2013-01-12T11:11:10Z</time>
      </trkpt>
      <trkpt lat="45.58343" lon="6.09109">
        <ele>1052</ele>
        <time>2013-01-12T11:11:12Z</time>
      </trkpt>
      <trkpt lat="45.58353" lon="6.09113">
        <ele>1052</ele>
        <time>2013-01-12T11:11:15Z</time>
      </trkpt>
      <trkpt lat="45.5836" lon="6.09116">
        <ele>1052</ele>
        <time>2013-01-12T11:11:17Z</time>
      </trkpt>
      <trkpt lat="45.58369" lon="6.09121">
        <ele>1052</ele>
        <time>2013-01-12T11:11:20Z</time>
      </trkpt>
      <trkpt lat="45.58376" lon="6.09125">
        <ele>1052</ele>
        <time>2013-01-12T11:11:22Z</time>
      </trkpt>
      <trkpt lat="45.58383" lon="6.09126">
        <ele>1050</ele>
        <time>2013-01-12T11:11:25Z</time>
      </trkpt>
      <trkpt lat="45.58387" lon="6.09122">
        <ele>1048</ele>
        <time>2013-01-12T11:11:27Z</time>
      </trkpt>
      <trkpt lat="45.58393" lon="6.09116">
        <ele>1045</ele>
        <time>2013-01-12T11:11:30Z</time>
      </trkpt>
      <trkpt lat="45.58394" lon="6.09112">
        <ele>1043</ele>
        <time>2013-01-12T11:11:32Z</time>
      </trkpt>
      <trkpt lat="45.58398" lon="6.09108">
        <ele>1038</ele>
        <time>2013-01-12T11:11:35Z</time>
      </trkpt>
      <trkpt lat="45.58401" lon="6.0911">
        <ele>1032</ele>
        <time>2013-01-12T11:11:38Z</time>
      </trkpt>
      <trkpt lat="45.58405" lon="6.09114">
        <ele>1025</ele>
        <time>2013-01-12T11:11:41Z</time>
      </trkpt>
      <trkpt lat="45.58407" lon="6.09117">
        <ele>1021</ele>
        <time>2013-01-12T11:11:43Z</time>
      </trkpt>
      <trkpt lat="45.5841" lon="6.09121">
        <ele>1017</ele>
        <time>2013-01-12T11:11:45Z</time>
      </trkpt>
      <trkpt lat="45.58413" lon="6.09124">
        <ele>1013</ele>
        <time>2013-01-12T11:11:47Z</time>
      </trkpt>
      <trkpt lat="45.58419" lon="6.09126">
        <ele>1009</ele>
        <time>2013-01-12T11:11:49Z</time>
      </trkpt>
      <trkpt lat="45.58425" lon="6.09128">
        <ele>1006</ele>
        <time>2013-01-12T11:11:51Z</time>
      </trkpt>
      <trkpt lat="45.5843" lon="6.09131">
        <ele>1004</ele>
        <time>2013-01-12T11:11:53Z</time>
      </trkpt>
      <trkpt lat="45.58435" lon="6.09134">
        <ele>1004</ele>
        <time>2013-01-12T11:11:55Z</time>
      </trkpt>
      <trkpt lat="45.58439" lon="6.09137">
        <ele>1004</ele>
        <time>2013-01-12T11:11:57Z</time>
      </trkpt>
      <trkpt lat="45.58445" lon="6.09139">
        <ele>1004</ele>
        <time>2013-01-12T11:11:59Z</time>
      </trkpt>
      <trkpt lat="45.58451" lon="6.0914">
        <ele>1004</ele>
        <time>2013-01-12T11:12:01Z</time>
      </trkpt>
      <trkpt lat="45.58456" lon="6.09142">
        <ele>1005</ele>
        <time>2013-01-12T11:12:03Z</time>
      </trkpt>
      <trkpt lat="45.58458" lon="6.09145">
        <ele>1006</ele>
        <time>2013-01-12T11:12:05Z</time>
      </trkpt>
      <trkpt lat="45.58462" lon="6.09147">
        <ele>1006</ele>
        <time>2013-01-12T11:12:07Z</time>
      </trkpt>
      <trkpt lat="45.58464" lon="6.0915">
        <ele>1006</ele>
        <time>2013-01-12T11:12:09Z</time>
      </trkpt>
      <trkpt lat="45.58465" lon="6.09152">
        <ele>1006</ele>
        <time>2013-01-12T11:12:11Z</time>
      </trkpt>
      <trkpt lat="45.58469" lon="6.09155">
        <ele>1006</ele>
        <time>2013-01-12T11:12:13Z</time>
      </trkpt>
      <trkpt lat="45.58472" lon="6.0916">
        <ele>1006</ele>
        <time>2013-01-12T11:12:17Z</time>
      </trkpt>
      <trkpt lat="45.58475" lon="6.09162">
        <ele>1006</ele>
        <time>2013-01-12T11:12:20Z</time>
      </trkpt>
      <trkpt lat="45.58476" lon="6.09162">
        <ele>1006</ele>
        <time>2013-01-12T11:12:22Z</time>
      </trkpt>
      <trkpt lat="45.58477" lon="6.09164">
        <ele>1006</ele>
        <time>2013-01-12T11:12:24Z</time>
      </trkpt>
      <trkpt lat="45.58481" lon="6.09166">
        <ele>1006</ele>
        <time>2013-01-12T11:12:26Z</time>
      </trkpt>
      <trkpt lat="45.58484" lon="6.09167">
        <ele>1006</ele>
        <time>2013-01-12T11:12:28Z</time>
      </trkpt>
      <trkpt lat="45.58485" lon="6.09171">
        <ele>1006</ele>
        <time>2013-01-12T11:12:31Z</time>
      </trkpt>
      <trkpt lat="45.58486" lon="6.09173">
        <ele>1006</ele>
        <time>2013-01-12T11:12:33Z</time>
      </trkpt>
      <trkpt lat="45.58489" lon="6.09177">
        <ele>1006</ele>
        <time>2013-01-12T11:12:35Z</time>
      </trkpt>
      <trkpt lat="45.58489" lon="6.09181">
        <ele>1006</ele>
        <time>2013-01-12T11:12:37Z</time>
      </trkpt>
      <trkpt lat="45.58492" lon="6.09183">
        <ele>1006</ele>
        <time>2013-01-12T11:12:39Z</time>
      </trkpt>
      <trkpt lat="45.58495" lon="6.09186">
        <ele>1006</ele>
        <time>2013-01-12T11:12:41Z</time>
      </trkpt>
      <trkpt lat="45.58498" lon="6.09186">
        <ele>1010</ele>
        <time>2013-01-12T11:12:52Z</time>
      </trkpt>
      <trkpt lat="45.58495" lon="6.09189">
        <ele>1010</ele>
        <time>2013-01-12T11:12:55Z</time>
      </trkpt>
      <trkpt lat="45.58493" lon="6.09191">
        <ele>1010</ele>
        <time>2013-01-12T11:12:57Z</time>
      </trkpt>
      <trkpt lat="45.58498" lon="6.0919">
        <ele>1008</ele>
        <time>2013-01-12T11:13:00Z</time>
      </trkpt>
      <trkpt lat="45.58502" lon="6.09189">
        <ele>1010</ele>
        <time>2013-01-12T11:13:06Z</time>
      </trkpt>
      <trkpt lat="45.58503" lon="6.09188">
        <ele>1017</ele>
        <time>2013-01-12T11:13:09Z</time>
      </trkpt>
      <trkpt lat="45.585" lon="6.09188">
        <ele>1017</ele>
        <time>2013-01-12T11:13:14Z</time>
      </trkpt>
      <trkpt lat="45.58495" lon="6.0919">
        <ele>1014</ele>
        <time>2013-01-12T11:13:17Z</time>
      </trkpt>
      <trkpt lat="45.58497" lon="6.09189">
        <ele>1006</ele>
        <time>2013-01-12T11:13:22Z</time>
      </trkpt>
      <trkpt lat="45.58503" lon="6.09191">
        <ele>998</ele>
        <time>2013-01-12T11:13:25Z</time>
      </trkpt>
      <trkpt lat="45.58505" lon="6.09193">
        <ele>999</ele>
        <time>2013-01-12T11:13:27Z</time>
      </trkpt>
      <trkpt lat="45.58509" lon="6.09195">
        <ele>1001</ele>
        <time>2013-01-12T11:13:29Z</time>
      </trkpt>
      <trkpt lat="45.58513" lon="6.09196">
        <ele>1003</ele>
        <time>2013-01-12T11:13:31Z</time>
      </trkpt>
      <trkpt lat="45.58517" lon="6.09199">
        <ele>1006</ele>
        <time>2013-01-12T11:13:34Z</time>
      </trkpt>
      <trkpt lat="45.58518" lon="6.09202">
        <ele>1008</ele>
        <time>2013-01-12T11:13:36Z</time>
      </trkpt>
      <trkpt lat="45.58517" lon="6.09206">
        <ele>1010</ele>
        <time>2013-01-12T11:13:38Z</time>
      </trkpt>
      <trkpt lat="45.58516" lon="6.09209">
        <ele>1011</ele>
        <time>2013-01-12T11:13:40Z</time>
      </trkpt>
      <trkpt lat="45.58517" lon="6.09212">
        <ele>1011</ele>
        <time>2013-01-12T11:13:42Z</time>
      </trkpt>
      <trkpt lat="45.58519" lon="6.09217">
        <ele>1010</ele>
        <time>2013-01-12T11:13:45Z</time>
      </trkpt>
      <trkpt lat="45.5852" lon="6.0922">
        <ele>1009</ele>
        <time>2013-01-12T11:13:47Z</time>
      </trkpt>
      <trkpt lat="45.58522" lon="6.09226">
        <ele>1007</ele>
        <time>2013-01-12T11:13:51Z</time>
      </trkpt>
      <trkpt lat="45.58524" lon="6.09229">
        <ele>1007</ele>
        <time>2013-01-12T11:13:53Z</time>
      </trkpt>
      <trkpt lat="45.58525" lon="6.09234">
        <ele>1006</ele>
        <time>2013-01-12T11:13:56Z</time>
      </trkpt>
      <trkpt lat="45.58527" lon="6.09237">
        <ele>1005</ele>
        <time>2013-01-12T11:13:58Z</time>
      </trkpt>
      <trkpt lat="45.58529" lon="6.09241">
        <ele>1004</ele>
        <time>2013-01-12T11:14:01Z</time>
      </trkpt>
      <trkpt lat="45.58532" lon="6.09244">
        <ele>1003</ele>
        <time>2013-01-12T11:14:03Z</time>
      </trkpt>
      <trkpt lat="45.58533" lon="6.09248">
        <ele>1003</ele>
        <time>2013-01-12T11:14:05Z</time>
      </trkpt>
      <trkpt lat="45.58535" lon="6.09251">
        <ele>1003</ele>
        <time>2013-01-12T11:14:07Z</time>
      </trkpt>
      <trkpt lat="45.58536" lon="6.09257">
        <ele>1003</ele>
        <time>2013-01-12T11:14:10Z</time>
      </trkpt>
      <trkpt lat="45.58538" lon="6.09261">
        <ele>1003</ele>
        <time>2013-01-12T11:14:12Z</time>
      </trkpt>
      <trkpt lat="45.5854" lon="6.09267">
        <ele>1003</ele>
        <time>2013-01-12T11:14:15Z</time>
      </trkpt>
      <trkpt lat="45.58541" lon="6.0927">
        <ele>1003</ele>
        <time>2013-01-12T11:14:17Z</time>
      </trkpt>
      <trkpt lat="45.58542" lon="6.09274">
        <ele>1002</ele>
        <time>2013-01-12T11:14:19Z</time>
      </trkpt>
      <trkpt lat="45.58544" lon="6.09277">
        <ele>1002</ele>
        <time>2013-01-12T11:14:21Z</time>
      </trkpt>
      <trkpt lat="45.58546" lon="6.0928">
        <ele>1002</ele>
        <time>2013-01-12T11:14:23Z</time>
      </trkpt>
      <trkpt lat="45.58551" lon="6.09286">
        <ele>1002</ele>
        <time>2013-01-12T11:14:27Z</time>
      </trkpt>
      <trkpt lat="45.58553" lon="6.0929">
        <ele>1002</ele>
        <time>2013-01-12T11:14:30Z</time>
      </trkpt>
      <trkpt lat="45.58557" lon="6.09293">
        <ele>1002</ele>
        <time>2013-01-12T11:14:33Z</time>
      </trkpt>
      <trkpt lat="45.58561" lon="6.09296">
        <ele>1002</ele>
        <time>2013-01-12T11:14:36Z</time>
      </trkpt>
      <trkpt lat="45.58566" lon="6.09296">
        <ele>1002</ele>
        <time>2013-01-12T11:14:38Z</time>
      </trkpt>
      <trkpt lat="45.58572" lon="6.09298">
        <ele>1002</ele>
        <time>2013-01-12T11:14:42Z</time>
      </trkpt>
      <trkpt lat="45.58575" lon="6.09299">
        <ele>1002</ele>
        <time>2013-01-12T11:14:44Z</time>
      </trkpt>
      <trkpt lat="45.58578" lon="6.09299">
        <ele>1002</ele>
        <time>2013-01-12T11:14:46Z</time>
      </trkpt>
      <trkpt lat="45.5858" lon="6.093">
        <ele>1002</ele>
        <time>2013-01-12T11:14:48Z</time>
      </trkpt>
      <trkpt lat="45.58585" lon="6.09299">
        <ele>1002</ele>
        <time>2013-01-12T11:14:52Z</time>
      </trkpt>
      <trkpt lat="45.58589" lon="6.09299">
        <ele>1002</ele>
        <time>2013-01-12T11:14:54Z</time>
      </trkpt>
      <trkpt lat="45.58596" lon="6.09298">
        <ele>1003</ele>
        <time>2013-01-12T11:14:56Z</time>
      </trkpt>
      <trkpt lat="45.586" lon="6.09297">
        <ele>1005</ele>
        <time>2013-01-12T11:14:58Z</time>
      </trkpt>
      <trkpt lat="45.58604" lon="6.09298">
        <ele>1008</ele>
        <time>2013-01-12T11:15:01Z</time>
      </trkpt>
      <trkpt lat="45.58605" lon="6.09298">
        <ele>1008</ele>
        <time>2013-01-12T11:15:03Z</time>
      </trkpt>
      <trkpt lat="45.5861" lon="6.09299">
        <ele>1008</ele>
        <time>2013-01-12T11:15:07Z</time>
      </trkpt>
      <trkpt lat="45.58612" lon="6.09299">
        <ele>1008</ele>
        <time>2013-01-12T11:15:09Z</time>
      </trkpt>
      <trkpt lat="45.58618" lon="6.09299">
        <ele>1008</ele>
        <time>2013-01-12T11:15:12Z</time>
      </trkpt>
      <trkpt lat="45.5862" lon="6.093">
        <ele>1008</ele>
        <time>2013-01-12T11:15:15Z</time>
      </trkpt>
      <trkpt lat="45.58624" lon="6.09302">
        <ele>1007</ele>
        <time>2013-01-12T11:15:18Z</time>
      </trkpt>
      <trkpt lat="45.58628" lon="6.09301">
        <ele>1007</ele>
        <time>2013-01-12T11:15:20Z</time>
      </trkpt>
      <trkpt lat="45.58634" lon="6.09301">
        <ele>1007</ele>
        <time>2013-01-12T11:15:23Z</time>
      </trkpt>
      <trkpt lat="45.58637" lon="6.09303">
        <ele>1007</ele>
        <time>2013-01-12T11:15:26Z</time>
      </trkpt>
      <trkpt lat="45.58639" lon="6.09304">
        <ele>1007</ele>
        <time>2013-01-12T11:15:29Z</time>
      </trkpt>
      <trkpt lat="45.58643" lon="6.09303">
        <ele>1007</ele>
        <time>2013-01-12T11:15:31Z</time>
      </trkpt>
      <trkpt lat="45.58647" lon="6.09303">
        <ele>1007</ele>
        <time>2013-01-12T11:15:34Z</time>
      </trkpt>
      <trkpt lat="45.5865" lon="6.09302">
        <ele>1007</ele>
        <time>2013-01-12T11:15:36Z</time>
      </trkpt>
      <trkpt lat="45.58657" lon="6.09301">
        <ele>1007</ele>
        <time>2013-01-12T11:15:39Z</time>
      </trkpt>
      <trkpt lat="45.58662" lon="6.09301">
        <ele>1008</ele>
        <time>2013-01-12T11:15:41Z</time>
      </trkpt>
      <trkpt lat="45.58664" lon="6.09302">
        <ele>1009</ele>
        <time>2013-01-12T11:15:45Z</time>
      </trkpt>
      <trkpt lat="45.58665" lon="6.09304">
        <ele>1009</ele>
        <time>2013-01-12T11:15:48Z</time>
      </trkpt>
      <trkpt lat="45.58668" lon="6.09305">
        <ele>1005</ele>
        <time>2013-01-12T11:15:52Z</time>
      </trkpt>
      <trkpt lat="45.58671" lon="6.09304">
        <ele>1003</ele>
        <time>2013-01-12T11:15:54Z</time>
      </trkpt>
      <trkpt lat="45.58674" lon="6.09304">
        <ele>1002</ele>
        <time>2013-01-12T11:15:57Z</time>
      </trkpt>
      <trkpt lat="45.58678" lon="6.09303">
        <ele>1002</ele>
        <time>2013-01-12T11:15:59Z</time>
      </trkpt>
      <trkpt lat="45.58681" lon="6.09302">
        <ele>1002</ele>
        <time>2013-01-12T11:16:01Z</time>
      </trkpt>
      <trkpt lat="45.58686" lon="6.093">
        <ele>1002</ele>
        <time>2013-01-12T11:16:03Z</time>
      </trkpt>
      <trkpt lat="45.5869" lon="6.09298">
        <ele>1002</ele>
        <time>2013-01-12T11:16:06Z</time>
      </trkpt>
      <trkpt lat="45.58693" lon="6.09296">
        <ele>1002</ele>
        <time>2013-01-12T11:16:08Z</time>
      </trkpt>
      <trkpt lat="45.58699" lon="6.09293">
        <ele>1004</ele>
        <time>2013-01-12T11:16:11Z</time>
      </trkpt>
      <trkpt lat="45.58699" lon="6.09291">
        <ele>1004</ele>
        <time>2013-01-12T11:16:15Z</time>
      </trkpt>
      <trkpt lat="45.58701" lon="6.09289">
        <ele>1004</ele>
        <time>2013-01-12T11:16:19Z</time>
      </trkpt>
      <trkpt lat="45.58703" lon="6.09288">
        <ele>1002</ele>
        <time>2013-01-12T11:16:21Z</time>
      </trkpt>
      <trkpt lat="45.58707" lon="6.09284">
        <ele>1000</ele>
        <time>2013-01-12T11:16:25Z</time>
      </trkpt>
      <trkpt lat="45.58709" lon="6.09282">
        <ele>999</ele>
        <time>2013-01-12T11:16:27Z</time>
      </trkpt>
      <trkpt lat="45.58713" lon="6.09279">
        <ele>997</ele>
        <time>2013-01-12T11:16:31Z</time>
      </trkpt>
      <trkpt lat="45.58715" lon="6.09278">
        <ele>996</ele>
        <time>2013-01-12T11:16:33Z</time>
      </trkpt>
      <trkpt lat="45.58718" lon="6.09276">
        <ele>995</ele>
        <time>2013-01-12T11:16:36Z</time>
      </trkpt>
      <trkpt lat="45.5872" lon="6.09272">
        <ele>993</ele>
        <time>2013-01-12T11:16:39Z</time>
      </trkpt>
      <trkpt lat="45.5873" lon="6.09268">
        <ele>993</ele>
        <time>2013-01-12T11:16:42Z</time>
      </trkpt>
      <trkpt lat="45.58733" lon="6.09265">
        <ele>994</ele>
        <time>2013-01-12T11:16:44Z</time>
      </trkpt>
      <trkpt lat="45.58736" lon="6.09264">
        <ele>996</ele>
        <time>2013-01-12T11:16:46Z</time>
      </trkpt>
      <trkpt lat="45.58739" lon="6.09264">
        <ele>998</ele>
        <time>2013-01-12T11:16:48Z</time>
      </trkpt>
      <trkpt lat="45.58742" lon="6.09264">
        <ele>999</ele>
        <time>2013-01-12T11:16:51Z</time>
      </trkpt>
      <trkpt lat="45.58743" lon="6.09265">
        <ele>999</ele>
        <time>2013-01-12T11:16:54Z</time>
      </trkpt>
      <trkpt lat="45.58749" lon="6.09265">
        <ele>999</ele>
        <time>2013-01-12T11:16:57Z</time>
      </trkpt>
      <trkpt lat="45.58753" lon="6.09265">
        <ele>999</ele>
        <time>2013-01-12T11:16:59Z</time>
      </trkpt>
      <trkpt lat="45.58757" lon="6.09266">
        <ele>999</ele>
        <time>2013-01-12T11:17:02Z</time>
      </trkpt>
      <trkpt lat="45.58758" lon="6.09267">
        <ele>999</ele>
        <time>2013-01-12T11:17:04Z</time>
      </trkpt>
      <trkpt lat="45.58761" lon="6.09268">
        <ele>999</ele>
        <time>2013-01-12T11:17:07Z</time>
      </trkpt>
      <trkpt lat="45.58763" lon="6.09269">
        <ele>999</ele>
        <time>2013-01-12T11:17:09Z</time>
      </trkpt>
      <trkpt lat="45.58767" lon="6.09271">
        <ele>999</ele>
        <time>2013-01-12T11:17:12Z</time>
      </trkpt>
      <trkpt lat="45.58773" lon="6.09273">
        <ele>999</ele>
        <time>2013-01-12T11:17:14Z</time>
      </trkpt>
      <trkpt lat="45.58779" lon="6.09276">
        <ele>999</ele>
        <time>2013-01-12T11:17:17Z</time>
      </trkpt>
      <trkpt lat="45.5878" lon="6.09278">
        <ele>999</ele>
        <time>2013-01-12T11:17:19Z</time>
      </trkpt>
      <trkpt lat="45.58785" lon="6.0928">
        <ele>999</ele>
        <time>2013-01-12T11:17:22Z</time>
      </trkpt>
      <trkpt lat="45.58789" lon="6.09282">
        <ele>999</ele>
        <time>2013-01-12T11:17:24Z</time>
      </trkpt>
      <trkpt lat="45.58791" lon="6.09283">
        <ele>999</ele>
        <time>2013-01-12T11:17:27Z</time>
      </trkpt>
      <trkpt lat="45.58794" lon="6.09284">
        <ele>999</ele>
        <time>2013-01-12T11:17:32Z</time>
      </trkpt>
      <trkpt lat="45.58796" lon="6.09283">
        <ele>999</ele>
        <time>2013-01-12T11:17:35Z</time>
      </trkpt>
      <trkpt lat="45.58799" lon="6.09283">
        <ele>999</ele>
        <time>2013-01-12T11:17:37Z</time>
      </trkpt>
      <trkpt lat="45.58802" lon="6.09281">
        <ele>999</ele>
        <time>2013-01-12T11:17:40Z</time>
      </trkpt>
      <trkpt lat="45.58805" lon="6.09281">
        <ele>999</ele>
        <time>2013-01-12T11:17:42Z</time>
      </trkpt>
      <trkpt lat="45.5881" lon="6.0928">
        <ele>999</ele>
        <time>2013-01-12T11:17:45Z</time>
      </trkpt>
      <trkpt lat="45.58813" lon="6.09281">
        <ele>999</ele>
        <time>2013-01-12T11:17:47Z</time>
      </trkpt>
      <trkpt lat="45.58816" lon="6.09283">
        <ele>1001</ele>
        <time>2013-01-12T11:17:51Z</time>
      </trkpt>
      <trkpt lat="45.58817" lon="6.09281">
        <ele>1002</ele>
        <time>2013-01-12T11:17:53Z</time>
      </trkpt>
      <trkpt lat="45.58818" lon="6.09281">
        <ele>1004</ele>
        <time>2013-01-12T11:17:56Z</time>
      </trkpt>
      <trkpt lat="45.5882" lon="6.09283">
        <ele>1005</ele>
        <time>2013-01-12T11:17:58Z</time>
      </trkpt>
      <trkpt lat="45.58826" lon="6.09284">
        <ele>1006</ele>
        <time>2013-01-12T11:18:01Z</time>
      </trkpt>
      <trkpt lat="45.58832" lon="6.09284">
        <ele>1006</ele>
        <time>2013-01-12T11:18:03Z</time>
      </trkpt>
      <trkpt lat="45.58835" lon="6.09284">
        <ele>1006</ele>
        <time>2013-01-12T11:18:06Z</time>
      </trkpt>
      <trkpt lat="45.58839" lon="6.09285">
        <ele>1006</ele>
        <time>2013-01-12T11:18:08Z</time>
      </trkpt>
      <trkpt lat="45.58843" lon="6.09285">
        <ele>1006</ele>
        <time>2013-01-12T11:18:10Z</time>
      </trkpt>
      <trkpt lat="45.58848" lon="6.09287">
        <ele>1006</ele>
        <time>2013-01-12T11:18:12Z</time>
      </trkpt>
      <trkpt lat="45.58852" lon="6.09288">
        <ele>1006</ele>
        <time>2013-01-12T11:18:14Z</time>
      </trkpt>
      <trkpt lat="45.58856" lon="6.09291">
        <ele>1006</ele>
        <time>2013-01-12T11:18:16Z</time>
      </trkpt>
      <trkpt lat="45.58857" lon="6.09296">
        <ele>1006</ele>
        <time>2013-01-12T11:18:18Z</time>
      </trkpt>
      <trkpt lat="45.58857" lon="6.09301">
        <ele>1006</ele>
        <time>2013-01-12T11:18:21Z</time>
      </trkpt>
      <trkpt lat="45.58859" lon="6.09305">
        <ele>1006</ele>
        <time>2013-01-12T11:18:23Z</time>
      </trkpt>
      <trkpt lat="45.58863" lon="6.09309">
        <ele>1006</ele>
        <time>2013-01-12T11:18:26Z</time>
      </trkpt>
      <trkpt lat="45.58863" lon="6.09313">
        <ele>1006</ele>
        <time>2013-01-12T11:18:29Z</time>
      </trkpt>
      <trkpt lat="45.58865" lon="6.09317">
        <ele>1006</ele>
        <time>2013-01-12T11:18:32Z</time>
      </trkpt>
      <trkpt lat="45.58868" lon="6.09319">
        <ele>1006</ele>
        <time>2013-01-12T11:18:34Z</time>
      </trkpt>
      <trkpt lat="45.58876" lon="6.09321">
        <ele>1006</ele>
        <time>2013-01-12T11:18:37Z</time>
      </trkpt>
      <trkpt lat="45.58877" lon="6.09323">
        <ele>1006</ele>
        <time>2013-01-12T11:18:39Z</time>
      </trkpt>
      <trkpt lat="45.58878" lon="6.09326">
        <ele>1006</ele>
        <time>2013-01-12T11:18:41Z</time>
      </trkpt>
      <trkpt lat="45.58879" lon="6.09328">
        <ele>1005</ele>
        <time>2013-01-12T11:18:43Z</time>
      </trkpt>
      <trkpt lat="45.58881" lon="6.09331">
        <ele>1003</ele>
        <time>2013-01-12T11:18:46Z</time>
      </trkpt>
      <trkpt lat="45.58883" lon="6.09334">
        <ele>1001</ele>
        <time>2013-01-12T11:18:48Z</time>
      </trkpt>
      <trkpt lat="45.58886" lon="6.09337">
        <ele>1001</ele>
        <time>2013-01-12T11:18:51Z</time>
      </trkpt>
      <trkpt lat="45.58889" lon="6.09339">
        <ele>1001</ele>
        <time>2013-01-12T11:18:53Z</time>
      </trkpt>
      <trkpt lat="45.58891" lon="6.09342">
        <ele>1001</ele>
        <time>2013-01-12T11:18:56Z</time>
      </trkpt>
      <trkpt lat="45.58893" lon="6.09344">
        <ele>1001</ele>
        <time>2013-01-12T11:18:58Z</time>
      </trkpt>
      <trkpt lat="45.58896" lon="6.09346">
        <ele>1001</ele>
        <time>2013-01-12T11:19:00Z</time>
      </trkpt>
      <trkpt lat="45.58899" lon="6.09349">
        <ele>1001</ele>
        <time>2013-01-12T11:19:02Z</time>
      </trkpt>
      <trkpt lat="45.58902" lon="6.09353">
        <ele>1001</ele>
        <time>2013-01-12T11:19:04Z</time>
      </trkpt>
      <trkpt lat="45.58903" lon="6.09356">
        <ele>1001</ele>
        <time>2013-01-12T11:19:06Z</time>
      </trkpt>
      <trkpt lat="45.58905" lon="6.09359">
        <ele>1001</ele>
        <time>2013-01-12T11:19:08Z</time>
      </trkpt>
      <trkpt lat="45.58907" lon="6.09362">
        <ele>1001</ele>
        <time>2013-01-12T11:19:10Z</time>
      </trkpt>
      <trkpt lat="45.58909" lon="6.09365">
        <ele>1001</ele>
        <time>2013-01-12T11:19:12Z</time>
      </trkpt>
      <trkpt lat="45.58911" lon="6.09369">
        <ele>1001</ele>
        <time>2013-01-12T11:19:15Z</time>
      </trkpt>
      <trkpt lat="45.58912" lon="6.09371">
        <ele>1001</ele>
        <time>2013-01-12T11:19:17Z</time>
      </trkpt>
      <trkpt lat="45.58913" lon="6.09373">
        <ele>1001</ele>
        <time>2013-01-12T11:19:19Z</time>
      </trkpt>
      <trkpt lat="45.58914" lon="6.09375">
        <ele>1000</ele>
        <time>2013-01-12T11:19:21Z</time>
      </trkpt>
      <trkpt lat="45.58916" lon="6.0938">
        <ele>997</ele>
        <time>2013-01-12T11:19:25Z</time>
      </trkpt>
      <trkpt lat="45.58918" lon="6.09382">
        <ele>996</ele>
        <time>2013-01-12T11:19:27Z</time>
      </trkpt>
      <trkpt lat="45.58923" lon="6.09386">
        <ele>996</ele>
        <time>2013-01-12T11:19:30Z</time>
      </trkpt>
      <trkpt lat="45.58926" lon="6.09388">
        <ele>996</ele>
        <time>2013-01-12T11:19:32Z</time>
      </trkpt>
      <trkpt lat="45.58927" lon="6.0939">
        <ele>995</ele>
        <time>2013-01-12T11:19:34Z</time>
      </trkpt>
      <trkpt lat="45.5893" lon="6.09392">
        <ele>994</ele>
        <time>2013-01-12T11:19:36Z</time>
      </trkpt>
      <trkpt lat="45.58931" lon="6.09394">
        <ele>994</ele>
        <time>2013-01-12T11:19:38Z</time>
      </trkpt>
      <trkpt lat="45.58932" lon="6.09396">
        <ele>993</ele>
        <time>2013-01-12T11:19:40Z</time>
      </trkpt>
      <trkpt lat="45.58934" lon="6.09398">
        <ele>992</ele>
        <time>2013-01-12T11:19:42Z</time>
      </trkpt>
      <trkpt lat="45.58937" lon="6.09401">
        <ele>991</ele>
        <time>2013-01-12T11:19:45Z</time>
      </trkpt>
      <trkpt lat="45.58939" lon="6.09403">
        <ele>991</ele>
        <time>2013-01-12T11:19:47Z</time>
      </trkpt>
      <trkpt lat="45.58941" lon="6.09405">
        <ele>990</ele>
        <time>2013-01-12T11:19:49Z</time>
      </trkpt>
      <trkpt lat="45.58944" lon="6.09408">
        <ele>990</ele>
        <time>2013-01-12T11:19:52Z</time>
      </trkpt>
      <trkpt lat="45.58947" lon="6.09409">
        <ele>990</ele>
        <time>2013-01-12T11:19:54Z</time>
      </trkpt>
      <trkpt lat="45.5895" lon="6.09411">
        <ele>990</ele>
        <time>2013-01-12T11:19:57Z</time>
      </trkpt>
      <trkpt lat="45.58953" lon="6.09413">
        <ele>990</ele>
        <time>2013-01-12T11:20:00Z</time>
      </trkpt>
      <trkpt lat="45.58958" lon="6.09415">
        <ele>990</ele>
        <time>2013-01-12T11:20:03Z</time>
      </trkpt>
      <trkpt lat="45.5896" lon="6.09416">
        <ele>990</ele>
        <time>2013-01-12T11:20:05Z</time>
      </trkpt>
      <trkpt lat="45.58963" lon="6.09416">
        <ele>990</ele>
        <time>2013-01-12T11:20:07Z</time>
      </trkpt>
      <trkpt lat="45.58966" lon="6.09417">
        <ele>990</ele>
        <time>2013-01-12T11:20:09Z</time>
      </trkpt>
      <trkpt lat="45.58968" lon="6.09417">
        <ele>990</ele>
        <time>2013-01-12T11:20:11Z</time>
      </trkpt>
      <trkpt lat="45.58971" lon="6.09418">
        <ele>989</ele>
        <time>2013-01-12T11:20:13Z</time>
      </trkpt>
      <trkpt lat="45.58973" lon="6.09418">
        <ele>989</ele>
        <time>2013-01-12T11:20:15Z</time>
      </trkpt>
      <trkpt lat="45.58976" lon="6.09417">
        <ele>988</ele>
        <time>2013-01-12T11:20:18Z</time>
      </trkpt>
      <trkpt lat="45.58979" lon="6.09417">
        <ele>988</ele>
        <time>2013-01-12T11:20:20Z</time>
      </trkpt>
      <trkpt lat="45.58981" lon="6.09415">
        <ele>988</ele>
        <time>2013-01-12T11:20:22Z</time>
      </trkpt>
      <trkpt lat="45.58984" lon="6.09414">
        <ele>988</ele>
        <time>2013-01-12T11:20:24Z</time>
      </trkpt>
      <trkpt lat="45.58986" lon="6.09412">
        <ele>988</ele>
        <time>2013-01-12T11:20:26Z</time>
      </trkpt>
      <trkpt lat="45.58989" lon="6.09411">
        <ele>988</ele>
        <time>2013-01-12T11:20:28Z</time>
      </trkpt>
      <trkpt lat="45.58991" lon="6.0941">
        <ele>988</ele>
        <time>2013-01-12T11:20:30Z</time>
      </trkpt>
      <trkpt lat="45.58994" lon="6.09409">
        <ele>988</ele>
        <time>2013-01-12T11:20:32Z</time>
      </trkpt>
      <trkpt lat="45.58996" lon="6.09407">
        <ele>988</ele>
        <time>2013-01-12T11:20:34Z</time>
      </trkpt>
      <trkpt lat="45.58998" lon="6.09405">
        <ele>988</ele>
        <time>2013-01-12T11:20:36Z</time>
      </trkpt>
      <trkpt lat="45.59002" lon="6.09403">
        <ele>988</ele>
        <time>2013-01-12T11:20:39Z</time>
      </trkpt>
      <trkpt lat="45.59004" lon="6.09401">
        <ele>988</ele>
        <time>2013-01-12T11:20:41Z</time>
      </trkpt>
      <trkpt lat="45.59006" lon="6.094">
        <ele>988</ele>
        <time>2013-01-12T11:20:43Z</time>
      </trkpt>
      <trkpt lat="45.59009" lon="6.09399">
        <ele>988</ele>
        <time>2013-01-12T11:20:45Z</time>
      </trkpt>
      <trkpt lat="45.59012" lon="6.09397">
        <ele>988</ele>
        <time>2013-01-12T11:20:47Z</time>
      </trkpt>
      <trkpt lat="45.59014" lon="6.09397">
        <ele>988</ele>
        <time>2013-01-12T11:20:49Z</time>
      </trkpt>
      <trkpt lat="45.59016" lon="6.09396">
        <ele>988</ele>
        <time>2013-01-12T11:20:51Z</time>
      </trkpt>
      <trkpt lat="45.59021" lon="6.09395">
        <ele>988</ele>
        <time>2013-01-12T11:20:54Z</time>
      </trkpt>
      <trkpt lat="45.59025" lon="6.09396">
        <ele>988</ele>
        <time>2013-01-12T11:20:56Z</time>
      </trkpt>
      <trkpt lat="45.59028" lon="6.09396">
        <ele>988</ele>
        <time>2013-01-12T11:20:58Z</time>
      </trkpt>
      <trkpt lat="45.59031" lon="6.09397">
        <ele>988</ele>
        <time>2013-01-12T11:21:00Z</time>
      </trkpt>
      <trkpt lat="45.59035" lon="6.09398">
        <ele>988</ele>
        <time>2013-01-12T11:21:02Z</time>
      </trkpt>
      <trkpt lat="45.59039" lon="6.09401">
        <ele>988</ele>
        <time>2013-01-12T11:21:04Z</time>
      </trkpt>
      <trkpt lat="45.59042" lon="6.09403">
        <ele>988</ele>
        <time>2013-01-12T11:21:06Z</time>
      </trkpt>
      <trkpt lat="45.59045" lon="6.09406">
        <ele>988</ele>
        <time>2013-01-12T11:21:08Z</time>
      </trkpt>
      <trkpt lat="45.59047" lon="6.09408">
        <ele>988</ele>
        <time>2013-01-12T11:21:10Z</time>
      </trkpt>
      <trkpt lat="45.59048" lon="6.0941">
        <ele>988</ele>
        <time>2013-01-12T11:21:12Z</time>
      </trkpt>
      <trkpt lat="45.59051" lon="6.09411">
        <ele>988</ele>
        <time>2013-01-12T11:21:14Z</time>
      </trkpt>
      <trkpt lat="45.59055" lon="6.09414">
        <ele>988</ele>
        <time>2013-01-12T11:21:16Z</time>
      </trkpt>
      <trkpt lat="45.59058" lon="6.09416">
        <ele>988</ele>
        <time>2013-01-12T11:21:18Z</time>
      </trkpt>
      <trkpt lat="45.59061" lon="6.09418">
        <ele>988</ele>
        <time>2013-01-12T11:21:20Z</time>
      </trkpt>
      <trkpt lat="45.59063" lon="6.09421">
        <ele>988</ele>
        <time>2013-01-12T11:21:22Z</time>
      </trkpt>
      <trkpt lat="45.59065" lon="6.09423">
        <ele>988</ele>
        <time>2013-01-12T11:21:24Z</time>
      </trkpt>
      <trkpt lat="45.59067" lon="6.09425">
        <ele>988</ele>
        <time>2013-01-12T11:21:26Z</time>
      </trkpt>
      <trkpt lat="45.5907" lon="6.09427">
        <ele>987</ele>
        <time>2013-01-12T11:21:28Z</time>
      </trkpt>
      <trkpt lat="45.59072" lon="6.09429">
        <ele>987</ele>
        <time>2013-01-12T11:21:30Z</time>
      </trkpt>
      <trkpt lat="45.59074" lon="6.09431">
        <ele>987</ele>
        <time>2013-01-12T11:21:32Z</time>
      </trkpt>
      <trkpt lat="45.59076" lon="6.09434">
        <ele>986</ele>
        <time>2013-01-12T11:21:34Z</time>
      </trkpt>
      <trkpt lat="45.59079" lon="6.09435">
        <ele>986</ele>
        <time>2013-01-12T11:21:36Z</time>
      </trkpt>
      <trkpt lat="45.59082" lon="6.09436">
        <ele>986</ele>
        <time>2013-01-12T11:21:38Z</time>
      </trkpt>
      <trkpt lat="45.59085" lon="6.09438">
        <ele>986</ele>
        <time>2013-01-12T11:21:41Z</time>
      </trkpt>
      <trkpt lat="45.59087" lon="6.09439">
        <ele>986</ele>
        <time>2013-01-12T11:21:43Z</time>
      </trkpt>
      <trkpt lat="45.59089" lon="6.09441">
        <ele>985</ele>
        <time>2013-01-12T11:21:45Z</time>
      </trkpt>
      <trkpt lat="45.59091" lon="6.09442">
        <ele>985</ele>
        <time>2013-01-12T11:21:47Z</time>
      </trkpt>
      <trkpt lat="45.59093" lon="6.09445">
        <ele>985</ele>
        <time>2013-01-12T11:21:49Z</time>
      </trkpt>
      <trkpt lat="45.59097" lon="6.09447">
        <ele>985</ele>
        <time>2013-01-12T11:21:52Z</time>
      </trkpt>
      <trkpt lat="45.591" lon="6.09449">
        <ele>985</ele>
        <time>2013-01-12T11:21:54Z</time>
      </trkpt>
      <trkpt lat="45.59103" lon="6.09451">
        <ele>985</ele>
        <time>2013-01-12T11:21:56Z</time>
      </trkpt>
      <trkpt lat="45.59105" lon="6.09455">
        <ele>985</ele>
        <time>2013-01-12T11:21:59Z</time>
      </trkpt>
      <trkpt lat="45.59107" lon="6.09457">
        <ele>985</ele>
        <time>2013-01-12T11:22:01Z</time>
      </trkpt>
      <trkpt lat="45.59109" lon="6.09458">
        <ele>985</ele>
        <time>2013-01-12T11:22:03Z</time>
      </trkpt>
      <trkpt lat="45.59112" lon="6.0946">
        <ele>985</ele>
        <time>2013-01-12T11:22:05Z</time>
      </trkpt>
      <trkpt lat="45.59114" lon="6.09461">
        <ele>985</ele>
        <time>2013-01-12T11:22:07Z</time>
      </trkpt>
      <trkpt lat="45.59116" lon="6.09463">
        <ele>985</ele>
        <time>2013-01-12T11:22:09Z</time>
      </trkpt>
      <trkpt lat="45.59119" lon="6.09465">
        <ele>985</ele>
        <time>2013-01-12T11:22:11Z</time>
      </trkpt>
      <trkpt lat="45.59121" lon="6.09466">
        <ele>985</ele>
        <time>2013-01-12T11:22:13Z</time>
      </trkpt>
      <trkpt lat="45.59124" lon="6.09468">
        <ele>985</ele>
        <time>2013-01-12T11:22:15Z</time>
      </trkpt>
      <trkpt lat="45.59126" lon="6.0947">
        <ele>985</ele>
        <time>2013-01-12T11:22:17Z</time>
      </trkpt>
      <trkpt lat="45.59129" lon="6.09472">
        <ele>985</ele>
        <time>2013-01-12T11:22:20Z</time>
      </trkpt>
      <trkpt lat="45.59132" lon="6.09475">
        <ele>985</ele>
        <time>2013-01-12T11:22:22Z</time>
      </trkpt>
      <trkpt lat="45.59135" lon="6.09477">
        <ele>985</ele>
        <time>2013-01-12T11:22:24Z</time>
      </trkpt>
      <trkpt lat="45.59136" lon="6.09479">
        <ele>985</ele>
        <time>2013-01-12T11:22:26Z</time>
      </trkpt>
      <trkpt lat="45.59138" lon="6.0948">
        <ele>985</ele>
        <time>2013-01-12T11:22:28Z</time>
      </trkpt>
      <trkpt lat="45.59141" lon="6.09482">
        <ele>985</ele>
        <time>2013-01-12T11:22:30Z</time>
      </trkpt>
      <trkpt lat="45.59142" lon="6.09483">
        <ele>985</ele>
        <time>2013-01-12T11:22:32Z</time>
      </trkpt>
      <trkpt lat="45.59144" lon="6.09485">
        <ele>985</ele>
        <time>2013-01-12T11:22:34Z</time>
      </trkpt>
      <trkpt lat="45.59146" lon="6.09487">
        <ele>985</ele>
        <time>2013-01-12T11:22:36Z</time>
      </trkpt>
      <trkpt lat="45.59148" lon="6.09489">
        <ele>984</ele>
        <time>2013-01-12T11:22:38Z</time>
      </trkpt>
      <trkpt lat="45.5915" lon="6.09491">
        <ele>984</ele>
        <time>2013-01-12T11:22:40Z</time>
      </trkpt>
      <trkpt lat="45.59153" lon="6.09493">
        <ele>984</ele>
        <time>2013-01-12T11:22:42Z</time>
      </trkpt>
      <trkpt lat="45.59155" lon="6.09494">
        <ele>984</ele>
        <time>2013-01-12T11:22:44Z</time>
      </trkpt>
      <trkpt lat="45.59157" lon="6.09496">
        <ele>984</ele>
        <time>2013-01-12T11:22:46Z</time>
      </trkpt>
      <trkpt lat="45.59158" lon="6.09498">
        <ele>984</ele>
        <time>2013-01-12T11:22:48Z</time>
      </trkpt>
      <trkpt lat="45.59159" lon="6.095">
        <ele>984</ele>
        <time>2013-01-12T11:22:50Z</time>
      </trkpt>
      <trkpt lat="45.59161" lon="6.09503">
        <ele>984</ele>
        <time>2013-01-12T11:22:52Z</time>
      </trkpt>
      <trkpt lat="45.59163" lon="6.09505">
        <ele>984</ele>
        <time>2013-01-12T11:22:54Z</time>
      </trkpt>
      <trkpt lat="45.59166" lon="6.09509">
        <ele>984</ele>
        <time>2013-01-12T11:22:58Z</time>
      </trkpt>
      <trkpt lat="45.59167" lon="6.0951">
        <ele>984</ele>
        <time>2013-01-12T11:23:00Z</time>
      </trkpt>
      <trkpt lat="45.59169" lon="6.0951">
        <ele>984</ele>
        <time>2013-01-12T11:23:02Z</time>
      </trkpt>
      <trkpt lat="45.59172" lon="6.09511">
        <ele>984</ele>
        <time>2013-01-12T11:23:05Z</time>
      </trkpt>
      <trkpt lat="45.59172" lon="6.09513">
        <ele>984</ele>
        <time>2013-01-12T11:23:08Z</time>
      </trkpt>
      <trkpt lat="45.59173" lon="6.09515">
        <ele>984</ele>
        <time>2013-01-12T11:23:10Z</time>
      </trkpt>
      <trkpt lat="45.59173" lon="6.09516">
        <ele>984</ele>
        <time>2013-01-12T11:23:12Z</time>
      </trkpt>
      <trkpt lat="45.59172" lon="6.09518">
        <ele>983</ele>
        <time>2013-01-12T11:23:17Z</time>
      </trkpt>
      <trkpt lat="45.59174" lon="6.09515">
        <ele>975</ele>
        <time>2013-01-12T11:23:26Z</time>
      </trkpt>
    </trkseg>
  </trk>
</gpx>